<?xml version='1.0' encoding='UTF-8'?><gpx version="1.1" creator="JPX - https://github.com/jenetics/jpx" xmlns="http://www.topografix.com/GPX/1/1"><trk><trkseg><trkpt lat="45.51757150842249" lon="9.872332028285419"><ele>131.0</ele><time>2026-04-06T15:47:08.999Z</time></trkpt><trkpt lat="45.51750579924018" lon="9.872384419207133"><ele>131.0</ele><time>2026-04-06T15:47:10.999Z</time></trkpt><trkpt lat="45.5174803272511" lon="9.872503647159924"><ele>131.0</ele><time>2026-04-06T15:47:12.999Z</time></trkpt><trkpt lat="45.51745745151517" lon="9.872623612020181"><ele>131.0</ele><time>2026-04-06T15:47:14.999Z</time></trkpt><trkpt lat="45.51737669489852" lon="9.872704979576685"><ele>131.0</ele><time>2026-04-06T15:47:16.999Z</time></trkpt><trkpt lat="45.51730464096013" lon="9.872734796698396"><ele>131.0</ele><time>2026-04-06T15:47:17.999Z</time></trkpt><trkpt lat="45.51721392765624" lon="9.872757777840256"><ele>131.0</ele><time>2026-04-06T15:47:18.999Z</time></trkpt><trkpt lat="45.517113045548115" lon="9.872785028313306"><ele>131.0</ele><time>2026-04-06T15:47:19.999Z</time></trkpt><trkpt lat="45.517015100359984" lon="9.872821611573626"><ele>131.0</ele><time>2026-04-06T15:47:20.999Z</time></trkpt><trkpt lat="45.5169115796207" lon="9.872861950018713"><ele>131.0</ele><time>2026-04-06T15:47:21.999Z</time></trkpt><trkpt lat="45.51679777045772" lon="9.872899851226972"><ele>131.0</ele><time>2026-04-06T15:47:22.999Z</time></trkpt><trkpt lat="45.51668081403357" lon="9.87293519574217"><ele>131.0</ele><time>2026-04-06T15:47:23.999Z</time></trkpt><trkpt lat="45.516562039147956" lon="9.872970451947305"><ele>131.0</ele><time>2026-04-06T15:47:24.999Z</time></trkpt><trkpt lat="45.51644300270993" lon="9.873003091402452"><ele>131.0</ele><time>2026-04-06T15:47:25.999Z</time></trkpt><trkpt lat="45.51632760501446" lon="9.873047359921133"><ele>131.0</ele><time>2026-04-06T15:47:26.999Z</time></trkpt><trkpt lat="45.51621223087948" lon="9.873084378480401"><ele>130.75</ele><time>2026-04-06T15:47:27.999Z</time></trkpt><trkpt lat="45.516097446170726" lon="9.873122924661606"><ele>130.5</ele><time>2026-04-06T15:47:28.999Z</time></trkpt><trkpt lat="45.51597628350369" lon="9.873161562239085"><ele>130.25</ele><time>2026-04-06T15:47:29.999Z</time></trkpt><trkpt lat="45.51585062071188" lon="9.873200570503737"><ele>130.0</ele><time>2026-04-06T15:47:30.999Z</time></trkpt><trkpt lat="45.51571529045626" lon="9.87324720760435"><ele>130.0</ele><time>2026-04-06T15:47:31.999Z</time></trkpt><trkpt lat="45.51557636791722" lon="9.873302035206372"><ele>130.0</ele><time>2026-04-06T15:47:32.999Z</time></trkpt><trkpt lat="45.515438600048455" lon="9.873359109134505"><ele>130.0</ele><time>2026-04-06T15:47:33.999Z</time></trkpt><trkpt lat="45.51529874476511" lon="9.873406921471238"><ele>130.0</ele><time>2026-04-06T15:47:34.999Z</time></trkpt><trkpt lat="45.51515343969969" lon="9.873457631913718"><ele>129.66666666666669</ele><time>2026-04-06T15:47:35.999Z</time></trkpt><trkpt lat="45.515005339995106" lon="9.873510698405916"><ele>129.33333333333334</ele><time>2026-04-06T15:47:36.999Z</time></trkpt><trkpt lat="45.514859212619335" lon="9.873570803652747"><ele>129.0</ele><time>2026-04-06T15:47:37.999Z</time></trkpt><trkpt lat="45.514708053102176" lon="9.873603618376096"><ele>129.0</ele><time>2026-04-06T15:47:38.999Z</time></trkpt><trkpt lat="45.51455656246748" lon="9.873648949189356"><ele>129.0</ele><time>2026-04-06T15:47:39.999Z</time></trkpt><trkpt lat="45.51440204373443" lon="9.873714171993884"><ele>129.0</ele><time>2026-04-06T15:47:40.999Z</time></trkpt><trkpt lat="45.51424305222236" lon="9.873762828486235"><ele>129.0</ele><time>2026-04-06T15:47:41.999Z</time></trkpt><trkpt lat="45.514085346783766" lon="9.873803897738808"><ele>129.0</ele><time>2026-04-06T15:47:42.999Z</time></trkpt><trkpt lat="45.51392831839622" lon="9.873846242346229"><ele>129.0</ele><time>2026-04-06T15:47:43.999Z</time></trkpt><trkpt lat="45.51377343526388" lon="9.873887156214867"><ele>129.25</ele><time>2026-04-06T15:47:44.999Z</time></trkpt><trkpt lat="45.513623630674275" lon="9.873922548865357"><ele>129.5</ele><time>2026-04-06T15:47:45.999Z</time></trkpt><trkpt lat="45.513484655379955" lon="9.873953688773193"><ele>129.75</ele><time>2026-04-06T15:47:46.999Z</time></trkpt><trkpt lat="45.51335014446831" lon="9.873991868555482"><ele>130.0</ele><time>2026-04-06T15:47:47.999Z</time></trkpt><trkpt lat="45.51321862379581" lon="9.874033377635506"><ele>130.0</ele><time>2026-04-06T15:47:48.999Z</time></trkpt><trkpt lat="45.51309660970172" lon="9.874070329324734"><ele>130.0</ele><time>2026-04-06T15:47:49.999Z</time></trkpt><trkpt lat="45.512984900045474" lon="9.874094932560878"><ele>130.0</ele><time>2026-04-06T15:47:50.999Z</time></trkpt><trkpt lat="45.51288667399871" lon="9.87411582062445"><ele>130.0</ele><time>2026-04-06T15:47:51.999Z</time></trkpt><trkpt lat="45.51279707361531" lon="9.874128649438406"><ele>130.0</ele><time>2026-04-06T15:47:52.999Z</time></trkpt><trkpt lat="45.51271942748212" lon="9.874119107027756"><ele>129.83333333333334</ele><time>2026-04-06T15:47:53.999Z</time></trkpt><trkpt lat="45.51265020882464" lon="9.87406591089297"><ele>129.66666666666669</ele><time>2026-04-06T15:47:54.999Z</time></trkpt><trkpt lat="45.51259602446516" lon="9.873996117143946"><ele>129.5</ele><time>2026-04-06T15:47:55.999Z</time></trkpt><trkpt lat="45.512518613789595" lon="9.873969441204094"><ele>129.33333333333334</ele><time>2026-04-06T15:47:56.999Z</time></trkpt><trkpt lat="45.512434550176735" lon="9.874000470954362"><ele>129.16666666666666</ele><time>2026-04-06T15:47:57.999Z</time></trkpt><trkpt lat="45.51235594388043" lon="9.874080902955903"><ele>129.0</ele><time>2026-04-06T15:47:58.999Z</time></trkpt><trkpt lat="45.51230062085182" lon="9.874174481950062"><ele>129.0</ele><time>2026-04-06T15:47:59.999Z</time></trkpt><trkpt lat="45.512271318276426" lon="9.874279797557136"><ele>129.0</ele><time>2026-04-06T15:48:00.999Z</time></trkpt><trkpt lat="45.51227796261322" lon="9.874373184795713"><ele>129.0</ele><time>2026-04-06T15:48:01.999Z</time></trkpt><trkpt lat="45.51230935335539" lon="9.874474432471594"><ele>129.0</ele><time>2026-04-06T15:48:02.999Z</time></trkpt><trkpt lat="45.5123622405323" lon="9.874559955256935"><ele>129.0</ele><time>2026-04-06T15:48:03.999Z</time></trkpt><trkpt lat="45.512405121655" lon="9.874653928449867"><ele>129.0</ele><time>2026-04-06T15:48:04.999Z</time></trkpt><trkpt lat="45.5123292590798" lon="9.874823884001676"><ele>129.0</ele><time>2026-04-06T15:48:05.999Z</time></trkpt><trkpt lat="45.512266132882864" lon="9.875011263370828"><ele>129.0</ele><time>2026-04-06T15:48:06.999Z</time></trkpt><trkpt lat="45.51221730122873" lon="9.875152109307738"><ele>129.0</ele><time>2026-04-06T15:48:07.999Z</time></trkpt><trkpt lat="45.51218114726082" lon="9.875298041584282"><ele>129.0</ele><time>2026-04-06T15:48:08.999Z</time></trkpt><trkpt lat="45.5121405533973" lon="9.875459671845277"><ele>128.75</ele><time>2026-04-06T15:48:09.999Z</time></trkpt><trkpt lat="45.512088542348536" lon="9.875632405559363"><ele>128.5</ele><time>2026-04-06T15:48:10.999Z</time></trkpt><trkpt lat="45.51203238628303" lon="9.875816880251502"><ele>128.25</ele><time>2026-04-06T15:48:11.999Z</time></trkpt><trkpt lat="45.5119763188124" lon="9.876015701185603"><ele>128.0</ele><time>2026-04-06T15:48:12.999Z</time></trkpt><trkpt lat="45.5119240377599" lon="9.87622236117867"><ele>128.0</ele><time>2026-04-06T15:48:13.999Z</time></trkpt><trkpt lat="45.511868283576014" lon="9.876426813904944"><ele>128.0</ele><time>2026-04-06T15:48:14.999Z</time></trkpt><trkpt lat="45.51181062756247" lon="9.876634947414352"><ele>128.0</ele><time>2026-04-06T15:48:15.999Z</time></trkpt><trkpt lat="45.51174970761271" lon="9.876839960684293"><ele>128.33333333333331</ele><time>2026-04-06T15:48:16.999Z</time></trkpt><trkpt lat="45.51169113817644" lon="9.877044813740188"><ele>128.66666666666666</ele><time>2026-04-06T15:48:17.999Z</time></trkpt><trkpt lat="45.51163354742067" lon="9.877253317883072"><ele>129.0</ele><time>2026-04-06T15:48:18.999Z</time></trkpt><trkpt lat="45.51157175114593" lon="9.877460268695865"><ele>129.0</ele><time>2026-04-06T15:48:19.999Z</time></trkpt><trkpt lat="45.51151872587274" lon="9.877675498297778"><ele>129.0</ele><time>2026-04-06T15:48:20.999Z</time></trkpt><trkpt lat="45.511461630729066" lon="9.877887346718433"><ele>129.0</ele><time>2026-04-06T15:48:21.999Z</time></trkpt><trkpt lat="45.51139012977562" lon="9.878107322845644"><ele>129.0</ele><time>2026-04-06T15:48:22.999Z</time></trkpt><trkpt lat="45.5113198486998" lon="9.87831592903875"><ele>129.0</ele><time>2026-04-06T15:48:23.999Z</time></trkpt><trkpt lat="45.511240932295216" lon="9.878522708892516"><ele>129.0</ele><time>2026-04-06T15:48:24.999Z</time></trkpt><trkpt lat="45.511145948406764" lon="9.878715117926507"><ele>128.33333333333334</ele><time>2026-04-06T15:48:25.999Z</time></trkpt><trkpt lat="45.51104572573976" lon="9.878911115377047"><ele>127.66666666666667</ele><time>2026-04-06T15:48:26.999Z</time></trkpt><trkpt lat="45.510944209755685" lon="9.879113896927171"><ele>127.0</ele><time>2026-04-06T15:48:27.999Z</time></trkpt><trkpt lat="45.51084147272112" lon="9.879303725530846"><ele>126.66666666666667</ele><time>2026-04-06T15:48:28.999Z</time></trkpt><trkpt lat="45.51073720616451" lon="9.879489961803586"><ele>126.33333333333334</ele><time>2026-04-06T15:48:29.999Z</time></trkpt><trkpt lat="45.51063295833562" lon="9.879672901831912"><ele>126.0</ele><time>2026-04-06T15:48:30.999Z</time></trkpt><trkpt lat="45.51053263846593" lon="9.879856319877751"><ele>126.0</ele><time>2026-04-06T15:48:31.999Z</time></trkpt><trkpt lat="45.510440494676914" lon="9.880028208563493"><ele>126.0</ele><time>2026-04-06T15:48:32.999Z</time></trkpt><trkpt lat="45.510352129564865" lon="9.880198255109022"><ele>126.0</ele><time>2026-04-06T15:48:33.999Z</time></trkpt><trkpt lat="45.51027023913152" lon="9.880353605764197"><ele>126.0</ele><time>2026-04-06T15:48:34.999Z</time></trkpt><trkpt lat="45.51019570691673" lon="9.880501749623473"><ele>126.19999999999999</ele><time>2026-04-06T15:48:35.999Z</time></trkpt><trkpt lat="45.510132328819665" lon="9.880628858915138"><ele>126.39999999999999</ele><time>2026-04-06T15:48:36.999Z</time></trkpt><trkpt lat="45.51006691550576" lon="9.880739477209667"><ele>126.6</ele><time>2026-04-06T15:48:37.999Z</time></trkpt><trkpt lat="45.50999777082242" lon="9.880823697499501"><ele>126.8</ele><time>2026-04-06T15:48:38.999Z</time></trkpt><trkpt lat="45.509917179223756" lon="9.880873889806987"><ele>127.0</ele><time>2026-04-06T15:48:39.999Z</time></trkpt><trkpt lat="45.50982675271096" lon="9.880899812669542"><ele>127.0</ele><time>2026-04-06T15:48:40.999Z</time></trkpt><trkpt lat="45.5097287240969" lon="9.880952634625379"><ele>126.99999999999999</ele><time>2026-04-06T15:48:41.999Z</time></trkpt><trkpt lat="45.50963117234831" lon="9.880979322201657"><ele>126.99999999999999</ele><time>2026-04-06T15:48:42.999Z</time></trkpt><trkpt lat="45.50953034114443" lon="9.880992181142256"><ele>127.0</ele><time>2026-04-06T15:48:43.999Z</time></trkpt><trkpt lat="45.509428641923726" lon="9.880976163526874"><ele>127.0</ele><time>2026-04-06T15:48:44.999Z</time></trkpt><trkpt lat="45.50932113705943" lon="9.880930797998912"><ele>126.75</ele><time>2026-04-06T15:48:45.999Z</time></trkpt><trkpt lat="45.50920126294323" lon="9.880888140315607"><ele>126.5</ele><time>2026-04-06T15:48:46.999Z</time></trkpt><trkpt lat="45.5090876680754" lon="9.88084914491795"><ele>126.25</ele><time>2026-04-06T15:48:47.999Z</time></trkpt><trkpt lat="45.50897502283393" lon="9.880792714267372"><ele>126.0</ele><time>2026-04-06T15:48:48.999Z</time></trkpt><trkpt lat="45.50885146884569" lon="9.88072471953699"><ele>125.75</ele><time>2026-04-06T15:48:49.999Z</time></trkpt><trkpt lat="45.50871673694396" lon="9.880667431445145"><ele>125.5</ele><time>2026-04-06T15:48:50.999Z</time></trkpt><trkpt lat="45.50857705953635" lon="9.880599449311028"><ele>125.25</ele><time>2026-04-06T15:48:51.999Z</time></trkpt><trkpt lat="45.50844445666507" lon="9.880506994788918"><ele>125.0</ele><time>2026-04-06T15:48:52.999Z</time></trkpt><trkpt lat="45.50831375366156" lon="9.88038800257907"><ele>125.0</ele><time>2026-04-06T15:48:53.999Z</time></trkpt><trkpt lat="45.508187371305304" lon="9.880246260895989"><ele>125.0</ele><time>2026-04-06T15:48:54.999Z</time></trkpt><trkpt lat="45.50806530815815" lon="9.88008127924823"><ele>125.0</ele><time>2026-04-06T15:48:55.999Z</time></trkpt><trkpt lat="45.50795505521188" lon="9.879899448214285"><ele>124.66666666666666</ele><time>2026-04-06T15:48:56.999Z</time></trkpt><trkpt lat="45.50785658780728" lon="9.87970531624997"><ele>124.33333333333334</ele><time>2026-04-06T15:48:57.999Z</time></trkpt><trkpt lat="45.50776745783379" lon="9.879494115218677"><ele>124.0</ele><time>2026-04-06T15:48:58.999Z</time></trkpt><trkpt lat="45.5076846264212" lon="9.87927901855196"><ele>124.33333333333334</ele><time>2026-04-06T15:48:59.999Z</time></trkpt><trkpt lat="45.507603884292756" lon="9.879063261026555"><ele>124.66666666666666</ele><time>2026-04-06T15:49:00.999Z</time></trkpt><trkpt lat="45.50751514949489" lon="9.878852136604712"><ele>125.0</ele><time>2026-04-06T15:49:01.999Z</time></trkpt><trkpt lat="45.5074178423138" lon="9.878644650918336"><ele>125.0</ele><time>2026-04-06T15:49:02.999Z</time></trkpt><trkpt lat="45.50733350484472" lon="9.878448224173454"><ele>125.0</ele><time>2026-04-06T15:49:03.999Z</time></trkpt><trkpt lat="45.507259237051294" lon="9.87826084033578"><ele>125.0</ele><time>2026-04-06T15:49:04.999Z</time></trkpt><trkpt lat="45.50719258172589" lon="9.87808355456957"><ele>125.0</ele><time>2026-04-06T15:49:05.999Z</time></trkpt><trkpt lat="45.50713605610148" lon="9.87790604140362"><ele>125.0</ele><time>2026-04-06T15:49:06.999Z</time></trkpt><trkpt lat="45.50708750741109" lon="9.87772621101419"><ele>125.0</ele><time>2026-04-06T15:49:07.999Z</time></trkpt><trkpt lat="45.50704717220247" lon="9.877554546476736"><ele>125.0</ele><time>2026-04-06T15:49:08.999Z</time></trkpt><trkpt lat="45.50701368771946" lon="9.87738435081541"><ele>124.49999999999999</ele><time>2026-04-06T15:49:09.999Z</time></trkpt><trkpt lat="45.50698988043939" lon="9.877225244633847"><ele>124.0</ele><time>2026-04-06T15:49:10.999Z</time></trkpt><trkpt lat="45.50697152045265" lon="9.877092131176656"><ele>123.5</ele><time>2026-04-06T15:49:11.998Z</time></trkpt><trkpt lat="45.50696360482553" lon="9.876985038086914"><ele>123.0</ele><time>2026-04-06T15:49:12.998Z</time></trkpt><trkpt lat="45.506959883200196" lon="9.87688922537597"><ele>122.49999999999999</ele><time>2026-04-06T15:49:13.998Z</time></trkpt><trkpt lat="45.506962207578916" lon="9.876796383843967"><ele>122.0</ele><time>2026-04-06T15:49:14.998Z</time></trkpt><trkpt lat="45.50696612525792" lon="9.876654201858075"><ele>121.83333333333333</ele><time>2026-04-06T15:49:16.998Z</time></trkpt><trkpt lat="45.506997476363665" lon="9.876513317640649"><ele>121.66666666666666</ele><time>2026-04-06T15:49:18.998Z</time></trkpt><trkpt lat="45.50704719551801" lon="9.87645583046403"><ele>121.5</ele><time>2026-04-06T15:49:19.998Z</time></trkpt><trkpt lat="45.50709754553367" lon="9.87637158489556"><ele>121.33333333333334</ele><time>2026-04-06T15:49:20.998Z</time></trkpt><trkpt lat="45.50711470551032" lon="9.876253759757425"><ele>121.16666666666667</ele><time>2026-04-06T15:49:21.998Z</time></trkpt><trkpt lat="45.50709291429618" lon="9.876140695370982"><ele>121.0</ele><time>2026-04-06T15:49:22.998Z</time></trkpt><trkpt lat="45.50703874096557" lon="9.876032241692693"><ele>121.25</ele><time>2026-04-06T15:49:23.998Z</time></trkpt><trkpt lat="45.5069622258585" lon="9.875930785227615"><ele>121.5</ele><time>2026-04-06T15:49:24.998Z</time></trkpt><trkpt lat="45.506913879659336" lon="9.875791902291867"><ele>121.75</ele><time>2026-04-06T15:49:25.998Z</time></trkpt><trkpt lat="45.50690035517647" lon="9.875619301233332"><ele>122.0</ele><time>2026-04-06T15:49:26.998Z</time></trkpt><trkpt lat="45.50689184422304" lon="9.875440325077687"><ele>122.0</ele><time>2026-04-06T15:49:27.998Z</time></trkpt><trkpt lat="45.50687349968796" lon="9.875257126987593"><ele>122.0</ele><time>2026-04-06T15:49:28.998Z</time></trkpt><trkpt lat="45.50685975834439" lon="9.875057569087136"><ele>122.0</ele><time>2026-04-06T15:49:29.998Z</time></trkpt><trkpt lat="45.506854436632125" lon="9.8748511655214"><ele>122.0</ele><time>2026-04-06T15:49:30.999Z</time></trkpt><trkpt lat="45.50684262156236" lon="9.874637758900917"><ele>122.0</ele><time>2026-04-06T15:49:31.999Z</time></trkpt><trkpt lat="45.50681703657618" lon="9.874420597131675"><ele>122.0</ele><time>2026-04-06T15:49:32.999Z</time></trkpt><trkpt lat="45.50680368313931" lon="9.87421025147592"><ele>122.0</ele><time>2026-04-06T15:49:33.999Z</time></trkpt><trkpt lat="45.506771339477176" lon="9.874033582312807"><ele>122.0</ele><time>2026-04-06T15:49:34.999Z</time></trkpt><trkpt lat="45.50675255058863" lon="9.873843411396859"><ele>122.0</ele><time>2026-04-06T15:49:35.999Z</time></trkpt><trkpt lat="45.50673003107167" lon="9.873659591071888"><ele>122.0</ele><time>2026-04-06T15:49:36.999Z</time></trkpt><trkpt lat="45.506711504670776" lon="9.873486625310123"><ele>122.0</ele><time>2026-04-06T15:49:37.999Z</time></trkpt><trkpt lat="45.50670447672243" lon="9.873323540014773"><ele>122.0</ele><time>2026-04-06T15:49:38.999Z</time></trkpt><trkpt lat="45.50671072226429" lon="9.873147975562292"><ele>121.5</ele><time>2026-04-06T15:49:39.999Z</time></trkpt><trkpt lat="45.50673153372521" lon="9.87296274504682"><ele>121.0</ele><time>2026-04-06T15:49:40.999Z</time></trkpt><trkpt lat="45.50677056173839" lon="9.872772550141956"><ele>120.5</ele><time>2026-04-06T15:49:41.999Z</time></trkpt><trkpt lat="45.50682611535724" lon="9.872587756282767"><ele>120.0</ele><time>2026-04-06T15:49:42.999Z</time></trkpt><trkpt lat="45.50688669223488" lon="9.872391645998828"><ele>119.75</ele><time>2026-04-06T15:49:43.999Z</time></trkpt><trkpt lat="45.506944106805655" lon="9.872188443938338"><ele>119.5</ele><time>2026-04-06T15:49:44.999Z</time></trkpt><trkpt lat="45.50699183641415" lon="9.871994269396158"><ele>119.25</ele><time>2026-04-06T15:49:45.999Z</time></trkpt><trkpt lat="45.50701840310075" lon="9.871815929647395"><ele>119.0</ele><time>2026-04-06T15:49:46.999Z</time></trkpt><trkpt lat="45.50702820177026" lon="9.871636697647949"><ele>117.5</ele><time>2026-04-06T15:49:47.999Z</time></trkpt><trkpt lat="45.50701125038524" lon="9.87145262960153"><ele>116.0</ele><time>2026-04-06T15:49:48.999Z</time></trkpt><trkpt lat="45.50696643430336" lon="9.87126298367971"><ele>114.5</ele><time>2026-04-06T15:49:49.999Z</time></trkpt><trkpt lat="45.506900228093" lon="9.871081357598925"><ele>113.0</ele><time>2026-04-06T15:49:50.999Z</time></trkpt><trkpt lat="45.50683465126939" lon="9.870901956222095"><ele>112.4</ele><time>2026-04-06T15:49:51.999Z</time></trkpt><trkpt lat="45.506776833314085" lon="9.870739544754862"><ele>111.80000000000001</ele><time>2026-04-06T15:49:52.999Z</time></trkpt><trkpt lat="45.506719207820844" lon="9.870590363095635"><ele>111.2</ele><time>2026-04-06T15:49:53.999Z</time></trkpt><trkpt lat="45.50667435909117" lon="9.870460855639694"><ele>110.6</ele><time>2026-04-06T15:49:54.999Z</time></trkpt><trkpt lat="45.506636516798245" lon="9.870350020113483"><ele>110.0</ele><time>2026-04-06T15:49:55.999Z</time></trkpt><trkpt lat="45.50660717520417" lon="9.870195612953164"><ele>109.99999999999999</ele><time>2026-04-06T15:49:57.999Z</time></trkpt><trkpt lat="45.50654199096641" lon="9.870100249278416"><ele>110.0</ele><time>2026-04-06T15:49:59.999Z</time></trkpt><trkpt lat="45.506472750089394" lon="9.870080306739723"><ele>110.0</ele><time>2026-04-06T15:50:00.999Z</time></trkpt><trkpt lat="45.50639839995537" lon="9.87011483844177"><ele>110.0</ele><time>2026-04-06T15:50:01.999Z</time></trkpt><trkpt lat="45.50631567808524" lon="9.870174469516046"><ele>109.99999999999999</ele><time>2026-04-06T15:50:02.999Z</time></trkpt><trkpt lat="45.506230523802174" lon="9.87023068188363"><ele>110.0</ele><time>2026-04-06T15:50:03.999Z</time></trkpt><trkpt lat="45.50612868572399" lon="9.870250462323062"><ele>110.2</ele><time>2026-04-06T15:50:04.999Z</time></trkpt><trkpt lat="45.506041524753016" lon="9.8703037118911"><ele>110.4</ele><time>2026-04-06T15:50:05.999Z</time></trkpt><trkpt lat="45.50594029387981" lon="9.870319725572248"><ele>110.6</ele><time>2026-04-06T15:50:06.999Z</time></trkpt><trkpt lat="45.50583340580531" lon="9.87032827691224"><ele>110.8</ele><time>2026-04-06T15:50:07.999Z</time></trkpt><trkpt lat="45.505709127729176" lon="9.870337920424634"><ele>111.0</ele><time>2026-04-06T15:50:08.999Z</time></trkpt><trkpt lat="45.50556175823721" lon="9.87035011638114"><ele>111.0</ele><time>2026-04-06T15:50:10Z</time></trkpt><trkpt lat="45.505410205640494" lon="9.870378477186994"><ele>111.0</ele><time>2026-04-06T15:50:11Z</time></trkpt><trkpt lat="45.50525397227715" lon="9.870415234915622"><ele>111.0</ele><time>2026-04-06T15:50:12Z</time></trkpt><trkpt lat="45.50509965195421" lon="9.870447203037997"><ele>111.0</ele><time>2026-04-06T15:50:13Z</time></trkpt><trkpt lat="45.50495018806814" lon="9.870468928087137"><ele>111.0</ele><time>2026-04-06T15:50:14Z</time></trkpt><trkpt lat="45.50479493924885" lon="9.870499908244692"><ele>111.0</ele><time>2026-04-06T15:50:15Z</time></trkpt><trkpt lat="45.50463180253274" lon="9.870536454120336"><ele>110.66666666666666</ele><time>2026-04-06T15:50:16Z</time></trkpt><trkpt lat="45.50446180086441" lon="9.870572781747553"><ele>110.33333333333333</ele><time>2026-04-06T15:50:17Z</time></trkpt><trkpt lat="45.50428927377631" lon="9.870608739377513"><ele>110.0</ele><time>2026-04-06T15:50:18Z</time></trkpt><trkpt lat="45.50411592331079" lon="9.870644876989708"><ele>110.0</ele><time>2026-04-06T15:50:19Z</time></trkpt><trkpt lat="45.50394034226606" lon="9.870684914196218"><ele>110.0</ele><time>2026-04-06T15:50:20Z</time></trkpt><trkpt lat="45.50376860895332" lon="9.870726428549233"><ele>110.0</ele><time>2026-04-06T15:50:21Z</time></trkpt><trkpt lat="45.50359743802587" lon="9.870767103869161"><ele>110.0</ele><time>2026-04-06T15:50:22Z</time></trkpt><trkpt lat="45.50342875174089" lon="9.870800667537875"><ele>110.0</ele><time>2026-04-06T15:50:23Z</time></trkpt><trkpt lat="45.503262384484266" lon="9.870840070998744"><ele>110.0</ele><time>2026-04-06T15:50:24Z</time></trkpt><trkpt lat="45.50310608381713" lon="9.87087826880486"><ele>110.0</ele><time>2026-04-06T15:50:25Z</time></trkpt><trkpt lat="45.50297266638156" lon="9.870913483850543"><ele>110.0</ele><time>2026-04-06T15:50:26Z</time></trkpt><trkpt lat="45.50286104268853" lon="9.870941488929843"><ele>110.0</ele><time>2026-04-06T15:50:27Z</time></trkpt><trkpt lat="45.502772567507975" lon="9.870960838113172"><ele>110.0</ele><time>2026-04-06T15:50:28Z</time></trkpt><trkpt lat="45.50269644063096" lon="9.87098307385899"><ele>110.0</ele><time>2026-04-06T15:50:29Z</time></trkpt><trkpt lat="45.502621578240536" lon="9.870988399744597"><ele>110.16666666666666</ele><time>2026-04-06T15:50:30Z</time></trkpt><trkpt lat="45.50255012976081" lon="9.870950387646987"><ele>110.33333333333333</ele><time>2026-04-06T15:50:31Z</time></trkpt><trkpt lat="45.502481563720615" lon="9.870941557436376"><ele>110.5</ele><time>2026-04-06T15:50:32Z</time></trkpt><trkpt lat="45.502431165193286" lon="9.87079610330884"><ele>110.66666666666666</ele><time>2026-04-06T15:50:33Z</time></trkpt><trkpt lat="45.50239253730943" lon="9.870723239576181"><ele>110.83333333333333</ele><time>2026-04-06T15:50:34Z</time></trkpt><trkpt lat="45.50234919034056" lon="9.87063440450641"><ele>111.0</ele><time>2026-04-06T15:50:36Z</time></trkpt><trkpt lat="45.50231014448598" lon="9.870518921084376"><ele>110.66666666666667</ele><time>2026-04-06T15:50:40Z</time></trkpt><trkpt lat="45.50231363810107" lon="9.870387252910046"><ele>110.33333333333334</ele><time>2026-04-06T15:50:42Z</time></trkpt><trkpt lat="45.50234399603678" lon="9.87026575232765"><ele>110.0</ele><time>2026-04-06T15:50:44Z</time></trkpt><trkpt lat="45.50241581128425" lon="9.870156746505701"><ele>109.66666666666667</ele><time>2026-04-06T15:50:46Z</time></trkpt><trkpt lat="45.502461357161614" lon="9.870070994688925"><ele>109.33333333333334</ele><time>2026-04-06T15:50:48Z</time></trkpt><trkpt lat="45.50248056263334" lon="9.869972975851372"><ele>109.0</ele><time>2026-04-06T15:50:50Z</time></trkpt><trkpt lat="45.50244050260193" lon="9.869846569835756"><ele>108.83333333333334</ele><time>2026-04-06T15:50:52Z</time></trkpt><trkpt lat="45.50236857228341" lon="9.869770823310605"><ele>108.66666666666667</ele><time>2026-04-06T15:50:54Z</time></trkpt><trkpt lat="45.50238890416121" lon="9.869635579095483"><ele>108.5</ele><time>2026-04-06T15:50:56Z</time></trkpt><trkpt lat="45.50243301282591" lon="9.869554710584314"><ele>108.33333333333334</ele><time>2026-04-06T15:50:57Z</time></trkpt><trkpt lat="45.50248064292338" lon="9.869465519425981"><ele>108.16666666666667</ele><time>2026-04-06T15:50:58Z</time></trkpt><trkpt lat="45.50253066815549" lon="9.869364829393513"><ele>108.0</ele><time>2026-04-06T15:50:59Z</time></trkpt><trkpt lat="45.502577280487024" lon="9.869266951462162"><ele>107.83333333333333</ele><time>2026-04-06T15:51:00Z</time></trkpt><trkpt lat="45.50260626652187" lon="9.869158407886282"><ele>107.66666666666666</ele><time>2026-04-06T15:51:01Z</time></trkpt><trkpt lat="45.502606095758665" lon="9.869045459080683"><ele>107.5</ele><time>2026-04-06T15:51:02Z</time></trkpt><trkpt lat="45.50253712338654" lon="9.868966004125618"><ele>107.33333333333333</ele><time>2026-04-06T15:51:03Z</time></trkpt><trkpt lat="45.50247015845375" lon="9.86892470739936"><ele>107.16666666666666</ele><time>2026-04-06T15:51:04Z</time></trkpt><trkpt lat="45.502421670404885" lon="9.868858500139453"><ele>107.0</ele><time>2026-04-06T15:51:05Z</time></trkpt><trkpt lat="45.50236005008201" lon="9.868810280976405"><ele>106.99999999999999</ele><time>2026-04-06T15:51:06Z</time></trkpt><trkpt lat="45.502299509166015" lon="9.868731321083827"><ele>107.0</ele><time>2026-04-06T15:51:07Z</time></trkpt><trkpt lat="45.50223974167932" lon="9.868661913824505"><ele>107.0</ele><time>2026-04-06T15:51:08Z</time></trkpt><trkpt lat="45.50215226538148" lon="9.868553135791915"><ele>107.0</ele><time>2026-04-06T15:51:10Z</time></trkpt><trkpt lat="45.502076008801254" lon="9.86846302855048"><ele>106.99999999999999</ele><time>2026-04-06T15:51:12Z</time></trkpt><trkpt lat="45.50202896223916" lon="9.868399395044136"><ele>107.0</ele><time>2026-04-06T15:51:14Z</time></trkpt><trkpt lat="45.50192897836548" lon="9.868274503444216"><ele>107.0</ele><time>2026-04-06T15:51:16Z</time></trkpt><trkpt lat="45.501869755425425" lon="9.868194068549032"><ele>106.99999999999999</ele><time>2026-04-06T15:51:17Z</time></trkpt><trkpt lat="45.501807864053376" lon="9.868094200478504"><ele>106.99999999999999</ele><time>2026-04-06T15:51:17.998Z</time></trkpt><trkpt lat="45.50175645699124" lon="9.867973247526962"><ele>107.0</ele><time>2026-04-06T15:51:18.998Z</time></trkpt><trkpt lat="45.50169668206213" lon="9.867831731492172"><ele>107.0</ele><time>2026-04-06T15:51:19.998Z</time></trkpt><trkpt lat="45.50162827057806" lon="9.86768943482822"><ele>106.5</ele><time>2026-04-06T15:51:20.998Z</time></trkpt><trkpt lat="45.50154779132888" lon="9.86754364331658"><ele>106.0</ele><time>2026-04-06T15:51:21.998Z</time></trkpt><trkpt lat="45.50145338156531" lon="9.867384868001833"><ele>105.5</ele><time>2026-04-06T15:51:22.998Z</time></trkpt><trkpt lat="45.50135668531906" lon="9.867227742275182"><ele>105.0</ele><time>2026-04-06T15:51:23.999Z</time></trkpt><trkpt lat="45.50125251369257" lon="9.86706662200116"><ele>105.25</ele><time>2026-04-06T15:51:24.999Z</time></trkpt><trkpt lat="45.501152074107324" lon="9.8669150773608"><ele>105.5</ele><time>2026-04-06T15:51:25.999Z</time></trkpt><trkpt lat="45.501053121963864" lon="9.866775529893928"><ele>105.75</ele><time>2026-04-06T15:51:26.999Z</time></trkpt><trkpt lat="45.50094631718786" lon="9.866657064624148"><ele>106.0</ele><time>2026-04-06T15:51:27.999Z</time></trkpt><trkpt lat="45.50082657098017" lon="9.866547911792617"><ele>106.0</ele><time>2026-04-06T15:51:28.999Z</time></trkpt><trkpt lat="45.50071060756735" lon="9.866440882473086"><ele>106.0</ele><time>2026-04-06T15:51:29.999Z</time></trkpt><trkpt lat="45.50060694466638" lon="9.86632274010133"><ele>106.0</ele><time>2026-04-06T15:51:30.999Z</time></trkpt><trkpt lat="45.500520353684024" lon="9.866210663317194"><ele>106.0</ele><time>2026-04-06T15:51:31.999Z</time></trkpt><trkpt lat="45.50045450278712" lon="9.86612040332016"><ele>106.0</ele><time>2026-04-06T15:51:32.999Z</time></trkpt><trkpt lat="45.50040373509305" lon="9.866051112564046"><ele>106.0</ele><time>2026-04-06T15:51:33.999Z</time></trkpt><trkpt lat="45.500325763822666" lon="9.865943423216358"><ele>106.0</ele><time>2026-04-06T15:51:35.999Z</time></trkpt><trkpt lat="45.50023264315739" lon="9.865826025256709"><ele>106.0</ele><time>2026-04-06T15:51:37.999Z</time></trkpt><trkpt lat="45.50016973751556" lon="9.865747903529298"><ele>106.0</ele><time>2026-04-06T15:51:38.999Z</time></trkpt><trkpt lat="45.50010590680266" lon="9.865663255508121"><ele>106.19999999999999</ele><time>2026-04-06T15:51:39.999Z</time></trkpt><trkpt lat="45.500038092890094" lon="9.865572644960018"><ele>106.39999999999999</ele><time>2026-04-06T15:51:40.999Z</time></trkpt><trkpt lat="45.499975733037886" lon="9.865492150640067"><ele>106.6</ele><time>2026-04-06T15:51:41.999Z</time></trkpt><trkpt lat="45.499896374781684" lon="9.865377704749216"><ele>106.8</ele><time>2026-04-06T15:51:43.999Z</time></trkpt><trkpt lat="45.49983488793492" lon="9.865288357635839"><ele>107.0</ele><time>2026-04-06T15:51:45.999Z</time></trkpt><trkpt lat="45.49978083426498" lon="9.865211447602501"><ele>106.99999999999999</ele><time>2026-04-06T15:51:47.999Z</time></trkpt><trkpt lat="45.499728450777056" lon="9.86513462443254"><ele>107.0</ele><time>2026-04-06T15:51:50Z</time></trkpt><trkpt lat="45.49967938890823" lon="9.865058644094498"><ele>107.0</ele><time>2026-04-06T15:51:53Z</time></trkpt><trkpt lat="45.499628174051736" lon="9.864988363603194"><ele>107.0</ele><time>2026-04-06T15:51:58Z</time></trkpt><trkpt lat="45.49956729519953" lon="9.864893396413366"><ele>106.99999999999999</ele><time>2026-04-06T15:52:06Z</time></trkpt><trkpt lat="45.499497418634704" lon="9.864819126694817"><ele>107.0</ele><time>2026-04-06T15:52:13Z</time></trkpt><trkpt lat="45.49939515095419" lon="9.86472590771721"><ele>106.83333333333333</ele><time>2026-04-06T15:52:15Z</time></trkpt><trkpt lat="45.49931080108119" lon="9.864728814648165"><ele>106.66666666666666</ele><time>2026-04-06T15:52:16Z</time></trkpt><trkpt lat="45.49923664349491" lon="9.864771117063116"><ele>106.5</ele><time>2026-04-06T15:52:17Z</time></trkpt><trkpt lat="45.49915569499108" lon="9.864810338168688"><ele>106.33333333333334</ele><time>2026-04-06T15:52:18Z</time></trkpt><trkpt lat="45.49906548870479" lon="9.864817727988369"><ele>106.16666666666667</ele><time>2026-04-06T15:52:19Z</time></trkpt><trkpt lat="45.498977096967735" lon="9.864874694764802"><ele>106.0</ele><time>2026-04-06T15:52:20Z</time></trkpt><trkpt lat="45.49888987095956" lon="9.864923793184767"><ele>106.0</ele><time>2026-04-06T15:52:21Z</time></trkpt><trkpt lat="45.49880412758126" lon="9.865007056075223"><ele>106.0</ele><time>2026-04-06T15:52:22Z</time></trkpt><trkpt lat="45.49870386601015" lon="9.865089449329254"><ele>106.0</ele><time>2026-04-06T15:52:23Z</time></trkpt><trkpt lat="45.49858305244446" lon="9.865230635348752"><ele>106.0</ele><time>2026-04-06T15:52:24Z</time></trkpt><trkpt lat="45.49850383584755" lon="9.865321282140956"><ele>105.5</ele><time>2026-04-06T15:52:25Z</time></trkpt><trkpt lat="45.498400089319475" lon="9.865422724158295"><ele>105.0</ele><time>2026-04-06T15:52:26Z</time></trkpt><trkpt lat="45.49829031838717" lon="9.865539437343426"><ele>104.5</ele><time>2026-04-06T15:52:27Z</time></trkpt><trkpt lat="45.49820902468115" lon="9.865660939693065"><ele>104.0</ele><time>2026-04-06T15:52:28Z</time></trkpt><trkpt lat="45.49812719673973" lon="9.86579164678228"><ele>104.0</ele><time>2026-04-06T15:52:29Z</time></trkpt><trkpt lat="45.49804274864938" lon="9.865965676177417"><ele>104.0</ele><time>2026-04-06T15:52:30Z</time></trkpt><trkpt lat="45.49796384077228" lon="9.86613501629241"><ele>104.0</ele><time>2026-04-06T15:52:31Z</time></trkpt><trkpt lat="45.49788296348448" lon="9.866303246142092"><ele>104.0</ele><time>2026-04-06T15:52:32Z</time></trkpt><trkpt lat="45.497806891391875" lon="9.866462420406151"><ele>104.2</ele><time>2026-04-06T15:52:33Z</time></trkpt><trkpt lat="45.49773261837918" lon="9.866605474103373"><ele>104.4</ele><time>2026-04-06T15:52:34Z</time></trkpt><trkpt lat="45.49767174555823" lon="9.866727480302888"><ele>104.6</ele><time>2026-04-06T15:52:35Z</time></trkpt><trkpt lat="45.497618448975466" lon="9.866827334212395"><ele>104.8</ele><time>2026-04-06T15:52:36Z</time></trkpt><trkpt lat="45.49756122904" lon="9.866932590062463"><ele>105.0</ele><time>2026-04-06T15:52:38Z</time></trkpt><trkpt lat="45.49752294482066" lon="9.867013805730467"><ele>105.0</ele><time>2026-04-06T15:52:42Z</time></trkpt><trkpt lat="45.497467256159204" lon="9.86709247006758"><ele>105.0</ele><time>2026-04-06T15:53:16.001Z</time></trkpt><trkpt lat="45.497522840014724" lon="9.867206670704668"><ele>105.0</ele><time>2026-04-06T15:53:17.001Z</time></trkpt><trkpt lat="45.49750520117537" lon="9.86730187464686"><ele>105.0</ele><time>2026-04-06T15:53:19.001Z</time></trkpt><trkpt lat="45.49744462464517" lon="9.867383810942759"><ele>105.0</ele><time>2026-04-06T15:53:22.001Z</time></trkpt><trkpt lat="45.497374215519166" lon="9.867369690598876"><ele>105.0</ele><time>2026-04-06T15:53:24Z</time></trkpt><trkpt lat="45.49728678048379" lon="9.867385251124713"><ele>105.0</ele><time>2026-04-06T15:53:27Z</time></trkpt><trkpt lat="45.49720842411628" lon="9.867412246953238"><ele>105.0</ele><time>2026-04-06T15:53:29Z</time></trkpt><trkpt lat="45.49714144733477" lon="9.867513404464143"><ele>105.0</ele><time>2026-04-06T15:53:31Z</time></trkpt><trkpt lat="45.49712002793266" lon="9.8676763324008"><ele>105.0</ele><time>2026-04-06T15:53:33Z</time></trkpt><trkpt lat="45.4971127008373" lon="9.867774073731963"><ele>105.0</ele><time>2026-04-06T15:53:34Z</time></trkpt><trkpt lat="45.49710277684268" lon="9.867875189833173"><ele>105.0</ele><time>2026-04-06T15:53:35Z</time></trkpt><trkpt lat="45.49709198470722" lon="9.867989697579397"><ele>105.0</ele><time>2026-04-06T15:53:36Z</time></trkpt><trkpt lat="45.49708012835983" lon="9.868117537509928"><ele>105.0</ele><time>2026-04-06T15:53:37Z</time></trkpt><trkpt lat="45.497068449453984" lon="9.86825066258201"><ele>105.0</ele><time>2026-04-06T15:53:38Z</time></trkpt><trkpt lat="45.497057416554576" lon="9.868394302478887"><ele>105.0</ele><time>2026-04-06T15:53:39Z</time></trkpt><trkpt lat="45.49704266382418" lon="9.868546740974534"><ele>105.0</ele><time>2026-04-06T15:53:40Z</time></trkpt><trkpt lat="45.49702935087583" lon="9.868708724677768"><ele>104.75</ele><time>2026-04-06T15:53:41Z</time></trkpt><trkpt lat="45.49701504232088" lon="9.868877151722575"><ele>104.5</ele><time>2026-04-06T15:53:42Z</time></trkpt><trkpt lat="45.497007706334834" lon="9.869052589367596"><ele>104.25</ele><time>2026-04-06T15:53:43Z</time></trkpt><trkpt lat="45.49699802952578" lon="9.869217507740672"><ele>104.0</ele><time>2026-04-06T15:53:44Z</time></trkpt><trkpt lat="45.496983734566484" lon="9.869382741436068"><ele>103.6</ele><time>2026-04-06T15:53:45Z</time></trkpt><trkpt lat="45.496970683648506" lon="9.8695352736093"><ele>103.2</ele><time>2026-04-06T15:53:46Z</time></trkpt><trkpt lat="45.496961876374606" lon="9.86967685716445"><ele>102.8</ele><time>2026-04-06T15:53:47Z</time></trkpt><trkpt lat="45.49696167463578" lon="9.869794858851302"><ele>102.39999999999999</ele><time>2026-04-06T15:53:48Z</time></trkpt><trkpt lat="45.49697515517226" lon="9.869921939926174"><ele>102.0</ele><time>2026-04-06T15:53:49Z</time></trkpt><trkpt lat="45.496991948068604" lon="9.870029517179745"><ele>102.33333333333333</ele><time>2026-04-06T15:53:50Z</time></trkpt><trkpt lat="45.496982554353735" lon="9.870156931586505"><ele>102.66666666666666</ele><time>2026-04-06T15:53:51Z</time></trkpt><trkpt lat="45.496968765618284" lon="9.870267920108827"><ele>103.0</ele><time>2026-04-06T15:53:52Z</time></trkpt><trkpt lat="45.49694556248115" lon="9.870387917612138"><ele>103.33333333333333</ele><time>2026-04-06T15:53:53Z</time></trkpt><trkpt lat="45.49692029645038" lon="9.870515107903998"><ele>103.66666666666666</ele><time>2026-04-06T15:53:54Z</time></trkpt><trkpt lat="45.49689571491574" lon="9.870649810913095"><ele>104.0</ele><time>2026-04-06T15:53:55Z</time></trkpt><trkpt lat="45.49687214246338" lon="9.870783562697367"><ele>103.99999999999999</ele><time>2026-04-06T15:53:56Z</time></trkpt><trkpt lat="45.49684971905708" lon="9.870907579313545"><ele>104.0</ele><time>2026-04-06T15:53:57Z</time></trkpt><trkpt lat="45.49682991596147" lon="9.871032693786193"><ele>104.0</ele><time>2026-04-06T15:53:58Z</time></trkpt><trkpt lat="45.49681218703287" lon="9.871155313467497"><ele>104.0</ele><time>2026-04-06T15:53:59Z</time></trkpt><trkpt lat="45.49679767022815" lon="9.871267559623618"><ele>103.99999999999999</ele><time>2026-04-06T15:54:00Z</time></trkpt><trkpt lat="45.49677953964871" lon="9.87136482194088"><ele>104.0</ele><time>2026-04-06T15:54:01Z</time></trkpt><trkpt lat="45.49673949902972" lon="9.871456418047611"><ele>103.99999999999999</ele><time>2026-04-06T15:54:02Z</time></trkpt><trkpt lat="45.49669173831699" lon="9.871563410045386"><ele>104.0</ele><time>2026-04-06T15:54:03Z</time></trkpt><trkpt lat="45.49664312721248" lon="9.871660271179051"><ele>104.0</ele><time>2026-04-06T15:54:04Z</time></trkpt><trkpt lat="45.49658910211517" lon="9.871758760540665"><ele>104.0</ele><time>2026-04-06T15:54:05Z</time></trkpt><trkpt lat="45.49653979049195" lon="9.871847059295673"><ele>103.99999999999999</ele><time>2026-04-06T15:54:06Z</time></trkpt><trkpt lat="45.49649760171374" lon="9.871919058359122"><ele>104.0</ele><time>2026-04-06T15:54:07Z</time></trkpt><trkpt lat="45.49641822869568" lon="9.872037562307902"><ele>104.0</ele><time>2026-04-06T15:54:09Z</time></trkpt><trkpt lat="45.49638567704936" lon="9.872150095525948"><ele>104.0</ele><time>2026-04-06T15:54:11Z</time></trkpt><trkpt lat="45.496421826438244" lon="9.872281906668478"><ele>104.0</ele><time>2026-04-06T15:54:13Z</time></trkpt><trkpt lat="45.49648998867082" lon="9.872387070213232"><ele>104.0</ele><time>2026-04-06T15:54:15Z</time></trkpt><trkpt lat="45.49654688919963" lon="9.872477405826936"><ele>104.0</ele><time>2026-04-06T15:54:17Z</time></trkpt><trkpt lat="45.496556806413956" lon="9.872607087116906"><ele>104.16666666666666</ele><time>2026-04-06T15:54:20Z</time></trkpt><trkpt lat="45.49653787676668" lon="9.872732837213459"><ele>104.33333333333333</ele><time>2026-04-06T15:54:22Z</time></trkpt><trkpt lat="45.49650756520244" lon="9.87285010259285"><ele>104.5</ele><time>2026-04-06T15:54:24Z</time></trkpt><trkpt lat="45.49648413602209" lon="9.872939931895015"><ele>104.66666666666666</ele><time>2026-04-06T15:54:26Z</time></trkpt><trkpt lat="45.49645780387998" lon="9.873036932068928"><ele>104.83333333333333</ele><time>2026-04-06T15:54:28.001Z</time></trkpt><trkpt lat="45.496472455600085" lon="9.873136796396901"><ele>105.0</ele><time>2026-04-06T15:54:32.001Z</time></trkpt><trkpt lat="45.49653792503679" lon="9.872988580925938"><ele>105.0</ele><time>2026-04-06T15:54:36.001Z</time></trkpt><trkpt lat="45.496517503725684" lon="9.872902890991362"><ele>105.0</ele><time>2026-04-06T15:54:38.001Z</time></trkpt><trkpt lat="45.49653576571915" lon="9.872811915763933"><ele>105.0</ele><time>2026-04-06T15:54:40.001Z</time></trkpt><trkpt lat="45.49657471962081" lon="9.872738805651066"><ele>105.0</ele><time>2026-04-06T15:54:42.001Z</time></trkpt><trkpt lat="45.496611694846685" lon="9.872633231462887"><ele>105.0</ele><time>2026-04-06T15:54:45.001Z</time></trkpt><trkpt lat="45.49659561235048" lon="9.872501889324612"><ele>105.0</ele><time>2026-04-06T15:54:48.001Z</time></trkpt><trkpt lat="45.49656258394064" lon="9.872420547282761"><ele>105.0</ele><time>2026-04-06T15:54:55.001Z</time></trkpt><trkpt lat="45.49648493250175" lon="9.872355672574434"><ele>105.0</ele><time>2026-04-06T15:56:33.001Z</time></trkpt><trkpt lat="45.49644968549664" lon="9.872270519915231"><ele>105.0</ele><time>2026-04-06T15:56:36.001Z</time></trkpt><trkpt lat="45.496393397665976" lon="9.87231737807701"><ele>105.0</ele><time>2026-04-06T15:56:40.001Z</time></trkpt><trkpt lat="45.49644233952748" lon="9.872373988944684"><ele>105.0</ele><time>2026-04-06T15:56:44.001Z</time></trkpt><trkpt lat="45.49652829834083" lon="9.872409543765404"><ele>105.0</ele><time>2026-04-06T15:56:48.001Z</time></trkpt><trkpt lat="45.4965686230058" lon="9.872539266738585"><ele>105.0</ele><time>2026-04-06T15:56:50.001Z</time></trkpt><trkpt lat="45.49656920492255" lon="9.87268882692486"><ele>105.0</ele><time>2026-04-06T15:56:52.001Z</time></trkpt><trkpt lat="45.49651509929015" lon="9.87281286791482"><ele>105.0</ele><time>2026-04-06T15:56:54.001Z</time></trkpt><trkpt lat="45.49648599641226" lon="9.87296630353616"><ele>105.0</ele><time>2026-04-06T15:56:56.001Z</time></trkpt><trkpt lat="45.49645745483578" lon="9.873061397449234"><ele>105.0</ele><time>2026-04-06T15:56:57.001Z</time></trkpt><trkpt lat="45.496457454837646" lon="9.873163846020407"><ele>105.0</ele><time>2026-04-06T15:56:58.001Z</time></trkpt><trkpt lat="45.496499015640445" lon="9.873263074621946"><ele>105.0</ele><time>2026-04-06T15:56:59.001Z</time></trkpt><trkpt lat="45.496493715474955" lon="9.873353183331417"><ele>105.0</ele><time>2026-04-06T15:57:00.001Z</time></trkpt><trkpt lat="45.4964455064766" lon="9.873529503119503"><ele>105.0</ele><time>2026-04-06T15:57:02.001Z</time></trkpt><trkpt lat="45.496419351830404" lon="9.873623706810298"><ele>105.0</ele><time>2026-04-06T15:57:03.001Z</time></trkpt><trkpt lat="45.49637755091498" lon="9.873720450277705"><ele>105.0</ele><time>2026-04-06T15:57:04.001Z</time></trkpt><trkpt lat="45.496343347036174" lon="9.87382667760239"><ele>105.0</ele><time>2026-04-06T15:57:05.001Z</time></trkpt><trkpt lat="45.49630491772871" lon="9.873919821162481"><ele>105.0</ele><time>2026-04-06T15:57:06.001Z</time></trkpt><trkpt lat="45.49627309089224" lon="9.8740251201857"><ele>105.16666666666667</ele><time>2026-04-06T15:57:07.001Z</time></trkpt><trkpt lat="45.49623265361438" lon="9.87412853193864"><ele>105.33333333333334</ele><time>2026-04-06T15:57:08.001Z</time></trkpt><trkpt lat="45.496194243316175" lon="9.874232139790958"><ele>105.5</ele><time>2026-04-06T15:57:09.001Z</time></trkpt><trkpt lat="45.4961511583422" lon="9.874345624523212"><ele>105.66666666666667</ele><time>2026-04-06T15:57:10.001Z</time></trkpt><trkpt lat="45.49612413864428" lon="9.874458525351505"><ele>105.83333333333334</ele><time>2026-04-06T15:57:11.001Z</time></trkpt><trkpt lat="45.496106868832584" lon="9.874581953759424"><ele>106.0</ele><time>2026-04-06T15:57:12.001Z</time></trkpt><trkpt lat="45.496073505912435" lon="9.87470859472737"><ele>105.75</ele><time>2026-04-06T15:57:13.001Z</time></trkpt><trkpt lat="45.49602419841535" lon="9.874840639695385"><ele>105.5</ele><time>2026-04-06T15:57:14.001Z</time></trkpt><trkpt lat="45.4959716454603" lon="9.874980584789986"><ele>105.25</ele><time>2026-04-06T15:57:15.001Z</time></trkpt><trkpt lat="45.49591267760882" lon="9.875128272612601"><ele>105.0</ele><time>2026-04-06T15:57:16.001Z</time></trkpt><trkpt lat="45.495858908719256" lon="9.875273857692491"><ele>105.0</ele><time>2026-04-06T15:57:17.001Z</time></trkpt><trkpt lat="45.49580849428526" lon="9.875417277233947"><ele>105.0</ele><time>2026-04-06T15:57:18.001Z</time></trkpt><trkpt lat="45.49576298308112" lon="9.875547608038527"><ele>105.0</ele><time>2026-04-06T15:57:19.001Z</time></trkpt><trkpt lat="45.49572449076311" lon="9.875661376260464"><ele>105.0</ele><time>2026-04-06T15:57:20.001Z</time></trkpt><trkpt lat="45.495692854286595" lon="9.875758052766344"><ele>105.0</ele><time>2026-04-06T15:57:21.001Z</time></trkpt><trkpt lat="45.495667922506684" lon="9.875840870913116"><ele>105.0</ele><time>2026-04-06T15:57:22.001Z</time></trkpt><trkpt lat="45.495648879685795" lon="9.875929494490652"><ele>105.42857142857143</ele><time>2026-04-06T15:57:23.001Z</time></trkpt><trkpt lat="45.495649848795175" lon="9.876026784971765"><ele>105.85714285714286</ele><time>2026-04-06T15:57:24.001Z</time></trkpt><trkpt lat="45.495659886107866" lon="9.876132773041743"><ele>106.28571428571428</ele><time>2026-04-06T15:57:25.001Z</time></trkpt><trkpt lat="45.49567310378554" lon="9.876237841146887"><ele>106.71428571428572</ele><time>2026-04-06T15:57:26.001Z</time></trkpt><trkpt lat="45.49568302453644" lon="9.876339594360637"><ele>107.14285714285714</ele><time>2026-04-06T15:57:27.001Z</time></trkpt><trkpt lat="45.49569561789717" lon="9.876437213356136"><ele>107.57142857142857</ele><time>2026-04-06T15:57:28.001Z</time></trkpt><trkpt lat="45.49570463546085" lon="9.876528721518264"><ele>108.0</ele><time>2026-04-06T15:57:29.001Z</time></trkpt><trkpt lat="45.495715499325414" lon="9.876628197599192"><ele>107.60000000000001</ele><time>2026-04-06T15:57:30.001Z</time></trkpt><trkpt lat="45.495746573603675" lon="9.876804200594377"><ele>107.20000000000002</ele><time>2026-04-06T15:57:32.001Z</time></trkpt><trkpt lat="45.49576160337917" lon="9.876915951200333"><ele>106.8</ele><time>2026-04-06T15:57:33.001Z</time></trkpt><trkpt lat="45.49577842554377" lon="9.877036477854604"><ele>106.4</ele><time>2026-04-06T15:57:34.001Z</time></trkpt><trkpt lat="45.49579341860476" lon="9.877169212483725"><ele>106.0</ele><time>2026-04-06T15:57:35.001Z</time></trkpt><trkpt lat="45.49580302209632" lon="9.877319999462397"><ele>106.0</ele><time>2026-04-06T15:57:35.999Z</time></trkpt><trkpt lat="45.49581694820145" lon="9.877476197300092"><ele>106.0</ele><time>2026-04-06T15:57:36.999Z</time></trkpt><trkpt lat="45.49582733354624" lon="9.877636974577072"><ele>106.0</ele><time>2026-04-06T15:57:37.999Z</time></trkpt><trkpt lat="45.49583278551505" lon="9.877799280043892"><ele>106.0</ele><time>2026-04-06T15:57:38.999Z</time></trkpt><trkpt lat="45.495839887898406" lon="9.87796062600275"><ele>106.4</ele><time>2026-04-06T15:57:39.999Z</time></trkpt><trkpt lat="45.49584666268763" lon="9.878119451689058"><ele>106.8</ele><time>2026-04-06T15:57:40.999Z</time></trkpt><trkpt lat="45.49586086932465" lon="9.8782705328261"><ele>107.20000000000002</ele><time>2026-04-06T15:57:41.999Z</time></trkpt><trkpt lat="45.495873352671225" lon="9.878419504178057"><ele>107.60000000000001</ele><time>2026-04-06T15:57:42.999Z</time></trkpt><trkpt lat="45.49587852777912" lon="9.878556081285089"><ele>108.0</ele><time>2026-04-06T15:57:43.999Z</time></trkpt><trkpt lat="45.49588216466507" lon="9.878681238301718"><ele>109.0</ele><time>2026-04-06T15:57:44.999Z</time></trkpt><trkpt lat="45.495879157567884" lon="9.878809740536843"><ele>110.00000000000001</ele><time>2026-04-06T15:57:45.999Z</time></trkpt><trkpt lat="45.4958740010778" lon="9.878940457790668"><ele>111.00000000000001</ele><time>2026-04-06T15:57:46.999Z</time></trkpt><trkpt lat="45.495850613556726" lon="9.879065172128474"><ele>112.0</ele><time>2026-04-06T15:57:47.999Z</time></trkpt><trkpt lat="45.495785043432576" lon="9.879167458113939"><ele>113.0</ele><time>2026-04-06T15:57:48.999Z</time></trkpt><trkpt lat="45.495726390062366" lon="9.879258893175315"><ele>114.0</ele><time>2026-04-06T15:57:49.999Z</time></trkpt><trkpt lat="45.495671166169615" lon="9.879343295654495"><ele>115.00000000000001</ele><time>2026-04-06T15:57:50.999Z</time></trkpt><trkpt lat="45.495621109978934" lon="9.879423910619321"><ele>116.00000000000001</ele><time>2026-04-06T15:57:51.999Z</time></trkpt><trkpt lat="45.49557568684112" lon="9.879494956513323"><ele>117.0</ele><time>2026-04-06T15:57:52.999Z</time></trkpt><trkpt lat="45.49551870185191" lon="9.8796254067611"><ele>118.0</ele><time>2026-04-06T15:57:54.999Z</time></trkpt><trkpt lat="45.495453634083134" lon="9.879766802604248"><ele>118.0</ele><time>2026-04-06T15:57:57Z</time></trkpt><trkpt lat="45.495427623250684" lon="9.879853812397927"><ele>118.0</ele><time>2026-04-06T15:57:58Z</time></trkpt><trkpt lat="45.49539849419068" lon="9.879944515698941"><ele>118.0</ele><time>2026-04-06T15:57:59Z</time></trkpt><trkpt lat="45.49536328779853" lon="9.880030379587733"><ele>118.0</ele><time>2026-04-06T15:58:00Z</time></trkpt><trkpt lat="45.495322210166606" lon="9.88010905415744"><ele>118.0</ele><time>2026-04-06T15:58:01Z</time></trkpt><trkpt lat="45.495276450370596" lon="9.880181985556518"><ele>118.0</ele><time>2026-04-06T15:58:02Z</time></trkpt><trkpt lat="45.49523279931092" lon="9.880252986803157"><ele>118.0</ele><time>2026-04-06T15:58:03Z</time></trkpt><trkpt lat="45.49514681903523" lon="9.880374724287728"><ele>117.2</ele><time>2026-04-06T15:58:05Z</time></trkpt><trkpt lat="45.49507238211128" lon="9.880503851188628"><ele>116.4</ele><time>2026-04-06T15:58:07Z</time></trkpt><trkpt lat="45.49500959804338" lon="9.88065181747693"><ele>115.60000000000001</ele><time>2026-04-06T15:58:09Z</time></trkpt><trkpt lat="45.49497827942669" lon="9.880740008080092"><ele>114.80000000000001</ele><time>2026-04-06T15:58:10Z</time></trkpt><trkpt lat="45.49493982871163" lon="9.880825878169833"><ele>114.0</ele><time>2026-04-06T15:58:11Z</time></trkpt><trkpt lat="45.49489170051671" lon="9.880903410658286"><ele>114.42857142857142</ele><time>2026-04-06T15:58:12Z</time></trkpt><trkpt lat="45.49483300589102" lon="9.88096893761562"><ele>114.85714285714285</ele><time>2026-04-06T15:58:13Z</time></trkpt><trkpt lat="45.494772883026386" lon="9.88102480439476"><ele>115.28571428571428</ele><time>2026-04-06T15:58:14Z</time></trkpt><trkpt lat="45.494713326258406" lon="9.88107218665169"><ele>115.71428571428572</ele><time>2026-04-06T15:58:15Z</time></trkpt><trkpt lat="45.494652011674745" lon="9.881115513949387"><ele>116.14285714285715</ele><time>2026-04-06T15:58:16Z</time></trkpt><trkpt lat="45.49459327096035" lon="9.881153901277916"><ele>116.57142857142858</ele><time>2026-04-06T15:58:17Z</time></trkpt><trkpt lat="45.494533071085954" lon="9.881191674579227"><ele>117.0</ele><time>2026-04-06T15:58:18Z</time></trkpt><trkpt lat="45.494422452164365" lon="9.88127426820915"><ele>117.0</ele><time>2026-04-06T15:58:20Z</time></trkpt><trkpt lat="45.49431284903747" lon="9.881358865887163"><ele>116.99999999999999</ele><time>2026-04-06T15:58:22Z</time></trkpt><trkpt lat="45.49422119333006" lon="9.881437038555413"><ele>116.99999999999999</ele><time>2026-04-06T15:58:24Z</time></trkpt><trkpt lat="45.49413739458658" lon="9.88150444803078"><ele>117.0</ele><time>2026-04-06T15:58:26Z</time></trkpt><trkpt lat="45.49405749692121" lon="9.881555381428484"><ele>117.0</ele><time>2026-04-06T15:58:28Z</time></trkpt><trkpt lat="45.49399360746894" lon="9.881601512145702"><ele>117.0</ele><time>2026-04-06T15:58:30Z</time></trkpt><trkpt lat="45.4939292444388" lon="9.88164867432509"><ele>116.99999999999999</ele><time>2026-04-06T15:58:32Z</time></trkpt><trkpt lat="45.49384609392779" lon="9.881704663102925"><ele>116.99999999999999</ele><time>2026-04-06T15:58:34Z</time></trkpt><trkpt lat="45.493751914254226" lon="9.88177846299544"><ele>117.0</ele><time>2026-04-06T15:58:36Z</time></trkpt><trkpt lat="45.493651266752096" lon="9.881847798895377"><ele>117.0</ele><time>2026-04-06T15:58:38Z</time></trkpt><trkpt lat="45.49354890758693" lon="9.881910628033662"><ele>116.83333333333333</ele><time>2026-04-06T15:58:40Z</time></trkpt><trkpt lat="45.49346027798533" lon="9.881960981748053"><ele>116.66666666666666</ele><time>2026-04-06T15:58:42Z</time></trkpt><trkpt lat="45.4933762802704" lon="9.881998429440273"><ele>116.5</ele><time>2026-04-06T15:58:44.001Z</time></trkpt><trkpt lat="45.49328609754401" lon="9.88199746489081"><ele>116.33333333333333</ele><time>2026-04-06T15:58:46.001Z</time></trkpt><trkpt lat="45.493192924705355" lon="9.881988040342588"><ele>116.16666666666666</ele><time>2026-04-06T15:58:48.001Z</time></trkpt><trkpt lat="45.49312458960474" lon="9.881991739476334"><ele>116.0</ele><time>2026-04-06T15:58:49.001Z</time></trkpt><trkpt lat="45.493042114749194" lon="9.882005831067953"><ele>116.00000000000001</ele><time>2026-04-06T15:58:50.001Z</time></trkpt><trkpt lat="45.49296290415113" lon="9.882021213324656"><ele>116.0</ele><time>2026-04-06T15:58:51.001Z</time></trkpt><trkpt lat="45.4928892317124" lon="9.882034416781538"><ele>116.00000000000001</ele><time>2026-04-06T15:58:52.001Z</time></trkpt><trkpt lat="45.49281623561998" lon="9.882045959141385"><ele>116.00000000000001</ele><time>2026-04-06T15:58:53.001Z</time></trkpt><trkpt lat="45.49274620684535" lon="9.882055046723213"><ele>116.0</ele><time>2026-04-06T15:58:54.001Z</time></trkpt><trkpt lat="45.492681687027684" lon="9.882066073592927"><ele>116.00000000000001</ele><time>2026-04-06T15:58:55.001Z</time></trkpt><trkpt lat="45.49261849335768" lon="9.882076220710012"><ele>116.00000000000001</ele><time>2026-04-06T15:58:56.001Z</time></trkpt><trkpt lat="45.49251137321172" lon="9.882098050835195"><ele>116.19999999999999</ele><time>2026-04-06T15:58:58.001Z</time></trkpt><trkpt lat="45.49243653944945" lon="9.882175246614056"><ele>116.39999999999999</ele><time>2026-04-06T15:59:00.001Z</time></trkpt><trkpt lat="45.49241099357784" lon="9.882323974882649"><ele>116.6</ele><time>2026-04-06T15:59:02.001Z</time></trkpt><trkpt lat="45.49239683936026" lon="9.88246974751582"><ele>116.8</ele><time>2026-04-06T15:59:04.001Z</time></trkpt><trkpt lat="45.492391053553206" lon="9.882577426030078"><ele>117.0</ele><time>2026-04-06T15:59:06.001Z</time></trkpt><trkpt lat="45.49238830969026" lon="9.882715334452257"><ele>117.19999999999999</ele><time>2026-04-06T15:59:09.001Z</time></trkpt><trkpt lat="45.49239518948944" lon="9.882809440187534"><ele>117.39999999999999</ele><time>2026-04-06T15:59:11.001Z</time></trkpt><trkpt lat="45.49221492494799" lon="9.882869864159149"><ele>117.60000000000001</ele><time>2026-04-06T15:59:12.001Z</time></trkpt><trkpt lat="45.492144379100885" lon="9.882910606025087"><ele>117.80000000000001</ele><time>2026-04-06T15:59:13.001Z</time></trkpt><trkpt lat="45.49206535636251" lon="9.88295045803849"><ele>118.0</ele><time>2026-04-06T15:59:14.001Z</time></trkpt><trkpt lat="45.49198067932352" lon="9.88297982993879"><ele>118.4</ele><time>2026-04-06T15:59:15.001Z</time></trkpt><trkpt lat="45.491891835322264" lon="9.883001544371417"><ele>118.80000000000001</ele><time>2026-04-06T15:59:16.001Z</time></trkpt><trkpt lat="45.4918067798905" lon="9.8830299861741"><ele>119.2</ele><time>2026-04-06T15:59:17.001Z</time></trkpt><trkpt lat="45.49172042077669" lon="9.88306560616261"><ele>119.6</ele><time>2026-04-06T15:59:18.001Z</time></trkpt><trkpt lat="45.49162646746439" lon="9.883101954758255"><ele>120.0</ele><time>2026-04-06T15:59:19.001Z</time></trkpt><trkpt lat="45.49152668042935" lon="9.883135113609141"><ele>120.0</ele><time>2026-04-06T15:59:20.001Z</time></trkpt><trkpt lat="45.49141848979353" lon="9.883175658625852"><ele>120.0</ele><time>2026-04-06T15:59:21.001Z</time></trkpt><trkpt lat="45.491304613871755" lon="9.883221432912666"><ele>120.0</ele><time>2026-04-06T15:59:22.001Z</time></trkpt><trkpt lat="45.49118688472465" lon="9.883269360046334"><ele>120.0</ele><time>2026-04-06T15:59:23.001Z</time></trkpt><trkpt lat="45.491065887736326" lon="9.883320652847262"><ele>119.0</ele><time>2026-04-06T15:59:24.001Z</time></trkpt><trkpt lat="45.49094157126906" lon="9.883370103915698"><ele>118.0</ele><time>2026-04-06T15:59:25.001Z</time></trkpt><trkpt lat="45.49081376208956" lon="9.88341178545519"><ele>117.0</ele><time>2026-04-06T15:59:26.001Z</time></trkpt><trkpt lat="45.490693382595964" lon="9.883459423531116"><ele>116.0</ele><time>2026-04-06T15:59:27.001Z</time></trkpt><trkpt lat="45.49057681626764" lon="9.883507521630976"><ele>116.0</ele><time>2026-04-06T15:59:28.001Z</time></trkpt><trkpt lat="45.49046809715179" lon="9.883545596484357"><ele>116.0</ele><time>2026-04-06T15:59:29.001Z</time></trkpt><trkpt lat="45.49037101040549" lon="9.883583998837674"><ele>116.0</ele><time>2026-04-06T15:59:30.001Z</time></trkpt><trkpt lat="45.49027735291628" lon="9.883626251216777"><ele>116.0</ele><time>2026-04-06T15:59:31.001Z</time></trkpt><trkpt lat="45.490166682420686" lon="9.883665096242115"><ele>116.0</ele><time>2026-04-06T15:59:32.001Z</time></trkpt><trkpt lat="45.49006271301003" lon="9.883703927622202"><ele>116.4</ele><time>2026-04-06T15:59:33.001Z</time></trkpt><trkpt lat="45.48996379246839" lon="9.883743785931992"><ele>116.8</ele><time>2026-04-06T15:59:34.001Z</time></trkpt><trkpt lat="45.489870024309774" lon="9.883788984569858"><ele>117.20000000000002</ele><time>2026-04-06T15:59:35.001Z</time></trkpt><trkpt lat="45.489760649902806" lon="9.88382953984567"><ele>117.60000000000001</ele><time>2026-04-06T15:59:36.001Z</time></trkpt><trkpt lat="45.489647251435336" lon="9.883864901878354"><ele>118.0</ele><time>2026-04-06T15:59:37.001Z</time></trkpt><trkpt lat="45.48953354417277" lon="9.883905444802837"><ele>118.0</ele><time>2026-04-06T15:59:38.001Z</time></trkpt><trkpt lat="45.489420698627946" lon="9.88395836002905"><ele>118.0</ele><time>2026-04-06T15:59:39.001Z</time></trkpt><trkpt lat="45.48930355021736" lon="9.884009069006325"><ele>118.0</ele><time>2026-04-06T15:59:40.001Z</time></trkpt><trkpt lat="45.4891972403056" lon="9.884065193620728"><ele>118.0</ele><time>2026-04-06T15:59:41.002Z</time></trkpt><trkpt lat="45.489091571779234" lon="9.884117826964136"><ele>118.0</ele><time>2026-04-06T15:59:41.999Z</time></trkpt><trkpt lat="45.4889841212679" lon="9.88414811641934"><ele>118.00000000000001</ele><time>2026-04-06T15:59:42.999Z</time></trkpt><trkpt lat="45.48888821566292" lon="9.88419650382028"><ele>118.00000000000001</ele><time>2026-04-06T15:59:43.999Z</time></trkpt><trkpt lat="45.48879755525399" lon="9.884266106757165"><ele>118.0</ele><time>2026-04-06T15:59:44.999Z</time></trkpt><trkpt lat="45.48870824713095" lon="9.884310977680698"><ele>118.0</ele><time>2026-04-06T15:59:45.999Z</time></trkpt><trkpt lat="45.48861817630552" lon="9.884356753987765"><ele>118.0</ele><time>2026-04-06T15:59:46.999Z</time></trkpt><trkpt lat="45.48853732556996" lon="9.884397907079942"><ele>118.00000000000001</ele><time>2026-04-06T15:59:47.999Z</time></trkpt><trkpt lat="45.48845452207839" lon="9.884440054049593"><ele>118.00000000000001</ele><time>2026-04-06T15:59:48.999Z</time></trkpt><trkpt lat="45.488366602734956" lon="9.884484805023236"><ele>118.0</ele><time>2026-04-06T15:59:49.999Z</time></trkpt><trkpt lat="45.48828519834048" lon="9.884565529515534"><ele>118.0</ele><time>2026-04-06T15:59:50.999Z</time></trkpt><trkpt lat="45.48819498884183" lon="9.884596917080525"><ele>118.0</ele><time>2026-04-06T15:59:51.999Z</time></trkpt><trkpt lat="45.488120658829025" lon="9.884679606148282"><ele>118.00000000000001</ele><time>2026-04-06T15:59:52.999Z</time></trkpt><trkpt lat="45.488035832586625" lon="9.88472300971862"><ele>118.00000000000001</ele><time>2026-04-06T15:59:53.999Z</time></trkpt><trkpt lat="45.487923468458064" lon="9.884759726150481"><ele>118.0</ele><time>2026-04-06T15:59:54.999Z</time></trkpt><trkpt lat="45.487802926927614" lon="9.884774942021185"><ele>118.0</ele><time>2026-04-06T15:59:55.999Z</time></trkpt><trkpt lat="45.48769438677528" lon="9.884819541933508"><ele>117.60000000000001</ele><time>2026-04-06T15:59:56.999Z</time></trkpt><trkpt lat="45.48758612278838" lon="9.884855823396906"><ele>117.20000000000002</ele><time>2026-04-06T15:59:57.999Z</time></trkpt><trkpt lat="45.48748224148233" lon="9.884888506115848"><ele>116.8</ele><time>2026-04-06T15:59:58.999Z</time></trkpt><trkpt lat="45.487379441793635" lon="9.884920663450904"><ele>116.4</ele><time>2026-04-06T15:59:59.999Z</time></trkpt><trkpt lat="45.48728227886118" lon="9.884969373620669"><ele>116.0</ele><time>2026-04-06T16:00:00.999Z</time></trkpt><trkpt lat="45.48719878870745" lon="9.884996106092974"><ele>115.99999999999999</ele><time>2026-04-06T16:00:01.999Z</time></trkpt><trkpt lat="45.487124966664396" lon="9.88501897096701"><ele>116.0</ele><time>2026-04-06T16:00:02.999Z</time></trkpt><trkpt lat="45.48705445705936" lon="9.885040503535777"><ele>116.0</ele><time>2026-04-06T16:00:03.999Z</time></trkpt><trkpt lat="45.48699288396087" lon="9.885059623622787"><ele>116.0</ele><time>2026-04-06T16:00:04.999Z</time></trkpt><trkpt lat="45.48687007509056" lon="9.885097616252716"><ele>115.99999999999999</ele><time>2026-04-06T16:00:06.999Z</time></trkpt><trkpt lat="45.48680440670412" lon="9.885100319940502"><ele>116.0</ele><time>2026-04-06T16:00:09Z</time></trkpt><trkpt lat="45.48673447786819" lon="9.885159375402376"><ele>115.8</ele><time>2026-04-06T16:00:11Z</time></trkpt><trkpt lat="45.48678127741672" lon="9.885311459900306"><ele>115.6</ele><time>2026-04-06T16:00:12Z</time></trkpt><trkpt lat="45.486786638579986" lon="9.885437795854116"><ele>115.4</ele><time>2026-04-06T16:00:14Z</time></trkpt><trkpt lat="45.486792715384084" lon="9.885569402572576"><ele>115.2</ele><time>2026-04-06T16:00:16Z</time></trkpt><trkpt lat="45.48682393334786" lon="9.885720447534668"><ele>115.0</ele><time>2026-04-06T16:00:18Z</time></trkpt><trkpt lat="45.48682508339254" lon="9.885909139324623"><ele>115.16666666666667</ele><time>2026-04-06T16:00:20Z</time></trkpt><trkpt lat="45.486829782825076" lon="9.886010916009141"><ele>115.33333333333334</ele><time>2026-04-06T16:00:21Z</time></trkpt><trkpt lat="45.48683772752535" lon="9.88610873750948"><ele>115.5</ele><time>2026-04-06T16:00:22Z</time></trkpt><trkpt lat="45.486831460221666" lon="9.886211668479799"><ele>115.66666666666666</ele><time>2026-04-06T16:00:23Z</time></trkpt><trkpt lat="45.486822882570294" lon="9.88630737725544"><ele>115.83333333333333</ele><time>2026-04-06T16:00:24Z</time></trkpt><trkpt lat="45.48683686200541" lon="9.886463477352445"><ele>116.0</ele><time>2026-04-06T16:00:26Z</time></trkpt><trkpt lat="45.48683823524769" lon="9.8865645857031"><ele>116.0</ele><time>2026-04-06T16:00:39Z</time></trkpt><trkpt lat="45.48684269279348" lon="9.886655321695976"><ele>116.0</ele><time>2026-04-06T16:00:41Z</time></trkpt><trkpt lat="45.486845899301144" lon="9.886787094541756"><ele>116.0</ele><time>2026-04-06T16:00:43Z</time></trkpt><trkpt lat="45.48682362782679" lon="9.886874375858563"><ele>116.0</ele><time>2026-04-06T16:00:44Z</time></trkpt><trkpt lat="45.48667940347174" lon="9.88687600212316"><ele>116.0</ele><time>2026-04-06T16:00:46Z</time></trkpt><trkpt lat="45.48659239815407" lon="9.886853889967357"><ele>115.8</ele><time>2026-04-06T16:00:47Z</time></trkpt><trkpt lat="45.48649861579284" lon="9.886843411041642"><ele>115.6</ele><time>2026-04-06T16:00:48.001Z</time></trkpt><trkpt lat="45.48638898721848" lon="9.886841632594221"><ele>115.4</ele><time>2026-04-06T16:00:49.001Z</time></trkpt><trkpt lat="45.48627931259536" lon="9.886853517484539"><ele>115.2</ele><time>2026-04-06T16:00:50.001Z</time></trkpt><trkpt lat="45.48616161024668" lon="9.886850131466984"><ele>115.0</ele><time>2026-04-06T16:00:51.001Z</time></trkpt><trkpt lat="45.48601733683442" lon="9.886853934411967"><ele>115.0</ele><time>2026-04-06T16:00:52.001Z</time></trkpt><trkpt lat="45.48590179534708" lon="9.88687392617108"><ele>115.0</ele><time>2026-04-06T16:00:53.001Z</time></trkpt><trkpt lat="45.48577326020335" lon="9.886864051802453"><ele>115.0</ele><time>2026-04-06T16:00:54.001Z</time></trkpt><trkpt lat="45.48565251012638" lon="9.886833924901282"><ele>115.0</ele><time>2026-04-06T16:00:55.001Z</time></trkpt><trkpt lat="45.48551437454612" lon="9.886832930200173"><ele>115.0</ele><time>2026-04-06T16:00:56.001Z</time></trkpt><trkpt lat="45.485393172720556" lon="9.886848148263137"><ele>115.0</ele><time>2026-04-06T16:00:57.001Z</time></trkpt><trkpt lat="45.48525143937469" lon="9.886844488707546"><ele>115.0</ele><time>2026-04-06T16:00:58.001Z</time></trkpt><trkpt lat="45.48510550536319" lon="9.886840068751049"><ele>115.0</ele><time>2026-04-06T16:00:59.001Z</time></trkpt><trkpt lat="45.4849523398949" lon="9.88684240188684"><ele>115.0</ele><time>2026-04-06T16:01:00.001Z</time></trkpt><trkpt lat="45.484789158902885" lon="9.886841435850974"><ele>115.0</ele><time>2026-04-06T16:01:01.001Z</time></trkpt><trkpt lat="45.484636111826774" lon="9.886838426773311"><ele>115.0</ele><time>2026-04-06T16:01:02.001Z</time></trkpt><trkpt lat="45.48448450901448" lon="9.886833713591834"><ele>114.5</ele><time>2026-04-06T16:01:03.001Z</time></trkpt><trkpt lat="45.48433825763189" lon="9.886823705603522"><ele>114.0</ele><time>2026-04-06T16:01:04.001Z</time></trkpt><trkpt lat="45.484204419704916" lon="9.886805469236021"><ele>113.5</ele><time>2026-04-06T16:01:05.001Z</time></trkpt><trkpt lat="45.48408172334375" lon="9.88679680740286"><ele>113.0</ele><time>2026-04-06T16:01:06.001Z</time></trkpt><trkpt lat="45.483973718039564" lon="9.886797989374005"><ele>113.0</ele><time>2026-04-06T16:01:07.001Z</time></trkpt><trkpt lat="45.483875321069384" lon="9.886787195204223"><ele>113.00000000000001</ele><time>2026-04-06T16:01:08.001Z</time></trkpt><trkpt lat="45.48378809795835" lon="9.88680452068036"><ele>113.00000000000001</ele><time>2026-04-06T16:01:09.001Z</time></trkpt><trkpt lat="45.48371646277731" lon="9.886723857388075"><ele>113.0</ele><time>2026-04-06T16:01:10.001Z</time></trkpt><trkpt lat="45.483632601350955" lon="9.886706243749254"><ele>113.0</ele><time>2026-04-06T16:01:11.001Z</time></trkpt><trkpt lat="45.48354226729901" lon="9.886745097489563"><ele>112.75</ele><time>2026-04-06T16:01:12.001Z</time></trkpt><trkpt lat="45.483438374908914" lon="9.886788645608561"><ele>112.5</ele><time>2026-04-06T16:01:13.001Z</time></trkpt><trkpt lat="45.4833153939693" lon="9.88680622929219"><ele>112.25</ele><time>2026-04-06T16:01:14.001Z</time></trkpt><trkpt lat="45.48318050497663" lon="9.886829587655912"><ele>112.0</ele><time>2026-04-06T16:01:15.001Z</time></trkpt><trkpt lat="45.483054116984896" lon="9.88687913301535"><ele>111.75</ele><time>2026-04-06T16:01:16.001Z</time></trkpt><trkpt lat="45.48292047656978" lon="9.886950668537432"><ele>111.5</ele><time>2026-04-06T16:01:17.001Z</time></trkpt><trkpt lat="45.48278452591525" lon="9.887040150925058"><ele>111.25</ele><time>2026-04-06T16:01:18.001Z</time></trkpt><trkpt lat="45.48264474639877" lon="9.887141222927545"><ele>111.0</ele><time>2026-04-06T16:01:19.001Z</time></trkpt><trkpt lat="45.48249445955508" lon="9.887242371543577"><ele>111.0</ele><time>2026-04-06T16:01:20.001Z</time></trkpt><trkpt lat="45.48233856612439" lon="9.887350935545575"><ele>111.0</ele><time>2026-04-06T16:01:21.001Z</time></trkpt><trkpt lat="45.48218884822453" lon="9.887463061897982"><ele>111.0</ele><time>2026-04-06T16:01:22.001Z</time></trkpt><trkpt lat="45.48203727156335" lon="9.88757650327157"><ele>110.66666666666666</ele><time>2026-04-06T16:01:23.001Z</time></trkpt><trkpt lat="45.4818801165396" lon="9.887691401323732"><ele>110.33333333333333</ele><time>2026-04-06T16:01:24.001Z</time></trkpt><trkpt lat="45.48172346386878" lon="9.88780545497354"><ele>110.0</ele><time>2026-04-06T16:01:25.001Z</time></trkpt><trkpt lat="45.48156677801229" lon="9.887918636450955"><ele>110.0</ele><time>2026-04-06T16:01:26.001Z</time></trkpt><trkpt lat="45.48141036605888" lon="9.888029415632083"><ele>110.0</ele><time>2026-04-06T16:01:27.001Z</time></trkpt><trkpt lat="45.48126644092735" lon="9.888126266903834"><ele>110.0</ele><time>2026-04-06T16:01:28.001Z</time></trkpt><trkpt lat="45.481145192546585" lon="9.888209880044462"><ele>109.6</ele><time>2026-04-06T16:01:29.001Z</time></trkpt><trkpt lat="45.48104672121406" lon="9.888295737382931"><ele>109.2</ele><time>2026-04-06T16:01:30.001Z</time></trkpt><trkpt lat="45.48098093556065" lon="9.888391055049102"><ele>108.80000000000001</ele><time>2026-04-06T16:01:31.001Z</time></trkpt><trkpt lat="45.48089303225421" lon="9.88839914944262"><ele>108.4</ele><time>2026-04-06T16:01:32.001Z</time></trkpt><trkpt lat="45.48083074172532" lon="9.888421275178398"><ele>108.0</ele><time>2026-04-06T16:01:33.001Z</time></trkpt><trkpt lat="45.48075582124655" lon="9.888557400405178"><ele>108.0</ele><time>2026-04-06T16:01:35.001Z</time></trkpt><trkpt lat="45.480843013618866" lon="9.888749213553771"><ele>108.0</ele><time>2026-04-06T16:01:37.002Z</time></trkpt><trkpt lat="45.48092432674442" lon="9.888827408861493"><ele>108.0</ele><time>2026-04-06T16:01:38.002Z</time></trkpt><trkpt lat="45.48097880425403" lon="9.88894874149014"><ele>108.0</ele><time>2026-04-06T16:01:39.002Z</time></trkpt><trkpt lat="45.48102260304718" lon="9.889101538442095"><ele>108.0</ele><time>2026-04-06T16:01:40.002Z</time></trkpt><trkpt lat="45.48107406514085" lon="9.889241978858099"><ele>108.0</ele><time>2026-04-06T16:01:41.002Z</time></trkpt><trkpt lat="45.481128839428415" lon="9.889400005490481"><ele>108.0</ele><time>2026-04-06T16:01:42.002Z</time></trkpt><trkpt lat="45.48118932103769" lon="9.889570068619502"><ele>108.0</ele><time>2026-04-06T16:01:43.002Z</time></trkpt><trkpt lat="45.48125582074183" lon="9.889753677131154"><ele>108.66666666666666</ele><time>2026-04-06T16:01:44.002Z</time></trkpt><trkpt lat="45.48132605465166" lon="9.889937514693328"><ele>109.33333333333333</ele><time>2026-04-06T16:01:45.002Z</time></trkpt><trkpt lat="45.48139050687589" lon="9.890132205366092"><ele>110.0</ele><time>2026-04-06T16:01:46.002Z</time></trkpt><trkpt lat="45.481441952346216" lon="9.890338994842299"><ele>110.0</ele><time>2026-04-06T16:01:47.002Z</time></trkpt><trkpt lat="45.48148954309845" lon="9.890542233356213"><ele>110.0</ele><time>2026-04-06T16:01:47.999Z</time></trkpt><trkpt lat="45.48155765967465" lon="9.890734078606638"><ele>110.0</ele><time>2026-04-06T16:01:48.999Z</time></trkpt><trkpt lat="45.48163643035722" lon="9.890909699145393"><ele>110.0</ele><time>2026-04-06T16:01:49.999Z</time></trkpt><trkpt lat="45.48170046896788" lon="9.891091525966166"><ele>110.0</ele><time>2026-04-06T16:01:50.999Z</time></trkpt><trkpt lat="45.481729335419" lon="9.891293126760026"><ele>110.0</ele><time>2026-04-06T16:01:51.999Z</time></trkpt><trkpt lat="45.48172553883361" lon="9.891502851070584"><ele>110.0</ele><time>2026-04-06T16:01:52.999Z</time></trkpt><trkpt lat="45.48169347330909" lon="9.891709563607785"><ele>110.0</ele><time>2026-04-06T16:01:53.999Z</time></trkpt><trkpt lat="45.48165438093245" lon="9.891916371453414"><ele>110.0</ele><time>2026-04-06T16:01:54.999Z</time></trkpt><trkpt lat="45.481616440543995" lon="9.892122496178741"><ele>110.0</ele><time>2026-04-06T16:01:55.999Z</time></trkpt><trkpt lat="45.48158346499033" lon="9.892321723602292"><ele>110.0</ele><time>2026-04-06T16:01:56.999Z</time></trkpt><trkpt lat="45.48155329521923" lon="9.892521110468275"><ele>110.0</ele><time>2026-04-06T16:01:57.999Z</time></trkpt><trkpt lat="45.48154582523804" lon="9.89272552498655"><ele>110.0</ele><time>2026-04-06T16:01:58.999Z</time></trkpt><trkpt lat="45.48153744759541" lon="9.892920289393514"><ele>110.0</ele><time>2026-04-06T16:01:59.999Z</time></trkpt><trkpt lat="45.48153720795087" lon="9.893121794674913"><ele>110.0</ele><time>2026-04-06T16:02:00.999Z</time></trkpt><trkpt lat="45.48153464770998" lon="9.893320512956139"><ele>110.0</ele><time>2026-04-06T16:02:01.999Z</time></trkpt><trkpt lat="45.48151772534765" lon="9.893512045896525"><ele>109.83333333333333</ele><time>2026-04-06T16:02:02.999Z</time></trkpt><trkpt lat="45.48152820515765" lon="9.893671629334149"><ele>109.66666666666666</ele><time>2026-04-06T16:02:03.999Z</time></trkpt><trkpt lat="45.481523439547466" lon="9.893810017429061"><ele>109.5</ele><time>2026-04-06T16:02:05Z</time></trkpt><trkpt lat="45.48151966702941" lon="9.8939200435868"><ele>109.33333333333334</ele><time>2026-04-06T16:02:06Z</time></trkpt><trkpt lat="45.48151628127836" lon="9.894010834887156"><ele>109.16666666666667</ele><time>2026-04-06T16:02:07Z</time></trkpt><trkpt lat="45.48149411848401" lon="9.894116960680094"><ele>109.0</ele><time>2026-04-06T16:02:09Z</time></trkpt><trkpt lat="45.481243475901806" lon="9.894114062436747"><ele>109.0</ele><time>2026-04-06T16:02:10Z</time></trkpt><trkpt lat="45.48114604778548" lon="9.89409593704289"><ele>109.0</ele><time>2026-04-06T16:02:11Z</time></trkpt><trkpt lat="45.48103491299541" lon="9.894072697973487"><ele>109.0</ele><time>2026-04-06T16:02:12Z</time></trkpt><trkpt lat="45.480917963319165" lon="9.89406347225066"><ele>109.0</ele><time>2026-04-06T16:02:13Z</time></trkpt><trkpt lat="45.48078539414327" lon="9.894062342148885"><ele>109.0</ele><time>2026-04-06T16:02:14Z</time></trkpt><trkpt lat="45.48064867486778" lon="9.894062130791326"><ele>109.0</ele><time>2026-04-06T16:02:15Z</time></trkpt><trkpt lat="45.480495166461814" lon="9.894055033581072"><ele>109.0</ele><time>2026-04-06T16:02:16Z</time></trkpt><trkpt lat="45.48034306259516" lon="9.894038704238401"><ele>109.0</ele><time>2026-04-06T16:02:17Z</time></trkpt><trkpt lat="45.48019359758136" lon="9.894017348752115"><ele>109.33333333333334</ele><time>2026-04-06T16:02:18Z</time></trkpt><trkpt lat="45.48002625967832" lon="9.894008683014938"><ele>109.66666666666666</ele><time>2026-04-06T16:02:19Z</time></trkpt><trkpt lat="45.47985886861899" lon="9.894003455423757"><ele>110.0</ele><time>2026-04-06T16:02:20Z</time></trkpt><trkpt lat="45.479698269126" lon="9.893987718519305"><ele>109.66666666666666</ele><time>2026-04-06T16:02:21Z</time></trkpt><trkpt lat="45.479548298490535" lon="9.893969675103838"><ele>109.33333333333334</ele><time>2026-04-06T16:02:22Z</time></trkpt><trkpt lat="45.479391246190154" lon="9.893951860331345"><ele>109.0</ele><time>2026-04-06T16:02:23Z</time></trkpt><trkpt lat="45.47922368814821" lon="9.893943501813796"><ele>109.0</ele><time>2026-04-06T16:02:24Z</time></trkpt><trkpt lat="45.47904631868973" lon="9.893939450612846"><ele>109.0</ele><time>2026-04-06T16:02:25Z</time></trkpt><trkpt lat="45.47886775458608" lon="9.893927233703854"><ele>109.0</ele><time>2026-04-06T16:02:26Z</time></trkpt><trkpt lat="45.47868397221884" lon="9.893914083102464"><ele>108.66666666666667</ele><time>2026-04-06T16:02:27Z</time></trkpt><trkpt lat="45.478503097039585" lon="9.893900033312281"><ele>108.33333333333334</ele><time>2026-04-06T16:02:28Z</time></trkpt><trkpt lat="45.478332848378955" lon="9.893888435016045"><ele>108.0</ele><time>2026-04-06T16:02:29Z</time></trkpt><trkpt lat="45.47817112143193" lon="9.893877179895524"><ele>108.0</ele><time>2026-04-06T16:02:30Z</time></trkpt><trkpt lat="45.47801947707513" lon="9.89386068574013"><ele>108.0</ele><time>2026-04-06T16:02:31Z</time></trkpt><trkpt lat="45.477871970684134" lon="9.893839409952408"><ele>108.0</ele><time>2026-04-06T16:02:32Z</time></trkpt><trkpt lat="45.477733367766" lon="9.893815819668488"><ele>108.0</ele><time>2026-04-06T16:02:33Z</time></trkpt><trkpt lat="45.47760231698644" lon="9.89379721498279"><ele>108.2</ele><time>2026-04-06T16:02:34Z</time></trkpt><trkpt lat="45.47747813807833" lon="9.893789704997424"><ele>108.4</ele><time>2026-04-06T16:02:35.001Z</time></trkpt><trkpt lat="45.477365363439205" lon="9.893787666961515"><ele>108.60000000000001</ele><time>2026-04-06T16:02:36.001Z</time></trkpt><trkpt lat="45.477256946759454" lon="9.893783613564075"><ele>108.80000000000001</ele><time>2026-04-06T16:02:37.001Z</time></trkpt><trkpt lat="45.477164322888385" lon="9.89374983938481"><ele>109.0</ele><time>2026-04-06T16:02:38.001Z</time></trkpt><trkpt lat="45.477076425254204" lon="9.893673179186278"><ele>108.4</ele><time>2026-04-06T16:02:39.001Z</time></trkpt><trkpt lat="45.47700116067478" lon="9.89360183465779"><ele>107.80000000000001</ele><time>2026-04-06T16:02:40.001Z</time></trkpt><trkpt lat="45.476912612954465" lon="9.893569888158282"><ele>107.19999999999999</ele><time>2026-04-06T16:02:41.001Z</time></trkpt><trkpt lat="45.47680631008854" lon="9.893590431600396"><ele>106.6</ele><time>2026-04-06T16:02:42.001Z</time></trkpt><trkpt lat="45.47671531869885" lon="9.8936691894035"><ele>106.0</ele><time>2026-04-06T16:02:43.001Z</time></trkpt><trkpt lat="45.476642982034214" lon="9.893796175704846"><ele>106.0</ele><time>2026-04-06T16:02:44.001Z</time></trkpt><trkpt lat="45.47657845725047" lon="9.893937357085004"><ele>106.0</ele><time>2026-04-06T16:02:45.001Z</time></trkpt><trkpt lat="45.476489258457235" lon="9.894058174009805"><ele>106.0</ele><time>2026-04-06T16:02:46.001Z</time></trkpt><trkpt lat="45.47638858930252" lon="9.894184356475563"><ele>106.0</ele><time>2026-04-06T16:02:47.001Z</time></trkpt><trkpt lat="45.47628578982474" lon="9.894340855704767"><ele>106.66666666666667</ele><time>2026-04-06T16:02:48.001Z</time></trkpt><trkpt lat="45.47617841703906" lon="9.894512114290613"><ele>107.33333333333334</ele><time>2026-04-06T16:02:49.001Z</time></trkpt><trkpt lat="45.47607335490005" lon="9.894684360733498"><ele>108.0</ele><time>2026-04-06T16:02:50.001Z</time></trkpt><trkpt lat="45.47596365987858" lon="9.894862595419728"><ele>108.0</ele><time>2026-04-06T16:02:51.001Z</time></trkpt><trkpt lat="45.475851499119585" lon="9.895049886219773"><ele>108.0</ele><time>2026-04-06T16:02:52.001Z</time></trkpt><trkpt lat="45.47573406481888" lon="9.895237279692388"><ele>108.0</ele><time>2026-04-06T16:02:53.001Z</time></trkpt><trkpt lat="45.47561424703191" lon="9.895426536597665"><ele>107.33333333333334</ele><time>2026-04-06T16:02:54.001Z</time></trkpt><trkpt lat="45.475490630069636" lon="9.895624272024067"><ele>106.66666666666667</ele><time>2026-04-06T16:02:55.001Z</time></trkpt><trkpt lat="45.47536242124845" lon="9.895829125154883"><ele>106.0</ele><time>2026-04-06T16:02:56.001Z</time></trkpt><trkpt lat="45.47523003094713" lon="9.89604253392599"><ele>106.0</ele><time>2026-04-06T16:02:57.001Z</time></trkpt><trkpt lat="45.47509931938577" lon="9.896252953933693"><ele>106.0</ele><time>2026-04-06T16:02:58.001Z</time></trkpt><trkpt lat="45.47496831712475" lon="9.896461389358748"><ele>106.0</ele><time>2026-04-06T16:02:59.001Z</time></trkpt><trkpt lat="45.47483632751139" lon="9.896676760602245"><ele>105.66666666666667</ele><time>2026-04-06T16:03:00.001Z</time></trkpt><trkpt lat="45.47469659407667" lon="9.896898419422985"><ele>105.33333333333334</ele><time>2026-04-06T16:03:01.001Z</time></trkpt><trkpt lat="45.47455447119805" lon="9.897127308896186"><ele>105.0</ele><time>2026-04-06T16:03:02.001Z</time></trkpt><trkpt lat="45.474411165424435" lon="9.897363726789216"><ele>104.66666666666666</ele><time>2026-04-06T16:03:03.001Z</time></trkpt><trkpt lat="45.47426550021312" lon="9.897601048169053"><ele>104.33333333333333</ele><time>2026-04-06T16:03:04.001Z</time></trkpt><trkpt lat="45.47412003856636" lon="9.897832597527865"><ele>104.0</ele><time>2026-04-06T16:03:05.001Z</time></trkpt><trkpt lat="45.473980121893135" lon="9.89806452318131"><ele>104.0</ele><time>2026-04-06T16:03:06.001Z</time></trkpt><trkpt lat="45.47383384471549" lon="9.89829598748228"><ele>104.0</ele><time>2026-04-06T16:03:07.001Z</time></trkpt><trkpt lat="45.4736892932183" lon="9.898533328195864"><ele>104.0</ele><time>2026-04-06T16:03:08.001Z</time></trkpt><trkpt lat="45.47354308885535" lon="9.898772565991951"><ele>104.33333333333333</ele><time>2026-04-06T16:03:09.001Z</time></trkpt><trkpt lat="45.47339819572936" lon="9.899009112870695"><ele>104.66666666666666</ele><time>2026-04-06T16:03:10.001Z</time></trkpt><trkpt lat="45.47325101101931" lon="9.899247035275119"><ele>105.0</ele><time>2026-04-06T16:03:11.001Z</time></trkpt><trkpt lat="45.47310419794402" lon="9.899487327772267"><ele>105.0</ele><time>2026-04-06T16:03:12.001Z</time></trkpt><trkpt lat="45.47295433202955" lon="9.899731526606345"><ele>105.0</ele><time>2026-04-06T16:03:13.001Z</time></trkpt><trkpt lat="45.472808837023784" lon="9.8999770540102"><ele>103.5</ele><time>2026-04-06T16:03:14.001Z</time></trkpt><trkpt lat="45.47266194134625" lon="9.900221016646684"><ele>102.0</ele><time>2026-04-06T16:03:15.001Z</time></trkpt><trkpt lat="45.47251363036769" lon="9.900463007319885"><ele>102.0</ele><time>2026-04-06T16:03:16.001Z</time></trkpt><trkpt lat="45.4723636933762" lon="9.90071210213034"><ele>102.0</ele><time>2026-04-06T16:03:17.002Z</time></trkpt><trkpt lat="45.47221310412256" lon="9.900960895007476"><ele>102.0</ele><time>2026-04-06T16:03:18.002Z</time></trkpt><trkpt lat="45.47206171050475" lon="9.901205057980887"><ele>102.0</ele><time>2026-04-06T16:03:19.002Z</time></trkpt><trkpt lat="45.47191607045289" lon="9.901450320893474"><ele>102.0</ele><time>2026-04-06T16:03:20.002Z</time></trkpt><trkpt lat="45.47177106078347" lon="9.901692699264906"><ele>102.0</ele><time>2026-04-06T16:03:21.002Z</time></trkpt><trkpt lat="45.47162809472068" lon="9.901928207780493"><ele>102.0</ele><time>2026-04-06T16:03:22.002Z</time></trkpt><trkpt lat="45.47148478144994" lon="9.902157167513751"><ele>102.33333333333334</ele><time>2026-04-06T16:03:23.002Z</time></trkpt><trkpt lat="45.47133787654033" lon="9.90238666797004"><ele>102.66666666666667</ele><time>2026-04-06T16:03:24.002Z</time></trkpt><trkpt lat="45.471191053371044" lon="9.902620509678574"><ele>103.0</ele><time>2026-04-06T16:03:25.002Z</time></trkpt><trkpt lat="45.47104503085878" lon="9.902856025874371"><ele>103.0</ele><time>2026-04-06T16:03:26.002Z</time></trkpt><trkpt lat="45.47090341572012" lon="9.903089676412037"><ele>103.0</ele><time>2026-04-06T16:03:27.002Z</time></trkpt><trkpt lat="45.47076379739155" lon="9.903321518426996"><ele>103.0</ele><time>2026-04-06T16:03:28.002Z</time></trkpt><trkpt lat="45.470629114757145" lon="9.903547682641333"><ele>103.0</ele><time>2026-04-06T16:03:29.002Z</time></trkpt><trkpt lat="45.47049684399294" lon="9.903770387372015"><ele>103.0</ele><time>2026-04-06T16:03:30.002Z</time></trkpt><trkpt lat="45.470361377692804" lon="9.903992604477878"><ele>103.0</ele><time>2026-04-06T16:03:31.002Z</time></trkpt><trkpt lat="45.47023071146767" lon="9.904205170272629"><ele>103.33333333333334</ele><time>2026-04-06T16:03:32.002Z</time></trkpt><trkpt lat="45.47009938721306" lon="9.904411459286028"><ele>103.66666666666666</ele><time>2026-04-06T16:03:33.002Z</time></trkpt><trkpt lat="45.469979597017456" lon="9.904607654609435"><ele>104.0</ele><time>2026-04-06T16:03:34.002Z</time></trkpt><trkpt lat="45.469865500133025" lon="9.904793038242943"><ele>104.0</ele><time>2026-04-06T16:03:35.002Z</time></trkpt><trkpt lat="45.469757066754234" lon="9.904976232106304"><ele>104.0</ele><time>2026-04-06T16:03:36.002Z</time></trkpt><trkpt lat="45.469657972015376" lon="9.905140979398471"><ele>104.0</ele><time>2026-04-06T16:03:37.002Z</time></trkpt><trkpt lat="45.46956554466993" lon="9.905293041344727"><ele>103.2</ele><time>2026-04-06T16:03:38.002Z</time></trkpt><trkpt lat="45.4694817899938" lon="9.905431445893706"><ele>102.4</ele><time>2026-04-06T16:03:39.002Z</time></trkpt><trkpt lat="45.46940435581263" lon="9.905552718419955"><ele>101.6</ele><time>2026-04-06T16:03:40.002Z</time></trkpt><trkpt lat="45.46932906422654" lon="9.905649970169069"><ele>100.8</ele><time>2026-04-06T16:03:41.002Z</time></trkpt><trkpt lat="45.4692480897547" lon="9.905713361767136"><ele>100.0</ele><time>2026-04-06T16:03:42.002Z</time></trkpt><trkpt lat="45.469193096563174" lon="9.905805970133178"><ele>100.0</ele><time>2026-04-06T16:03:43.002Z</time></trkpt><trkpt lat="45.46914168426192" lon="9.905889139699857"><ele>100.0</ele><time>2026-04-06T16:03:44.002Z</time></trkpt><trkpt lat="45.46905763203063" lon="9.90595074131987"><ele>100.0</ele><time>2026-04-06T16:03:45.002Z</time></trkpt><trkpt lat="45.469032335206656" lon="9.906094446696823"><ele>100.0</ele><time>2026-04-06T16:03:46.002Z</time></trkpt><trkpt lat="45.46898536752109" lon="9.90623920671036"><ele>100.0</ele><time>2026-04-06T16:03:47.002Z</time></trkpt><trkpt lat="45.46891255101846" lon="9.906367704281678"><ele>100.25</ele><time>2026-04-06T16:03:48.002Z</time></trkpt><trkpt lat="45.468819578966254" lon="9.906495273500099"><ele>100.5</ele><time>2026-04-06T16:03:49.002Z</time></trkpt><trkpt lat="45.468726717298786" lon="9.906635190395184"><ele>100.75</ele><time>2026-04-06T16:03:50.002Z</time></trkpt><trkpt lat="45.46863490056202" lon="9.906791061307466"><ele>101.0</ele><time>2026-04-06T16:03:51.002Z</time></trkpt><trkpt lat="45.4685380768266" lon="9.906956919193778"><ele>101.33333333333333</ele><time>2026-04-06T16:03:52.002Z</time></trkpt><trkpt lat="45.46843987169979" lon="9.907119812286043"><ele>101.66666666666666</ele><time>2026-04-06T16:03:53.002Z</time></trkpt><trkpt lat="45.46833797220594" lon="9.907283957153828"><ele>102.0</ele><time>2026-04-06T16:03:54Z</time></trkpt><trkpt lat="45.468232478447675" lon="9.907456205880528"><ele>102.0</ele><time>2026-04-06T16:03:55Z</time></trkpt><trkpt lat="45.46812988732488" lon="9.907635122147022"><ele>102.0</ele><time>2026-04-06T16:03:56Z</time></trkpt><trkpt lat="45.46802496922157" lon="9.907810330985162"><ele>102.0</ele><time>2026-04-06T16:03:57Z</time></trkpt><trkpt lat="45.46791761286645" lon="9.907988528392226"><ele>102.0</ele><time>2026-04-06T16:03:58Z</time></trkpt><trkpt lat="45.46780680876129" lon="9.908161082970318"><ele>102.0</ele><time>2026-04-06T16:03:59Z</time></trkpt><trkpt lat="45.46769363414108" lon="9.908337927695849"><ele>102.0</ele><time>2026-04-06T16:04:00Z</time></trkpt><trkpt lat="45.467583000670366" lon="9.908516756853523"><ele>102.33333333333334</ele><time>2026-04-06T16:04:01Z</time></trkpt><trkpt lat="45.467473634874686" lon="9.908695149633669"><ele>102.66666666666667</ele><time>2026-04-06T16:04:02Z</time></trkpt><trkpt lat="45.46736666026306" lon="9.908872895981384"><ele>103.0</ele><time>2026-04-06T16:04:03Z</time></trkpt><trkpt lat="45.46725747842224" lon="9.909048159424819"><ele>103.0</ele><time>2026-04-06T16:04:04Z</time></trkpt><trkpt lat="45.467151095703045" lon="9.90921596762366"><ele>103.0</ele><time>2026-04-06T16:04:05Z</time></trkpt><trkpt lat="45.467052343207634" lon="9.9093777721853"><ele>103.0</ele><time>2026-04-06T16:04:06Z</time></trkpt><trkpt lat="45.4669617331182" lon="9.909527938339595"><ele>103.0</ele><time>2026-04-06T16:04:07Z</time></trkpt><trkpt lat="45.466874732546124" lon="9.909679818325639"><ele>103.0</ele><time>2026-04-06T16:04:08Z</time></trkpt><trkpt lat="45.466785471758186" lon="9.90983801786365"><ele>103.0</ele><time>2026-04-06T16:04:09Z</time></trkpt><trkpt lat="45.46670382334136" lon="9.910000293300982"><ele>103.0</ele><time>2026-04-06T16:04:10Z</time></trkpt><trkpt lat="45.4666245004197" lon="9.910147212838778"><ele>103.0</ele><time>2026-04-06T16:04:11Z</time></trkpt><trkpt lat="45.46654858847577" lon="9.910282118249587"><ele>103.0</ele><time>2026-04-06T16:04:12Z</time></trkpt><trkpt lat="45.46648143580438" lon="9.9104083386684"><ele>103.0</ele><time>2026-04-06T16:04:13Z</time></trkpt><trkpt lat="45.46641905831381" lon="9.91052426125719"><ele>103.0</ele><time>2026-04-06T16:04:14Z</time></trkpt><trkpt lat="45.46635321219357" lon="9.910634055612185"><ele>103.0</ele><time>2026-04-06T16:04:15Z</time></trkpt><trkpt lat="45.466280074837975" lon="9.91075642960067"><ele>103.0</ele><time>2026-04-06T16:04:16Z</time></trkpt><trkpt lat="45.466201898427535" lon="9.910878623117783"><ele>102.75</ele><time>2026-04-06T16:04:17Z</time></trkpt><trkpt lat="45.466128796823476" lon="9.911009371781546"><ele>102.5</ele><time>2026-04-06T16:04:18Z</time></trkpt><trkpt lat="45.4660455740655" lon="9.911133942049155"><ele>102.25</ele><time>2026-04-06T16:04:19Z</time></trkpt><trkpt lat="45.46594465141587" lon="9.91124565948506"><ele>102.0</ele><time>2026-04-06T16:04:20Z</time></trkpt><trkpt lat="45.46583282996303" lon="9.911350735462468"><ele>102.0</ele><time>2026-04-06T16:04:21Z</time></trkpt><trkpt lat="45.46570655244357" lon="9.911451393810884"><ele>102.0</ele><time>2026-04-06T16:04:22Z</time></trkpt><trkpt lat="45.46557860150938" lon="9.911558387627933"><ele>102.0</ele><time>2026-04-06T16:04:23Z</time></trkpt><trkpt lat="45.46546040306894" lon="9.911677549541718"><ele>102.0</ele><time>2026-04-06T16:04:24.001Z</time></trkpt><trkpt lat="45.46531829908722" lon="9.911777052880309"><ele>102.5</ele><time>2026-04-06T16:04:25.001Z</time></trkpt><trkpt lat="45.465186851079515" lon="9.911878321466192"><ele>103.0</ele><time>2026-04-06T16:04:26.001Z</time></trkpt><trkpt lat="45.465059611690684" lon="9.9119738814137"><ele>103.5</ele><time>2026-04-06T16:04:27.001Z</time></trkpt><trkpt lat="45.464946791841705" lon="9.912055391317539"><ele>104.0</ele><time>2026-04-06T16:04:28.001Z</time></trkpt><trkpt lat="45.46483646738368" lon="9.912117168758407"><ele>104.0</ele><time>2026-04-06T16:04:29.001Z</time></trkpt><trkpt lat="45.4647518645096" lon="9.912193483391615"><ele>104.0</ele><time>2026-04-06T16:04:30.001Z</time></trkpt><trkpt lat="45.46466785427462" lon="9.912255457251822"><ele>104.0</ele><time>2026-04-06T16:04:31.001Z</time></trkpt><trkpt lat="45.46458942629897" lon="9.912327495299563"><ele>104.0</ele><time>2026-04-06T16:04:32.001Z</time></trkpt><trkpt lat="45.464501603461095" lon="9.912403350777149"><ele>104.0</ele><time>2026-04-06T16:04:33.001Z</time></trkpt><trkpt lat="45.46440572344383" lon="9.912466169611658"><ele>103.80000000000001</ele><time>2026-04-06T16:04:34.001Z</time></trkpt><trkpt lat="45.46430489700269" lon="9.912529093620497"><ele>103.60000000000001</ele><time>2026-04-06T16:04:35.001Z</time></trkpt><trkpt lat="45.46420831675993" lon="9.912597292816868"><ele>103.4</ele><time>2026-04-06T16:04:36.001Z</time></trkpt><trkpt lat="45.46410907761921" lon="9.912669954572996"><ele>103.2</ele><time>2026-04-06T16:04:37.001Z</time></trkpt><trkpt lat="45.464014338562095" lon="9.912732509875502"><ele>103.0</ele><time>2026-04-06T16:04:38.001Z</time></trkpt><trkpt lat="45.46392268612752" lon="9.912788130479468"><ele>103.0</ele><time>2026-04-06T16:04:39.001Z</time></trkpt><trkpt lat="45.46383384684366" lon="9.912848719475603"><ele>103.0</ele><time>2026-04-06T16:04:40.001Z</time></trkpt><trkpt lat="45.463741893347986" lon="9.91291007033143"><ele>103.0</ele><time>2026-04-06T16:04:41.001Z</time></trkpt><trkpt lat="45.463658540995716" lon="9.912983970400186"><ele>103.0</ele><time>2026-04-06T16:04:42.001Z</time></trkpt><trkpt lat="45.46355563623226" lon="9.913040419577188"><ele>103.0</ele><time>2026-04-06T16:04:43.001Z</time></trkpt><trkpt lat="45.463468094510986" lon="9.913097553988337"><ele>103.00000000000001</ele><time>2026-04-06T16:04:44.001Z</time></trkpt><trkpt lat="45.46338723745693" lon="9.91315848827125"><ele>103.0</ele><time>2026-04-06T16:04:45.001Z</time></trkpt><trkpt lat="45.46330768562959" lon="9.9132036699941"><ele>103.0</ele><time>2026-04-06T16:04:46.001Z</time></trkpt><trkpt lat="45.46323265646764" lon="9.913248351055117"><ele>103.0</ele><time>2026-04-06T16:04:47.001Z</time></trkpt><trkpt lat="45.4631608012612" lon="9.913292013562954"><ele>103.00000000000001</ele><time>2026-04-06T16:04:48.001Z</time></trkpt><trkpt lat="45.46309017120911" lon="9.91333487327132"><ele>103.0</ele><time>2026-04-06T16:04:49.001Z</time></trkpt><trkpt lat="45.46302238335958" lon="9.913372787778725"><ele>102.33333333333334</ele><time>2026-04-06T16:04:50.001Z</time></trkpt><trkpt lat="45.4629460959965" lon="9.913413480652073"><ele>101.66666666666667</ele><time>2026-04-06T16:04:51.001Z</time></trkpt><trkpt lat="45.46288083844845" lon="9.913466962692603"><ele>101.0</ele><time>2026-04-06T16:04:52.001Z</time></trkpt><trkpt lat="45.46279515449015" lon="9.913514672592328"><ele>100.33333333333334</ele><time>2026-04-06T16:04:53.001Z</time></trkpt><trkpt lat="45.46271075984913" lon="9.913562076499131"><ele>99.66666666666667</ele><time>2026-04-06T16:04:54.001Z</time></trkpt><trkpt lat="45.46262554783357" lon="9.913639537056978"><ele>99.0</ele><time>2026-04-06T16:04:55.001Z</time></trkpt><trkpt lat="45.46253382144536" lon="9.913685884015779"><ele>99.0</ele><time>2026-04-06T16:04:56.001Z</time></trkpt><trkpt lat="45.462442575279546" lon="9.913757237544157"><ele>99.0</ele><time>2026-04-06T16:04:57.001Z</time></trkpt><trkpt lat="45.46234618347595" lon="9.913828605389927"><ele>99.0</ele><time>2026-04-06T16:04:58.001Z</time></trkpt><trkpt lat="45.4622391614991" lon="9.913907909641763"><ele>99.0</ele><time>2026-04-06T16:04:59.001Z</time></trkpt><trkpt lat="45.46212250116223" lon="9.913998981950048"><ele>99.0</ele><time>2026-04-06T16:05:00.001Z</time></trkpt><trkpt lat="45.4620116134807" lon="9.914085049659196"><ele>99.0</ele><time>2026-04-06T16:05:01.001Z</time></trkpt><trkpt lat="45.461901698298774" lon="9.914170699028773"><ele>99.0</ele><time>2026-04-06T16:05:02.001Z</time></trkpt><trkpt lat="45.461777542392554" lon="9.91423390369195"><ele>99.0</ele><time>2026-04-06T16:05:03.001Z</time></trkpt><trkpt lat="45.46166997477987" lon="9.914306596900184"><ele>99.0</ele><time>2026-04-06T16:05:04.001Z</time></trkpt><trkpt lat="45.461583713355246" lon="9.91436134735551"><ele>99.0</ele><time>2026-04-06T16:05:05.001Z</time></trkpt><trkpt lat="45.461520273406144" lon="9.914403962533603"><ele>99.0</ele><time>2026-04-06T16:05:06.001Z</time></trkpt><trkpt lat="45.46144269160544" lon="9.914455597621567"><ele>99.0</ele><time>2026-04-06T16:05:07.002Z</time></trkpt><trkpt lat="45.4613454191156" lon="9.914507187622048"><ele>99.0</ele><time>2026-04-06T16:05:08.002Z</time></trkpt><trkpt lat="45.46124619823702" lon="9.914577327011637"><ele>99.0</ele><time>2026-04-06T16:05:09.002Z</time></trkpt><trkpt lat="45.46113830676229" lon="9.91464671656655"><ele>99.0</ele><time>2026-04-06T16:05:10.002Z</time></trkpt><trkpt lat="45.46102836002512" lon="9.914724325780062"><ele>99.0</ele><time>2026-04-06T16:05:11.002Z</time></trkpt><trkpt lat="45.460910154228166" lon="9.914802990526145"><ele>99.0</ele><time>2026-04-06T16:05:12.002Z</time></trkpt><trkpt lat="45.460782818532195" lon="9.914888731055889"><ele>99.0</ele><time>2026-04-06T16:05:13.002Z</time></trkpt><trkpt lat="45.46064314283673" lon="9.914988393680604"><ele>99.0</ele><time>2026-04-06T16:05:14.002Z</time></trkpt><trkpt lat="45.460497743809924" lon="9.915095855358187"><ele>99.0</ele><time>2026-04-06T16:05:15.002Z</time></trkpt><trkpt lat="45.4603451901401" lon="9.915202886302168"><ele>98.66666666666666</ele><time>2026-04-06T16:05:16.002Z</time></trkpt><trkpt lat="45.46018027915343" lon="9.915304802220078"><ele>98.33333333333333</ele><time>2026-04-06T16:05:17.002Z</time></trkpt><trkpt lat="45.46001312648638" lon="9.91541295015351"><ele>98.0</ele><time>2026-04-06T16:05:18.002Z</time></trkpt><trkpt lat="45.45984732217788" lon="9.915511625630598"><ele>98.0</ele><time>2026-04-06T16:05:19.002Z</time></trkpt><trkpt lat="45.459673349935706" lon="9.915605878716764"><ele>98.0</ele><time>2026-04-06T16:05:20.002Z</time></trkpt><trkpt lat="45.45950347613659" lon="9.915710008301774"><ele>98.0</ele><time>2026-04-06T16:05:21.002Z</time></trkpt><trkpt lat="45.45932985824809" lon="9.91581970759638"><ele>98.0</ele><time>2026-04-06T16:05:22.002Z</time></trkpt><trkpt lat="45.45915191220613" lon="9.915930359816308"><ele>98.0</ele><time>2026-04-06T16:05:23.002Z</time></trkpt><trkpt lat="45.458969059640964" lon="9.916044390554188"><ele>98.0</ele><time>2026-04-06T16:05:24.002Z</time></trkpt><trkpt lat="45.45879172629294" lon="9.916163090988187"><ele>98.0</ele><time>2026-04-06T16:05:25.002Z</time></trkpt><trkpt lat="45.45860412228636" lon="9.916285296099023"><ele>98.0</ele><time>2026-04-06T16:05:26.002Z</time></trkpt><trkpt lat="45.458430618129526" lon="9.916403301846117"><ele>98.0</ele><time>2026-04-06T16:05:27.002Z</time></trkpt><trkpt lat="45.45824666940525" lon="9.916524694951962"><ele>98.0</ele><time>2026-04-06T16:05:28.002Z</time></trkpt><trkpt lat="45.45804628622596" lon="9.916653256638577"><ele>98.0</ele><time>2026-04-06T16:05:29.002Z</time></trkpt><trkpt lat="45.457845368984025" lon="9.916777520009155"><ele>98.0</ele><time>2026-04-06T16:05:30.002Z</time></trkpt><trkpt lat="45.45765182789947" lon="9.916899319093742"><ele>98.0</ele><time>2026-04-06T16:05:31.002Z</time></trkpt><trkpt lat="45.45746205295534" lon="9.917023504658962"><ele>98.0</ele><time>2026-04-06T16:05:32.002Z</time></trkpt><trkpt lat="45.45725857726544" lon="9.917149100393106"><ele>98.0</ele><time>2026-04-06T16:05:33.002Z</time></trkpt><trkpt lat="45.45706473495897" lon="9.917276753091649"><ele>97.33333333333333</ele><time>2026-04-06T16:05:34.002Z</time></trkpt><trkpt lat="45.45686874600983" lon="9.917395467808449"><ele>96.66666666666666</ele><time>2026-04-06T16:05:35.002Z</time></trkpt><trkpt lat="45.456681668187095" lon="9.917515585746187"><ele>96.0</ele><time>2026-04-06T16:05:36.002Z</time></trkpt><trkpt lat="45.45649669329881" lon="9.91763487773917"><ele>96.0</ele><time>2026-04-06T16:05:37.002Z</time></trkpt><trkpt lat="45.45630774710867" lon="9.917755340704137"><ele>96.0</ele><time>2026-04-06T16:05:38.002Z</time></trkpt><trkpt lat="45.456114334748364" lon="9.91787676461438"><ele>96.0</ele><time>2026-04-06T16:05:39.002Z</time></trkpt><trkpt lat="45.45593108569821" lon="9.917995001476923"><ele>96.0</ele><time>2026-04-06T16:05:40.002Z</time></trkpt><trkpt lat="45.455755142255974" lon="9.9181003894413"><ele>96.0</ele><time>2026-04-06T16:05:41.002Z</time></trkpt><trkpt lat="45.45558365450611" lon="9.918207671325657"><ele>96.0</ele><time>2026-04-06T16:05:42.002Z</time></trkpt><trkpt lat="45.455418000655705" lon="9.918319488489244"><ele>95.66666666666667</ele><time>2026-04-06T16:05:43.002Z</time></trkpt><trkpt lat="45.45525224219337" lon="9.918426916992281"><ele>95.33333333333334</ele><time>2026-04-06T16:05:44.002Z</time></trkpt><trkpt lat="45.455087147333465" lon="9.918532881886039"><ele>95.0</ele><time>2026-04-06T16:05:45.002Z</time></trkpt><trkpt lat="45.4549208251871" lon="9.91864213142787"><ele>95.0</ele><time>2026-04-06T16:05:46.002Z</time></trkpt><trkpt lat="45.45476565346957" lon="9.918752876616114"><ele>95.0</ele><time>2026-04-06T16:05:47.002Z</time></trkpt><trkpt lat="45.454603718724684" lon="9.918856670898242"><ele>95.0</ele><time>2026-04-06T16:05:48.002Z</time></trkpt><trkpt lat="45.45444440859298" lon="9.918956697411463"><ele>95.0</ele><time>2026-04-06T16:05:49.002Z</time></trkpt><trkpt lat="45.454279530532794" lon="9.919055487261467"><ele>95.0</ele><time>2026-04-06T16:05:50.002Z</time></trkpt><trkpt lat="45.45412055736033" lon="9.919161590554177"><ele>95.0</ele><time>2026-04-06T16:05:51.003Z</time></trkpt><trkpt lat="45.453964600934675" lon="9.919264187521424"><ele>95.0</ele><time>2026-04-06T16:05:52.003Z</time></trkpt><trkpt lat="45.4538092744243" lon="9.919366780293291"><ele>95.0</ele><time>2026-04-06T16:05:53.003Z</time></trkpt><trkpt lat="45.45366036992592" lon="9.9194591710611"><ele>95.0</ele><time>2026-04-06T16:05:54.003Z</time></trkpt><trkpt lat="45.45352231462541" lon="9.91954085608515"><ele>95.25</ele><time>2026-04-06T16:05:55.003Z</time></trkpt><trkpt lat="45.453381602934385" lon="9.919611871740292"><ele>95.5</ele><time>2026-04-06T16:05:56.003Z</time></trkpt><trkpt lat="45.45324824707161" lon="9.91968356360848"><ele>95.75</ele><time>2026-04-06T16:05:57.003Z</time></trkpt><trkpt lat="45.45311518118812" lon="9.919755683814785"><ele>96.0</ele><time>2026-04-06T16:05:58.003Z</time></trkpt><trkpt lat="45.45299448021781" lon="9.919843112726438"><ele>96.25</ele><time>2026-04-06T16:05:59.003Z</time></trkpt><trkpt lat="45.45287584098753" lon="9.91990743083142"><ele>96.5</ele><time>2026-04-06T16:06:00.001Z</time></trkpt><trkpt lat="45.452751245769385" lon="9.919979178626601"><ele>96.75</ele><time>2026-04-06T16:06:01.001Z</time></trkpt><trkpt lat="45.45261810010972" lon="9.920062013180726"><ele>97.0</ele><time>2026-04-06T16:06:02.001Z</time></trkpt><trkpt lat="45.45247091573846" lon="9.920061884813505"><ele>97.0</ele><time>2026-04-06T16:06:03.001Z</time></trkpt><trkpt lat="45.45231799544075" lon="9.920117863350782"><ele>97.0</ele><time>2026-04-06T16:06:04.001Z</time></trkpt><trkpt lat="45.45215493877893" lon="9.920174970710079"><ele>97.0</ele><time>2026-04-06T16:06:05.001Z</time></trkpt><trkpt lat="45.45199631425014" lon="9.920227260292398"><ele>96.33333333333334</ele><time>2026-04-06T16:06:06.001Z</time></trkpt><trkpt lat="45.451831991702974" lon="9.920277076051574"><ele>95.66666666666667</ele><time>2026-04-06T16:06:07.001Z</time></trkpt><trkpt lat="45.45165674546461" lon="9.920323061438987"><ele>95.0</ele><time>2026-04-06T16:06:08.001Z</time></trkpt><trkpt lat="45.45148699765441" lon="9.920374598677752"><ele>95.0</ele><time>2026-04-06T16:06:09Z</time></trkpt><trkpt lat="45.45130767420527" lon="9.92041638832935"><ele>95.0</ele><time>2026-04-06T16:06:10Z</time></trkpt><trkpt lat="45.451123474239395" lon="9.920453485361598"><ele>95.0</ele><time>2026-04-06T16:06:11Z</time></trkpt><trkpt lat="45.450931107756986" lon="9.920480855258207"><ele>94.33333333333334</ele><time>2026-04-06T16:06:12Z</time></trkpt><trkpt lat="45.45073459301136" lon="9.920501203613862"><ele>93.66666666666667</ele><time>2026-04-06T16:06:13Z</time></trkpt><trkpt lat="45.450542030461285" lon="9.920516868733078"><ele>93.0</ele><time>2026-04-06T16:06:14Z</time></trkpt><trkpt lat="45.45034954726608" lon="9.920525026405064"><ele>93.0</ele><time>2026-04-06T16:06:15Z</time></trkpt><trkpt lat="45.45015493785696" lon="9.92052455305683"><ele>93.0</ele><time>2026-04-06T16:06:16Z</time></trkpt><trkpt lat="45.44995116586575" lon="9.920521772212187"><ele>93.0</ele><time>2026-04-06T16:06:17Z</time></trkpt><trkpt lat="45.44974462685065" lon="9.92052495550626"><ele>92.66666666666667</ele><time>2026-04-06T16:06:18Z</time></trkpt><trkpt lat="45.44953516188027" lon="9.92053018627163"><ele>92.33333333333334</ele><time>2026-04-06T16:06:19Z</time></trkpt><trkpt lat="45.44932223007564" lon="9.920534662496346"><ele>92.0</ele><time>2026-04-06T16:06:20Z</time></trkpt><trkpt lat="45.44910721304892" lon="9.92053161648342"><ele>92.0</ele><time>2026-04-06T16:06:21.001Z</time></trkpt><trkpt lat="45.44889377967342" lon="9.920532404925888"><ele>92.0</ele><time>2026-04-06T16:06:22.001Z</time></trkpt><trkpt lat="45.448685457980545" lon="9.920536929974308"><ele>92.0</ele><time>2026-04-06T16:06:23.001Z</time></trkpt><trkpt lat="45.44848178013299" lon="9.920541461268074"><ele>92.33333333333334</ele><time>2026-04-06T16:06:24.001Z</time></trkpt><trkpt lat="45.44827259041878" lon="9.9205475614264"><ele>92.66666666666667</ele><time>2026-04-06T16:06:25.001Z</time></trkpt><trkpt lat="45.44806724996142" lon="9.920549590890117"><ele>93.0</ele><time>2026-04-06T16:06:26.001Z</time></trkpt><trkpt lat="45.44786275957109" lon="9.920552952726421"><ele>93.0</ele><time>2026-04-06T16:06:27.001Z</time></trkpt><trkpt lat="45.447654813578325" lon="9.920555189444324"><ele>93.0</ele><time>2026-04-06T16:06:28.001Z</time></trkpt><trkpt lat="45.44744710251034" lon="9.920553461943248"><ele>93.0</ele><time>2026-04-06T16:06:29.001Z</time></trkpt><trkpt lat="45.44723529978727" lon="9.920552895316654"><ele>92.66666666666667</ele><time>2026-04-06T16:06:30.001Z</time></trkpt><trkpt lat="45.447026145302296" lon="9.920553902166308"><ele>92.33333333333334</ele><time>2026-04-06T16:06:31.001Z</time></trkpt><trkpt lat="45.44683371402212" lon="9.920547397346066"><ele>92.0</ele><time>2026-04-06T16:06:32.001Z</time></trkpt><trkpt lat="45.4466497470781" lon="9.920545499147005"><ele>92.0</ele><time>2026-04-06T16:06:33.001Z</time></trkpt><trkpt lat="45.44646379462308" lon="9.9205476982731"><ele>92.0</ele><time>2026-04-06T16:06:34.001Z</time></trkpt><trkpt lat="45.4462737924464" lon="9.920558298896106"><ele>92.0</ele><time>2026-04-06T16:06:35.001Z</time></trkpt><trkpt lat="45.4460929917439" lon="9.920564048912532"><ele>92.33333333333334</ele><time>2026-04-06T16:06:36.001Z</time></trkpt><trkpt lat="45.445906362529904" lon="9.920578721970164"><ele>92.66666666666667</ele><time>2026-04-06T16:06:37.001Z</time></trkpt><trkpt lat="45.445723852968996" lon="9.920593455982491"><ele>93.0</ele><time>2026-04-06T16:06:38.001Z</time></trkpt><trkpt lat="45.44553567735838" lon="9.920608678410177"><ele>93.0</ele><time>2026-04-06T16:06:39.001Z</time></trkpt><trkpt lat="45.44534432923233" lon="9.920633946416233"><ele>93.0</ele><time>2026-04-06T16:06:40.001Z</time></trkpt><trkpt lat="45.44514554521444" lon="9.92066276696732"><ele>93.0</ele><time>2026-04-06T16:06:41.001Z</time></trkpt><trkpt lat="45.444950478953956" lon="9.920695510160881"><ele>93.0</ele><time>2026-04-06T16:06:42.001Z</time></trkpt><trkpt lat="45.444755873235216" lon="9.920736535988041"><ele>93.0</ele><time>2026-04-06T16:06:43.001Z</time></trkpt><trkpt lat="45.44455861446485" lon="9.920784021196313"><ele>93.0</ele><time>2026-04-06T16:06:44.001Z</time></trkpt><trkpt lat="45.44436294117731" lon="9.920829161618814"><ele>93.33333333333333</ele><time>2026-04-06T16:06:45.001Z</time></trkpt><trkpt lat="45.44416795617912" lon="9.920870219923218"><ele>93.66666666666666</ele><time>2026-04-06T16:06:46.001Z</time></trkpt><trkpt lat="45.44398578252647" lon="9.920918809868967"><ele>94.0</ele><time>2026-04-06T16:06:47.001Z</time></trkpt><trkpt lat="45.44381390649177" lon="9.920966528800701"><ele>94.0</ele><time>2026-04-06T16:06:48.001Z</time></trkpt><trkpt lat="45.44363039721624" lon="9.921021366756555"><ele>94.0</ele><time>2026-04-06T16:06:49.001Z</time></trkpt><trkpt lat="45.44345758201079" lon="9.921083667611539"><ele>94.0</ele><time>2026-04-06T16:06:50.001Z</time></trkpt><trkpt lat="45.44329046950455" lon="9.921135482677666"><ele>94.0</ele><time>2026-04-06T16:06:51.001Z</time></trkpt><trkpt lat="45.44313232957433" lon="9.92116922269761"><ele>94.0</ele><time>2026-04-06T16:06:52.001Z</time></trkpt><trkpt lat="45.44298487039768" lon="9.921213610791657"><ele>94.0</ele><time>2026-04-06T16:06:53.001Z</time></trkpt><trkpt lat="45.44285635204881" lon="9.921243132152448"><ele>94.0</ele><time>2026-04-06T16:06:54.001Z</time></trkpt><trkpt lat="45.44275780596688" lon="9.921272577198128"><ele>93.5</ele><time>2026-04-06T16:06:55.001Z</time></trkpt><trkpt lat="45.442659074459584" lon="9.921281003141132"><ele>93.0</ele><time>2026-04-06T16:06:57.001Z</time></trkpt><trkpt lat="45.44259235265551" lon="9.921275529291696"><ele>92.5</ele><time>2026-04-06T16:06:58.001Z</time></trkpt><trkpt lat="45.44244769180168" lon="9.921030049929852"><ele>92.0</ele><time>2026-04-06T16:07:00.001Z</time></trkpt><trkpt lat="45.44246267762664" lon="9.92087971246895"><ele>91.39999999999999</ele><time>2026-04-06T16:07:01.001Z</time></trkpt><trkpt lat="45.442436093529494" lon="9.920727882529826"><ele>90.8</ele><time>2026-04-06T16:07:02.001Z</time></trkpt><trkpt lat="45.44242750589666" lon="9.920582341152954"><ele>90.2</ele><time>2026-04-06T16:07:03.001Z</time></trkpt><trkpt lat="45.44241920673646" lon="9.920456213599408"><ele>89.6</ele><time>2026-04-06T16:07:04.001Z</time></trkpt><trkpt lat="45.44241455148957" lon="9.920352207163122"><ele>89.0</ele><time>2026-04-06T16:07:05.001Z</time></trkpt><trkpt lat="45.44241350792153" lon="9.920206407184454"><ele>89.0</ele><time>2026-04-06T16:07:07.001Z</time></trkpt><trkpt lat="45.442397584942995" lon="9.920104479618542"><ele>89.0</ele><time>2026-04-06T16:07:11.001Z</time></trkpt><trkpt lat="45.44234652838624" lon="9.920043455669852"><ele>89.0</ele><time>2026-04-06T16:07:15.002Z</time></trkpt><trkpt lat="45.44238537167221" lon="9.920129135004741"><ele>89.0</ele><time>2026-04-06T16:07:24.002Z</time></trkpt><trkpt lat="45.44240584972396" lon="9.920239075525059"><ele>89.0</ele><time>2026-04-06T16:07:26.002Z</time></trkpt><trkpt lat="45.44240819828425" lon="9.920358201470725"><ele>89.0</ele><time>2026-04-06T16:07:27.002Z</time></trkpt><trkpt lat="45.44240957264174" lon="9.920489455014655"><ele>89.0</ele><time>2026-04-06T16:07:28.002Z</time></trkpt><trkpt lat="45.44241343933356" lon="9.9206086314322"><ele>89.0</ele><time>2026-04-06T16:07:29.002Z</time></trkpt><trkpt lat="45.442415049312814" lon="9.920720451647055"><ele>89.0</ele><time>2026-04-06T16:07:30.002Z</time></trkpt><trkpt lat="45.44241835066443" lon="9.920832292238368"><ele>89.0</ele><time>2026-04-06T16:07:31.002Z</time></trkpt><trkpt lat="45.442426825850966" lon="9.920939897491248"><ele>89.0</ele><time>2026-04-06T16:07:32.002Z</time></trkpt><trkpt lat="45.442426392417346" lon="9.921032579240714"><ele>89.0</ele><time>2026-04-06T16:07:33.002Z</time></trkpt><trkpt lat="45.442404425090736" lon="9.921146564627902"><ele>89.4</ele><time>2026-04-06T16:07:35.002Z</time></trkpt><trkpt lat="45.44234803418106" lon="9.921253490838998"><ele>89.80000000000001</ele><time>2026-04-06T16:07:38.002Z</time></trkpt><trkpt lat="45.44231796688572" lon="9.921360107661988"><ele>90.19999999999999</ele><time>2026-04-06T16:07:39.002Z</time></trkpt><trkpt lat="45.44221116755899" lon="9.921459711242482"><ele>90.6</ele><time>2026-04-06T16:07:41.002Z</time></trkpt><trkpt lat="45.442135131580564" lon="9.92149777654892"><ele>91.0</ele><time>2026-04-06T16:07:42.002Z</time></trkpt><trkpt lat="45.442041737680896" lon="9.921519588350119"><ele>91.0</ele><time>2026-04-06T16:07:43.002Z</time></trkpt><trkpt lat="45.4419431495338" lon="9.921543225619095"><ele>91.0</ele><time>2026-04-06T16:07:44.002Z</time></trkpt><trkpt lat="45.44182835783309" lon="9.92157439796313"><ele>91.0</ele><time>2026-04-06T16:07:45.002Z</time></trkpt><trkpt lat="45.44170705764798" lon="9.921618174977658"><ele>91.0</ele><time>2026-04-06T16:07:46.002Z</time></trkpt><trkpt lat="45.44158470179492" lon="9.921658253630438"><ele>91.0</ele><time>2026-04-06T16:07:47.002Z</time></trkpt><trkpt lat="45.44145476590754" lon="9.921698788244402"><ele>91.0</ele><time>2026-04-06T16:07:48.002Z</time></trkpt><trkpt lat="45.441317229874706" lon="9.921739706883162"><ele>91.0</ele><time>2026-04-06T16:07:49.002Z</time></trkpt><trkpt lat="45.4411776555821" lon="9.92177893470619"><ele>91.0</ele><time>2026-04-06T16:07:50.002Z</time></trkpt><trkpt lat="45.44102811242419" lon="9.92182193617112"><ele>91.33333333333333</ele><time>2026-04-06T16:07:51.002Z</time></trkpt><trkpt lat="45.440858325822894" lon="9.921880269316647"><ele>91.66666666666667</ele><time>2026-04-06T16:07:52.002Z</time></trkpt><trkpt lat="45.44068364741729" lon="9.921948271102547"><ele>92.0</ele><time>2026-04-06T16:07:53.002Z</time></trkpt><trkpt lat="45.440501033242455" lon="9.92201024289499"><ele>91.66666666666667</ele><time>2026-04-06T16:07:54.002Z</time></trkpt><trkpt lat="45.4403165796272" lon="9.922071081494538"><ele>91.33333333333333</ele><time>2026-04-06T16:07:55.002Z</time></trkpt><trkpt lat="45.44013383315929" lon="9.922130364697882"><ele>91.0</ele><time>2026-04-06T16:07:56.002Z</time></trkpt><trkpt lat="45.43993918687966" lon="9.92217470485646"><ele>91.0</ele><time>2026-04-06T16:07:57.002Z</time></trkpt><trkpt lat="45.43973212708521" lon="9.922228495017126"><ele>91.0</ele><time>2026-04-06T16:07:58.002Z</time></trkpt><trkpt lat="45.439522521974666" lon="9.922284346836747"><ele>91.0</ele><time>2026-04-06T16:07:59.002Z</time></trkpt><trkpt lat="45.439305747241534" lon="9.922344855399194"><ele>90.0</ele><time>2026-04-06T16:08:00.003Z</time></trkpt><trkpt lat="45.43908187063992" lon="9.922410281566616"><ele>89.0</ele><time>2026-04-06T16:08:01.003Z</time></trkpt><trkpt lat="45.43885683170468" lon="9.922480093407957"><ele>89.33333333333334</ele><time>2026-04-06T16:08:02.003Z</time></trkpt><trkpt lat="45.43864295458296" lon="9.922543578656898"><ele>89.66666666666667</ele><time>2026-04-06T16:08:03.003Z</time></trkpt><trkpt lat="45.438437335449905" lon="9.922604274615"><ele>90.0</ele><time>2026-04-06T16:08:04.003Z</time></trkpt><trkpt lat="45.43823388078502" lon="9.92266700423925"><ele>90.33333333333333</ele><time>2026-04-06T16:08:05.003Z</time></trkpt><trkpt lat="45.43801949792495" lon="9.922732169884748"><ele>90.66666666666666</ele><time>2026-04-06T16:08:06.001Z</time></trkpt><trkpt lat="45.437806509154896" lon="9.922799313560878"><ele>91.0</ele><time>2026-04-06T16:08:07.001Z</time></trkpt><trkpt lat="45.43758324196819" lon="9.922864822277202"><ele>91.0</ele><time>2026-04-06T16:08:08.001Z</time></trkpt><trkpt lat="45.437364811931815" lon="9.922939846687404"><ele>91.0</ele><time>2026-04-06T16:08:09.001Z</time></trkpt><trkpt lat="45.4371437436648" lon="9.923008996868747"><ele>91.5</ele><time>2026-04-06T16:08:10.001Z</time></trkpt><trkpt lat="45.436920561552185" lon="9.923076086632644"><ele>92.0</ele><time>2026-04-06T16:08:11.001Z</time></trkpt><trkpt lat="45.43669178914498" lon="9.92314735581366"><ele>92.0</ele><time>2026-04-06T16:08:12.001Z</time></trkpt><trkpt lat="45.4364550887725" lon="9.923222615576734"><ele>92.0</ele><time>2026-04-06T16:08:13.001Z</time></trkpt><trkpt lat="45.436224894746346" lon="9.923298035902015"><ele>91.0</ele><time>2026-04-06T16:08:14.001Z</time></trkpt><trkpt lat="45.43599906353561" lon="9.92337441723555"><ele>90.0</ele><time>2026-04-06T16:08:15.001Z</time></trkpt><trkpt lat="45.43578698489734" lon="9.923451045653975"><ele>90.0</ele><time>2026-04-06T16:08:16.001Z</time></trkpt><trkpt lat="45.43558292664952" lon="9.92349787243713"><ele>90.0</ele><time>2026-04-06T16:08:17.001Z</time></trkpt><trkpt lat="45.435382288353104" lon="9.923563221347441"><ele>90.0</ele><time>2026-04-06T16:08:18Z</time></trkpt><trkpt lat="45.43520285905267" lon="9.92362946679049"><ele>89.75</ele><time>2026-04-06T16:08:19Z</time></trkpt><trkpt lat="45.43504076112525" lon="9.923692322420186"><ele>89.5</ele><time>2026-04-06T16:08:20Z</time></trkpt><trkpt lat="45.43490202563919" lon="9.923747270589388"><ele>89.25</ele><time>2026-04-06T16:08:21Z</time></trkpt><trkpt lat="45.434780880986274" lon="9.923795787046432"><ele>89.0</ele><time>2026-04-06T16:08:22Z</time></trkpt><trkpt lat="45.43467342420981" lon="9.923856919400722"><ele>89.0</ele><time>2026-04-06T16:08:23.001Z</time></trkpt><trkpt lat="45.43457488350722" lon="9.923881430777605"><ele>89.0</ele><time>2026-04-06T16:08:24.001Z</time></trkpt><trkpt lat="45.434475888801515" lon="9.923889702404075"><ele>89.0</ele><time>2026-04-06T16:08:25.001Z</time></trkpt><trkpt lat="45.43436693921342" lon="9.92387051777955"><ele>89.0</ele><time>2026-04-06T16:08:26.001Z</time></trkpt><trkpt lat="45.43427445145727" lon="9.923915140257227"><ele>89.0</ele><time>2026-04-06T16:08:27.001Z</time></trkpt><trkpt lat="45.434161947885165" lon="9.923961052714924"><ele>89.0</ele><time>2026-04-06T16:08:28.001Z</time></trkpt><trkpt lat="45.434062924602785" lon="9.92400168079697"><ele>89.0</ele><time>2026-04-06T16:08:29.001Z</time></trkpt><trkpt lat="45.43397241037486" lon="9.92404496600233"><ele>89.0</ele><time>2026-04-06T16:08:30.001Z</time></trkpt><trkpt lat="45.43386237381102" lon="9.924135814760465"><ele>89.0</ele><time>2026-04-06T16:08:31.001Z</time></trkpt><trkpt lat="45.43373058386815" lon="9.924187383555603"><ele>88.33333333333334</ele><time>2026-04-06T16:08:32.001Z</time></trkpt><trkpt lat="45.43358130846978" lon="9.924236258248216"><ele>87.66666666666667</ele><time>2026-04-06T16:08:33.001Z</time></trkpt><trkpt lat="45.43342821993576" lon="9.924302335815769"><ele>87.0</ele><time>2026-04-06T16:08:34.001Z</time></trkpt><trkpt lat="45.433257625898165" lon="9.924384196456153"><ele>87.0</ele><time>2026-04-06T16:08:35.001Z</time></trkpt><trkpt lat="45.43308632688683" lon="9.92445920932695"><ele>87.0</ele><time>2026-04-06T16:08:36.001Z</time></trkpt><trkpt lat="45.43292144125639" lon="9.924514640127992"><ele>87.0</ele><time>2026-04-06T16:08:37.001Z</time></trkpt><trkpt lat="45.43274999811437" lon="9.924569098961513"><ele>87.33333333333333</ele><time>2026-04-06T16:08:38.001Z</time></trkpt><trkpt lat="45.43255896444462" lon="9.924625415023268"><ele>87.66666666666666</ele><time>2026-04-06T16:08:39.001Z</time></trkpt><trkpt lat="45.43236508609674" lon="9.924682926271265"><ele>88.0</ele><time>2026-04-06T16:08:40.001Z</time></trkpt><trkpt lat="45.43216643166927" lon="9.924725865052064"><ele>88.33333333333333</ele><time>2026-04-06T16:08:41.001Z</time></trkpt><trkpt lat="45.431958394006614" lon="9.924777891854369"><ele>88.66666666666667</ele><time>2026-04-06T16:08:42.001Z</time></trkpt><trkpt lat="45.431752083910624" lon="9.92483427616999"><ele>89.0</ele><time>2026-04-06T16:08:43.001Z</time></trkpt><trkpt lat="45.43154389621458" lon="9.924888982830351"><ele>89.0</ele><time>2026-04-06T16:08:44.001Z</time></trkpt><trkpt lat="45.43135106792502" lon="9.924946375848084"><ele>89.0</ele><time>2026-04-06T16:08:45.001Z</time></trkpt><trkpt lat="45.43117823840759" lon="9.925005221116287"><ele>89.0</ele><time>2026-04-06T16:08:46.001Z</time></trkpt><trkpt lat="45.43096229865056" lon="9.925079277800581"><ele>89.0</ele><time>2026-04-06T16:08:47.001Z</time></trkpt><trkpt lat="45.43074065171802" lon="9.925151729347764"><ele>89.0</ele><time>2026-04-06T16:08:48.001Z</time></trkpt><trkpt lat="45.43051886991339" lon="9.925221842834937"><ele>89.0</ele><time>2026-04-06T16:08:49.001Z</time></trkpt><trkpt lat="45.430298792075355" lon="9.925292565512532"><ele>89.0</ele><time>2026-04-06T16:08:50.001Z</time></trkpt><trkpt lat="45.430071427300845" lon="9.925364301442714"><ele>89.0</ele><time>2026-04-06T16:08:51.001Z</time></trkpt><trkpt lat="45.429844369663485" lon="9.925440629401814"><ele>89.0</ele><time>2026-04-06T16:08:52.001Z</time></trkpt><trkpt lat="45.429616288903986" lon="9.92551602898025"><ele>88.5</ele><time>2026-04-06T16:08:53.001Z</time></trkpt><trkpt lat="45.429388142594284" lon="9.92560038275005"><ele>88.0</ele><time>2026-04-06T16:08:54.001Z</time></trkpt><trkpt lat="45.42915863931126" lon="9.92568173706423"><ele>88.0</ele><time>2026-04-06T16:08:55.001Z</time></trkpt><trkpt lat="45.428927520632854" lon="9.92576812352633"><ele>88.0</ele><time>2026-04-06T16:08:56.001Z</time></trkpt><trkpt lat="45.42870110834417" lon="9.925855979644862"><ele>87.0</ele><time>2026-04-06T16:08:57.001Z</time></trkpt><trkpt lat="45.428480052996804" lon="9.92595011197303"><ele>86.0</ele><time>2026-04-06T16:08:58.001Z</time></trkpt><trkpt lat="45.4282616530886" lon="9.926041494069734"><ele>86.0</ele><time>2026-04-06T16:08:59.001Z</time></trkpt><trkpt lat="45.42804951290773" lon="9.926130777320026"><ele>86.0</ele><time>2026-04-06T16:09:00.001Z</time></trkpt><trkpt lat="45.42783893715797" lon="9.926225391647092"><ele>86.0</ele><time>2026-04-06T16:09:01.001Z</time></trkpt><trkpt lat="45.42762012930041" lon="9.92632123696199"><ele>86.0</ele><time>2026-04-06T16:09:02.001Z</time></trkpt><trkpt lat="45.42740428021268" lon="9.92641488188363"><ele>86.0</ele><time>2026-04-06T16:09:03.001Z</time></trkpt><trkpt lat="45.4271930546667" lon="9.926506744416734"><ele>86.0</ele><time>2026-04-06T16:09:04.001Z</time></trkpt><trkpt lat="45.42698483639308" lon="9.926594629701789"><ele>86.0</ele><time>2026-04-06T16:09:05.001Z</time></trkpt><trkpt lat="45.42677136004275" lon="9.926681144190898"><ele>86.0</ele><time>2026-04-06T16:09:06.001Z</time></trkpt><trkpt lat="45.42656113136515" lon="9.92677018671126"><ele>86.0</ele><time>2026-04-06T16:09:07.001Z</time></trkpt><trkpt lat="45.42635531246242" lon="9.926862611980665"><ele>86.33333333333334</ele><time>2026-04-06T16:09:08.001Z</time></trkpt><trkpt lat="45.42614616388884" lon="9.92695529305655"><ele>86.66666666666667</ele><time>2026-04-06T16:09:09.001Z</time></trkpt><trkpt lat="45.42594108417294" lon="9.927045337164108"><ele>87.0</ele><time>2026-04-06T16:09:10.001Z</time></trkpt><trkpt lat="45.425737599441774" lon="9.927136278368206"><ele>87.0</ele><time>2026-04-06T16:09:11.001Z</time></trkpt><trkpt lat="45.42554085038182" lon="9.927231212803482"><ele>87.0</ele><time>2026-04-06T16:09:12.001Z</time></trkpt><trkpt lat="45.425345002488264" lon="9.927317132431424"><ele>87.0</ele><time>2026-04-06T16:09:13.001Z</time></trkpt><trkpt lat="45.42514092593619" lon="9.927394712081709"><ele>86.66666666666667</ele><time>2026-04-06T16:09:14.001Z</time></trkpt><trkpt lat="45.42494119749644" lon="9.927437156273164"><ele>86.33333333333334</ele><time>2026-04-06T16:09:15.001Z</time></trkpt><trkpt lat="45.42474039924691" lon="9.927452908013803"><ele>86.0</ele><time>2026-04-06T16:09:16.001Z</time></trkpt><trkpt lat="45.42454384068649" lon="9.927443804608927"><ele>86.0</ele><time>2026-04-06T16:09:17.001Z</time></trkpt><trkpt lat="45.42435034664589" lon="9.927435567653006"><ele>86.0</ele><time>2026-04-06T16:09:18.001Z</time></trkpt><trkpt lat="45.424151852778216" lon="9.927432831981786"><ele>86.0</ele><time>2026-04-06T16:09:19.001Z</time></trkpt><trkpt lat="45.42394590421328" lon="9.927433104346587"><ele>86.33333333333334</ele><time>2026-04-06T16:09:20.001Z</time></trkpt><trkpt lat="45.42373660849858" lon="9.927431834439105"><ele>86.66666666666667</ele><time>2026-04-06T16:09:21.001Z</time></trkpt><trkpt lat="45.423531204593445" lon="9.92743184040404"><ele>87.0</ele><time>2026-04-06T16:09:22.002Z</time></trkpt><trkpt lat="45.4233291216739" lon="9.927426612666826"><ele>87.0</ele><time>2026-04-06T16:09:23.002Z</time></trkpt><trkpt lat="45.42312617113206" lon="9.927414782512855"><ele>87.0</ele><time>2026-04-06T16:09:24.002Z</time></trkpt><trkpt lat="45.422936190666" lon="9.927406876931212"><ele>87.0</ele><time>2026-04-06T16:09:25.002Z</time></trkpt><trkpt lat="45.42275449611134" lon="9.927404043124868"><ele>86.33333333333333</ele><time>2026-04-06T16:09:26.002Z</time></trkpt><trkpt lat="45.42257575168558" lon="9.927405672546497"><ele>85.66666666666666</ele><time>2026-04-06T16:09:27.002Z</time></trkpt><trkpt lat="45.422396427442294" lon="9.927394608304938"><ele>85.0</ele><time>2026-04-06T16:09:28.002Z</time></trkpt><trkpt lat="45.42221811894301" lon="9.92739160190603"><ele>85.0</ele><time>2026-04-06T16:09:29.002Z</time></trkpt><trkpt lat="45.422030694098375" lon="9.927390999007567"><ele>85.0</ele><time>2026-04-06T16:09:30.002Z</time></trkpt><trkpt lat="45.421832182997164" lon="9.927385146001523"><ele>85.0</ele><time>2026-04-06T16:09:31.002Z</time></trkpt><trkpt lat="45.42162956072624" lon="9.927382786090106"><ele>85.0</ele><time>2026-04-06T16:09:32.002Z</time></trkpt><trkpt lat="45.421434206078445" lon="9.927386090310282"><ele>85.0</ele><time>2026-04-06T16:09:33.002Z</time></trkpt><trkpt lat="45.42124978763151" lon="9.927385903602563"><ele>85.0</ele><time>2026-04-06T16:09:34.002Z</time></trkpt><trkpt lat="45.421063459406625" lon="9.927376790208232"><ele>85.33333333333333</ele><time>2026-04-06T16:09:35.002Z</time></trkpt><trkpt lat="45.42086702939146" lon="9.927364457790619"><ele>85.66666666666667</ele><time>2026-04-06T16:09:36.002Z</time></trkpt><trkpt lat="45.42067193416135" lon="9.9273674999315"><ele>86.0</ele><time>2026-04-06T16:09:37.002Z</time></trkpt><trkpt lat="45.42047850086347" lon="9.927365904037611"><ele>86.0</ele><time>2026-04-06T16:09:38.002Z</time></trkpt><trkpt lat="45.42028847670942" lon="9.927362709527019"><ele>86.0</ele><time>2026-04-06T16:09:39.002Z</time></trkpt><trkpt lat="45.4200969423853" lon="9.927357908102628"><ele>86.0</ele><time>2026-04-06T16:09:40.002Z</time></trkpt><trkpt lat="45.4199044894092" lon="9.927350928630794"><ele>86.0</ele><time>2026-04-06T16:09:41.002Z</time></trkpt><trkpt lat="45.41972078086588" lon="9.9273398720962"><ele>86.0</ele><time>2026-04-06T16:09:42.002Z</time></trkpt><trkpt lat="45.419554665108734" lon="9.927331692441818"><ele>86.0</ele><time>2026-04-06T16:09:43.002Z</time></trkpt><trkpt lat="45.419390113812675" lon="9.927326642531218"><ele>86.0</ele><time>2026-04-06T16:09:44.002Z</time></trkpt><trkpt lat="45.41921962475461" lon="9.927323099227387"><ele>86.0</ele><time>2026-04-06T16:09:45.002Z</time></trkpt><trkpt lat="45.419033365282246" lon="9.927315870541806"><ele>86.0</ele><time>2026-04-06T16:09:46.002Z</time></trkpt><trkpt lat="45.41885989074717" lon="9.92731950997651"><ele>85.66666666666667</ele><time>2026-04-06T16:09:47.002Z</time></trkpt><trkpt lat="45.41868729881602" lon="9.92731661565374"><ele>85.33333333333333</ele><time>2026-04-06T16:09:48.002Z</time></trkpt><trkpt lat="45.41851006671138" lon="9.927301438141606"><ele>85.0</ele><time>2026-04-06T16:09:49.002Z</time></trkpt><trkpt lat="45.41833633954394" lon="9.927298478991633"><ele>85.0</ele><time>2026-04-06T16:09:50.002Z</time></trkpt><trkpt lat="45.41815771384388" lon="9.927301390340423"><ele>85.0</ele><time>2026-04-06T16:09:51.002Z</time></trkpt><trkpt lat="45.41797531023994" lon="9.927296391973632"><ele>85.0</ele><time>2026-04-06T16:09:52.002Z</time></trkpt><trkpt lat="45.41779707542529" lon="9.927293153136246"><ele>84.66666666666666</ele><time>2026-04-06T16:09:53.002Z</time></trkpt><trkpt lat="45.41762261963209" lon="9.927291800835254"><ele>84.33333333333333</ele><time>2026-04-06T16:09:54.002Z</time></trkpt><trkpt lat="45.41744846939322" lon="9.927286310924513"><ele>84.0</ele><time>2026-04-06T16:09:55.002Z</time></trkpt><trkpt lat="45.417287073276874" lon="9.927264793055581"><ele>84.0</ele><time>2026-04-06T16:09:56.002Z</time></trkpt><trkpt lat="45.41711670381694" lon="9.927248896816115"><ele>84.0</ele><time>2026-04-06T16:09:57.002Z</time></trkpt><trkpt lat="45.41694100990071" lon="9.927245449168176"><ele>84.0</ele><time>2026-04-06T16:09:58.002Z</time></trkpt><trkpt lat="45.4167507214043" lon="9.927256457956675"><ele>84.0</ele><time>2026-04-06T16:09:59.002Z</time></trkpt><trkpt lat="45.41656829432109" lon="9.927256211185021"><ele>84.0</ele><time>2026-04-06T16:10:00.002Z</time></trkpt><trkpt lat="45.416391148314695" lon="9.927248858112208"><ele>84.0</ele><time>2026-04-06T16:10:01.002Z</time></trkpt><trkpt lat="45.41620299896094" lon="9.927257656580165"><ele>84.33333333333333</ele><time>2026-04-06T16:10:02.002Z</time></trkpt><trkpt lat="45.416014338051234" lon="9.927277340952276"><ele>84.66666666666666</ele><time>2026-04-06T16:10:03.002Z</time></trkpt><trkpt lat="45.41581916536137" lon="9.927293850008098"><ele>85.0</ele><time>2026-04-06T16:10:04.002Z</time></trkpt><trkpt lat="45.41562759383827" lon="9.927298084832062"><ele>85.0</ele><time>2026-04-06T16:10:05.002Z</time></trkpt><trkpt lat="45.415441701593736" lon="9.927297605536753"><ele>85.0</ele><time>2026-04-06T16:10:06.002Z</time></trkpt><trkpt lat="45.41526174258778" lon="9.927289769966135"><ele>85.0</ele><time>2026-04-06T16:10:07.002Z</time></trkpt><trkpt lat="45.415090446290066" lon="9.92728079870788"><ele>85.0</ele><time>2026-04-06T16:10:08.002Z</time></trkpt><trkpt lat="45.41492626340004" lon="9.927273260417424"><ele>85.0</ele><time>2026-04-06T16:10:09.002Z</time></trkpt><trkpt lat="45.41476814274072" lon="9.927267467819094"><ele>85.0</ele><time>2026-04-06T16:10:10.002Z</time></trkpt><trkpt lat="45.41461415668111" lon="9.927272796164273"><ele>84.66666666666666</ele><time>2026-04-06T16:10:11.003Z</time></trkpt><trkpt lat="45.41445461276601" lon="9.927282650456748"><ele>84.33333333333333</ele><time>2026-04-06T16:10:12.001Z</time></trkpt><trkpt lat="45.414292105834896" lon="9.927300098781064"><ele>84.0</ele><time>2026-04-06T16:10:13.001Z</time></trkpt><trkpt lat="45.41413034675491" lon="9.927302822949692"><ele>84.0</ele><time>2026-04-06T16:10:14.001Z</time></trkpt><trkpt lat="45.41395311065931" lon="9.927305049245406"><ele>84.0</ele><time>2026-04-06T16:10:15.001Z</time></trkpt><trkpt lat="45.41375899667682" lon="9.927306892827188"><ele>84.0</ele><time>2026-04-06T16:10:16.001Z</time></trkpt><trkpt lat="45.4135627578337" lon="9.927302578337537"><ele>84.33333333333333</ele><time>2026-04-06T16:10:17.001Z</time></trkpt><trkpt lat="45.413352782238015" lon="9.927293818097825"><ele>84.66666666666666</ele><time>2026-04-06T16:10:18.001Z</time></trkpt><trkpt lat="45.413148979238" lon="9.927287540471525"><ele>85.0</ele><time>2026-04-06T16:10:19.001Z</time></trkpt><trkpt lat="45.41294439978839" lon="9.927272741001474"><ele>84.33333333333333</ele><time>2026-04-06T16:10:20.001Z</time></trkpt><trkpt lat="45.412739833713474" lon="9.927261165441514"><ele>83.66666666666667</ele><time>2026-04-06T16:10:21Z</time></trkpt><trkpt lat="45.41257100502564" lon="9.927256965814392"><ele>83.0</ele><time>2026-04-06T16:10:22Z</time></trkpt><trkpt lat="45.41239343760526" lon="9.927252181686148"><ele>83.0</ele><time>2026-04-06T16:10:23Z</time></trkpt><trkpt lat="45.41223178651465" lon="9.927248911700746"><ele>83.0</ele><time>2026-04-06T16:10:24Z</time></trkpt><trkpt lat="45.41206536865081" lon="9.927251921673546"><ele>83.0</ele><time>2026-04-06T16:10:25Z</time></trkpt><trkpt lat="45.41190436463082" lon="9.927238789507875"><ele>84.0</ele><time>2026-04-06T16:10:26Z</time></trkpt><trkpt lat="45.41174907785648" lon="9.927211256668569"><ele>85.0</ele><time>2026-04-06T16:10:27Z</time></trkpt><trkpt lat="45.411591264011804" lon="9.927170148692689"><ele>86.0</ele><time>2026-04-06T16:10:28Z</time></trkpt><trkpt lat="45.41142700018187" lon="9.927117042480733"><ele>85.0</ele><time>2026-04-06T16:10:29Z</time></trkpt><trkpt lat="45.41126190288762" lon="9.927069631762112"><ele>84.0</ele><time>2026-04-06T16:10:30Z</time></trkpt><trkpt lat="45.41110742456744" lon="9.92702934084515"><ele>83.0</ele><time>2026-04-06T16:10:31Z</time></trkpt><trkpt lat="45.410968451508765" lon="9.926983524230705"><ele>83.0</ele><time>2026-04-06T16:10:32.001Z</time></trkpt><trkpt lat="45.41082731094449" lon="9.926939328572459"><ele>83.0</ele><time>2026-04-06T16:10:33.001Z</time></trkpt><trkpt lat="45.410696123377775" lon="9.926900952425772"><ele>83.0</ele><time>2026-04-06T16:10:34.001Z</time></trkpt><trkpt lat="45.410556704830746" lon="9.92685124030613"><ele>83.0</ele><time>2026-04-06T16:10:35.001Z</time></trkpt><trkpt lat="45.41041087647085" lon="9.926798827779034"><ele>83.5</ele><time>2026-04-06T16:10:36.001Z</time></trkpt><trkpt lat="45.410264586821256" lon="9.926763495958847"><ele>84.0</ele><time>2026-04-06T16:10:37.001Z</time></trkpt><trkpt lat="45.410119015658815" lon="9.926719395362817"><ele>84.5</ele><time>2026-04-06T16:10:38.001Z</time></trkpt><trkpt lat="45.409973363470144" lon="9.9266658491491"><ele>85.0</ele><time>2026-04-06T16:10:39.001Z</time></trkpt><trkpt lat="45.4098361381774" lon="9.926623830699063"><ele>85.0</ele><time>2026-04-06T16:10:40.001Z</time></trkpt><trkpt lat="45.409708626059825" lon="9.926588729948225"><ele>85.0</ele><time>2026-04-06T16:10:41.001Z</time></trkpt><trkpt lat="45.40958410251643" lon="9.926551919677408"><ele>85.0</ele><time>2026-04-06T16:10:42.001Z</time></trkpt><trkpt lat="45.40945942685195" lon="9.92651558062788"><ele>85.0</ele><time>2026-04-06T16:10:43.001Z</time></trkpt><trkpt lat="45.40933290785388" lon="9.926490742652144"><ele>85.25</ele><time>2026-04-06T16:10:44.001Z</time></trkpt><trkpt lat="45.40920287560608" lon="9.926447894570805"><ele>85.5</ele><time>2026-04-06T16:10:45.001Z</time></trkpt><trkpt lat="45.40907854269029" lon="9.92639595690705"><ele>85.75</ele><time>2026-04-06T16:10:46.001Z</time></trkpt><trkpt lat="45.408953212168136" lon="9.926368571941266"><ele>86.0</ele><time>2026-04-06T16:10:47.001Z</time></trkpt><trkpt lat="45.408828609910394" lon="9.926341353019996"><ele>85.75</ele><time>2026-04-06T16:10:48.001Z</time></trkpt><trkpt lat="45.40870971292221" lon="9.9262902156062"><ele>85.5</ele><time>2026-04-06T16:10:49.001Z</time></trkpt><trkpt lat="45.40859066938713" lon="9.92625930906254"><ele>85.25</ele><time>2026-04-06T16:10:50.001Z</time></trkpt><trkpt lat="45.40846896978989" lon="9.926240250669515"><ele>85.0</ele><time>2026-04-06T16:10:51.001Z</time></trkpt><trkpt lat="45.40834889324889" lon="9.926204615584783"><ele>85.0</ele><time>2026-04-06T16:10:52.001Z</time></trkpt><trkpt lat="45.408236685980306" lon="9.926163652323488"><ele>85.0</ele><time>2026-04-06T16:10:53.001Z</time></trkpt><trkpt lat="45.40812430824068" lon="9.926132415753198"><ele>85.0</ele><time>2026-04-06T16:10:54.001Z</time></trkpt><trkpt lat="45.40802021541592" lon="9.926095327619073"><ele>85.0</ele><time>2026-04-06T16:10:55.001Z</time></trkpt><trkpt lat="45.40791566503182" lon="9.926063172815125"><ele>85.0</ele><time>2026-04-06T16:10:56.001Z</time></trkpt><trkpt lat="45.40781043522097" lon="9.926027320440685"><ele>85.2</ele><time>2026-04-06T16:10:57.001Z</time></trkpt><trkpt lat="45.40770789077312" lon="9.925991876421188"><ele>85.4</ele><time>2026-04-06T16:10:58.001Z</time></trkpt><trkpt lat="45.407603319243364" lon="9.925953108874221"><ele>85.6</ele><time>2026-04-06T16:10:59.001Z</time></trkpt><trkpt lat="45.40750300839995" lon="9.925918921378845"><ele>85.8</ele><time>2026-04-06T16:11:00.001Z</time></trkpt><trkpt lat="45.40741602590011" lon="9.925886317893386"><ele>86.0</ele><time>2026-04-06T16:11:01.001Z</time></trkpt><trkpt lat="45.4073279005273" lon="9.925861374456963"><ele>86.0</ele><time>2026-04-06T16:11:02.001Z</time></trkpt><trkpt lat="45.407241557284514" lon="9.925839770830718"><ele>86.0</ele><time>2026-04-06T16:11:03.001Z</time></trkpt><trkpt lat="45.407157887827005" lon="9.925819337527667"><ele>86.0</ele><time>2026-04-06T16:11:04.001Z</time></trkpt><trkpt lat="45.40707860199243" lon="9.925795253065294"><ele>86.0</ele><time>2026-04-06T16:11:05.001Z</time></trkpt><trkpt lat="45.407007752766596" lon="9.925765882507658"><ele>86.0</ele><time>2026-04-06T16:11:06.001Z</time></trkpt><trkpt lat="45.406934774080646" lon="9.925742084550691"><ele>86.0</ele><time>2026-04-06T16:11:07.001Z</time></trkpt><trkpt lat="45.40687002878187" lon="9.925727765942948"><ele>85.8</ele><time>2026-04-06T16:11:08.001Z</time></trkpt><trkpt lat="45.40680313008469" lon="9.92570950647343"><ele>85.6</ele><time>2026-04-06T16:11:09.001Z</time></trkpt><trkpt lat="45.40669811058859" lon="9.925661073342665"><ele>85.4</ele><time>2026-04-06T16:11:11.001Z</time></trkpt><trkpt lat="45.40659779325761" lon="9.925561166100145"><ele>85.2</ele><time>2026-04-06T16:11:13.001Z</time></trkpt><trkpt lat="45.406495750099936" lon="9.925466142940975"><ele>85.0</ele><time>2026-04-06T16:11:15.001Z</time></trkpt><trkpt lat="45.406390712080636" lon="9.925517630950182"><ele>85.2</ele><time>2026-04-06T16:11:16.001Z</time></trkpt><trkpt lat="45.40630695208539" lon="9.925533166340905"><ele>85.4</ele><time>2026-04-06T16:11:17.001Z</time></trkpt><trkpt lat="45.406204693942605" lon="9.925520386319418"><ele>85.6</ele><time>2026-04-06T16:11:18.001Z</time></trkpt><trkpt lat="45.40610513356781" lon="9.925493167024987"><ele>85.8</ele><time>2026-04-06T16:11:19.001Z</time></trkpt><trkpt lat="45.406008893779436" lon="9.925460209327234"><ele>86.0</ele><time>2026-04-06T16:11:20.001Z</time></trkpt><trkpt lat="45.405918775881425" lon="9.925432297818361"><ele>86.00000000000001</ele><time>2026-04-06T16:11:21.001Z</time></trkpt><trkpt lat="45.40583430954251" lon="9.925400216407859"><ele>86.0</ele><time>2026-04-06T16:11:22.001Z</time></trkpt><trkpt lat="45.405762699154245" lon="9.92537728747888"><ele>86.0</ele><time>2026-04-06T16:11:23.001Z</time></trkpt><trkpt lat="45.40569601378389" lon="9.925372643061701"><ele>86.0</ele><time>2026-04-06T16:11:24.001Z</time></trkpt><trkpt lat="45.405632531130664" lon="9.925346734161527"><ele>86.0</ele><time>2026-04-06T16:11:25.001Z</time></trkpt><trkpt lat="45.40556465175872" lon="9.925298768947247"><ele>86.00000000000001</ele><time>2026-04-06T16:11:26.001Z</time></trkpt><trkpt lat="45.405511678538595" lon="9.92522058951958"><ele>86.0</ele><time>2026-04-06T16:11:27.001Z</time></trkpt><trkpt lat="45.40546180669772" lon="9.92511314931532"><ele>85.66666666666667</ele><time>2026-04-06T16:11:28.001Z</time></trkpt><trkpt lat="45.40542137471197" lon="9.925006879194946"><ele>85.33333333333334</ele><time>2026-04-06T16:11:29.001Z</time></trkpt><trkpt lat="45.405373566537634" lon="9.924894382471853"><ele>85.0</ele><time>2026-04-06T16:11:30.001Z</time></trkpt><trkpt lat="45.40533139086742" lon="9.924786971376836"><ele>84.66666666666667</ele><time>2026-04-06T16:11:31.002Z</time></trkpt><trkpt lat="45.40528268474572" lon="9.92470311422783"><ele>84.33333333333333</ele><time>2026-04-06T16:11:32.002Z</time></trkpt><trkpt lat="45.40522400764572" lon="9.92464902573881"><ele>84.0</ele><time>2026-04-06T16:11:33.002Z</time></trkpt><trkpt lat="45.405167687376085" lon="9.924607721813912"><ele>84.0</ele><time>2026-04-06T16:11:34.002Z</time></trkpt><trkpt lat="45.40507259368304" lon="9.924548225351604"><ele>84.0</ele><time>2026-04-06T16:11:36.002Z</time></trkpt><trkpt lat="45.40511324499753" lon="9.92442303775449"><ele>84.0</ele><time>2026-04-06T16:11:37.002Z</time></trkpt><trkpt lat="45.405110286105106" lon="9.924316013724928"><ele>84.0</ele><time>2026-04-06T16:11:38.002Z</time></trkpt><trkpt lat="45.405125085036616" lon="9.92420560699268"><ele>84.0</ele><time>2026-04-06T16:11:39.002Z</time></trkpt><trkpt lat="45.40515754772484" lon="9.924085657231998"><ele>84.0</ele><time>2026-04-06T16:11:40.002Z</time></trkpt><trkpt lat="45.405175318100966" lon="9.923952332253197"><ele>84.0</ele><time>2026-04-06T16:11:41.002Z</time></trkpt><trkpt lat="45.40519132203648" lon="9.923832260250258"><ele>84.0</ele><time>2026-04-06T16:11:42.002Z</time></trkpt><trkpt lat="45.40520632618769" lon="9.9237196889389"><ele>84.0</ele><time>2026-04-06T16:11:43.002Z</time></trkpt><trkpt lat="45.40521782861458" lon="9.923626596586713"><ele>84.0</ele><time>2026-04-06T16:11:44.002Z</time></trkpt><trkpt lat="45.40523758461295" lon="9.923471616108351"><ele>84.0</ele><time>2026-04-06T16:11:46.002Z</time></trkpt><trkpt lat="45.40526097553362" lon="9.923288120645893"><ele>84.0</ele><time>2026-04-06T16:11:48.002Z</time></trkpt><trkpt lat="45.40526625295591" lon="9.92317503138769"><ele>84.0</ele><time>2026-04-06T16:11:49.002Z</time></trkpt><trkpt lat="45.40527976035188" lon="9.92304436312819"><ele>84.0</ele><time>2026-04-06T16:11:50.002Z</time></trkpt><trkpt lat="45.405305152133884" lon="9.92290630756942"><ele>84.0</ele><time>2026-04-06T16:11:51.002Z</time></trkpt><trkpt lat="45.40533119733604" lon="9.92277241352318"><ele>84.0</ele><time>2026-04-06T16:11:52.002Z</time></trkpt><trkpt lat="45.40535205609585" lon="9.922645073052957"><ele>83.83333333333333</ele><time>2026-04-06T16:11:53.002Z</time></trkpt><trkpt lat="45.405368560080355" lon="9.922541077578718"><ele>83.66666666666667</ele><time>2026-04-06T16:11:54.002Z</time></trkpt><trkpt lat="45.4053728676751" lon="9.922447169926933"><ele>83.5</ele><time>2026-04-06T16:11:55.002Z</time></trkpt><trkpt lat="45.40537586078341" lon="9.922347369417256"><ele>83.33333333333334</ele><time>2026-04-06T16:11:56.002Z</time></trkpt><trkpt lat="45.40541103411286" lon="9.922232125573629"><ele>83.16666666666667</ele><time>2026-04-06T16:11:57.002Z</time></trkpt><trkpt lat="45.40543401358672" lon="9.922123753760092"><ele>83.0</ele><time>2026-04-06T16:11:58.002Z</time></trkpt><trkpt lat="45.40543534899632" lon="9.921921142983653"><ele>83.0</ele><time>2026-04-06T16:12:00.002Z</time></trkpt><trkpt lat="45.405445467810125" lon="9.921799329797565"><ele>83.0</ele><time>2026-04-06T16:12:01.002Z</time></trkpt><trkpt lat="45.405462286174945" lon="9.921691225281304"><ele>83.0</ele><time>2026-04-06T16:12:02.002Z</time></trkpt><trkpt lat="45.40548086212746" lon="9.921595295515303"><ele>83.0</ele><time>2026-04-06T16:12:03.002Z</time></trkpt><trkpt lat="45.40550523638998" lon="9.921429034068428"><ele>83.0</ele><time>2026-04-06T16:12:05.002Z</time></trkpt><trkpt lat="45.405521482807906" lon="9.921288511942151"><ele>82.80000000000001</ele><time>2026-04-06T16:12:07.002Z</time></trkpt><trkpt lat="45.405546244851784" lon="9.921181072869736"><ele>82.6</ele><time>2026-04-06T16:12:10.002Z</time></trkpt><trkpt lat="45.40562700902399" lon="9.921187523416094"><ele>82.4</ele><time>2026-04-06T16:12:12.002Z</time></trkpt><trkpt lat="45.40568887205609" lon="9.921281154437514"><ele>82.19999999999999</ele><time>2026-04-06T16:12:14.002Z</time></trkpt><trkpt lat="45.40578213413382" lon="9.921393981777731"><ele>82.0</ele><time>2026-04-06T16:12:16.002Z</time></trkpt><trkpt lat="45.405840734171534" lon="9.921477600251192"><ele>82.0</ele><time>2026-04-06T16:12:17.002Z</time></trkpt><trkpt lat="45.40589903497841" lon="9.921567870736213"><ele>82.0</ele><time>2026-04-06T16:12:18Z</time></trkpt><trkpt lat="45.405962126032" lon="9.921673206207101"><ele>82.0</ele><time>2026-04-06T16:12:19Z</time></trkpt><trkpt lat="45.406022101869326" lon="9.921809600666322"><ele>82.0</ele><time>2026-04-06T16:12:20Z</time></trkpt><trkpt lat="45.40606982094884" lon="9.921962936988356"><ele>82.0</ele><time>2026-04-06T16:12:21Z</time></trkpt><trkpt lat="45.40610129354129" lon="9.922131018991726"><ele>82.25</ele><time>2026-04-06T16:12:22Z</time></trkpt><trkpt lat="45.40611834525205" lon="9.922304403746598"><ele>82.5</ele><time>2026-04-06T16:12:23Z</time></trkpt><trkpt lat="45.40613643693789" lon="9.92249265435786"><ele>82.75</ele><time>2026-04-06T16:12:24Z</time></trkpt><trkpt lat="45.40616703537416" lon="9.922699169047517"><ele>83.0</ele><time>2026-04-06T16:12:25Z</time></trkpt><trkpt lat="45.40618214509405" lon="9.922908825471744"><ele>83.33333333333334</ele><time>2026-04-06T16:12:26Z</time></trkpt><trkpt lat="45.4062089430332" lon="9.923126733980459"><ele>83.66666666666667</ele><time>2026-04-06T16:12:27Z</time></trkpt><trkpt lat="45.406238543539075" lon="9.923342835389292"><ele>84.0</ele><time>2026-04-06T16:12:28Z</time></trkpt><trkpt lat="45.40625607858116" lon="9.923552726614364"><ele>84.0</ele><time>2026-04-06T16:12:29Z</time></trkpt><trkpt lat="45.406275963065625" lon="9.923742793995697"><ele>84.0</ele><time>2026-04-06T16:12:30Z</time></trkpt><trkpt lat="45.40629228453298" lon="9.923918101050917"><ele>84.0</ele><time>2026-04-06T16:12:31Z</time></trkpt><trkpt lat="45.40631181567047" lon="9.924084152129497"><ele>84.0</ele><time>2026-04-06T16:12:32Z</time></trkpt><trkpt lat="45.40632187650705" lon="9.924240730333647"><ele>84.0</ele><time>2026-04-06T16:12:33Z</time></trkpt><trkpt lat="45.406329955813135" lon="9.924397649909373"><ele>84.0</ele><time>2026-04-06T16:12:34Z</time></trkpt><trkpt lat="45.40635499523201" lon="9.924543649032179"><ele>84.0</ele><time>2026-04-06T16:12:35Z</time></trkpt><trkpt lat="45.406379955173655" lon="9.92469096159268"><ele>84.0</ele><time>2026-04-06T16:12:36Z</time></trkpt><trkpt lat="45.406371883334295" lon="9.924820767491784"><ele>84.0</ele><time>2026-04-06T16:12:37Z</time></trkpt><trkpt lat="45.40638731571187" lon="9.924945602443897"><ele>84.0</ele><time>2026-04-06T16:12:38Z</time></trkpt><trkpt lat="45.4064133920348" lon="9.925060503276246"><ele>84.0</ele><time>2026-04-06T16:12:39Z</time></trkpt><trkpt lat="45.40641727650132" lon="9.925164357694708"><ele>84.0</ele><time>2026-04-06T16:12:40Z</time></trkpt><trkpt lat="45.406419711743645" lon="9.92529681255606"><ele>84.0</ele><time>2026-04-06T16:12:42Z</time></trkpt><trkpt lat="45.40640846319883" lon="9.925390190820298"><ele>84.0</ele><time>2026-04-06T16:12:45Z</time></trkpt><trkpt lat="45.40638900708184" lon="9.925490834759199"><ele>84.0</ele><time>2026-04-06T16:12:53Z</time></trkpt><trkpt lat="45.40633084238186" lon="9.925595850214222"><ele>84.33333333333333</ele><time>2026-04-06T16:12:55.001Z</time></trkpt><trkpt lat="45.40623914999482" lon="9.925543701647612"><ele>84.66666666666667</ele><time>2026-04-06T16:12:56.001Z</time></trkpt><trkpt lat="45.40616490707679" lon="9.925515964975082"><ele>85.0</ele><time>2026-04-06T16:12:57.001Z</time></trkpt><trkpt lat="45.40608855536337" lon="9.925489241873406"><ele>85.33333333333334</ele><time>2026-04-06T16:12:58.001Z</time></trkpt><trkpt lat="45.40600946979088" lon="9.92545988211732"><ele>85.66666666666667</ele><time>2026-04-06T16:12:59.001Z</time></trkpt><trkpt lat="45.40591459549308" lon="9.925434596446108"><ele>86.0</ele><time>2026-04-06T16:13:00.001Z</time></trkpt><trkpt lat="45.405835877400015" lon="9.925404853200902"><ele>86.0</ele><time>2026-04-06T16:13:01.001Z</time></trkpt><trkpt lat="45.405753500591544" lon="9.925373603345864"><ele>86.0</ele><time>2026-04-06T16:13:02.001Z</time></trkpt><trkpt lat="45.405678210591326" lon="9.92536221394351"><ele>86.0</ele><time>2026-04-06T16:13:03.001Z</time></trkpt><trkpt lat="45.40560360529879" lon="9.925360836486984"><ele>86.0</ele><time>2026-04-06T16:13:04.001Z</time></trkpt><trkpt lat="45.405530847638666" lon="9.925375255505113"><ele>86.0</ele><time>2026-04-06T16:13:05.001Z</time></trkpt><trkpt lat="45.40541887754786" lon="9.92549767893927"><ele>85.8</ele><time>2026-04-06T16:13:07.001Z</time></trkpt><trkpt lat="45.405389030981254" lon="9.925577020531545"><ele>85.6</ele><time>2026-04-06T16:13:08.001Z</time></trkpt><trkpt lat="45.405351029440055" lon="9.925652776519968"><ele>85.4</ele><time>2026-04-06T16:13:09.001Z</time></trkpt><trkpt lat="45.405328156716024" lon="9.925822162740808"><ele>85.2</ele><time>2026-04-06T16:13:11.001Z</time></trkpt><trkpt lat="45.405242885745004" lon="9.925893175996785"><ele>85.0</ele><time>2026-04-06T16:13:13.001Z</time></trkpt><trkpt lat="45.40513033122527" lon="9.92583042189071"><ele>85.0</ele><time>2026-04-06T16:13:14.001Z</time></trkpt><trkpt lat="45.405046215135435" lon="9.925784892428"><ele>85.0</ele><time>2026-04-06T16:13:15.001Z</time></trkpt><trkpt lat="45.404943784973014" lon="9.925752344810453"><ele>85.0</ele><time>2026-04-06T16:13:16.001Z</time></trkpt><trkpt lat="45.40483119225747" lon="9.925726001399259"><ele>85.0</ele><time>2026-04-06T16:13:17.001Z</time></trkpt><trkpt lat="45.40470976323475" lon="9.925697995279384"><ele>85.0</ele><time>2026-04-06T16:13:18.001Z</time></trkpt><trkpt lat="45.40457868469064" lon="9.925666941326172"><ele>85.4</ele><time>2026-04-06T16:13:19.001Z</time></trkpt><trkpt lat="45.40446025890872" lon="9.925641478160113"><ele>85.8</ele><time>2026-04-06T16:13:20.001Z</time></trkpt><trkpt lat="45.40434820719505" lon="9.925607289272618"><ele>86.19999999999999</ele><time>2026-04-06T16:13:21.001Z</time></trkpt><trkpt lat="45.4042569732205" lon="9.92557082831037"><ele>86.6</ele><time>2026-04-06T16:13:22.001Z</time></trkpt><trkpt lat="45.404166638108826" lon="9.925547792974019"><ele>87.0</ele><time>2026-04-06T16:13:23.001Z</time></trkpt><trkpt lat="45.40407747178725" lon="9.925494909704593"><ele>87.0</ele><time>2026-04-06T16:13:24.001Z</time></trkpt><trkpt lat="45.40400213260029" lon="9.925399802332626"><ele>87.0</ele><time>2026-04-06T16:13:25.001Z</time></trkpt><trkpt lat="45.403952068425916" lon="9.92527933289926"><ele>87.0</ele><time>2026-04-06T16:13:26.001Z</time></trkpt><trkpt lat="45.40393370688975" lon="9.925153934642951"><ele>87.0</ele><time>2026-04-06T16:13:27.001Z</time></trkpt><trkpt lat="45.40392853290486" lon="9.925033952964268"><ele>87.0</ele><time>2026-04-06T16:13:28.001Z</time></trkpt><trkpt lat="45.40391517754867" lon="9.924928381011503"><ele>87.0</ele><time>2026-04-06T16:13:29.001Z</time></trkpt><trkpt lat="45.40387757284286" lon="9.924789132579047"><ele>87.39999999999999</ele><time>2026-04-06T16:13:31.001Z</time></trkpt><trkpt lat="45.40377468959461" lon="9.924756695592526"><ele>87.8</ele><time>2026-04-06T16:13:33.001Z</time></trkpt><trkpt lat="45.403676430832725" lon="9.924733156823587"><ele>88.2</ele><time>2026-04-06T16:13:35.001Z</time></trkpt><trkpt lat="45.40359488034116" lon="9.924712642788188"><ele>88.6</ele><time>2026-04-06T16:13:37.001Z</time></trkpt><trkpt lat="45.40351228889047" lon="9.924689445530195"><ele>89.0</ele><time>2026-04-06T16:13:42.001Z</time></trkpt><trkpt lat="45.40338230320123" lon="9.924648382971874"><ele>89.0</ele><time>2026-04-06T16:13:44.001Z</time></trkpt><trkpt lat="45.403308602832645" lon="9.92461412391168"><ele>89.0</ele><time>2026-04-06T16:13:45.001Z</time></trkpt><trkpt lat="45.40324346513576" lon="9.924589349641646"><ele>89.0</ele><time>2026-04-06T16:13:46.001Z</time></trkpt><trkpt lat="45.40315774686646" lon="9.924598828729069"><ele>89.0</ele><time>2026-04-06T16:13:47.001Z</time></trkpt><trkpt lat="45.40306570642635" lon="9.924583562172389"><ele>89.0</ele><time>2026-04-06T16:13:48.001Z</time></trkpt><trkpt lat="45.402968702310396" lon="9.924537450910206"><ele>89.0</ele><time>2026-04-06T16:13:49.002Z</time></trkpt><trkpt lat="45.40287361763741" lon="9.924534243058652"><ele>89.16666666666667</ele><time>2026-04-06T16:13:50.002Z</time></trkpt><trkpt lat="45.402790507222825" lon="9.924512388402924"><ele>89.33333333333334</ele><time>2026-04-06T16:13:51.002Z</time></trkpt><trkpt lat="45.4027113338975" lon="9.924492613420977"><ele>89.5</ele><time>2026-04-06T16:13:52.002Z</time></trkpt><trkpt lat="45.40262520529167" lon="9.924470660010863"><ele>89.66666666666667</ele><time>2026-04-06T16:13:53.002Z</time></trkpt><trkpt lat="45.40254861412166" lon="9.924451137618846"><ele>89.83333333333333</ele><time>2026-04-06T16:13:54.002Z</time></trkpt><trkpt lat="45.402473604475404" lon="9.924412868835777"><ele>90.0</ele><time>2026-04-06T16:13:55.002Z</time></trkpt><trkpt lat="45.40238622765404" lon="9.92439290500466"><ele>90.0</ele><time>2026-04-06T16:13:56.002Z</time></trkpt><trkpt lat="45.40229936247863" lon="9.924378092637488"><ele>90.0</ele><time>2026-04-06T16:13:57.002Z</time></trkpt><trkpt lat="45.40221818885604" lon="9.924355132775764"><ele>90.0</ele><time>2026-04-06T16:13:58.002Z</time></trkpt><trkpt lat="45.40213629248785" lon="9.924329600108543"><ele>90.0</ele><time>2026-04-06T16:13:59.002Z</time></trkpt><trkpt lat="45.40204470808242" lon="9.924304451602413"><ele>90.0</ele><time>2026-04-06T16:14:00.002Z</time></trkpt><trkpt lat="45.401962692453075" lon="9.924296118281328"><ele>90.0</ele><time>2026-04-06T16:14:01.002Z</time></trkpt><trkpt lat="45.40187760448441" lon="9.924286571884396"><ele>89.83333333333333</ele><time>2026-04-06T16:14:02.002Z</time></trkpt><trkpt lat="45.401797362402334" lon="9.924273108446208"><ele>89.66666666666667</ele><time>2026-04-06T16:14:03.002Z</time></trkpt><trkpt lat="45.401707897812535" lon="9.924234946006381"><ele>89.5</ele><time>2026-04-06T16:14:04.002Z</time></trkpt><trkpt lat="45.401621869439374" lon="9.924192731202059"><ele>89.33333333333334</ele><time>2026-04-06T16:14:05.002Z</time></trkpt><trkpt lat="45.401526958443156" lon="9.924190982672076"><ele>89.16666666666667</ele><time>2026-04-06T16:14:06.002Z</time></trkpt><trkpt lat="45.40145633738874" lon="9.924172077449404"><ele>89.0</ele><time>2026-04-06T16:14:07.002Z</time></trkpt><trkpt lat="45.40137211115584" lon="9.92414830713608"><ele>88.66666666666667</ele><time>2026-04-06T16:14:08.002Z</time></trkpt><trkpt lat="45.40131096808501" lon="9.924109350695238"><ele>88.33333333333334</ele><time>2026-04-06T16:14:09.002Z</time></trkpt><trkpt lat="45.40123162203279" lon="9.924089486382412"><ele>88.0</ele><time>2026-04-06T16:14:10.002Z</time></trkpt><trkpt lat="45.40114523557019" lon="9.924069561562431"><ele>87.66666666666667</ele><time>2026-04-06T16:14:11.002Z</time></trkpt><trkpt lat="45.401047934793006" lon="9.924049117111819"><ele>87.33333333333333</ele><time>2026-04-06T16:14:12.002Z</time></trkpt><trkpt lat="45.400959309633855" lon="9.924034417861392"><ele>87.0</ele><time>2026-04-06T16:14:13.002Z</time></trkpt><trkpt lat="45.40086074459642" lon="9.924025895452049"><ele>87.0</ele><time>2026-04-06T16:14:14.002Z</time></trkpt><trkpt lat="45.40077430011411" lon="9.924002179899018"><ele>87.0</ele><time>2026-04-06T16:14:15.002Z</time></trkpt><trkpt lat="45.40068205255385" lon="9.923973622269095"><ele>87.0</ele><time>2026-04-06T16:14:16.002Z</time></trkpt><trkpt lat="45.40059349797699" lon="9.92392956887636"><ele>87.0</ele><time>2026-04-06T16:14:17.002Z</time></trkpt><trkpt lat="45.40050951556366" lon="9.923907253133557"><ele>87.0</ele><time>2026-04-06T16:14:18.002Z</time></trkpt><trkpt lat="45.40043496208598" lon="9.923882486023116"><ele>87.0</ele><time>2026-04-06T16:14:19.002Z</time></trkpt><trkpt lat="45.4003168298791" lon="9.92386486386403"><ele>87.19999999999999</ele><time>2026-04-06T16:14:21.002Z</time></trkpt><trkpt lat="45.40025271977026" lon="9.923848015140678"><ele>87.4</ele><time>2026-04-06T16:14:22.002Z</time></trkpt><trkpt lat="45.400130928879705" lon="9.923798237218087"><ele>87.6</ele><time>2026-04-06T16:14:24Z</time></trkpt><trkpt lat="45.400055401774146" lon="9.923741379145055"><ele>87.80000000000001</ele><time>2026-04-06T16:14:26Z</time></trkpt><trkpt lat="45.400059572705864" lon="9.9235644731963"><ele>88.0</ele><time>2026-04-06T16:14:29Z</time></trkpt><trkpt lat="45.4000532393356" lon="9.923470726075141"><ele>88.0</ele><time>2026-04-06T16:14:31Z</time></trkpt><trkpt lat="45.39992111209664" lon="9.923504703072885"><ele>88.0</ele><time>2026-04-06T16:14:32Z</time></trkpt><trkpt lat="45.39981198592648" lon="9.923500390985707"><ele>88.0</ele><time>2026-04-06T16:14:34Z</time></trkpt><trkpt lat="45.39971111470155" lon="9.92353732387555"><ele>88.0</ele><time>2026-04-06T16:14:36Z</time></trkpt><trkpt lat="45.39959787284164" lon="9.923539242014947"><ele>87.33333333333333</ele><time>2026-04-06T16:14:38Z</time></trkpt><trkpt lat="45.39948991619565" lon="9.923539489579051"><ele>86.66666666666666</ele><time>2026-04-06T16:14:40Z</time></trkpt><trkpt lat="45.39937078537255" lon="9.923572949865973"><ele>86.0</ele><time>2026-04-06T16:14:42Z</time></trkpt><trkpt lat="45.39930168845884" lon="9.923587681741438"><ele>85.33333333333333</ele><time>2026-04-06T16:14:43Z</time></trkpt><trkpt lat="45.3992324623997" lon="9.923591368361489"><ele>84.66666666666667</ele><time>2026-04-06T16:14:44Z</time></trkpt><trkpt lat="45.39916148074603" lon="9.923599536812624"><ele>84.0</ele><time>2026-04-06T16:14:45Z</time></trkpt><trkpt lat="45.39907521690715" lon="9.923605796871595"><ele>84.0</ele><time>2026-04-06T16:14:46Z</time></trkpt><trkpt lat="45.39901191621724" lon="9.923614047075695"><ele>84.0</ele><time>2026-04-06T16:14:47Z</time></trkpt><trkpt lat="45.39893420900943" lon="9.923625793473434"><ele>84.0</ele><time>2026-04-06T16:14:48Z</time></trkpt><trkpt lat="45.39885628647565" lon="9.923634038471699"><ele>84.0</ele><time>2026-04-06T16:14:49Z</time></trkpt><trkpt lat="45.39878199035629" lon="9.923642768172899"><ele>84.0</ele><time>2026-04-06T16:14:50Z</time></trkpt><trkpt lat="45.39866897212997" lon="9.923660847855501"><ele>84.0</ele><time>2026-04-06T16:14:52Z</time></trkpt><trkpt lat="45.398603179433465" lon="9.923686541675826"><ele>83.80000000000001</ele><time>2026-04-06T16:14:54Z</time></trkpt><trkpt lat="45.39853337064979" lon="9.923689597282396"><ele>83.60000000000001</ele><time>2026-04-06T16:14:57Z</time></trkpt><trkpt lat="45.39853947907511" lon="9.923489123715418"><ele>83.4</ele><time>2026-04-06T16:15:00Z</time></trkpt><trkpt lat="45.39856083542213" lon="9.923383988566286"><ele>83.2</ele><time>2026-04-06T16:15:01Z</time></trkpt><trkpt lat="45.398581808406256" lon="9.923259436469898"><ele>83.0</ele><time>2026-04-06T16:15:02Z</time></trkpt><trkpt lat="45.39861182455915" lon="9.923121385875657"><ele>83.0</ele><time>2026-04-06T16:15:03Z</time></trkpt><trkpt lat="45.39863655481432" lon="9.922974065654774"><ele>83.0</ele><time>2026-04-06T16:15:04Z</time></trkpt><trkpt lat="45.39867330592929" lon="9.922810497260732"><ele>83.0</ele><time>2026-04-06T16:15:05Z</time></trkpt><trkpt lat="45.39869901964498" lon="9.922655931342874"><ele>83.0</ele><time>2026-04-06T16:15:06Z</time></trkpt><trkpt lat="45.398724678768964" lon="9.922509209828437"><ele>83.0</ele><time>2026-04-06T16:15:07Z</time></trkpt><trkpt lat="45.39874715918352" lon="9.922366121150798"><ele>82.75</ele><time>2026-04-06T16:15:08.001Z</time></trkpt><trkpt lat="45.39878258967019" lon="9.922213450892636"><ele>82.5</ele><time>2026-04-06T16:15:09.001Z</time></trkpt><trkpt lat="45.39882124571015" lon="9.922050439491995"><ele>82.25</ele><time>2026-04-06T16:15:10.001Z</time></trkpt><trkpt lat="45.39885650236874" lon="9.921874439551884"><ele>82.0</ele><time>2026-04-06T16:15:11.001Z</time></trkpt><trkpt lat="45.39888924977425" lon="9.921692922037455"><ele>82.75</ele><time>2026-04-06T16:15:12.001Z</time></trkpt><trkpt lat="45.398927490555" lon="9.921505525924632"><ele>83.5</ele><time>2026-04-06T16:15:13.001Z</time></trkpt><trkpt lat="45.39896103051859" lon="9.921322544016661"><ele>84.25</ele><time>2026-04-06T16:15:14.001Z</time></trkpt><trkpt lat="45.39899402515661" lon="9.921144764713173"><ele>85.0</ele><time>2026-04-06T16:15:15.001Z</time></trkpt><trkpt lat="45.399023650797204" lon="9.920981857883138"><ele>84.6</ele><time>2026-04-06T16:15:16.001Z</time></trkpt><trkpt lat="45.39905294212355" lon="9.920842715317344"><ele>84.2</ele><time>2026-04-06T16:15:17.001Z</time></trkpt><trkpt lat="45.39908811551548" lon="9.920720657803736"><ele>83.80000000000001</ele><time>2026-04-06T16:15:18.001Z</time></trkpt><trkpt lat="45.399161830193364" lon="9.920631199548538"><ele>83.4</ele><time>2026-04-06T16:15:19.001Z</time></trkpt><trkpt lat="45.399256508588785" lon="9.920570103507446"><ele>83.0</ele><time>2026-04-06T16:15:20.001Z</time></trkpt><trkpt lat="45.39936980019433" lon="9.920518121160985"><ele>83.0</ele><time>2026-04-06T16:15:21.001Z</time></trkpt><trkpt lat="45.39949848713706" lon="9.920464865103988"><ele>83.0</ele><time>2026-04-06T16:15:22.001Z</time></trkpt><trkpt lat="45.39963244971401" lon="9.92040045010751"><ele>83.0</ele><time>2026-04-06T16:15:23.001Z</time></trkpt><trkpt lat="45.399755542902454" lon="9.920331352363782"><ele>83.0</ele><time>2026-04-06T16:15:24.001Z</time></trkpt><trkpt lat="45.39988093084995" lon="9.920267547725393"><ele>82.75</ele><time>2026-04-06T16:15:25.001Z</time></trkpt><trkpt lat="45.40001397405884" lon="9.920220288044021"><ele>82.5</ele><time>2026-04-06T16:15:26.001Z</time></trkpt><trkpt lat="45.400141697419805" lon="9.92015722493396"><ele>82.25</ele><time>2026-04-06T16:15:27.001Z</time></trkpt><trkpt lat="45.400268399804865" lon="9.920095033712752"><ele>82.0</ele><time>2026-04-06T16:15:28.001Z</time></trkpt><trkpt lat="45.400384438931354" lon="9.920038637822307"><ele>82.0</ele><time>2026-04-06T16:15:29.001Z</time></trkpt><trkpt lat="45.40049166700408" lon="9.91998491464584"><ele>82.0</ele><time>2026-04-06T16:15:30.001Z</time></trkpt><trkpt lat="45.40058985507179" lon="9.919944601261506"><ele>82.0</ele><time>2026-04-06T16:15:31.001Z</time></trkpt><trkpt lat="45.4006689793932" lon="9.919919083812122"><ele>82.0</ele><time>2026-04-06T16:15:32.001Z</time></trkpt><trkpt lat="45.40073621724376" lon="9.919907831559597"><ele>82.0</ele><time>2026-04-06T16:15:33.001Z</time></trkpt><trkpt lat="45.40084612202703" lon="9.91986668329144"><ele>82.0</ele><time>2026-04-06T16:15:35.001Z</time></trkpt><trkpt lat="45.40094786769247" lon="9.919827332927387"><ele>82.0</ele><time>2026-04-06T16:15:37.001Z</time></trkpt><trkpt lat="45.40104708025585" lon="9.919761665649625"><ele>82.0</ele><time>2026-04-06T16:15:39.001Z</time></trkpt><trkpt lat="45.40116500467801" lon="9.919668516272905"><ele>82.0</ele><time>2026-04-06T16:15:41.001Z</time></trkpt><trkpt lat="45.40124371262482" lon="9.919622500868048"><ele>82.0</ele><time>2026-04-06T16:15:42.001Z</time></trkpt><trkpt lat="45.401324344847495" lon="9.919573074927031"><ele>82.39999999999999</ele><time>2026-04-06T16:15:43.001Z</time></trkpt><trkpt lat="45.40141127743513" lon="9.919516820159183"><ele>82.8</ele><time>2026-04-06T16:15:44.001Z</time></trkpt><trkpt lat="45.401509887691724" lon="9.919480747015681"><ele>83.2</ele><time>2026-04-06T16:15:45.001Z</time></trkpt><trkpt lat="45.4015981301189" lon="9.919419425005904"><ele>83.6</ele><time>2026-04-06T16:15:46.001Z</time></trkpt><trkpt lat="45.40170633516827" lon="9.919362799587324"><ele>84.0</ele><time>2026-04-06T16:15:47.001Z</time></trkpt><trkpt lat="45.401808476900094" lon="9.919308424185823"><ele>84.0</ele><time>2026-04-06T16:15:48.001Z</time></trkpt><trkpt lat="45.40190178577003" lon="9.919255963954932"><ele>84.0</ele><time>2026-04-06T16:15:49.001Z</time></trkpt><trkpt lat="45.40198182903651" lon="9.91920917336607"><ele>84.0</ele><time>2026-04-06T16:15:50.001Z</time></trkpt><trkpt lat="45.40205417882664" lon="9.919173740804036"><ele>84.0</ele><time>2026-04-06T16:15:51.001Z</time></trkpt><trkpt lat="45.40212100021378" lon="9.919133767158323"><ele>84.0</ele><time>2026-04-06T16:15:52.001Z</time></trkpt><trkpt lat="45.40222166066718" lon="9.919090760716887"><ele>84.0</ele><time>2026-04-06T16:15:54.001Z</time></trkpt><trkpt lat="45.40227747324971" lon="9.919048221702877"><ele>83.83333333333333</ele><time>2026-04-06T16:16:04.002Z</time></trkpt><trkpt lat="45.402340869666396" lon="9.918956029816687"><ele>83.66666666666667</ele><time>2026-04-06T16:16:06.002Z</time></trkpt><trkpt lat="45.40238338488972" lon="9.918885955500018"><ele>83.5</ele><time>2026-04-06T16:16:07.002Z</time></trkpt><trkpt lat="45.40240505379911" lon="9.918794738651517"><ele>83.33333333333334</ele><time>2026-04-06T16:16:08.002Z</time></trkpt><trkpt lat="45.40241366812945" lon="9.91862574051815"><ele>83.16666666666667</ele><time>2026-04-06T16:16:10.002Z</time></trkpt><trkpt lat="45.402422633009145" lon="9.918520680766303"><ele>83.0</ele><time>2026-04-06T16:16:11.002Z</time></trkpt><trkpt lat="45.40243004690235" lon="9.918409463116648"><ele>82.5</ele><time>2026-04-06T16:16:12.002Z</time></trkpt><trkpt lat="45.40243938995222" lon="9.918291525023667"><ele>82.0</ele><time>2026-04-06T16:16:13.002Z</time></trkpt><trkpt lat="45.40244476761203" lon="9.918175642517408"><ele>81.5</ele><time>2026-04-06T16:16:14.002Z</time></trkpt><trkpt lat="45.40244091483477" lon="9.918041340322826"><ele>81.0</ele><time>2026-04-06T16:16:15.002Z</time></trkpt><trkpt lat="45.402445287978736" lon="9.917904609839235"><ele>80.5</ele><time>2026-04-06T16:16:16.002Z</time></trkpt><trkpt lat="45.40242728561969" lon="9.917775499719298"><ele>80.0</ele><time>2026-04-06T16:16:17.002Z</time></trkpt><trkpt lat="45.40238475706893" lon="9.917671415128076"><ele>80.0</ele><time>2026-04-06T16:16:18.002Z</time></trkpt><trkpt lat="45.40231099572579" lon="9.917599463218767"><ele>80.0</ele><time>2026-04-06T16:16:19.002Z</time></trkpt><trkpt lat="45.40224806054112" lon="9.91752512007218"><ele>80.0</ele><time>2026-04-06T16:16:20.002Z</time></trkpt><trkpt lat="45.402191899152236" lon="9.917433517785526"><ele>80.0</ele><time>2026-04-06T16:16:21.002Z</time></trkpt><trkpt lat="45.40214143268351" lon="9.917348574154472"><ele>80.0</ele><time>2026-04-06T16:16:22.002Z</time></trkpt><trkpt lat="45.40208693125582" lon="9.91728287212923"><ele>80.0</ele><time>2026-04-06T16:16:23.002Z</time></trkpt><trkpt lat="45.402037590872546" lon="9.917222408800043"><ele>80.0</ele><time>2026-04-06T16:16:24.002Z</time></trkpt><trkpt lat="45.40198992645438" lon="9.917156503205165"><ele>80.0</ele><time>2026-04-06T16:16:25.002Z</time></trkpt><trkpt lat="45.40193829910863" lon="9.917104316361105"><ele>80.0</ele><time>2026-04-06T16:16:26.002Z</time></trkpt><trkpt lat="45.401885350305875" lon="9.917029703465056"><ele>80.0</ele><time>2026-04-06T16:16:27.002Z</time></trkpt><trkpt lat="45.40183053472467" lon="9.916952034505565"><ele>80.0</ele><time>2026-04-06T16:16:28.002Z</time></trkpt><trkpt lat="45.40178781513019" lon="9.916853368043432"><ele>80.0</ele><time>2026-04-06T16:16:29Z</time></trkpt><trkpt lat="45.40176087412266" lon="9.916738195483227"><ele>80.0</ele><time>2026-04-06T16:16:30Z</time></trkpt><trkpt lat="45.401755914072496" lon="9.916600434089634"><ele>80.0</ele><time>2026-04-06T16:16:31Z</time></trkpt><trkpt lat="45.40176094260596" lon="9.916452717753739"><ele>80.0</ele><time>2026-04-06T16:16:32Z</time></trkpt><trkpt lat="45.40176310853128" lon="9.916300262451403"><ele>80.0</ele><time>2026-04-06T16:16:33Z</time></trkpt><trkpt lat="45.401752937153795" lon="9.9161452530345"><ele>80.0</ele><time>2026-04-06T16:16:34Z</time></trkpt><trkpt lat="45.4017430944119" lon="9.915990843654965"><ele>80.0</ele><time>2026-04-06T16:16:35Z</time></trkpt><trkpt lat="45.40174536999653" lon="9.915842781474717"><ele>80.0</ele><time>2026-04-06T16:16:36Z</time></trkpt><trkpt lat="45.401747478229886" lon="9.915710629638838"><ele>80.0</ele><time>2026-04-06T16:16:37Z</time></trkpt><trkpt lat="45.40174755905522" lon="9.915590261611392"><ele>80.0</ele><time>2026-04-06T16:16:38Z</time></trkpt><trkpt lat="45.40174562720302" lon="9.91547678608243"><ele>80.0</ele><time>2026-04-06T16:16:39Z</time></trkpt><trkpt lat="45.40174933733055" lon="9.915374614656207"><ele>80.0</ele><time>2026-04-06T16:16:40Z</time></trkpt><trkpt lat="45.40172089227409" lon="9.915243820170227"><ele>80.0</ele><time>2026-04-06T16:16:42Z</time></trkpt><trkpt lat="45.401620773539584" lon="9.915252975881405"><ele>80.0</ele><time>2026-04-06T16:16:44Z</time></trkpt><trkpt lat="45.401592125340215" lon="9.915430429152842"><ele>80.0</ele><time>2026-04-06T16:16:46Z</time></trkpt><trkpt lat="45.401615039674276" lon="9.915516079641202"><ele>80.0</ele><time>2026-04-06T16:16:47Z</time></trkpt><trkpt lat="45.40166699980201" lon="9.915568833829642"><ele>80.0</ele><time>2026-04-06T16:16:48Z</time></trkpt><trkpt lat="45.401582761592344" lon="9.915637995542944"><ele>80.0</ele><time>2026-04-06T16:16:49Z</time></trkpt><trkpt lat="45.40170903368775" lon="9.91573222029338"><ele>80.0</ele><time>2026-04-06T16:16:50Z</time></trkpt><trkpt lat="45.4017189478946" lon="9.915846347399315"><ele>80.0</ele><time>2026-04-06T16:16:51Z</time></trkpt><trkpt lat="45.40171181423053" lon="9.91597600495077"><ele>80.0</ele><time>2026-04-06T16:16:52Z</time></trkpt><trkpt lat="45.40171693667684" lon="9.916127479088948"><ele>80.0</ele><time>2026-04-06T16:16:53Z</time></trkpt><trkpt lat="45.40172197354999" lon="9.916277511334759"><ele>80.0</ele><time>2026-04-06T16:16:54Z</time></trkpt><trkpt lat="45.40172860468583" lon="9.916420188551914"><ele>80.0</ele><time>2026-04-06T16:16:55Z</time></trkpt><trkpt lat="45.40172992867781" lon="9.916561352717517"><ele>80.0</ele><time>2026-04-06T16:16:56Z</time></trkpt><trkpt lat="45.40173532001893" lon="9.916705036613962"><ele>80.0</ele><time>2026-04-06T16:16:57Z</time></trkpt><trkpt lat="45.401759479218086" lon="9.916847608404344"><ele>80.0</ele><time>2026-04-06T16:16:58Z</time></trkpt><trkpt lat="45.40182317219175" lon="9.91697221726806"><ele>80.0</ele><time>2026-04-06T16:16:59Z</time></trkpt><trkpt lat="45.40188886975058" lon="9.91708856457572"><ele>80.0</ele><time>2026-04-06T16:17:00Z</time></trkpt><trkpt lat="45.401983340787375" lon="9.917201289193532"><ele>80.0</ele><time>2026-04-06T16:17:01Z</time></trkpt><trkpt lat="45.40207070748717" lon="9.917331272711674"><ele>80.0</ele><time>2026-04-06T16:17:02Z</time></trkpt><trkpt lat="45.402161578380614" lon="9.917452861106737"><ele>80.0</ele><time>2026-04-06T16:17:03Z</time></trkpt><trkpt lat="45.40223279397298" lon="9.91756498850686"><ele>80.0</ele><time>2026-04-06T16:17:04Z</time></trkpt><trkpt lat="45.40229705931804" lon="9.917661923452815"><ele>80.0</ele><time>2026-04-06T16:17:05Z</time></trkpt><trkpt lat="45.402338699286446" lon="9.917734028384913"><ele>80.0</ele><time>2026-04-06T16:17:06Z</time></trkpt><trkpt lat="45.40240424412383" lon="9.917882651305868"><ele>80.0</ele><time>2026-04-06T16:17:08Z</time></trkpt><trkpt lat="45.40240826194807" lon="9.917993700637272"><ele>80.0</ele><time>2026-04-06T16:17:09.001Z</time></trkpt><trkpt lat="45.40239068064815" lon="9.91811223826818"><ele>80.0</ele><time>2026-04-06T16:17:10.001Z</time></trkpt><trkpt lat="45.402379507832705" lon="9.918239207102467"><ele>80.0</ele><time>2026-04-06T16:17:11.001Z</time></trkpt><trkpt lat="45.40237362322955" lon="9.918373726700185"><ele>80.0</ele><time>2026-04-06T16:17:12.001Z</time></trkpt><trkpt lat="45.402360405342165" lon="9.918484305778705"><ele>80.0</ele><time>2026-04-06T16:17:13.001Z</time></trkpt><trkpt lat="45.40234481002111" lon="9.918575694496424"><ele>80.0</ele><time>2026-04-06T16:17:14.001Z</time></trkpt><trkpt lat="45.4023071245518" lon="9.918677811383912"><ele>80.0</ele><time>2026-04-06T16:17:16.001Z</time></trkpt><trkpt lat="45.40219328317271" lon="9.91868605096725"><ele>80.0</ele><time>2026-04-06T16:17:18.001Z</time></trkpt><trkpt lat="45.40211551142322" lon="9.918602974209918"><ele>80.25</ele><time>2026-04-06T16:17:19.001Z</time></trkpt><trkpt lat="45.40203675346843" lon="9.918512179555718"><ele>80.5</ele><time>2026-04-06T16:17:20.001Z</time></trkpt><trkpt lat="45.40194768984333" lon="9.918421313374884"><ele>80.75</ele><time>2026-04-06T16:17:21.001Z</time></trkpt><trkpt lat="45.4018458220926" lon="9.91832024113685"><ele>81.0</ele><time>2026-04-06T16:17:22.001Z</time></trkpt><trkpt lat="45.40174177586056" lon="9.91821180652834"><ele>81.0</ele><time>2026-04-06T16:17:23.001Z</time></trkpt><trkpt lat="45.40163635565648" lon="9.918100793436873"><ele>81.0</ele><time>2026-04-06T16:17:24.001Z</time></trkpt><trkpt lat="45.401522914577306" lon="9.917980240270543"><ele>81.0</ele><time>2026-04-06T16:17:25.001Z</time></trkpt><trkpt lat="45.40141189061203" lon="9.917852182610162"><ele>81.0</ele><time>2026-04-06T16:17:26.001Z</time></trkpt><trkpt lat="45.40130261266207" lon="9.917712199018919"><ele>80.75</ele><time>2026-04-06T16:17:27.001Z</time></trkpt><trkpt lat="45.401207653889564" lon="9.917557809163789"><ele>80.5</ele><time>2026-04-06T16:17:28.001Z</time></trkpt><trkpt lat="45.401129594245496" lon="9.917383540663613"><ele>80.25</ele><time>2026-04-06T16:17:29.001Z</time></trkpt><trkpt lat="45.40106357759853" lon="9.91718754789879"><ele>80.0</ele><time>2026-04-06T16:17:30.001Z</time></trkpt><trkpt lat="45.401010150793105" lon="9.916974589397864"><ele>80.0</ele><time>2026-04-06T16:17:31.001Z</time></trkpt><trkpt lat="45.40096912412583" lon="9.91675001608991"><ele>80.0</ele><time>2026-04-06T16:17:32.001Z</time></trkpt><trkpt lat="45.40094616243396" lon="9.916516528010689"><ele>80.0</ele><time>2026-04-06T16:17:33.001Z</time></trkpt><trkpt lat="45.400944157330436" lon="9.916294923469197"><ele>79.66666666666667</ele><time>2026-04-06T16:17:34.001Z</time></trkpt><trkpt lat="45.40093563630202" lon="9.916064018991376"><ele>79.33333333333333</ele><time>2026-04-06T16:17:35.001Z</time></trkpt><trkpt lat="45.40093421135757" lon="9.915831973411871"><ele>79.0</ele><time>2026-04-06T16:17:36.001Z</time></trkpt><trkpt lat="45.400925323088686" lon="9.915588424424211"><ele>79.0</ele><time>2026-04-06T16:17:37.001Z</time></trkpt><trkpt lat="45.40091365095192" lon="9.915334229871183"><ele>79.0</ele><time>2026-04-06T16:17:38.001Z</time></trkpt><trkpt lat="45.400906875765756" lon="9.915079506011434"><ele>79.0</ele><time>2026-04-06T16:17:39.001Z</time></trkpt><trkpt lat="45.4009038949609" lon="9.914825091358459"><ele>79.0</ele><time>2026-04-06T16:17:40.001Z</time></trkpt><trkpt lat="45.400902731052405" lon="9.914576723018612"><ele>79.0</ele><time>2026-04-06T16:17:41.001Z</time></trkpt><trkpt lat="45.40089533208126" lon="9.914348075890064"><ele>79.0</ele><time>2026-04-06T16:17:42.001Z</time></trkpt><trkpt lat="45.4008923316143" lon="9.914135842127656"><ele>79.0</ele><time>2026-04-06T16:17:43.001Z</time></trkpt><trkpt lat="45.400890556830554" lon="9.91396437681672"><ele>79.0</ele><time>2026-04-06T16:17:44.001Z</time></trkpt><trkpt lat="45.40089615986654" lon="9.913823377585166"><ele>79.0</ele><time>2026-04-06T16:17:45.001Z</time></trkpt><trkpt lat="45.40090612436669" lon="9.913716034189152"><ele>79.0</ele><time>2026-04-06T16:17:46.001Z</time></trkpt><trkpt lat="45.40093603717216" lon="9.913602762414063"><ele>79.0</ele><time>2026-04-06T16:17:47.001Z</time></trkpt><trkpt lat="45.40094642169329" lon="9.91347532671563"><ele>79.0</ele><time>2026-04-06T16:17:48.001Z</time></trkpt><trkpt lat="45.400905315543895" lon="9.91334107018921"><ele>79.0</ele><time>2026-04-06T16:17:49.001Z</time></trkpt><trkpt lat="45.40086355940549" lon="9.913197242748401"><ele>79.0</ele><time>2026-04-06T16:17:50.001Z</time></trkpt><trkpt lat="45.40085834154141" lon="9.913033973734152"><ele>79.0</ele><time>2026-04-06T16:17:51.001Z</time></trkpt><trkpt lat="45.40086426532187" lon="9.912846863762207"><ele>79.0</ele><time>2026-04-06T16:17:52.001Z</time></trkpt><trkpt lat="45.40085758107079" lon="9.912652453012411"><ele>79.0</ele><time>2026-04-06T16:17:53.001Z</time></trkpt><trkpt lat="45.40084672151532" lon="9.912448113484851"><ele>79.0</ele><time>2026-04-06T16:17:54.001Z</time></trkpt><trkpt lat="45.400840081865645" lon="9.912228508398988"><ele>79.0</ele><time>2026-04-06T16:17:55.001Z</time></trkpt><trkpt lat="45.40083466353704" lon="9.91200353212669"><ele>79.0</ele><time>2026-04-06T16:17:56.001Z</time></trkpt><trkpt lat="45.40082861694413" lon="9.91176840506148"><ele>79.0</ele><time>2026-04-06T16:17:57.001Z</time></trkpt><trkpt lat="45.40082350908107" lon="9.911519265358045"><ele>79.0</ele><time>2026-04-06T16:17:58.001Z</time></trkpt><trkpt lat="45.40081253078797" lon="9.911269997170008"><ele>78.66666666666666</ele><time>2026-04-06T16:17:59.001Z</time></trkpt><trkpt lat="45.40080412247913" lon="9.911005861556388"><ele>78.33333333333333</ele><time>2026-04-06T16:18:00.001Z</time></trkpt><trkpt lat="45.40079507632153" lon="9.910729509676546"><ele>78.0</ele><time>2026-04-06T16:18:01.002Z</time></trkpt><trkpt lat="45.400787330250644" lon="9.910436058784455"><ele>78.66666666666667</ele><time>2026-04-06T16:18:02.002Z</time></trkpt><trkpt lat="45.400777110878764" lon="9.910145201486186"><ele>79.33333333333334</ele><time>2026-04-06T16:18:03.002Z</time></trkpt><trkpt lat="45.400767747706844" lon="9.909857140900842"><ele>80.0</ele><time>2026-04-06T16:18:04.002Z</time></trkpt><trkpt lat="45.400757339257886" lon="9.909568123324682"><ele>80.0</ele><time>2026-04-06T16:18:05.002Z</time></trkpt><trkpt lat="45.400755639630944" lon="9.909257663131784"><ele>80.0</ele><time>2026-04-06T16:18:06.002Z</time></trkpt><trkpt lat="45.40074472089511" lon="9.90895300506703"><ele>80.0</ele><time>2026-04-06T16:18:07.002Z</time></trkpt><trkpt lat="45.40073522902571" lon="9.908643974337147"><ele>78.33333333333334</ele><time>2026-04-06T16:18:08.002Z</time></trkpt><trkpt lat="45.400725145882625" lon="9.908335978495392"><ele>76.66666666666667</ele><time>2026-04-06T16:18:09.002Z</time></trkpt><trkpt lat="45.40071644935425" lon="9.908017757856628"><ele>75.0</ele><time>2026-04-06T16:18:10.002Z</time></trkpt><trkpt lat="45.400705407145864" lon="9.907696694234948"><ele>75.0</ele><time>2026-04-06T16:18:11.002Z</time></trkpt><trkpt lat="45.40069489787075" lon="9.907378709510802"><ele>75.0</ele><time>2026-04-06T16:18:12.002Z</time></trkpt><trkpt lat="45.40068613847446" lon="9.907065296925536"><ele>75.0</ele><time>2026-04-06T16:18:13.002Z</time></trkpt><trkpt lat="45.400674112533416" lon="9.906762527331312"><ele>75.0</ele><time>2026-04-06T16:18:14.002Z</time></trkpt><trkpt lat="45.40066410206605" lon="9.906466108393952"><ele>75.0</ele><time>2026-04-06T16:18:15.002Z</time></trkpt><trkpt lat="45.40065407655551" lon="9.90617388483958"><ele>75.0</ele><time>2026-04-06T16:18:16.002Z</time></trkpt><trkpt lat="45.40064958668458" lon="9.905889831377031"><ele>75.0</ele><time>2026-04-06T16:18:17.002Z</time></trkpt><trkpt lat="45.40064059075305" lon="9.905623282523207"><ele>75.0</ele><time>2026-04-06T16:18:18.002Z</time></trkpt><trkpt lat="45.40063479677536" lon="9.905370548561564"><ele>75.0</ele><time>2026-04-06T16:18:19.002Z</time></trkpt><trkpt lat="45.40063006174492" lon="9.905136477674422"><ele>74.66666666666667</ele><time>2026-04-06T16:18:20.002Z</time></trkpt><trkpt lat="45.40062501529562" lon="9.904913805089029"><ele>74.33333333333334</ele><time>2026-04-06T16:18:21.002Z</time></trkpt><trkpt lat="45.40062059852408" lon="9.90469158787974"><ele>74.0</ele><time>2026-04-06T16:18:22.002Z</time></trkpt><trkpt lat="45.40061441562211" lon="9.904481070331013"><ele>74.0</ele><time>2026-04-06T16:18:23.002Z</time></trkpt><trkpt lat="45.400606810225604" lon="9.904278028951893"><ele>74.0</ele><time>2026-04-06T16:18:24.002Z</time></trkpt><trkpt lat="45.40060121950587" lon="9.904082549428452"><ele>74.0</ele><time>2026-04-06T16:18:25.002Z</time></trkpt><trkpt lat="45.400592850023834" lon="9.903876487438412"><ele>74.0</ele><time>2026-04-06T16:18:26.002Z</time></trkpt><trkpt lat="45.40059461213629" lon="9.903702564879204"><ele>74.25</ele><time>2026-04-06T16:18:27.002Z</time></trkpt><trkpt lat="45.40061107768609" lon="9.903539710283848"><ele>74.5</ele><time>2026-04-06T16:18:28.002Z</time></trkpt><trkpt lat="45.40062464712863" lon="9.903385386259952"><ele>74.75</ele><time>2026-04-06T16:18:29.002Z</time></trkpt><trkpt lat="45.40068861343429" lon="9.903225342624442"><ele>75.0</ele><time>2026-04-06T16:18:30.002Z</time></trkpt><trkpt lat="45.400688631890695" lon="9.903085854695282"><ele>75.2</ele><time>2026-04-06T16:18:31.002Z</time></trkpt><trkpt lat="45.40064576434217" lon="9.90294798929339"><ele>75.4</ele><time>2026-04-06T16:18:32.002Z</time></trkpt><trkpt lat="45.400593157849556" lon="9.902812162745075"><ele>75.6</ele><time>2026-04-06T16:18:33.002Z</time></trkpt><trkpt lat="45.40056970723677" lon="9.902661261651938"><ele>75.8</ele><time>2026-04-06T16:18:34.002Z</time></trkpt><trkpt lat="45.40056934304149" lon="9.90249571230419"><ele>76.0</ele><time>2026-04-06T16:18:35Z</time></trkpt><trkpt lat="45.40055597355951" lon="9.90230602903198"><ele>75.33333333333333</ele><time>2026-04-06T16:18:36Z</time></trkpt><trkpt lat="45.40054128730509" lon="9.902101944801194"><ele>74.66666666666667</ele><time>2026-04-06T16:18:37Z</time></trkpt><trkpt lat="45.400538345860106" lon="9.901884432998365"><ele>74.0</ele><time>2026-04-06T16:18:38Z</time></trkpt><trkpt lat="45.40053312574971" lon="9.901654596671966"><ele>73.66666666666667</ele><time>2026-04-06T16:18:39Z</time></trkpt><trkpt lat="45.40052437984586" lon="9.901427539843164"><ele>73.33333333333333</ele><time>2026-04-06T16:18:40Z</time></trkpt><trkpt lat="45.400515230104084" lon="9.901194857304024"><ele>73.0</ele><time>2026-04-06T16:18:41Z</time></trkpt><trkpt lat="45.40050468703853" lon="9.900955795173115"><ele>74.0</ele><time>2026-04-06T16:18:42Z</time></trkpt><trkpt lat="45.400495543507056" lon="9.900709057479368"><ele>75.0</ele><time>2026-04-06T16:18:43Z</time></trkpt><trkpt lat="45.40049430759341" lon="9.90045658678607"><ele>76.0</ele><time>2026-04-06T16:18:44Z</time></trkpt><trkpt lat="45.40048966786696" lon="9.900203543167029"><ele>75.33333333333333</ele><time>2026-04-06T16:18:45Z</time></trkpt><trkpt lat="45.40047939408935" lon="9.899940877491547"><ele>74.66666666666667</ele><time>2026-04-06T16:18:46Z</time></trkpt><trkpt lat="45.40048143901802" lon="9.899671398231828"><ele>74.0</ele><time>2026-04-06T16:18:47Z</time></trkpt><trkpt lat="45.400490295692954" lon="9.89940326153409"><ele>74.0</ele><time>2026-04-06T16:18:48Z</time></trkpt><trkpt lat="45.4004992592381" lon="9.89913442465811"><ele>74.0</ele><time>2026-04-06T16:18:49Z</time></trkpt><trkpt lat="45.40050808686187" lon="9.89886365468634"><ele>74.0</ele><time>2026-04-06T16:18:50Z</time></trkpt><trkpt lat="45.400516588429916" lon="9.898588434498627"><ele>74.0</ele><time>2026-04-06T16:18:51Z</time></trkpt><trkpt lat="45.400518131206496" lon="9.898311069001615"><ele>74.0</ele><time>2026-04-06T16:18:52Z</time></trkpt><trkpt lat="45.40050583749327" lon="9.898030990728143"><ele>74.0</ele><time>2026-04-06T16:18:53Z</time></trkpt><trkpt lat="45.400466576256264" lon="9.8977455289642"><ele>73.0</ele><time>2026-04-06T16:18:54Z</time></trkpt><trkpt lat="45.40041021989275" lon="9.897463038642433"><ele>72.0</ele><time>2026-04-06T16:18:55Z</time></trkpt><trkpt lat="45.40035545551089" lon="9.897179625075113"><ele>71.0</ele><time>2026-04-06T16:18:56Z</time></trkpt><trkpt lat="45.40030747283826" lon="9.896893006329696"><ele>70.33333333333334</ele><time>2026-04-06T16:18:57Z</time></trkpt><trkpt lat="45.400258914101556" lon="9.89660953038118"><ele>69.66666666666667</ele><time>2026-04-06T16:18:58Z</time></trkpt><trkpt lat="45.4002105922114" lon="9.896329713913127"><ele>69.0</ele><time>2026-04-06T16:18:59Z</time></trkpt><trkpt lat="45.400162219702125" lon="9.896052965044529"><ele>69.33333333333333</ele><time>2026-04-06T16:19:00Z</time></trkpt><trkpt lat="45.40011530957651" lon="9.895780211141073"><ele>69.66666666666666</ele><time>2026-04-06T16:19:01Z</time></trkpt><trkpt lat="45.40006997146397" lon="9.89551439202917"><ele>70.0</ele><time>2026-04-06T16:19:02Z</time></trkpt><trkpt lat="45.400025588568376" lon="9.895259643343318"><ele>69.66666666666666</ele><time>2026-04-06T16:19:03Z</time></trkpt><trkpt lat="45.399979355866506" lon="9.895012243196398"><ele>69.33333333333333</ele><time>2026-04-06T16:19:04Z</time></trkpt><trkpt lat="45.39993583766324" lon="9.894764604877347"><ele>69.0</ele><time>2026-04-06T16:19:05.001Z</time></trkpt><trkpt lat="45.39989370760501" lon="9.894520770427947"><ele>69.0</ele><time>2026-04-06T16:19:06.001Z</time></trkpt><trkpt lat="45.399851005710104" lon="9.894282576884452"><ele>69.0</ele><time>2026-04-06T16:19:07.001Z</time></trkpt><trkpt lat="45.39980769370075" lon="9.894051548994613"><ele>69.0</ele><time>2026-04-06T16:19:08.001Z</time></trkpt><trkpt lat="45.399763769873985" lon="9.893815532918232"><ele>69.0</ele><time>2026-04-06T16:19:09.001Z</time></trkpt><trkpt lat="45.3997220850726" lon="9.893577934543323"><ele>69.0</ele><time>2026-04-06T16:19:10.001Z</time></trkpt><trkpt lat="45.39968339393789" lon="9.893337415393532"><ele>69.0</ele><time>2026-04-06T16:19:11.001Z</time></trkpt><trkpt lat="45.39964386263135" lon="9.89308217942786"><ele>69.33333333333333</ele><time>2026-04-06T16:19:12.001Z</time></trkpt><trkpt lat="45.39960245788502" lon="9.892826932358016"><ele>69.66666666666666</ele><time>2026-04-06T16:19:13.001Z</time></trkpt><trkpt lat="45.39956185782818" lon="9.892573837621622"><ele>70.0</ele><time>2026-04-06T16:19:14.001Z</time></trkpt><trkpt lat="45.3995188943335" lon="9.892325379859237"><ele>70.0</ele><time>2026-04-06T16:19:15.001Z</time></trkpt><trkpt lat="45.39947413548897" lon="9.89208263932389"><ele>70.0</ele><time>2026-04-06T16:19:16.001Z</time></trkpt><trkpt lat="45.3994353365691" lon="9.891855155947905"><ele>70.0</ele><time>2026-04-06T16:19:17.001Z</time></trkpt><trkpt lat="45.39939912817264" lon="9.891634130711664"><ele>70.0</ele><time>2026-04-06T16:19:18.001Z</time></trkpt><trkpt lat="45.39935402582424" lon="9.891407989559482"><ele>70.0</ele><time>2026-04-06T16:19:19.001Z</time></trkpt><trkpt lat="45.39930248024377" lon="9.891178174339045"><ele>70.0</ele><time>2026-04-06T16:19:20.001Z</time></trkpt><trkpt lat="45.39925297484252" lon="9.890949541164904"><ele>69.5</ele><time>2026-04-06T16:19:21.001Z</time></trkpt><trkpt lat="45.39921003331478" lon="9.890738003237118"><ele>69.0</ele><time>2026-04-06T16:19:22.001Z</time></trkpt><trkpt lat="45.39916983793783" lon="9.890537398447062"><ele>68.5</ele><time>2026-04-06T16:19:23.001Z</time></trkpt><trkpt lat="45.399130092178936" lon="9.890348827705779"><ele>68.0</ele><time>2026-04-06T16:19:24.001Z</time></trkpt><trkpt lat="45.39909372561266" lon="9.890169868227922"><ele>68.25</ele><time>2026-04-06T16:19:25.001Z</time></trkpt><trkpt lat="45.39905550735776" lon="9.889997918642749"><ele>68.5</ele><time>2026-04-06T16:19:26.001Z</time></trkpt><trkpt lat="45.39901667407934" lon="9.889829949614402"><ele>68.75</ele><time>2026-04-06T16:19:27.001Z</time></trkpt><trkpt lat="45.39897642125966" lon="9.88964926465696"><ele>69.0</ele><time>2026-04-06T16:19:28.001Z</time></trkpt><trkpt lat="45.3989390841029" lon="9.889451648685803"><ele>69.0</ele><time>2026-04-06T16:19:29.001Z</time></trkpt><trkpt lat="45.39890106047172" lon="9.889237801121325"><ele>69.0</ele><time>2026-04-06T16:19:30.001Z</time></trkpt><trkpt lat="45.3988545097134" lon="9.889012085942099"><ele>69.0</ele><time>2026-04-06T16:19:31.001Z</time></trkpt><trkpt lat="45.39879722115321" lon="9.88877707176595"><ele>68.66666666666667</ele><time>2026-04-06T16:19:32.001Z</time></trkpt><trkpt lat="45.3987393205927" lon="9.888532812927805"><ele>68.33333333333334</ele><time>2026-04-06T16:19:33.001Z</time></trkpt><trkpt lat="45.39868881854049" lon="9.888270522758974"><ele>68.0</ele><time>2026-04-06T16:19:34.001Z</time></trkpt><trkpt lat="45.39863885735901" lon="9.887998149798573"><ele>67.66666666666667</ele><time>2026-04-06T16:19:35.001Z</time></trkpt><trkpt lat="45.398580335468246" lon="9.887719105715593"><ele>67.33333333333333</ele><time>2026-04-06T16:19:36.001Z</time></trkpt><trkpt lat="45.39852041095369" lon="9.887435510753775"><ele>67.0</ele><time>2026-04-06T16:19:37.001Z</time></trkpt><trkpt lat="45.39845949996811" lon="9.887152176712222"><ele>67.33333333333333</ele><time>2026-04-06T16:19:38.001Z</time></trkpt><trkpt lat="45.39839954038265" lon="9.88686786736517"><ele>67.66666666666667</ele><time>2026-04-06T16:19:39.001Z</time></trkpt><trkpt lat="45.398334481658814" lon="9.886580068023019"><ele>68.0</ele><time>2026-04-06T16:19:40.001Z</time></trkpt><trkpt lat="45.3982726101895" lon="9.886292547270944"><ele>68.0</ele><time>2026-04-06T16:19:41.001Z</time></trkpt><trkpt lat="45.39821456979618" lon="9.886012078920325"><ele>68.0</ele><time>2026-04-06T16:19:42.001Z</time></trkpt><trkpt lat="45.398157423250964" lon="9.885732308061664"><ele>68.0</ele><time>2026-04-06T16:19:43.001Z</time></trkpt><trkpt lat="45.39810620560156" lon="9.88545617564941"><ele>68.33333333333334</ele><time>2026-04-06T16:19:44.001Z</time></trkpt><trkpt lat="45.39806602990383" lon="9.88519293518271"><ele>68.66666666666667</ele><time>2026-04-06T16:19:45.001Z</time></trkpt><trkpt lat="45.39805176183643" lon="9.884941582208723"><ele>69.0</ele><time>2026-04-06T16:19:46.001Z</time></trkpt><trkpt lat="45.398050198999975" lon="9.88470684999757"><ele>69.75</ele><time>2026-04-06T16:19:47.001Z</time></trkpt><trkpt lat="45.398058725881356" lon="9.88448524223636"><ele>70.5</ele><time>2026-04-06T16:19:48.001Z</time></trkpt><trkpt lat="45.398074883641065" lon="9.884291325915093"><ele>71.25</ele><time>2026-04-06T16:19:49.001Z</time></trkpt><trkpt lat="45.398091201026666" lon="9.884125487854886"><ele>72.0</ele><time>2026-04-06T16:19:50.001Z</time></trkpt><trkpt lat="45.39810553588199" lon="9.883995432060093"><ele>72.42857142857143</ele><time>2026-04-06T16:19:51.001Z</time></trkpt><trkpt lat="45.39811850334106" lon="9.883891082874635"><ele>72.85714285714286</ele><time>2026-04-06T16:19:52.001Z</time></trkpt><trkpt lat="45.39813863994" lon="9.883764211812304"><ele>73.28571428571428</ele><time>2026-04-06T16:19:54.001Z</time></trkpt><trkpt lat="45.39816504255616" lon="9.883678438085424"><ele>73.71428571428572</ele><time>2026-04-06T16:20:10.002Z</time></trkpt><trkpt lat="45.39818154545807" lon="9.883588596143971"><ele>74.14285714285714</ele><time>2026-04-06T16:20:15.002Z</time></trkpt><trkpt lat="45.39823449759518" lon="9.88348940530255"><ele>74.57142857142857</ele><time>2026-04-06T16:20:17.002Z</time></trkpt><trkpt lat="45.398293569950745" lon="9.883528421774942"><ele>75.0</ele><time>2026-04-06T16:20:18.002Z</time></trkpt><trkpt lat="45.39835436721342" lon="9.883558638971207"><ele>75.0</ele><time>2026-04-06T16:20:19.002Z</time></trkpt><trkpt lat="45.39842370228693" lon="9.883583797369207"><ele>75.0</ele><time>2026-04-06T16:20:20.002Z</time></trkpt><trkpt lat="45.398503347970404" lon="9.883609091134375"><ele>75.0</ele><time>2026-04-06T16:20:21.002Z</time></trkpt><trkpt lat="45.398586864511" lon="9.883631864976373"><ele>75.0</ele><time>2026-04-06T16:20:22.002Z</time></trkpt><trkpt lat="45.39866652786547" lon="9.883647061441367"><ele>75.0</ele><time>2026-04-06T16:20:23.002Z</time></trkpt><trkpt lat="45.398744212714" lon="9.883657930344194"><ele>75.0</ele><time>2026-04-06T16:20:24.002Z</time></trkpt><trkpt lat="45.39881842472456" lon="9.883666216865212"><ele>75.33333333333333</ele><time>2026-04-06T16:20:25.002Z</time></trkpt><trkpt lat="45.39889827280764" lon="9.883674714114951"><ele>75.66666666666667</ele><time>2026-04-06T16:20:26.002Z</time></trkpt><trkpt lat="45.39897741871726" lon="9.883661548484664"><ele>76.0</ele><time>2026-04-06T16:20:27.002Z</time></trkpt><trkpt lat="45.39906211596273" lon="9.883669968058395"><ele>76.33333333333334</ele><time>2026-04-06T16:20:28.002Z</time></trkpt><trkpt lat="45.39914972730534" lon="9.883676722685903"><ele>76.66666666666667</ele><time>2026-04-06T16:20:29.002Z</time></trkpt><trkpt lat="45.39923967496753" lon="9.88368910205215"><ele>77.0</ele><time>2026-04-06T16:20:30.002Z</time></trkpt><trkpt lat="45.39932665117284" lon="9.883705699233726"><ele>77.0</ele><time>2026-04-06T16:20:31.002Z</time></trkpt><trkpt lat="45.39941119936538" lon="9.88371553854023"><ele>77.0</ele><time>2026-04-06T16:20:32.002Z</time></trkpt><trkpt lat="45.399487479255" lon="9.883721603703655"><ele>77.0</ele><time>2026-04-06T16:20:33.002Z</time></trkpt><trkpt lat="45.399556245472354" lon="9.88372266333263"><ele>77.0</ele><time>2026-04-06T16:20:34.002Z</time></trkpt><trkpt lat="45.399619582157" lon="9.883726687102216"><ele>77.0</ele><time>2026-04-06T16:20:35.002Z</time></trkpt><trkpt lat="45.399711665352974" lon="9.883753842921152"><ele>77.0</ele><time>2026-04-06T16:20:37.002Z</time></trkpt><trkpt lat="45.39977732692413" lon="9.883776216577392"><ele>77.0</ele><time>2026-04-06T16:20:40.002Z</time></trkpt><trkpt lat="45.39971021208032" lon="9.883748862311688"><ele>77.0</ele><time>2026-04-06T16:20:47.001Z</time></trkpt><trkpt lat="45.39959865767033" lon="9.883717167073145"><ele>77.0</ele><time>2026-04-06T16:20:49.001Z</time></trkpt><trkpt lat="45.399523733048575" lon="9.883716138058032"><ele>77.0</ele><time>2026-04-06T16:20:50.001Z</time></trkpt><trkpt lat="45.39944252576587" lon="9.883711490776815"><ele>77.0</ele><time>2026-04-06T16:20:51.001Z</time></trkpt><trkpt lat="45.399358465579716" lon="9.883697522726676"><ele>77.0</ele><time>2026-04-06T16:20:52.001Z</time></trkpt><trkpt lat="45.39926254426392" lon="9.883672348846362"><ele>77.0</ele><time>2026-04-06T16:20:53.001Z</time></trkpt><trkpt lat="45.399170078936734" lon="9.883672767198718"><ele>77.0</ele><time>2026-04-06T16:20:54.001Z</time></trkpt><trkpt lat="45.39906922213256" lon="9.883660373616518"><ele>77.0</ele><time>2026-04-06T16:20:55.001Z</time></trkpt><trkpt lat="45.39897199351515" lon="9.883632948155842"><ele>77.0</ele><time>2026-04-06T16:20:56.001Z</time></trkpt><trkpt lat="45.398893119936474" lon="9.88362972188124"><ele>77.0</ele><time>2026-04-06T16:20:57.001Z</time></trkpt><trkpt lat="45.398824806127045" lon="9.883621288779915"><ele>77.0</ele><time>2026-04-06T16:20:58.001Z</time></trkpt><trkpt lat="45.3987544378205" lon="9.883611682733013"><ele>76.66666666666667</ele><time>2026-04-06T16:20:59.001Z</time></trkpt><trkpt lat="45.398689629832944" lon="9.883602513933782"><ele>76.33333333333334</ele><time>2026-04-06T16:21:00.001Z</time></trkpt><trkpt lat="45.398592994088" lon="9.883604855440685"><ele>76.0</ele><time>2026-04-06T16:21:02.001Z</time></trkpt><trkpt lat="45.39852611750878" lon="9.883693445631566"><ele>75.66666666666667</ele><time>2026-04-06T16:21:04.001Z</time></trkpt><trkpt lat="45.398482703189906" lon="9.883854057828918"><ele>75.33333333333333</ele><time>2026-04-06T16:21:06.001Z</time></trkpt><trkpt lat="45.398419862458766" lon="9.883902631740085"><ele>75.0</ele><time>2026-04-06T16:21:07.001Z</time></trkpt><trkpt lat="45.398359796675464" lon="9.883966324370466"><ele>75.0</ele><time>2026-04-06T16:21:08.001Z</time></trkpt><trkpt lat="45.398309335304084" lon="9.884050734154902"><ele>75.0</ele><time>2026-04-06T16:21:09.001Z</time></trkpt><trkpt lat="45.39826499087651" lon="9.884149756807446"><ele>75.0</ele><time>2026-04-06T16:21:10.001Z</time></trkpt><trkpt lat="45.39823108667399" lon="9.88426510802306"><ele>75.0</ele><time>2026-04-06T16:21:11.001Z</time></trkpt><trkpt lat="45.39820906360748" lon="9.884393016894595"><ele>75.0</ele><time>2026-04-06T16:21:12.001Z</time></trkpt><trkpt lat="45.39820158652712" lon="9.884524949631862"><ele>75.0</ele><time>2026-04-06T16:21:13.001Z</time></trkpt><trkpt lat="45.398195488151345" lon="9.884663024518813"><ele>74.4</ele><time>2026-04-06T16:21:14.001Z</time></trkpt><trkpt lat="45.39818107528888" lon="9.884803177294943"><ele>73.8</ele><time>2026-04-06T16:21:15.001Z</time></trkpt><trkpt lat="45.398170125848395" lon="9.884942095143101"><ele>73.2</ele><time>2026-04-06T16:21:16.001Z</time></trkpt><trkpt lat="45.39815807650681" lon="9.885073164643751"><ele>72.6</ele><time>2026-04-06T16:21:17.001Z</time></trkpt><trkpt lat="45.39816628655719" lon="9.885206498621741"><ele>72.0</ele><time>2026-04-06T16:21:18.001Z</time></trkpt><trkpt lat="45.398197154403135" lon="9.885361004856252"><ele>71.25</ele><time>2026-04-06T16:21:19.001Z</time></trkpt><trkpt lat="45.39822302102192" lon="9.885530529349431"><ele>70.5</ele><time>2026-04-06T16:21:20.001Z</time></trkpt><trkpt lat="45.398248275394714" lon="9.885704501151377"><ele>69.75</ele><time>2026-04-06T16:21:21.001Z</time></trkpt><trkpt lat="45.39827289103275" lon="9.885869191965705"><ele>69.0</ele><time>2026-04-06T16:21:22.001Z</time></trkpt><trkpt lat="45.39829515983382" lon="9.886013804773265"><ele>68.83333333333333</ele><time>2026-04-06T16:21:23.001Z</time></trkpt><trkpt lat="45.398312010904576" lon="9.88615215550697"><ele>68.66666666666667</ele><time>2026-04-06T16:21:24.001Z</time></trkpt><trkpt lat="45.398326021795654" lon="9.886276400896795"><ele>68.5</ele><time>2026-04-06T16:21:25.001Z</time></trkpt><trkpt lat="45.39834309182289" lon="9.886375133043039"><ele>68.33333333333334</ele><time>2026-04-06T16:21:26.001Z</time></trkpt><trkpt lat="45.39835997498643" lon="9.886472693519133"><ele>68.16666666666667</ele><time>2026-04-06T16:21:27.001Z</time></trkpt><trkpt lat="45.39837583451362" lon="9.886560469403587"><ele>68.0</ele><time>2026-04-06T16:21:28.001Z</time></trkpt><trkpt lat="45.398411471670684" lon="9.886675806417738"><ele>68.0</ele><time>2026-04-06T16:21:30.001Z</time></trkpt><trkpt lat="45.39846153522179" lon="9.886756332169053"><ele>68.0</ele><time>2026-04-06T16:21:44.001Z</time></trkpt><trkpt lat="45.39853434367192" lon="9.886815066218649"><ele>68.0</ele><time>2026-04-06T16:21:54.001Z</time></trkpt><trkpt lat="45.39863864489188" lon="9.88693787429435"><ele>68.0</ele><time>2026-04-06T16:21:56.001Z</time></trkpt><trkpt lat="45.39869235593976" lon="9.887018906538634"><ele>68.0</ele><time>2026-04-06T16:21:57.001Z</time></trkpt><trkpt lat="45.398749733681235" lon="9.887103824984013"><ele>68.16666666666667</ele><time>2026-04-06T16:21:58.001Z</time></trkpt><trkpt lat="45.398813605099356" lon="9.887194897232057"><ele>68.33333333333334</ele><time>2026-04-06T16:21:59.001Z</time></trkpt><trkpt lat="45.3988814481586" lon="9.887283409913453"><ele>68.5</ele><time>2026-04-06T16:22:00.001Z</time></trkpt><trkpt lat="45.398952467062095" lon="9.887360463692394"><ele>68.66666666666667</ele><time>2026-04-06T16:22:01.001Z</time></trkpt><trkpt lat="45.39900450901345" lon="9.887451064253646"><ele>68.83333333333333</ele><time>2026-04-06T16:22:02.001Z</time></trkpt><trkpt lat="45.39906469501008" lon="9.88752303164178"><ele>69.0</ele><time>2026-04-06T16:22:03.001Z</time></trkpt><trkpt lat="45.39912465529992" lon="9.88759355640031"><ele>68.66666666666667</ele><time>2026-04-06T16:22:04.001Z</time></trkpt><trkpt lat="45.39918756349942" lon="9.887660310148352"><ele>68.33333333333333</ele><time>2026-04-06T16:22:05.002Z</time></trkpt><trkpt lat="45.39925833956134" lon="9.887717378779547"><ele>68.0</ele><time>2026-04-06T16:22:06.002Z</time></trkpt><trkpt lat="45.3993279597026" lon="9.88775962156392"><ele>67.66666666666666</ele><time>2026-04-06T16:22:07.002Z</time></trkpt><trkpt lat="45.39940056803053" lon="9.887796803006497"><ele>67.33333333333333</ele><time>2026-04-06T16:22:08.002Z</time></trkpt><trkpt lat="45.399455044765695" lon="9.887887092744748"><ele>67.0</ele><time>2026-04-06T16:22:09.002Z</time></trkpt><trkpt lat="45.399476752122574" lon="9.888008452906941"><ele>67.0</ele><time>2026-04-06T16:22:10.002Z</time></trkpt><trkpt lat="45.39950642553958" lon="9.888131993546864"><ele>67.0</ele><time>2026-04-06T16:22:11.002Z</time></trkpt><trkpt lat="45.39954645162855" lon="9.888268495806527"><ele>67.0</ele><time>2026-04-06T16:22:12.002Z</time></trkpt><trkpt lat="45.39959413469481" lon="9.888390030437238"><ele>67.0</ele><time>2026-04-06T16:22:13.002Z</time></trkpt><trkpt lat="45.39966625307302" lon="9.888505110621919"><ele>67.0</ele><time>2026-04-06T16:22:14.002Z</time></trkpt><trkpt lat="45.39972711250919" lon="9.888627786797276"><ele>67.6</ele><time>2026-04-06T16:22:15.002Z</time></trkpt><trkpt lat="45.399791482039284" lon="9.888737681454744"><ele>68.2</ele><time>2026-04-06T16:22:16.002Z</time></trkpt><trkpt lat="45.3998480880217" lon="9.888840145927492"><ele>68.8</ele><time>2026-04-06T16:22:17.002Z</time></trkpt><trkpt lat="45.399905151433465" lon="9.888918171565255"><ele>69.4</ele><time>2026-04-06T16:22:18.002Z</time></trkpt><trkpt lat="45.39996809693205" lon="9.888991172741491"><ele>70.0</ele><time>2026-04-06T16:22:19.002Z</time></trkpt><trkpt lat="45.40006425359383" lon="9.888962322846977"><ele>70.0</ele><time>2026-04-06T16:22:20.002Z</time></trkpt><trkpt lat="45.400171921870886" lon="9.888945764612794"><ele>70.0</ele><time>2026-04-06T16:22:21.002Z</time></trkpt><trkpt lat="45.400288084054644" lon="9.888927851858641"><ele>70.0</ele><time>2026-04-06T16:22:22.002Z</time></trkpt><trkpt lat="45.40040336523169" lon="9.888934282697527"><ele>70.0</ele><time>2026-04-06T16:22:23.002Z</time></trkpt><trkpt lat="45.40050787851007" lon="9.88890333931329"><ele>70.0</ele><time>2026-04-06T16:22:24.002Z</time></trkpt><trkpt lat="45.40060528715322" lon="9.888898413200067"><ele>70.16666666666666</ele><time>2026-04-06T16:22:25.002Z</time></trkpt><trkpt lat="45.40069471719536" lon="9.888887930775331"><ele>70.33333333333333</ele><time>2026-04-06T16:22:26.002Z</time></trkpt><trkpt lat="45.400780456207144" lon="9.88887175912245"><ele>70.5</ele><time>2026-04-06T16:22:27.002Z</time></trkpt><trkpt lat="45.400858060818784" lon="9.888856031136896"><ele>70.66666666666667</ele><time>2026-04-06T16:22:28.002Z</time></trkpt><trkpt lat="45.40092459880844" lon="9.888838689695275"><ele>70.83333333333334</ele><time>2026-04-06T16:22:29.002Z</time></trkpt><trkpt lat="45.40103248688977" lon="9.888809495975588"><ele>71.0</ele><time>2026-04-06T16:22:31.002Z</time></trkpt><trkpt lat="45.40109646260435" lon="9.888805350070223"><ele>71.0</ele><time>2026-04-06T16:22:32.002Z</time></trkpt><trkpt lat="45.40117048349863" lon="9.888780948175116"><ele>71.0</ele><time>2026-04-06T16:22:33.002Z</time></trkpt><trkpt lat="45.40124468669809" lon="9.888751827641146"><ele>71.0</ele><time>2026-04-06T16:22:34.002Z</time></trkpt><trkpt lat="45.40130159473755" lon="9.888707098821738"><ele>71.0</ele><time>2026-04-06T16:22:35.002Z</time></trkpt><trkpt lat="45.40139758772056" lon="9.888683323451218"><ele>71.0</ele><time>2026-04-06T16:22:37.002Z</time></trkpt><trkpt lat="45.40146309992157" lon="9.888647009855665"><ele>71.0</ele><time>2026-04-06T16:22:39.002Z</time></trkpt><trkpt lat="45.40137705614624" lon="9.888689643180372"><ele>71.0</ele><time>2026-04-06T16:24:25.002Z</time></trkpt><trkpt lat="45.401259900651006" lon="9.888746781258806"><ele>71.0</ele><time>2026-04-06T16:24:27.002Z</time></trkpt><trkpt lat="45.40119148887194" lon="9.888776056624227"><ele>71.0</ele><time>2026-04-06T16:24:28.002Z</time></trkpt><trkpt lat="45.40111873483722" lon="9.888799659590227"><ele>71.0</ele><time>2026-04-06T16:24:29.002Z</time></trkpt><trkpt lat="45.40095673586725" lon="9.888790259044168"><ele>71.0</ele><time>2026-04-06T16:24:30.002Z</time></trkpt><trkpt lat="45.400869518174325" lon="9.88885248985171"><ele>71.0</ele><time>2026-04-06T16:24:31.002Z</time></trkpt><trkpt lat="45.40076619243875" lon="9.888858778474141"><ele>71.0</ele><time>2026-04-06T16:24:32.002Z</time></trkpt><trkpt lat="45.400659098893584" lon="9.88887729543852"><ele>71.0</ele><time>2026-04-06T16:24:33.002Z</time></trkpt><trkpt lat="45.40055540280614" lon="9.888892776554867"><ele>71.0</ele><time>2026-04-06T16:24:34.002Z</time></trkpt><trkpt lat="45.40045121871537" lon="9.888912408410063"><ele>71.0</ele><time>2026-04-06T16:24:35.002Z</time></trkpt><trkpt lat="45.40034781816271" lon="9.888924497338328"><ele>70.8</ele><time>2026-04-06T16:24:36.002Z</time></trkpt><trkpt lat="45.400257822762704" lon="9.888936901369833"><ele>70.6</ele><time>2026-04-06T16:24:37.002Z</time></trkpt><trkpt lat="45.400171237813865" lon="9.888947433555016"><ele>70.4</ele><time>2026-04-06T16:24:38.002Z</time></trkpt><trkpt lat="45.40009212806034" lon="9.888961846858273"><ele>70.2</ele><time>2026-04-06T16:24:39.002Z</time></trkpt><trkpt lat="45.40002072075777" lon="9.88897324022184"><ele>70.0</ele><time>2026-04-06T16:24:40.002Z</time></trkpt><trkpt lat="45.399896676203085" lon="9.888927907188567"><ele>70.0</ele><time>2026-04-06T16:24:42.002Z</time></trkpt><trkpt lat="45.39984821618458" lon="9.888851527730262"><ele>70.0</ele><time>2026-04-06T16:24:43.002Z</time></trkpt><trkpt lat="45.39980764397366" lon="9.888753132643616"><ele>70.0</ele><time>2026-04-06T16:24:44.002Z</time></trkpt><trkpt lat="45.39976159760712" lon="9.888652432238144"><ele>70.0</ele><time>2026-04-06T16:24:45.002Z</time></trkpt><trkpt lat="45.399708300301015" lon="9.88855713225627"><ele>70.0</ele><time>2026-04-06T16:24:46.002Z</time></trkpt><trkpt lat="45.39965946575166" lon="9.888461170834123"><ele>70.0</ele><time>2026-04-06T16:24:47.002Z</time></trkpt><trkpt lat="45.39960917198601" lon="9.888363591001118"><ele>69.5</ele><time>2026-04-06T16:24:48.002Z</time></trkpt><trkpt lat="45.39956737821789" lon="9.888265115030396"><ele>69.0</ele><time>2026-04-06T16:24:49.002Z</time></trkpt><trkpt lat="45.39954211687372" lon="9.888169348332129"><ele>68.5</ele><time>2026-04-06T16:24:50.002Z</time></trkpt><trkpt lat="45.39951543535954" lon="9.888062694298444"><ele>68.0</ele><time>2026-04-06T16:24:51.002Z</time></trkpt><trkpt lat="45.39948709793168" lon="9.887953048677804"><ele>67.5</ele><time>2026-04-06T16:24:52.002Z</time></trkpt><trkpt lat="45.39943963330869" lon="9.887845160517239"><ele>67.0</ele><time>2026-04-06T16:24:53.001Z</time></trkpt><trkpt lat="45.399369703940565" lon="9.887758556052486"><ele>67.0</ele><time>2026-04-06T16:24:54.001Z</time></trkpt><trkpt lat="45.39928371161416" lon="9.887686153128097"><ele>67.0</ele><time>2026-04-06T16:24:55.001Z</time></trkpt><trkpt lat="45.399193430510735" lon="9.887616933000432"><ele>67.0</ele><time>2026-04-06T16:24:56.001Z</time></trkpt><trkpt lat="45.39910616424081" lon="9.887530362036374"><ele>67.0</ele><time>2026-04-06T16:24:57.001Z</time></trkpt><trkpt lat="45.39901793445161" lon="9.887428261133511"><ele>67.0</ele><time>2026-04-06T16:24:58.001Z</time></trkpt><trkpt lat="45.39893181539254" lon="9.887314540194799"><ele>67.4</ele><time>2026-04-06T16:24:59.001Z</time></trkpt><trkpt lat="45.39885302606445" lon="9.887211090894565"><ele>67.80000000000001</ele><time>2026-04-06T16:25:00.001Z</time></trkpt><trkpt lat="45.39877310178374" lon="9.887103987414621"><ele>68.2</ele><time>2026-04-06T16:25:01.001Z</time></trkpt><trkpt lat="45.39870008508009" lon="9.887007534452724"><ele>68.60000000000001</ele><time>2026-04-06T16:25:02.001Z</time></trkpt><trkpt lat="45.398636225633496" lon="9.886917817230277"><ele>69.0</ele><time>2026-04-06T16:25:03.001Z</time></trkpt><trkpt lat="45.39857753330746" lon="9.886837514352548"><ele>69.0</ele><time>2026-04-06T16:25:04.001Z</time></trkpt><trkpt lat="45.39852825461118" lon="9.886772147922692"><ele>69.0</ele><time>2026-04-06T16:25:05.001Z</time></trkpt><trkpt lat="45.39847940295298" lon="9.88670537667867"><ele>69.0</ele><time>2026-04-06T16:25:06.001Z</time></trkpt><trkpt lat="45.398433278551295" lon="9.886618855879638"><ele>69.0</ele><time>2026-04-06T16:25:07.001Z</time></trkpt><trkpt lat="45.39839559467073" lon="9.886518856841448"><ele>69.0</ele><time>2026-04-06T16:25:08.001Z</time></trkpt><trkpt lat="45.39836934955629" lon="9.88639387315871"><ele>69.0</ele><time>2026-04-06T16:25:09.001Z</time></trkpt><trkpt lat="45.39837068633176" lon="9.886237625878515"><ele>69.0</ele><time>2026-04-06T16:25:10.001Z</time></trkpt><trkpt lat="45.39834171464385" lon="9.886070280153332"><ele>69.0</ele><time>2026-04-06T16:25:11.001Z</time></trkpt><trkpt lat="45.398315129829626" lon="9.885899152782933"><ele>69.0</ele><time>2026-04-06T16:25:12.001Z</time></trkpt><trkpt lat="45.398290099656954" lon="9.885710064321188"><ele>69.0</ele><time>2026-04-06T16:25:13.001Z</time></trkpt><trkpt lat="45.398245457745716" lon="9.885528253735385"><ele>69.0</ele><time>2026-04-06T16:25:14.001Z</time></trkpt><trkpt lat="45.39822519100878" lon="9.885344140112839"><ele>69.0</ele><time>2026-04-06T16:25:15.001Z</time></trkpt><trkpt lat="45.398211040723915" lon="9.885165228871333"><ele>69.0</ele><time>2026-04-06T16:25:16.001Z</time></trkpt><trkpt lat="45.398206285103434" lon="9.88498619000751"><ele>69.0</ele><time>2026-04-06T16:25:17.001Z</time></trkpt><trkpt lat="45.39821742244375" lon="9.884812211879872"><ele>69.60000000000001</ele><time>2026-04-06T16:25:18.001Z</time></trkpt><trkpt lat="45.398222581875544" lon="9.884669769982077"><ele>70.2</ele><time>2026-04-06T16:25:19.001Z</time></trkpt><trkpt lat="45.3982307771546" lon="9.884538874251152"><ele>70.80000000000001</ele><time>2026-04-06T16:25:20.001Z</time></trkpt><trkpt lat="45.398244541050765" lon="9.884405741540865"><ele>71.4</ele><time>2026-04-06T16:25:21.001Z</time></trkpt><trkpt lat="45.39826931611852" lon="9.884266394415329"><ele>72.0</ele><time>2026-04-06T16:25:22.001Z</time></trkpt><trkpt lat="45.39830838849594" lon="9.88413603960376"><ele>72.5</ele><time>2026-04-06T16:25:23.001Z</time></trkpt><trkpt lat="45.39836572158617" lon="9.88402744403414"><ele>73.0</ele><time>2026-04-06T16:25:24.001Z</time></trkpt><trkpt lat="45.398430883528384" lon="9.883945924858736"><ele>73.5</ele><time>2026-04-06T16:25:25.001Z</time></trkpt><trkpt lat="45.39849534678196" lon="9.883878378639123"><ele>74.0</ele><time>2026-04-06T16:25:26.001Z</time></trkpt><trkpt lat="45.39855320405357" lon="9.883812994805327"><ele>74.5</ele><time>2026-04-06T16:25:27.001Z</time></trkpt><trkpt lat="45.39859597148952" lon="9.883681927150427"><ele>75.0</ele><time>2026-04-06T16:25:29.001Z</time></trkpt><trkpt lat="45.39861277443729" lon="9.883588023987341"><ele>75.0</ele><time>2026-04-06T16:25:33.001Z</time></trkpt><trkpt lat="45.398561343328545" lon="9.883435850808624"><ele>75.0</ele><time>2026-04-06T16:25:34.001Z</time></trkpt><trkpt lat="45.3984233530181" lon="9.883531598421506"><ele>75.0</ele><time>2026-04-06T16:25:36.001Z</time></trkpt><trkpt lat="45.398355512060895" lon="9.883499921797066"><ele>75.0</ele><time>2026-04-06T16:25:51.001Z</time></trkpt><trkpt lat="45.3982884191426" lon="9.883469280450027"><ele>75.0</ele><time>2026-04-06T16:25:53.001Z</time></trkpt><trkpt lat="45.398211345833055" lon="9.883470750132354"><ele>75.2</ele><time>2026-04-06T16:25:56.001Z</time></trkpt><trkpt lat="45.39824669298738" lon="9.883244632003315"><ele>75.4</ele><time>2026-04-06T16:25:58.001Z</time></trkpt><trkpt lat="45.39827342775504" lon="9.883141774028486"><ele>75.6</ele><time>2026-04-06T16:25:59.001Z</time></trkpt><trkpt lat="45.39829998633055" lon="9.883025235976861"><ele>75.8</ele><time>2026-04-06T16:26:00.001Z</time></trkpt><trkpt lat="45.39833434585669" lon="9.882877645000777"><ele>76.0</ele><time>2026-04-06T16:26:01.001Z</time></trkpt><trkpt lat="45.398375267715295" lon="9.882708077383398"><ele>76.25</ele><time>2026-04-06T16:26:02.001Z</time></trkpt><trkpt lat="45.398406697048685" lon="9.882518823874454"><ele>76.5</ele><time>2026-04-06T16:26:03.001Z</time></trkpt><trkpt lat="45.39845956406443" lon="9.88234043083325"><ele>76.75</ele><time>2026-04-06T16:26:04.001Z</time></trkpt><trkpt lat="45.39850895396911" lon="9.882149226656606"><ele>77.0</ele><time>2026-04-06T16:26:05.001Z</time></trkpt><trkpt lat="45.398557864297366" lon="9.881961449046786"><ele>77.0</ele><time>2026-04-06T16:26:06.001Z</time></trkpt><trkpt lat="45.398606372370374" lon="9.881763843329512"><ele>77.0</ele><time>2026-04-06T16:26:07.001Z</time></trkpt><trkpt lat="45.39865332124482" lon="9.88155968293901"><ele>77.0</ele><time>2026-04-06T16:26:08.001Z</time></trkpt><trkpt lat="45.39870225732178" lon="9.881360023951615"><ele>77.0</ele><time>2026-04-06T16:26:09.001Z</time></trkpt><trkpt lat="45.39875423310804" lon="9.881158796191185"><ele>77.0</ele><time>2026-04-06T16:26:10.001Z</time></trkpt><trkpt lat="45.3988054668442" lon="9.880952964909284"><ele>77.0</ele><time>2026-04-06T16:26:11.001Z</time></trkpt><trkpt lat="45.398859359332455" lon="9.88074976041894"><ele>77.0</ele><time>2026-04-06T16:26:12.001Z</time></trkpt><trkpt lat="45.398913730011444" lon="9.880554137257748"><ele>77.25</ele><time>2026-04-06T16:26:13.001Z</time></trkpt><trkpt lat="45.398962733682495" lon="9.880379867110298"><ele>77.5</ele><time>2026-04-06T16:26:14.001Z</time></trkpt><trkpt lat="45.399016576982056" lon="9.88020811199764"><ele>77.75</ele><time>2026-04-06T16:26:15.001Z</time></trkpt><trkpt lat="45.39907112075552" lon="9.880034997839115"><ele>78.0</ele><time>2026-04-06T16:26:16.001Z</time></trkpt><trkpt lat="45.39912511390699" lon="9.879858159981342"><ele>78.0</ele><time>2026-04-06T16:26:17.001Z</time></trkpt><trkpt lat="45.39918651176134" lon="9.87967736217116"><ele>78.0</ele><time>2026-04-06T16:26:18.001Z</time></trkpt><trkpt lat="45.39926242394929" lon="9.879495861841944"><ele>78.0</ele><time>2026-04-06T16:26:19.001Z</time></trkpt><trkpt lat="45.399338420909615" lon="9.879320611556862"><ele>78.0</ele><time>2026-04-06T16:26:20.001Z</time></trkpt><trkpt lat="45.39941767237627" lon="9.879141310315061"><ele>78.0</ele><time>2026-04-06T16:26:21.001Z</time></trkpt><trkpt lat="45.399492850157706" lon="9.878965034848504"><ele>78.0</ele><time>2026-04-06T16:26:22.001Z</time></trkpt><trkpt lat="45.399564218644954" lon="9.878797157355502"><ele>78.0</ele><time>2026-04-06T16:26:23.001Z</time></trkpt><trkpt lat="45.399636331905526" lon="9.878645356837465"><ele>78.0</ele><time>2026-04-06T16:26:24.001Z</time></trkpt><trkpt lat="45.39970492100795" lon="9.8785059715769"><ele>78.16666666666667</ele><time>2026-04-06T16:26:25.001Z</time></trkpt><trkpt lat="45.39976284510589" lon="9.878384660513076"><ele>78.33333333333333</ele><time>2026-04-06T16:26:26.001Z</time></trkpt><trkpt lat="45.3998271696489" lon="9.878291614610351"><ele>78.5</ele><time>2026-04-06T16:26:27.001Z</time></trkpt><trkpt lat="45.39988405355456" lon="9.87823681998011"><ele>78.66666666666666</ele><time>2026-04-06T16:26:28.001Z</time></trkpt><trkpt lat="45.39995062675027" lon="9.87819134711695"><ele>78.83333333333333</ele><time>2026-04-06T16:26:30.002Z</time></trkpt><trkpt lat="45.40002134588603" lon="9.878128461472262"><ele>79.0</ele><time>2026-04-06T16:26:56.002Z</time></trkpt><trkpt lat="45.4001179210428" lon="9.878079683876154"><ele>79.0</ele><time>2026-04-06T16:26:58.002Z</time></trkpt><trkpt lat="45.40020388493199" lon="9.878186303824553"><ele>79.0</ele><time>2026-04-06T16:27:00Z</time></trkpt><trkpt lat="45.40023115568229" lon="9.878289738328911"><ele>79.0</ele><time>2026-04-06T16:27:01Z</time></trkpt><trkpt lat="45.40026871426965" lon="9.878362917537403"><ele>79.0</ele><time>2026-04-06T16:27:02Z</time></trkpt><trkpt lat="45.400395350571905" lon="9.878423505788195"><ele>79.0</ele><time>2026-04-06T16:27:04Z</time></trkpt><trkpt lat="45.400471420819486" lon="9.878367731693219"><ele>79.16666666666666</ele><time>2026-04-06T16:27:05Z</time></trkpt><trkpt lat="45.40054681175699" lon="9.87833166176403"><ele>79.33333333333333</ele><time>2026-04-06T16:27:06Z</time></trkpt><trkpt lat="45.40062609814616" lon="9.878286215824991"><ele>79.5</ele><time>2026-04-06T16:27:07Z</time></trkpt><trkpt lat="45.40070686335884" lon="9.878243084334677"><ele>79.66666666666667</ele><time>2026-04-06T16:27:08Z</time></trkpt><trkpt lat="45.4007875224971" lon="9.878197644155073"><ele>79.83333333333334</ele><time>2026-04-06T16:27:09Z</time></trkpt><trkpt lat="45.40086623745163" lon="9.878150546145042"><ele>80.0</ele><time>2026-04-06T16:27:10Z</time></trkpt><trkpt lat="45.400939108794006" lon="9.878102821940017"><ele>80.0</ele><time>2026-04-06T16:27:11Z</time></trkpt><trkpt lat="45.40100720633787" lon="9.878065716385482"><ele>80.0</ele><time>2026-04-06T16:27:12Z</time></trkpt><trkpt lat="45.40107469733257" lon="9.878030172824952"><ele>80.0</ele><time>2026-04-06T16:27:13Z</time></trkpt><trkpt lat="45.40113713615856" lon="9.878003058934414"><ele>80.0</ele><time>2026-04-06T16:27:14Z</time></trkpt><trkpt lat="45.401240905062586" lon="9.877938075715468"><ele>80.0</ele><time>2026-04-06T16:27:16Z</time></trkpt><trkpt lat="45.40130536454208" lon="9.877918221869956"><ele>80.0</ele><time>2026-04-06T16:27:18Z</time></trkpt><trkpt lat="45.40136588959871" lon="9.877889222355307"><ele>80.0</ele><time>2026-04-06T16:27:21Z</time></trkpt><trkpt lat="45.40145215074322" lon="9.877818772337735"><ele>80.0</ele><time>2026-04-06T16:27:23Z</time></trkpt><trkpt lat="45.40153476327363" lon="9.877782751393454"><ele>80.0</ele><time>2026-04-06T16:27:24Z</time></trkpt><trkpt lat="45.40160676381456" lon="9.877729541938491"><ele>80.0</ele><time>2026-04-06T16:27:25Z</time></trkpt><trkpt lat="45.40167263363985" lon="9.877685263222176"><ele>80.0</ele><time>2026-04-06T16:27:26Z</time></trkpt><trkpt lat="45.40174317121712" lon="9.877632029310854"><ele>80.0</ele><time>2026-04-06T16:27:27Z</time></trkpt><trkpt lat="45.40183210024823" lon="9.877585501990362"><ele>80.0</ele><time>2026-04-06T16:27:28Z</time></trkpt><trkpt lat="45.401918020949694" lon="9.877518736503582"><ele>80.0</ele><time>2026-04-06T16:27:29Z</time></trkpt><trkpt lat="45.402004055719345" lon="9.87746128034563"><ele>80.0</ele><time>2026-04-06T16:27:30Z</time></trkpt><trkpt lat="45.40209936212226" lon="9.877409550861643"><ele>80.0</ele><time>2026-04-06T16:27:31Z</time></trkpt><trkpt lat="45.402198254347255" lon="9.877340967286075"><ele>80.0</ele><time>2026-04-06T16:27:32Z</time></trkpt><trkpt lat="45.402301506952334" lon="9.877279231922422"><ele>79.8</ele><time>2026-04-06T16:27:33Z</time></trkpt><trkpt lat="45.402400010920466" lon="9.87722416108083"><ele>79.6</ele><time>2026-04-06T16:27:34Z</time></trkpt><trkpt lat="45.40249508855886" lon="9.87718565607664"><ele>79.4</ele><time>2026-04-06T16:27:35Z</time></trkpt><trkpt lat="45.40258613473143" lon="9.877167240254355"><ele>79.2</ele><time>2026-04-06T16:27:36Z</time></trkpt><trkpt lat="45.40268751893681" lon="9.877196248204529"><ele>79.0</ele><time>2026-04-06T16:27:37Z</time></trkpt><trkpt lat="45.40280739040394" lon="9.877208451719412"><ele>79.0</ele><time>2026-04-06T16:27:38Z</time></trkpt><trkpt lat="45.40292678127049" lon="9.87722761490082"><ele>79.0</ele><time>2026-04-06T16:27:39Z</time></trkpt><trkpt lat="45.40305908519059" lon="9.877250292825412"><ele>79.0</ele><time>2026-04-06T16:27:40Z</time></trkpt><trkpt lat="45.40320251473252" lon="9.87727550562069"><ele>79.0</ele><time>2026-04-06T16:27:41Z</time></trkpt><trkpt lat="45.4033523109752" lon="9.877306983926289"><ele>79.25</ele><time>2026-04-06T16:27:42Z</time></trkpt><trkpt lat="45.40349959198306" lon="9.877333424967443"><ele>79.5</ele><time>2026-04-06T16:27:43Z</time></trkpt><trkpt lat="45.40364293575565" lon="9.877359948916416"><ele>79.75</ele><time>2026-04-06T16:27:44Z</time></trkpt><trkpt lat="45.4037782790283" lon="9.877382060994565"><ele>80.0</ele><time>2026-04-06T16:27:45Z</time></trkpt><trkpt lat="45.40390564394222" lon="9.877400900382993"><ele>79.5</ele><time>2026-04-06T16:27:46Z</time></trkpt><trkpt lat="45.40401873778151" lon="9.877417911101633"><ele>79.0</ele><time>2026-04-06T16:27:47Z</time></trkpt><trkpt lat="45.40412402748621" lon="9.877428695110092"><ele>78.5</ele><time>2026-04-06T16:27:48.001Z</time></trkpt><trkpt lat="45.40424333370322" lon="9.877454932682559"><ele>78.0</ele><time>2026-04-06T16:27:49.001Z</time></trkpt><trkpt lat="45.40437395378514" lon="9.877478965124785"><ele>78.0</ele><time>2026-04-06T16:27:50.001Z</time></trkpt><trkpt lat="45.40452014168311" lon="9.877507504187657"><ele>78.0</ele><time>2026-04-06T16:27:51.001Z</time></trkpt><trkpt lat="45.404669326961084" lon="9.877545428437259"><ele>78.0</ele><time>2026-04-06T16:27:52.001Z</time></trkpt><trkpt lat="45.404842652984996" lon="9.877574375182778"><ele>78.0</ele><time>2026-04-06T16:27:53.001Z</time></trkpt><trkpt lat="45.40501768746551" lon="9.87759736912366"><ele>78.0</ele><time>2026-04-06T16:27:54.001Z</time></trkpt><trkpt lat="45.405190174869325" lon="9.87764190258419"><ele>78.0</ele><time>2026-04-06T16:27:55.001Z</time></trkpt><trkpt lat="45.405369040735934" lon="9.877689071353258"><ele>78.33333333333333</ele><time>2026-04-06T16:27:56.001Z</time></trkpt><trkpt lat="45.40556608418342" lon="9.877718379092059"><ele>78.66666666666666</ele><time>2026-04-06T16:27:57.001Z</time></trkpt><trkpt lat="45.40577793094053" lon="9.877756492128407"><ele>79.0</ele><time>2026-04-06T16:27:58.001Z</time></trkpt><trkpt lat="45.405982537317705" lon="9.877803355719745"><ele>79.0</ele><time>2026-04-06T16:27:59.001Z</time></trkpt><trkpt lat="45.406185142471145" lon="9.87784122787507"><ele>79.0</ele><time>2026-04-06T16:28:00.001Z</time></trkpt><trkpt lat="45.40639160780481" lon="9.877881556224926"><ele>79.0</ele><time>2026-04-06T16:28:01.001Z</time></trkpt><trkpt lat="45.406590832854995" lon="9.877912243437958"><ele>78.66666666666666</ele><time>2026-04-06T16:28:02.001Z</time></trkpt><trkpt lat="45.40677199747252" lon="9.877941712517373"><ele>78.33333333333333</ele><time>2026-04-06T16:28:03.001Z</time></trkpt><trkpt lat="45.40693697140573" lon="9.877976448320203"><ele>78.0</ele><time>2026-04-06T16:28:04.001Z</time></trkpt><trkpt lat="45.407094646672604" lon="9.878002792076986"><ele>77.66666666666667</ele><time>2026-04-06T16:28:05.001Z</time></trkpt><trkpt lat="45.407250746946865" lon="9.878025041274858"><ele>77.33333333333334</ele><time>2026-04-06T16:28:06.001Z</time></trkpt><trkpt lat="45.407411921202375" lon="9.878056227139645"><ele>77.0</ele><time>2026-04-06T16:28:07.001Z</time></trkpt><trkpt lat="45.407579506878875" lon="9.878090689038034"><ele>77.0</ele><time>2026-04-06T16:28:08.001Z</time></trkpt><trkpt lat="45.40775925959471" lon="9.878125553403017"><ele>77.0</ele><time>2026-04-06T16:28:09.001Z</time></trkpt><trkpt lat="45.40794828055963" lon="9.87815920536528"><ele>77.0</ele><time>2026-04-06T16:28:10.001Z</time></trkpt><trkpt lat="45.40813550619023" lon="9.878188435905619"><ele>77.33333333333334</ele><time>2026-04-06T16:28:11.001Z</time></trkpt><trkpt lat="45.40832738570942" lon="9.878218020849719"><ele>77.66666666666667</ele><time>2026-04-06T16:28:12.001Z</time></trkpt><trkpt lat="45.40852706921979" lon="9.878236767647529"><ele>78.0</ele><time>2026-04-06T16:28:13.001Z</time></trkpt><trkpt lat="45.408730287715855" lon="9.878258259563095"><ele>78.33333333333333</ele><time>2026-04-06T16:28:14.001Z</time></trkpt><trkpt lat="45.408935512565314" lon="9.878284676808155"><ele>78.66666666666666</ele><time>2026-04-06T16:28:15.001Z</time></trkpt><trkpt lat="45.4091446365678" lon="9.878310864865293"><ele>79.0</ele><time>2026-04-06T16:28:16.001Z</time></trkpt><trkpt lat="45.40935936465082" lon="9.878327901872607"><ele>79.0</ele><time>2026-04-06T16:28:17.001Z</time></trkpt><trkpt lat="45.409571669655094" lon="9.878354043919495"><ele>79.0</ele><time>2026-04-06T16:28:18.001Z</time></trkpt><trkpt lat="45.40977943997867" lon="9.878387178784722"><ele>79.0</ele><time>2026-04-06T16:28:19.001Z</time></trkpt><trkpt lat="45.409983950467264" lon="9.878430449106308"><ele>79.0</ele><time>2026-04-06T16:28:20.001Z</time></trkpt><trkpt lat="45.41018402404939" lon="9.878479873122302"><ele>79.0</ele><time>2026-04-06T16:28:21.001Z</time></trkpt><trkpt lat="45.41037805421674" lon="9.878526599460603"><ele>79.0</ele><time>2026-04-06T16:28:22.001Z</time></trkpt><trkpt lat="45.41057817244136" lon="9.878565776359604"><ele>79.66666666666666</ele><time>2026-04-06T16:28:23.001Z</time></trkpt><trkpt lat="45.41077736076744" lon="9.878605593850068"><ele>80.33333333333333</ele><time>2026-04-06T16:28:24.001Z</time></trkpt><trkpt lat="45.410978354911165" lon="9.878644154337481"><ele>81.0</ele><time>2026-04-06T16:28:25.001Z</time></trkpt><trkpt lat="45.41118299400708" lon="9.87867963868435"><ele>81.66666666666667</ele><time>2026-04-06T16:28:26.001Z</time></trkpt><trkpt lat="45.41139131921288" lon="9.878715596229203"><ele>82.33333333333334</ele><time>2026-04-06T16:28:27.001Z</time></trkpt><trkpt lat="45.411600518834064" lon="9.878754480544062"><ele>83.0</ele><time>2026-04-06T16:28:28.001Z</time></trkpt><trkpt lat="45.41180979687673" lon="9.878796692730482"><ele>83.0</ele><time>2026-04-06T16:28:29.001Z</time></trkpt><trkpt lat="45.41202821867817" lon="9.878836624133331"><ele>83.0</ele><time>2026-04-06T16:28:30.001Z</time></trkpt><trkpt lat="45.412243759878834" lon="9.87887478649896"><ele>83.0</ele><time>2026-04-06T16:28:31.001Z</time></trkpt><trkpt lat="45.41246204973727" lon="9.878912171363279"><ele>82.0</ele><time>2026-04-06T16:28:32.001Z</time></trkpt><trkpt lat="45.412686000948725" lon="9.878951984545584"><ele>81.0</ele><time>2026-04-06T16:28:33.001Z</time></trkpt><trkpt lat="45.41291503024127" lon="9.878987305893235"><ele>81.0</ele><time>2026-04-06T16:28:34.001Z</time></trkpt><trkpt lat="45.41314741423849" lon="9.879027463280366"><ele>81.0</ele><time>2026-04-06T16:28:35.001Z</time></trkpt><trkpt lat="45.413380117470425" lon="9.879081492247053"><ele>81.0</ele><time>2026-04-06T16:28:36.001Z</time></trkpt><trkpt lat="45.41360572602074" lon="9.879136370321685"><ele>81.0</ele><time>2026-04-06T16:28:37.001Z</time></trkpt><trkpt lat="45.4138311018856" lon="9.879178200078995"><ele>82.0</ele><time>2026-04-06T16:28:38.001Z</time></trkpt><trkpt lat="45.41405979116782" lon="9.879213944982995"><ele>83.0</ele><time>2026-04-06T16:28:39.001Z</time></trkpt><trkpt lat="45.41429695250928" lon="9.87924133686427"><ele>82.0</ele><time>2026-04-06T16:28:40.001Z</time></trkpt><trkpt lat="45.41452528528687" lon="9.879275277406022"><ele>81.0</ele><time>2026-04-06T16:28:41.001Z</time></trkpt><trkpt lat="45.414747766147045" lon="9.879299755168594"><ele>81.0</ele><time>2026-04-06T16:28:42.001Z</time></trkpt><trkpt lat="45.41495340704112" lon="9.879328222658895"><ele>81.0</ele><time>2026-04-06T16:28:43.001Z</time></trkpt><trkpt lat="45.41515211521935" lon="9.8793517857629"><ele>81.0</ele><time>2026-04-06T16:28:44.001Z</time></trkpt><trkpt lat="45.415338495186184" lon="9.87937365059549"><ele>81.33333333333333</ele><time>2026-04-06T16:28:45.001Z</time></trkpt><trkpt lat="45.4155166758963" lon="9.87939631847958"><ele>81.66666666666666</ele><time>2026-04-06T16:28:46.001Z</time></trkpt><trkpt lat="45.41569344163986" lon="9.87941961004997"><ele>82.0</ele><time>2026-04-06T16:28:47.001Z</time></trkpt><trkpt lat="45.41586264719958" lon="9.879455646378073"><ele>82.0</ele><time>2026-04-06T16:28:48.001Z</time></trkpt><trkpt lat="45.41603081059084" lon="9.879489966665888"><ele>82.0</ele><time>2026-04-06T16:28:49.001Z</time></trkpt><trkpt lat="45.41618079851503" lon="9.879518127378219"><ele>82.0</ele><time>2026-04-06T16:28:50.001Z</time></trkpt><trkpt lat="45.41632630452218" lon="9.879540129353245"><ele>81.33333333333333</ele><time>2026-04-06T16:28:51.001Z</time></trkpt><trkpt lat="45.41647803350892" lon="9.879549812014892"><ele>80.66666666666667</ele><time>2026-04-06T16:28:52.001Z</time></trkpt><trkpt lat="45.41663175182382" lon="9.879544035995465"><ele>80.0</ele><time>2026-04-06T16:28:53.001Z</time></trkpt><trkpt lat="45.416785510816574" lon="9.87952896201889"><ele>80.0</ele><time>2026-04-06T16:28:54.001Z</time></trkpt><trkpt lat="45.41693363852994" lon="9.879517983538564"><ele>80.0</ele><time>2026-04-06T16:28:55.001Z</time></trkpt><trkpt lat="45.417075160728835" lon="9.879531675751567"><ele>80.0</ele><time>2026-04-06T16:28:56.001Z</time></trkpt><trkpt lat="45.417203612152626" lon="9.879504625752364"><ele>80.0</ele><time>2026-04-06T16:28:57.001Z</time></trkpt><trkpt lat="45.417332881693156" lon="9.879493260788017"><ele>80.25</ele><time>2026-04-06T16:28:58.001Z</time></trkpt><trkpt lat="45.417461873730154" lon="9.879486223708712"><ele>80.5</ele><time>2026-04-06T16:28:59.001Z</time></trkpt><trkpt lat="45.41758379320971" lon="9.879474967629903"><ele>80.75</ele><time>2026-04-06T16:29:00.001Z</time></trkpt><trkpt lat="45.41771197940324" lon="9.879465038211867"><ele>81.0</ele><time>2026-04-06T16:29:01.001Z</time></trkpt><trkpt lat="45.417849136298706" lon="9.879459580345166"><ele>81.25</ele><time>2026-04-06T16:29:02.001Z</time></trkpt><trkpt lat="45.4179946284253" lon="9.879462946958599"><ele>81.5</ele><time>2026-04-06T16:29:03.001Z</time></trkpt><trkpt lat="45.41814343963827" lon="9.879480851347267"><ele>81.75</ele><time>2026-04-06T16:29:04.001Z</time></trkpt><trkpt lat="45.41829591884121" lon="9.879507023858864"><ele>82.0</ele><time>2026-04-06T16:29:05Z</time></trkpt><trkpt lat="45.41845239844155" lon="9.879550864328811"><ele>82.0</ele><time>2026-04-06T16:29:06Z</time></trkpt><trkpt lat="45.418610899590504" lon="9.879607463692873"><ele>82.0</ele><time>2026-04-06T16:29:07Z</time></trkpt><trkpt lat="45.418772161399815" lon="9.879688133769152"><ele>82.0</ele><time>2026-04-06T16:29:08Z</time></trkpt><trkpt lat="45.41894134880717" lon="9.879764787725401"><ele>82.33333333333333</ele><time>2026-04-06T16:29:09Z</time></trkpt><trkpt lat="45.419131501516304" lon="9.8798399767607"><ele>82.66666666666667</ele><time>2026-04-06T16:29:10Z</time></trkpt><trkpt lat="45.41931188528593" lon="9.879877720236351"><ele>83.0</ele><time>2026-04-06T16:29:11Z</time></trkpt><trkpt lat="45.419493547422576" lon="9.879886408442887"><ele>84.0</ele><time>2026-04-06T16:29:12Z</time></trkpt><trkpt lat="45.419685348848674" lon="9.879879544434466"><ele>85.0</ele><time>2026-04-06T16:29:13Z</time></trkpt><trkpt lat="45.41987634211909" lon="9.879865071477315"><ele>86.0</ele><time>2026-04-06T16:29:14Z</time></trkpt><trkpt lat="45.42005284499023" lon="9.87982718170558"><ele>86.0</ele><time>2026-04-06T16:29:15Z</time></trkpt><trkpt lat="45.420225265428364" lon="9.879786195542797"><ele>86.0</ele><time>2026-04-06T16:29:16Z</time></trkpt><trkpt lat="45.420400523400644" lon="9.879750460599807"><ele>86.0</ele><time>2026-04-06T16:29:17Z</time></trkpt><trkpt lat="45.42058018702484" lon="9.879756866557855"><ele>86.0</ele><time>2026-04-06T16:29:18Z</time></trkpt><trkpt lat="45.42076498392006" lon="9.879738357046188"><ele>86.0</ele><time>2026-04-06T16:29:19Z</time></trkpt><trkpt lat="45.42095467894862" lon="9.879762336574332"><ele>86.0</ele><time>2026-04-06T16:29:20Z</time></trkpt><trkpt lat="45.421142372935705" lon="9.879787538841867"><ele>86.0</ele><time>2026-04-06T16:29:21Z</time></trkpt><trkpt lat="45.421327873668126" lon="9.879831415222045"><ele>86.0</ele><time>2026-04-06T16:29:22Z</time></trkpt><trkpt lat="45.421517823259855" lon="9.879863938562329"><ele>86.0</ele><time>2026-04-06T16:29:23Z</time></trkpt><trkpt lat="45.421697599292735" lon="9.879909656364546"><ele>86.0</ele><time>2026-04-06T16:29:24Z</time></trkpt><trkpt lat="45.421866135822064" lon="9.879953861208813"><ele>86.0</ele><time>2026-04-06T16:29:25Z</time></trkpt><trkpt lat="45.422036641281615" lon="9.87998341266364"><ele>86.0</ele><time>2026-04-06T16:29:26Z</time></trkpt><trkpt lat="45.42221052342484" lon="9.880036484123869"><ele>85.66666666666667</ele><time>2026-04-06T16:29:27Z</time></trkpt><trkpt lat="45.422381714839275" lon="9.880086415892162"><ele>85.33333333333333</ele><time>2026-04-06T16:29:28Z</time></trkpt><trkpt lat="45.42254699724322" lon="9.880129628375181"><ele>85.0</ele><time>2026-04-06T16:29:29Z</time></trkpt><trkpt lat="45.422700521451056" lon="9.880168985472658"><ele>85.0</ele><time>2026-04-06T16:29:30Z</time></trkpt><trkpt lat="45.422857242255205" lon="9.880184637849187"><ele>85.0</ele><time>2026-04-06T16:29:31Z</time></trkpt><trkpt lat="45.42301408501944" lon="9.88018840772877"><ele>85.0</ele><time>2026-04-06T16:29:32Z</time></trkpt><trkpt lat="45.42318515916749" lon="9.880180570504844"><ele>85.0</ele><time>2026-04-06T16:29:33Z</time></trkpt><trkpt lat="45.42336569299713" lon="9.880188770986488"><ele>85.0</ele><time>2026-04-06T16:29:34Z</time></trkpt><trkpt lat="45.42356030920806" lon="9.88016725117079"><ele>85.0</ele><time>2026-04-06T16:29:35Z</time></trkpt><trkpt lat="45.42376330877314" lon="9.880132301638117"><ele>85.66666666666666</ele><time>2026-04-06T16:29:36Z</time></trkpt><trkpt lat="45.423979725497446" lon="9.88008944854649"><ele>86.33333333333333</ele><time>2026-04-06T16:29:37Z</time></trkpt><trkpt lat="45.42419179536049" lon="9.88004581382807"><ele>87.0</ele><time>2026-04-06T16:29:38Z</time></trkpt><trkpt lat="45.424409724911484" lon="9.879998009053628"><ele>87.0</ele><time>2026-04-06T16:29:39Z</time></trkpt><trkpt lat="45.42461541910549" lon="9.879934117934036"><ele>87.0</ele><time>2026-04-06T16:29:40Z</time></trkpt><trkpt lat="45.42482152759748" lon="9.879893628231235"><ele>87.0</ele><time>2026-04-06T16:29:41Z</time></trkpt><trkpt lat="45.42502715146756" lon="9.879848954105007"><ele>87.33333333333333</ele><time>2026-04-06T16:29:42Z</time></trkpt><trkpt lat="45.42522300895812" lon="9.879813003164239"><ele>87.66666666666666</ele><time>2026-04-06T16:29:43Z</time></trkpt><trkpt lat="45.425424559635665" lon="9.87976535535161"><ele>88.0</ele><time>2026-04-06T16:29:44Z</time></trkpt><trkpt lat="45.42561308708421" lon="9.879714987616588"><ele>88.0</ele><time>2026-04-06T16:29:45Z</time></trkpt><trkpt lat="45.42579538143733" lon="9.879667914826534"><ele>88.0</ele><time>2026-04-06T16:29:46Z</time></trkpt><trkpt lat="45.425977328348836" lon="9.879630777684248"><ele>88.0</ele><time>2026-04-06T16:29:47Z</time></trkpt><trkpt lat="45.426160712537744" lon="9.879612984391109"><ele>87.33333333333333</ele><time>2026-04-06T16:29:48Z</time></trkpt><trkpt lat="45.42634597067588" lon="9.879616463510601"><ele>86.66666666666667</ele><time>2026-04-06T16:29:49Z</time></trkpt><trkpt lat="45.42653079687117" lon="9.879635087212066"><ele>86.0</ele><time>2026-04-06T16:29:50Z</time></trkpt><trkpt lat="45.426722182932686" lon="9.879655721867264"><ele>86.0</ele><time>2026-04-06T16:29:51Z</time></trkpt><trkpt lat="45.426917322604574" lon="9.87966906400867"><ele>86.0</ele><time>2026-04-06T16:29:52Z</time></trkpt><trkpt lat="45.42712171438973" lon="9.87968242031011"><ele>86.0</ele><time>2026-04-06T16:29:53Z</time></trkpt><trkpt lat="45.42733196165151" lon="9.87969934033686"><ele>86.66666666666667</ele><time>2026-04-06T16:29:54Z</time></trkpt><trkpt lat="45.42754268131084" lon="9.879707147595754"><ele>87.33333333333333</ele><time>2026-04-06T16:29:55Z</time></trkpt><trkpt lat="45.42775692537371" lon="9.87971019333101"><ele>88.0</ele><time>2026-04-06T16:29:56Z</time></trkpt><trkpt lat="45.427966826704115" lon="9.879723090875983"><ele>88.33333333333333</ele><time>2026-04-06T16:29:57Z</time></trkpt><trkpt lat="45.428175586397835" lon="9.87972790454496"><ele>88.66666666666667</ele><time>2026-04-06T16:29:58Z</time></trkpt><trkpt lat="45.42836673934067" lon="9.879729582943131"><ele>89.0</ele><time>2026-04-06T16:29:59Z</time></trkpt><trkpt lat="45.42855055941957" lon="9.87973490316232"><ele>89.0</ele><time>2026-04-06T16:30:00Z</time></trkpt><trkpt lat="45.42871823818751" lon="9.879740722834129"><ele>89.0</ele><time>2026-04-06T16:30:01Z</time></trkpt><trkpt lat="45.42887048137893" lon="9.879744406080176"><ele>89.0</ele><time>2026-04-06T16:30:02Z</time></trkpt><trkpt lat="45.429006631408896" lon="9.879747064058161"><ele>88.80000000000001</ele><time>2026-04-06T16:30:03Z</time></trkpt><trkpt lat="45.42912306845455" lon="9.879755231169527"><ele>88.60000000000001</ele><time>2026-04-06T16:30:04Z</time></trkpt><trkpt lat="45.4292231723194" lon="9.879762003140394"><ele>88.4</ele><time>2026-04-06T16:30:05Z</time></trkpt><trkpt lat="45.42931745357248" lon="9.879760277111368"><ele>88.2</ele><time>2026-04-06T16:30:06Z</time></trkpt><trkpt lat="45.429422301094114" lon="9.879735315156669"><ele>88.0</ele><time>2026-04-06T16:30:07Z</time></trkpt><trkpt lat="45.42953704537342" lon="9.879709270767927"><ele>87.75</ele><time>2026-04-06T16:30:08Z</time></trkpt><trkpt lat="45.429658300833665" lon="9.879700699886058"><ele>87.5</ele><time>2026-04-06T16:30:09Z</time></trkpt><trkpt lat="45.429791312459955" lon="9.879707480700255"><ele>87.25</ele><time>2026-04-06T16:30:10Z</time></trkpt><trkpt lat="45.42993316947921" lon="9.87972164509947"><ele>87.0</ele><time>2026-04-06T16:30:11Z</time></trkpt><trkpt lat="45.430080561377444" lon="9.879731571176178"><ele>87.0</ele><time>2026-04-06T16:30:12Z</time></trkpt><trkpt lat="45.43023180094488" lon="9.879715569519583"><ele>87.0</ele><time>2026-04-06T16:30:13Z</time></trkpt><trkpt lat="45.43038870377382" lon="9.879666325210215"><ele>87.0</ele><time>2026-04-06T16:30:14Z</time></trkpt><trkpt lat="45.43054775332492" lon="9.87960008390898"><ele>87.0</ele><time>2026-04-06T16:30:15Z</time></trkpt><trkpt lat="45.430715442271904" lon="9.879531994734062"><ele>87.0</ele><time>2026-04-06T16:30:16Z</time></trkpt><trkpt lat="45.43088892221201" lon="9.879461184317158"><ele>87.0</ele><time>2026-04-06T16:30:17Z</time></trkpt><trkpt lat="45.43106225519462" lon="9.879376504472596"><ele>87.0</ele><time>2026-04-06T16:30:18.001Z</time></trkpt><trkpt lat="45.43123816574321" lon="9.879287931163882"><ele>87.0</ele><time>2026-04-06T16:30:19.001Z</time></trkpt><trkpt lat="45.43142112552481" lon="9.879209145261905"><ele>87.0</ele><time>2026-04-06T16:30:20.001Z</time></trkpt><trkpt lat="45.43161331542354" lon="9.879141035954115"><ele>87.0</ele><time>2026-04-06T16:30:21.001Z</time></trkpt><trkpt lat="45.431806692802404" lon="9.879083197128235"><ele>87.0</ele><time>2026-04-06T16:30:22.001Z</time></trkpt><trkpt lat="45.432002379250534" lon="9.879032855995519"><ele>87.0</ele><time>2026-04-06T16:30:23.001Z</time></trkpt><trkpt lat="45.432199584284284" lon="9.878995840101597"><ele>87.33333333333333</ele><time>2026-04-06T16:30:24.001Z</time></trkpt><trkpt lat="45.43240022420566" lon="9.878957809570766"><ele>87.66666666666666</ele><time>2026-04-06T16:30:25.001Z</time></trkpt><trkpt lat="45.432600409870645" lon="9.878934956686667"><ele>88.0</ele><time>2026-04-06T16:30:26.001Z</time></trkpt><trkpt lat="45.43280005710872" lon="9.878896083505804"><ele>87.66666666666666</ele><time>2026-04-06T16:30:27.001Z</time></trkpt><trkpt lat="45.43300077352475" lon="9.878847398806167"><ele>87.33333333333333</ele><time>2026-04-06T16:30:28.001Z</time></trkpt><trkpt lat="45.43320135781452" lon="9.878808528618245"><ele>87.0</ele><time>2026-04-06T16:30:29.001Z</time></trkpt><trkpt lat="45.43340406748868" lon="9.878769619020357"><ele>87.0</ele><time>2026-04-06T16:30:30.001Z</time></trkpt><trkpt lat="45.4336063539885" lon="9.878721775646689"><ele>87.0</ele><time>2026-04-06T16:30:31.001Z</time></trkpt><trkpt lat="45.433799696404314" lon="9.878675907024109"><ele>87.0</ele><time>2026-04-06T16:30:32.001Z</time></trkpt><trkpt lat="45.433979422690015" lon="9.878641343256511"><ele>87.0</ele><time>2026-04-06T16:30:33.001Z</time></trkpt><trkpt lat="45.43415098334585" lon="9.878617941589678"><ele>87.0</ele><time>2026-04-06T16:30:34.001Z</time></trkpt><trkpt lat="45.43431624918468" lon="9.878582528834718"><ele>87.0</ele><time>2026-04-06T16:30:35.001Z</time></trkpt><trkpt lat="45.43446775889676" lon="9.87855341348313"><ele>87.0</ele><time>2026-04-06T16:30:36.001Z</time></trkpt><trkpt lat="45.434632210275446" lon="9.87852387245467"><ele>87.0</ele><time>2026-04-06T16:30:37.001Z</time></trkpt><trkpt lat="45.43479321607858" lon="9.87850890902163"><ele>87.0</ele><time>2026-04-06T16:30:38.001Z</time></trkpt><trkpt lat="45.43495899239738" lon="9.87849549118225"><ele>88.0</ele><time>2026-04-06T16:30:39.001Z</time></trkpt><trkpt lat="45.43512225077258" lon="9.878487541962729"><ele>89.0</ele><time>2026-04-06T16:30:40.001Z</time></trkpt><trkpt lat="45.43529533316101" lon="9.87848438996258"><ele>90.0</ele><time>2026-04-06T16:30:41.001Z</time></trkpt><trkpt lat="45.4354719555685" lon="9.878475111538602"><ele>90.0</ele><time>2026-04-06T16:30:42.001Z</time></trkpt><trkpt lat="45.435647584933015" lon="9.878463827468314"><ele>90.0</ele><time>2026-04-06T16:30:43.001Z</time></trkpt><trkpt lat="45.43582610003998" lon="9.87846034062906"><ele>90.0</ele><time>2026-04-06T16:30:44.001Z</time></trkpt><trkpt lat="45.436015373654726" lon="9.878472184695179"><ele>90.0</ele><time>2026-04-06T16:30:45.001Z</time></trkpt><trkpt lat="45.43620925334559" lon="9.878464759420801"><ele>90.0</ele><time>2026-04-06T16:30:46.001Z</time></trkpt><trkpt lat="45.43640777583554" lon="9.878463845409224"><ele>90.0</ele><time>2026-04-06T16:30:47.001Z</time></trkpt><trkpt lat="45.436610295140774" lon="9.878464411493688"><ele>89.66666666666667</ele><time>2026-04-06T16:30:48.001Z</time></trkpt><trkpt lat="45.436816758089726" lon="9.878463985264961"><ele>89.33333333333334</ele><time>2026-04-06T16:30:49.001Z</time></trkpt><trkpt lat="45.437032623015405" lon="9.87846252899038"><ele>89.0</ele><time>2026-04-06T16:30:50.001Z</time></trkpt><trkpt lat="45.437254725833554" lon="9.878456464314013"><ele>88.66666666666667</ele><time>2026-04-06T16:30:51.001Z</time></trkpt><trkpt lat="45.43747614348539" lon="9.87844245335272"><ele>88.33333333333333</ele><time>2026-04-06T16:30:52.001Z</time></trkpt><trkpt lat="45.43770332153656" lon="9.87842305487916"><ele>88.0</ele><time>2026-04-06T16:30:53.001Z</time></trkpt><trkpt lat="45.437931108552924" lon="9.878402932563198"><ele>88.33333333333333</ele><time>2026-04-06T16:30:54.001Z</time></trkpt><trkpt lat="45.438157382723986" lon="9.878382651260315"><ele>88.66666666666667</ele><time>2026-04-06T16:30:55.001Z</time></trkpt><trkpt lat="45.43837683077805" lon="9.878360799056503"><ele>89.0</ele><time>2026-04-06T16:30:56.001Z</time></trkpt><trkpt lat="45.43858633572585" lon="9.878342178082788"><ele>89.0</ele><time>2026-04-06T16:30:57.001Z</time></trkpt><trkpt lat="45.43878020109621" lon="9.878323108005487"><ele>89.0</ele><time>2026-04-06T16:30:58.001Z</time></trkpt><trkpt lat="45.438962735067285" lon="9.878307950805674"><ele>89.0</ele><time>2026-04-06T16:30:59.001Z</time></trkpt><trkpt lat="45.43914166712842" lon="9.878291112799007"><ele>89.66666666666667</ele><time>2026-04-06T16:31:00.001Z</time></trkpt><trkpt lat="45.439314132622634" lon="9.878276954107218"><ele>90.33333333333333</ele><time>2026-04-06T16:31:01.001Z</time></trkpt><trkpt lat="45.43948601342113" lon="9.878259971681478"><ele>91.0</ele><time>2026-04-06T16:31:02.001Z</time></trkpt><trkpt lat="45.43965846531345" lon="9.878242173858277"><ele>91.0</ele><time>2026-04-06T16:31:03.001Z</time></trkpt><trkpt lat="45.439822807628175" lon="9.878225311883083"><ele>91.0</ele><time>2026-04-06T16:31:04.001Z</time></trkpt><trkpt lat="45.43999157078186" lon="9.878220444689077"><ele>91.0</ele><time>2026-04-06T16:31:05.001Z</time></trkpt><trkpt lat="45.440158437560896" lon="9.878212447578209"><ele>91.0</ele><time>2026-04-06T16:31:06.001Z</time></trkpt><trkpt lat="45.44030888623995" lon="9.878200042484798"><ele>91.0</ele><time>2026-04-06T16:31:07.001Z</time></trkpt><trkpt lat="45.44045471991962" lon="9.878189766533783"><ele>91.0</ele><time>2026-04-06T16:31:08.001Z</time></trkpt><trkpt lat="45.44059073658043" lon="9.878178638444371"><ele>91.0</ele><time>2026-04-06T16:31:09.001Z</time></trkpt><trkpt lat="45.44073196504025" lon="9.878168165402776"><ele>90.75</ele><time>2026-04-06T16:31:10.001Z</time></trkpt><trkpt lat="45.4408716841878" lon="9.878154414473613"><ele>90.5</ele><time>2026-04-06T16:31:11Z</time></trkpt><trkpt lat="45.4410211852683" lon="9.878123843001482"><ele>90.25</ele><time>2026-04-06T16:31:12Z</time></trkpt><trkpt lat="45.441156222233765" lon="9.878111090264627"><ele>90.0</ele><time>2026-04-06T16:31:13Z</time></trkpt><trkpt lat="45.44128844301394" lon="9.878097372653944"><ele>90.5</ele><time>2026-04-06T16:31:14Z</time></trkpt><trkpt lat="45.44142327246385" lon="9.878077899767765"><ele>91.0</ele><time>2026-04-06T16:31:15Z</time></trkpt><trkpt lat="45.441556314241645" lon="9.878047311902229"><ele>91.5</ele><time>2026-04-06T16:31:16Z</time></trkpt><trkpt lat="45.44168908519049" lon="9.878039823459853"><ele>92.0</ele><time>2026-04-06T16:31:17Z</time></trkpt><trkpt lat="45.44182821935127" lon="9.878000671737615"><ele>92.0</ele><time>2026-04-06T16:31:18Z</time></trkpt><trkpt lat="45.44197321704163" lon="9.877979262500764"><ele>92.0</ele><time>2026-04-06T16:31:19Z</time></trkpt><trkpt lat="45.44212484932019" lon="9.877956665439388"><ele>92.0</ele><time>2026-04-06T16:31:20Z</time></trkpt><trkpt lat="45.44228291585451" lon="9.87793444318297"><ele>92.0</ele><time>2026-04-06T16:31:21Z</time></trkpt><trkpt lat="45.442439352952036" lon="9.877909920475275"><ele>92.0</ele><time>2026-04-06T16:31:22Z</time></trkpt><trkpt lat="45.44259976649099" lon="9.877887838255647"><ele>92.0</ele><time>2026-04-06T16:31:23Z</time></trkpt><trkpt lat="45.44275436135421" lon="9.877868108875123"><ele>92.0</ele><time>2026-04-06T16:31:24Z</time></trkpt><trkpt lat="45.44290714976679" lon="9.877848233820696"><ele>92.0</ele><time>2026-04-06T16:31:25Z</time></trkpt><trkpt lat="45.443057602077396" lon="9.877829913029249"><ele>92.0</ele><time>2026-04-06T16:31:26Z</time></trkpt><trkpt lat="45.44320754552987" lon="9.877812473725921"><ele>91.75</ele><time>2026-04-06T16:31:27Z</time></trkpt><trkpt lat="45.44335456051583" lon="9.877791993809543"><ele>91.5</ele><time>2026-04-06T16:31:28Z</time></trkpt><trkpt lat="45.4435000831887" lon="9.87777668170618"><ele>91.25</ele><time>2026-04-06T16:31:29Z</time></trkpt><trkpt lat="45.44364344732154" lon="9.877762946859244"><ele>91.0</ele><time>2026-04-06T16:31:30Z</time></trkpt><trkpt lat="45.44378631755941" lon="9.877749391539627"><ele>91.25</ele><time>2026-04-06T16:31:31Z</time></trkpt><trkpt lat="45.443926354770056" lon="9.877733697750747"><ele>91.5</ele><time>2026-04-06T16:31:32Z</time></trkpt><trkpt lat="45.444067412859596" lon="9.8777250394095"><ele>91.75</ele><time>2026-04-06T16:31:33Z</time></trkpt><trkpt lat="45.44420501017578" lon="9.877719405850991"><ele>92.0</ele><time>2026-04-06T16:31:34Z</time></trkpt><trkpt lat="45.44433748887769" lon="9.877711476149006"><ele>92.0</ele><time>2026-04-06T16:31:35Z</time></trkpt><trkpt lat="45.44446660675694" lon="9.877694591093709"><ele>92.0</ele><time>2026-04-06T16:31:36Z</time></trkpt><trkpt lat="45.44458562877626" lon="9.87767142492704"><ele>92.0</ele><time>2026-04-06T16:31:37Z</time></trkpt><trkpt lat="45.44470839956888" lon="9.877646114230597"><ele>92.0</ele><time>2026-04-06T16:31:38Z</time></trkpt><trkpt lat="45.444820072115746" lon="9.877632685386393"><ele>92.0</ele><time>2026-04-06T16:31:39Z</time></trkpt><trkpt lat="45.44493467714043" lon="9.877618417399432"><ele>92.0</ele><time>2026-04-06T16:31:40Z</time></trkpt><trkpt lat="45.445047518805275" lon="9.877603903029604"><ele>92.0</ele><time>2026-04-06T16:31:41Z</time></trkpt><trkpt lat="45.44515785683522" lon="9.877589677546906"><ele>92.0</ele><time>2026-04-06T16:31:42Z</time></trkpt><trkpt lat="45.445271688585585" lon="9.877575012353914"><ele>92.5</ele><time>2026-04-06T16:31:43Z</time></trkpt><trkpt lat="45.44539905290155" lon="9.877554928315286"><ele>93.0</ele><time>2026-04-06T16:31:44Z</time></trkpt><trkpt lat="45.44552975676963" lon="9.877537026133204"><ele>93.5</ele><time>2026-04-06T16:31:45Z</time></trkpt><trkpt lat="45.445653434825765" lon="9.877522869903943"><ele>94.0</ele><time>2026-04-06T16:31:46Z</time></trkpt><trkpt lat="45.4457600858535" lon="9.877511495648378"><ele>94.2</ele><time>2026-04-06T16:31:47Z</time></trkpt><trkpt lat="45.445854332550134" lon="9.877492348475359"><ele>94.4</ele><time>2026-04-06T16:31:48Z</time></trkpt><trkpt lat="45.44593032619097" lon="9.877478582059794"><ele>94.6</ele><time>2026-04-06T16:31:49Z</time></trkpt><trkpt lat="45.44602003628515" lon="9.877468112141615"><ele>94.8</ele><time>2026-04-06T16:31:51Z</time></trkpt><trkpt lat="45.446139141261014" lon="9.877464155204482"><ele>95.0</ele><time>2026-04-06T16:31:56Z</time></trkpt><trkpt lat="45.44621563299385" lon="9.877467708783612"><ele>95.2</ele><time>2026-04-06T16:31:57Z</time></trkpt><trkpt lat="45.44630255655678" lon="9.877463902450197"><ele>95.4</ele><time>2026-04-06T16:31:58Z</time></trkpt><trkpt lat="45.44640132294833" lon="9.877457475660165"><ele>95.6</ele><time>2026-04-06T16:31:59Z</time></trkpt><trkpt lat="45.446516439264215" lon="9.87743969020825"><ele>95.8</ele><time>2026-04-06T16:32:00Z</time></trkpt><trkpt lat="45.44663922969956" lon="9.877428084794989"><ele>96.0</ele><time>2026-04-06T16:32:01Z</time></trkpt><trkpt lat="45.44676750887261" lon="9.877416855707866"><ele>96.0</ele><time>2026-04-06T16:32:02Z</time></trkpt><trkpt lat="45.44690632476886" lon="9.877402591436292"><ele>96.0</ele><time>2026-04-06T16:32:03Z</time></trkpt><trkpt lat="45.44704958171479" lon="9.87738051069758"><ele>96.0</ele><time>2026-04-06T16:32:04Z</time></trkpt><trkpt lat="45.4471965337396" lon="9.877365931945517"><ele>96.0</ele><time>2026-04-06T16:32:05Z</time></trkpt><trkpt lat="45.447356625382625" lon="9.877365040540404"><ele>96.0</ele><time>2026-04-06T16:32:06Z</time></trkpt><trkpt lat="45.44751828686016" lon="9.877348855036495"><ele>96.0</ele><time>2026-04-06T16:32:07Z</time></trkpt><trkpt lat="45.44768436495506" lon="9.87732665570575"><ele>96.0</ele><time>2026-04-06T16:32:08Z</time></trkpt><trkpt lat="45.44785487605994" lon="9.877302640973012"><ele>96.0</ele><time>2026-04-06T16:32:09Z</time></trkpt><trkpt lat="45.448032145633896" lon="9.877275008977875"><ele>96.0</ele><time>2026-04-06T16:32:10Z</time></trkpt><trkpt lat="45.448211694549606" lon="9.877249326685066"><ele>96.0</ele><time>2026-04-06T16:32:11Z</time></trkpt><trkpt lat="45.44838673656034" lon="9.877219788920948"><ele>96.0</ele><time>2026-04-06T16:32:12Z</time></trkpt><trkpt lat="45.448560275959416" lon="9.877187095248772"><ele>96.0</ele><time>2026-04-06T16:32:13Z</time></trkpt><trkpt lat="45.448725868588724" lon="9.877159204619392"><ele>96.0</ele><time>2026-04-06T16:32:14Z</time></trkpt><trkpt lat="45.44888092616224" lon="9.87713425095637"><ele>95.66666666666667</ele><time>2026-04-06T16:32:15Z</time></trkpt><trkpt lat="45.44903518148319" lon="9.877103572559927"><ele>95.33333333333334</ele><time>2026-04-06T16:32:16Z</time></trkpt><trkpt lat="45.44919265704409" lon="9.87707295111434"><ele>95.0</ele><time>2026-04-06T16:32:17Z</time></trkpt><trkpt lat="45.4493454159314" lon="9.877052371378602"><ele>95.0</ele><time>2026-04-06T16:32:18Z</time></trkpt><trkpt lat="45.449492025977456" lon="9.877031311988384"><ele>95.0</ele><time>2026-04-06T16:32:19.001Z</time></trkpt><trkpt lat="45.44964309536695" lon="9.877005577182837"><ele>95.0</ele><time>2026-04-06T16:32:20.001Z</time></trkpt><trkpt lat="45.44979231027368" lon="9.876979498400956"><ele>95.0</ele><time>2026-04-06T16:32:21.001Z</time></trkpt><trkpt lat="45.449941340310964" lon="9.876953041507095"><ele>95.0</ele><time>2026-04-06T16:32:22.001Z</time></trkpt><trkpt lat="45.45009326587369" lon="9.876931246341293"><ele>95.0</ele><time>2026-04-06T16:32:23.001Z</time></trkpt><trkpt lat="45.4502512632549" lon="9.876909388313312"><ele>95.0</ele><time>2026-04-06T16:32:24.001Z</time></trkpt><trkpt lat="45.450412348429516" lon="9.876889346118105"><ele>95.0</ele><time>2026-04-06T16:32:25.001Z</time></trkpt><trkpt lat="45.450576873413794" lon="9.876865154929147"><ele>95.0</ele><time>2026-04-06T16:32:26.001Z</time></trkpt><trkpt lat="45.450737458486735" lon="9.876831995174856"><ele>95.0</ele><time>2026-04-06T16:32:27.001Z</time></trkpt><trkpt lat="45.45089989511524" lon="9.876807263064617"><ele>95.0</ele><time>2026-04-06T16:32:28.001Z</time></trkpt><trkpt lat="45.45106595788891" lon="9.876782642106848"><ele>95.0</ele><time>2026-04-06T16:32:29.001Z</time></trkpt><trkpt lat="45.45123197697195" lon="9.87675515289852"><ele>95.0</ele><time>2026-04-06T16:32:30.001Z</time></trkpt><trkpt lat="45.45140199472034" lon="9.876732814606358"><ele>95.0</ele><time>2026-04-06T16:32:31.001Z</time></trkpt><trkpt lat="45.45157728028981" lon="9.876706224266327"><ele>95.0</ele><time>2026-04-06T16:32:32.001Z</time></trkpt><trkpt lat="45.45175899834829" lon="9.876677403195854"><ele>95.0</ele><time>2026-04-06T16:32:33.001Z</time></trkpt><trkpt lat="45.4519470171347" lon="9.87665266015034"><ele>95.0</ele><time>2026-04-06T16:32:34.001Z</time></trkpt><trkpt lat="45.45213746392301" lon="9.876626484766197"><ele>95.0</ele><time>2026-04-06T16:32:35.001Z</time></trkpt><trkpt lat="45.45233148387697" lon="9.876598917379832"><ele>95.0</ele><time>2026-04-06T16:32:36.001Z</time></trkpt><trkpt lat="45.45252947182916" lon="9.876571811660778"><ele>95.0</ele><time>2026-04-06T16:32:37.001Z</time></trkpt><trkpt lat="45.45273566199545" lon="9.876541409235646"><ele>95.0</ele><time>2026-04-06T16:32:38.001Z</time></trkpt><trkpt lat="45.45294288489197" lon="9.876513932126866"><ele>95.0</ele><time>2026-04-06T16:32:39.001Z</time></trkpt><trkpt lat="45.45315568355632" lon="9.87648867597303"><ele>95.0</ele><time>2026-04-06T16:32:40.001Z</time></trkpt><trkpt lat="45.4533744486904" lon="9.87645985017953"><ele>95.0</ele><time>2026-04-06T16:32:41.001Z</time></trkpt><trkpt lat="45.45359333165968" lon="9.876430034671046"><ele>97.0</ele><time>2026-04-06T16:32:42.001Z</time></trkpt><trkpt lat="45.453814788135524" lon="9.876405280729042"><ele>99.0</ele><time>2026-04-06T16:32:43.001Z</time></trkpt><trkpt lat="45.45404624853138" lon="9.87637778625629"><ele>99.0</ele><time>2026-04-06T16:32:44.001Z</time></trkpt><trkpt lat="45.45428322115779" lon="9.876343297235188"><ele>99.0</ele><time>2026-04-06T16:32:45.001Z</time></trkpt><trkpt lat="45.45451905701056" lon="9.876309835937816"><ele>99.0</ele><time>2026-04-06T16:32:46.001Z</time></trkpt><trkpt lat="45.45475836399142" lon="9.87627513876481"><ele>99.0</ele><time>2026-04-06T16:32:47.001Z</time></trkpt><trkpt lat="45.454999454046984" lon="9.876237176447487"><ele>99.0</ele><time>2026-04-06T16:32:48.001Z</time></trkpt><trkpt lat="45.455243289604184" lon="9.876197054004482"><ele>99.0</ele><time>2026-04-06T16:32:49.001Z</time></trkpt><trkpt lat="45.455487225838944" lon="9.876160753785669"><ele>98.5</ele><time>2026-04-06T16:32:50.001Z</time></trkpt><trkpt lat="45.45573177306774" lon="9.876126920704936"><ele>98.0</ele><time>2026-04-06T16:32:51.001Z</time></trkpt><trkpt lat="45.45597801504089" lon="9.876091921321928"><ele>98.0</ele><time>2026-04-06T16:32:52.001Z</time></trkpt><trkpt lat="45.456224108355116" lon="9.876053161958625"><ele>98.0</ele><time>2026-04-06T16:32:53.001Z</time></trkpt><trkpt lat="45.45647467617195" lon="9.876016275942343"><ele>98.5</ele><time>2026-04-06T16:32:54.001Z</time></trkpt><trkpt lat="45.456731725870995" lon="9.875988518867427"><ele>99.0</ele><time>2026-04-06T16:32:55.001Z</time></trkpt><trkpt lat="45.456975742412915" lon="9.87594822236773"><ele>99.5</ele><time>2026-04-06T16:32:56.001Z</time></trkpt><trkpt lat="45.45722648182424" lon="9.87589908602543"><ele>100.0</ele><time>2026-04-06T16:32:57.001Z</time></trkpt><trkpt lat="45.45747885761806" lon="9.875857657834414"><ele>100.0</ele><time>2026-04-06T16:32:58.001Z</time></trkpt><trkpt lat="45.45772707852827" lon="9.875818409683792"><ele>100.0</ele><time>2026-04-06T16:32:59.001Z</time></trkpt><trkpt lat="45.45797919812906" lon="9.875779629082142"><ele>99.5</ele><time>2026-04-06T16:33:00.001Z</time></trkpt><trkpt lat="45.45823127264504" lon="9.875738612963577"><ele>99.0</ele><time>2026-04-06T16:33:01.001Z</time></trkpt><trkpt lat="45.45848596718222" lon="9.875696535151015"><ele>99.0</ele><time>2026-04-06T16:33:02.001Z</time></trkpt><trkpt lat="45.458729668006384" lon="9.875658309241368"><ele>99.0</ele><time>2026-04-06T16:33:03.001Z</time></trkpt><trkpt lat="45.458974254400175" lon="9.875621441317124"><ele>99.5</ele><time>2026-04-06T16:33:04.001Z</time></trkpt><trkpt lat="45.459229152931115" lon="9.87558509308601"><ele>100.0</ele><time>2026-04-06T16:33:05.001Z</time></trkpt><trkpt lat="45.459483031858746" lon="9.875545556970836"><ele>99.5</ele><time>2026-04-06T16:33:06.001Z</time></trkpt><trkpt lat="45.45973211458755" lon="9.875498210954843"><ele>99.0</ele><time>2026-04-06T16:33:07.001Z</time></trkpt><trkpt lat="45.45998338212786" lon="9.875447678305246"><ele>99.0</ele><time>2026-04-06T16:33:08.001Z</time></trkpt><trkpt lat="45.460238444297694" lon="9.875398513518059"><ele>99.0</ele><time>2026-04-06T16:33:09.001Z</time></trkpt><trkpt lat="45.46049672120569" lon="9.875348330369231"><ele>98.5</ele><time>2026-04-06T16:33:10.001Z</time></trkpt><trkpt lat="45.46075192570929" lon="9.875295562757506"><ele>98.0</ele><time>2026-04-06T16:33:11.001Z</time></trkpt><trkpt lat="45.46101201869987" lon="9.875241992232972"><ele>98.0</ele><time>2026-04-06T16:33:12.001Z</time></trkpt><trkpt lat="45.4612727905957" lon="9.875190390491683"><ele>98.0</ele><time>2026-04-06T16:33:13.001Z</time></trkpt><trkpt lat="45.46152731740819" lon="9.875140943162291"><ele>99.0</ele><time>2026-04-06T16:33:14.001Z</time></trkpt><trkpt lat="45.46178979011547" lon="9.875090685051386"><ele>100.0</ele><time>2026-04-06T16:33:15.001Z</time></trkpt><trkpt lat="45.462049870514946" lon="9.875044356401828"><ele>100.0</ele><time>2026-04-06T16:33:16.001Z</time></trkpt><trkpt lat="45.46230345491353" lon="9.874994224806013"><ele>100.0</ele><time>2026-04-06T16:33:17Z</time></trkpt><trkpt lat="45.46257237659556" lon="9.874939119833568"><ele>100.0</ele><time>2026-04-06T16:33:18Z</time></trkpt><trkpt lat="45.462828425207434" lon="9.874893639920584"><ele>100.0</ele><time>2026-04-06T16:33:19Z</time></trkpt><trkpt lat="45.46307841053705" lon="9.874859054485137"><ele>101.0</ele><time>2026-04-06T16:33:20Z</time></trkpt><trkpt lat="45.46333362064439" lon="9.874841043847473"><ele>102.0</ele><time>2026-04-06T16:33:21Z</time></trkpt><trkpt lat="45.4635919429095" lon="9.874828124829092"><ele>102.5</ele><time>2026-04-06T16:33:22Z</time></trkpt><trkpt lat="45.4638513427013" lon="9.874814522347508"><ele>103.0</ele><time>2026-04-06T16:33:23Z</time></trkpt><trkpt lat="45.46411543301958" lon="9.874804845536502"><ele>103.0</ele><time>2026-04-06T16:33:24Z</time></trkpt><trkpt lat="45.46437881368048" lon="9.87479865268335"><ele>103.0</ele><time>2026-04-06T16:33:25Z</time></trkpt><trkpt lat="45.4646404781743" lon="9.874786231006592"><ele>102.0</ele><time>2026-04-06T16:33:26Z</time></trkpt><trkpt lat="45.464902784190286" lon="9.874767701753326"><ele>101.0</ele><time>2026-04-06T16:33:27Z</time></trkpt><trkpt lat="45.46517072296486" lon="9.874755604958771"><ele>101.0</ele><time>2026-04-06T16:33:28Z</time></trkpt><trkpt lat="45.465428648681375" lon="9.874749487739072"><ele>101.0</ele><time>2026-04-06T16:33:29Z</time></trkpt><trkpt lat="45.465688676670304" lon="9.874745321735677"><ele>102.0</ele><time>2026-04-06T16:33:30Z</time></trkpt><trkpt lat="45.465947949993826" lon="9.874730141738395"><ele>103.0</ele><time>2026-04-06T16:33:31Z</time></trkpt><trkpt lat="45.46620664980602" lon="9.874722447657335"><ele>103.5</ele><time>2026-04-06T16:33:32Z</time></trkpt><trkpt lat="45.46646285410004" lon="9.87470470565036"><ele>104.0</ele><time>2026-04-06T16:33:33Z</time></trkpt><trkpt lat="45.46671454557217" lon="9.874688950887409"><ele>104.0</ele><time>2026-04-06T16:33:34Z</time></trkpt><trkpt lat="45.46696513649131" lon="9.874671850155083"><ele>104.0</ele><time>2026-04-06T16:33:35Z</time></trkpt><trkpt lat="45.46721901882808" lon="9.874666519708786"><ele>104.0</ele><time>2026-04-06T16:33:36Z</time></trkpt><trkpt lat="45.46746226782312" lon="9.874657940875279"><ele>104.0</ele><time>2026-04-06T16:33:37Z</time></trkpt><trkpt lat="45.46770657935734" lon="9.874636995296857"><ele>104.0</ele><time>2026-04-06T16:33:38Z</time></trkpt><trkpt lat="45.46794551551635" lon="9.87462397052936"><ele>104.0</ele><time>2026-04-06T16:33:39Z</time></trkpt><trkpt lat="45.468190289395075" lon="9.874625151172472"><ele>104.0</ele><time>2026-04-06T16:33:40Z</time></trkpt><trkpt lat="45.46843845921856" lon="9.874616568647442"><ele>104.0</ele><time>2026-04-06T16:33:41Z</time></trkpt><trkpt lat="45.46868365982936" lon="9.874597255732358"><ele>103.5</ele><time>2026-04-06T16:33:42Z</time></trkpt><trkpt lat="45.46893006359392" lon="9.874563980849782"><ele>103.0</ele><time>2026-04-06T16:33:43Z</time></trkpt><trkpt lat="45.46917506699661" lon="9.874514491867997"><ele>103.0</ele><time>2026-04-06T16:33:44Z</time></trkpt><trkpt lat="45.46942188288289" lon="9.87444595854643"><ele>103.0</ele><time>2026-04-06T16:33:45Z</time></trkpt><trkpt lat="45.469672077819396" lon="9.87437920948086"><ele>103.0</ele><time>2026-04-06T16:33:46Z</time></trkpt><trkpt lat="45.46992126327991" lon="9.874308756424526"><ele>103.0</ele><time>2026-04-06T16:33:47Z</time></trkpt><trkpt lat="45.470160356864874" lon="9.874238419900434"><ele>103.0</ele><time>2026-04-06T16:33:48Z</time></trkpt><trkpt lat="45.47039988720423" lon="9.874165160612696"><ele>103.0</ele><time>2026-04-06T16:33:49Z</time></trkpt><trkpt lat="45.470643451058386" lon="9.874091610540024"><ele>103.5</ele><time>2026-04-06T16:33:50Z</time></trkpt><trkpt lat="45.470881196410836" lon="9.874018354152783"><ele>104.0</ele><time>2026-04-06T16:33:51Z</time></trkpt><trkpt lat="45.47112117909952" lon="9.873926199932573"><ele>104.0</ele><time>2026-04-06T16:33:52Z</time></trkpt><trkpt lat="45.471354879610125" lon="9.873819490384516"><ele>104.0</ele><time>2026-04-06T16:33:53Z</time></trkpt><trkpt lat="45.47158796854348" lon="9.873704243076514"><ele>104.0</ele><time>2026-04-06T16:33:54Z</time></trkpt><trkpt lat="45.47181819444241" lon="9.873583652345284"><ele>104.0</ele><time>2026-04-06T16:33:55Z</time></trkpt><trkpt lat="45.47206346536793" lon="9.87345310049267"><ele>104.0</ele><time>2026-04-06T16:33:56Z</time></trkpt><trkpt lat="45.47229444716053" lon="9.873320308696792"><ele>104.0</ele><time>2026-04-06T16:33:57Z</time></trkpt><trkpt lat="45.47252083992836" lon="9.873194890987486"><ele>104.0</ele><time>2026-04-06T16:33:58Z</time></trkpt><trkpt lat="45.47274243365546" lon="9.873077132548065"><ele>104.0</ele><time>2026-04-06T16:33:59Z</time></trkpt><trkpt lat="45.47295768187489" lon="9.87296514542285"><ele>104.0</ele><time>2026-04-06T16:34:00Z</time></trkpt><trkpt lat="45.47316840247068" lon="9.872835746897783"><ele>104.0</ele><time>2026-04-06T16:34:01Z</time></trkpt><trkpt lat="45.47338481121335" lon="9.87267668120131"><ele>104.5</ele><time>2026-04-06T16:34:02Z</time></trkpt><trkpt lat="45.47359746591834" lon="9.872510787867613"><ele>105.0</ele><time>2026-04-06T16:34:03Z</time></trkpt><trkpt lat="45.47380659009148" lon="9.872354362778053"><ele>103.5</ele><time>2026-04-06T16:34:04Z</time></trkpt><trkpt lat="45.47401621567383" lon="9.872196833484082"><ele>102.0</ele><time>2026-04-06T16:34:05Z</time></trkpt><trkpt lat="45.474227725845914" lon="9.872055677359334"><ele>102.0</ele><time>2026-04-06T16:34:06Z</time></trkpt><trkpt lat="45.47443958226499" lon="9.871929879981323"><ele>102.0</ele><time>2026-04-06T16:34:07Z</time></trkpt><trkpt lat="45.47464746504179" lon="9.871817109710781"><ele>102.66666666666666</ele><time>2026-04-06T16:34:08Z</time></trkpt><trkpt lat="45.47484911691969" lon="9.87171180024285"><ele>103.33333333333333</ele><time>2026-04-06T16:34:09Z</time></trkpt><trkpt lat="45.47504269006589" lon="9.871614713901952"><ele>104.0</ele><time>2026-04-06T16:34:10Z</time></trkpt><trkpt lat="45.475233054618705" lon="9.871524515799006"><ele>104.0</ele><time>2026-04-06T16:34:11Z</time></trkpt><trkpt lat="45.47542189148261" lon="9.871446307588926"><ele>104.0</ele><time>2026-04-06T16:34:12Z</time></trkpt><trkpt lat="45.47561170488431" lon="9.87138342368877"><ele>104.0</ele><time>2026-04-06T16:34:13Z</time></trkpt><trkpt lat="45.475799921679126" lon="9.871330036978712"><ele>104.33333333333333</ele><time>2026-04-06T16:34:14Z</time></trkpt><trkpt lat="45.475991355141225" lon="9.871277863704274"><ele>104.66666666666666</ele><time>2026-04-06T16:34:15Z</time></trkpt><trkpt lat="45.47618495166724" lon="9.871222782201947"><ele>105.0</ele><time>2026-04-06T16:34:16Z</time></trkpt><trkpt lat="45.476366989847605" lon="9.871165244853412"><ele>104.33333333333334</ele><time>2026-04-06T16:34:17.001Z</time></trkpt><trkpt lat="45.47653658896844" lon="9.871113371691646"><ele>103.66666666666667</ele><time>2026-04-06T16:34:18.001Z</time></trkpt><trkpt lat="45.47670054467714" lon="9.871062645439553"><ele>103.0</ele><time>2026-04-06T16:34:19.001Z</time></trkpt><trkpt lat="45.47686821317816" lon="9.87101603467204"><ele>103.0</ele><time>2026-04-06T16:34:20.001Z</time></trkpt><trkpt lat="45.477033237981054" lon="9.870974448846141"><ele>103.0</ele><time>2026-04-06T16:34:21.001Z</time></trkpt><trkpt lat="45.4771963166195" lon="9.87093622525213"><ele>103.0</ele><time>2026-04-06T16:34:22.001Z</time></trkpt><trkpt lat="45.47736299655671" lon="9.8709233913778"><ele>102.66666666666667</ele><time>2026-04-06T16:34:23.001Z</time></trkpt><trkpt lat="45.477531168695435" lon="9.870927607692295"><ele>102.33333333333334</ele><time>2026-04-06T16:34:24.001Z</time></trkpt><trkpt lat="45.47769777614407" lon="9.87096472382878"><ele>102.0</ele><time>2026-04-06T16:34:25.001Z</time></trkpt><trkpt lat="45.47786937227908" lon="9.87102366777455"><ele>101.0</ele><time>2026-04-06T16:34:26.001Z</time></trkpt><trkpt lat="45.478039757587595" lon="9.871094504277982"><ele>100.0</ele><time>2026-04-06T16:34:27.001Z</time></trkpt><trkpt lat="45.47820905489074" lon="9.87115868207637"><ele>99.0</ele><time>2026-04-06T16:34:28.001Z</time></trkpt><trkpt lat="45.47838902891801" lon="9.871231214370905"><ele>99.0</ele><time>2026-04-06T16:34:29.001Z</time></trkpt><trkpt lat="45.47856422332001" lon="9.871299829391129"><ele>99.0</ele><time>2026-04-06T16:34:30.001Z</time></trkpt><trkpt lat="45.478751844578674" lon="9.871357654614084"><ele>99.0</ele><time>2026-04-06T16:34:31.001Z</time></trkpt><trkpt lat="45.47892483939129" lon="9.871401962572758"><ele>100.33333333333334</ele><time>2026-04-06T16:34:32.001Z</time></trkpt><trkpt lat="45.479089255148864" lon="9.871432313310592"><ele>101.66666666666667</ele><time>2026-04-06T16:34:33.001Z</time></trkpt><trkpt lat="45.47925268640173" lon="9.871447487760518"><ele>103.0</ele><time>2026-04-06T16:34:34.001Z</time></trkpt><trkpt lat="45.47940650045358" lon="9.871467834116347"><ele>103.0</ele><time>2026-04-06T16:34:35.001Z</time></trkpt><trkpt lat="45.4795522696341" lon="9.871498374811068"><ele>103.0</ele><time>2026-04-06T16:34:36.001Z</time></trkpt><trkpt lat="45.479689991466394" lon="9.871522699175681"><ele>103.0</ele><time>2026-04-06T16:34:37.001Z</time></trkpt><trkpt lat="45.479814519818476" lon="9.871531134685508"><ele>103.0</ele><time>2026-04-06T16:34:38.001Z</time></trkpt><trkpt lat="45.47992513737311" lon="9.871527982850024"><ele>103.2</ele><time>2026-04-06T16:34:39.001Z</time></trkpt><trkpt lat="45.48001978786578" lon="9.871525458897999"><ele>103.4</ele><time>2026-04-06T16:34:40.001Z</time></trkpt><trkpt lat="45.48010634291076" lon="9.87152412893863"><ele>103.60000000000001</ele><time>2026-04-06T16:34:41.001Z</time></trkpt><trkpt lat="45.4801760720031" lon="9.871441875261093"><ele>103.80000000000001</ele><time>2026-04-06T16:34:42.001Z</time></trkpt><trkpt lat="45.480179305511435" lon="9.871289187509639"><ele>104.0</ele><time>2026-04-06T16:34:43.001Z</time></trkpt><trkpt lat="45.48020425472412" lon="9.871161274487624"><ele>104.0</ele><time>2026-04-06T16:34:44.001Z</time></trkpt><trkpt lat="45.48024256831791" lon="9.871025384789013"><ele>104.0</ele><time>2026-04-06T16:34:45.001Z</time></trkpt><trkpt lat="45.48028515579435" lon="9.870879138748212"><ele>104.0</ele><time>2026-04-06T16:34:46.001Z</time></trkpt><trkpt lat="45.48033397177917" lon="9.870694724769121"><ele>104.0</ele><time>2026-04-06T16:34:47.001Z</time></trkpt><trkpt lat="45.48035659249145" lon="9.870500053254451"><ele>104.75</ele><time>2026-04-06T16:34:48.001Z</time></trkpt><trkpt lat="45.48035944912661" lon="9.870301515989533"><ele>105.5</ele><time>2026-04-06T16:34:49.001Z</time></trkpt><trkpt lat="45.480354006733265" lon="9.870105194328715"><ele>106.25</ele><time>2026-04-06T16:34:50.001Z</time></trkpt><trkpt lat="45.480345928290475" lon="9.869900701056384"><ele>107.0</ele><time>2026-04-06T16:34:51.001Z</time></trkpt><trkpt lat="45.480342818547186" lon="9.86971471676572"><ele>107.19999999999999</ele><time>2026-04-06T16:34:52.001Z</time></trkpt><trkpt lat="45.480344877020045" lon="9.869541239231785"><ele>107.39999999999999</ele><time>2026-04-06T16:34:53.001Z</time></trkpt><trkpt lat="45.48034604783816" lon="9.869386489590264"><ele>107.60000000000001</ele><time>2026-04-06T16:34:54.001Z</time></trkpt><trkpt lat="45.48033745056715" lon="9.869248583708549"><ele>107.80000000000001</ele><time>2026-04-06T16:34:55.001Z</time></trkpt><trkpt lat="45.48033739786769" lon="9.86909984893067"><ele>108.0</ele><time>2026-04-06T16:34:56.001Z</time></trkpt><trkpt lat="45.4803341007235" lon="9.868960383827876"><ele>108.0</ele><time>2026-04-06T16:34:57.001Z</time></trkpt><trkpt lat="45.48033543241012" lon="9.868827453412695"><ele>108.00000000000001</ele><time>2026-04-06T16:34:58.001Z</time></trkpt><trkpt lat="45.480359137913794" lon="9.868703880328884"><ele>108.00000000000001</ele><time>2026-04-06T16:34:59.001Z</time></trkpt><trkpt lat="45.48042235112208" lon="9.868588559932261"><ele>108.0</ele><time>2026-04-06T16:35:00.001Z</time></trkpt><trkpt lat="45.48051150369443" lon="9.868472970855935"><ele>108.0</ele><time>2026-04-06T16:35:01.001Z</time></trkpt><trkpt lat="45.480591967785045" lon="9.868346878451597"><ele>108.0</ele><time>2026-04-06T16:35:02.001Z</time></trkpt><trkpt lat="45.480687673710456" lon="9.868213845605387"><ele>108.0</ele><time>2026-04-06T16:35:03.001Z</time></trkpt><trkpt lat="45.48077701935433" lon="9.868073439469153"><ele>108.0</ele><time>2026-04-06T16:35:04.001Z</time></trkpt><trkpt lat="45.48085344080969" lon="9.867937802638075"><ele>108.0</ele><time>2026-04-06T16:35:05.001Z</time></trkpt><trkpt lat="45.48093126510969" lon="9.867774912152143"><ele>108.0</ele><time>2026-04-06T16:35:06.001Z</time></trkpt><trkpt lat="45.48100978734251" lon="9.867638280946561"><ele>108.0</ele><time>2026-04-06T16:35:07.001Z</time></trkpt><trkpt lat="45.48110428354177" lon="9.867521348677096"><ele>108.0</ele><time>2026-04-06T16:35:08.001Z</time></trkpt><trkpt lat="45.48122719049389" lon="9.86743547166896"><ele>108.0</ele><time>2026-04-06T16:35:09.001Z</time></trkpt><trkpt lat="45.48135935697533" lon="9.867366207948484"><ele>108.25</ele><time>2026-04-06T16:35:10.001Z</time></trkpt><trkpt lat="45.48149922932981" lon="9.867299391821398"><ele>108.5</ele><time>2026-04-06T16:35:11.001Z</time></trkpt><trkpt lat="45.48163798878141" lon="9.867225063743854"><ele>108.75</ele><time>2026-04-06T16:35:12.001Z</time></trkpt><trkpt lat="45.481776989074916" lon="9.867143172746625"><ele>109.0</ele><time>2026-04-06T16:35:13.001Z</time></trkpt><trkpt lat="45.48191513405401" lon="9.867045762589063"><ele>109.0</ele><time>2026-04-06T16:35:14.001Z</time></trkpt><trkpt lat="45.48205885168159" lon="9.866945328055314"><ele>109.0</ele><time>2026-04-06T16:35:15.001Z</time></trkpt><trkpt lat="45.48220952940953" lon="9.866843527719311"><ele>109.0</ele><time>2026-04-06T16:35:16.001Z</time></trkpt><trkpt lat="45.48236647774387" lon="9.866750454759037"><ele>109.66666666666667</ele><time>2026-04-06T16:35:17.001Z</time></trkpt><trkpt lat="45.4825277919354" lon="9.866663192229483"><ele>110.33333333333334</ele><time>2026-04-06T16:35:18.001Z</time></trkpt><trkpt lat="45.48268743595387" lon="9.866593883545676"><ele>111.0</ele><time>2026-04-06T16:35:19.001Z</time></trkpt><trkpt lat="45.48284518570851" lon="9.866528408954585"><ele>110.33333333333334</ele><time>2026-04-06T16:35:20.001Z</time></trkpt><trkpt lat="45.48300219259799" lon="9.866476398557792"><ele>109.66666666666667</ele><time>2026-04-06T16:35:21.001Z</time></trkpt><trkpt lat="45.48316538970554" lon="9.86642956957615"><ele>109.0</ele><time>2026-04-06T16:35:22.001Z</time></trkpt><trkpt lat="45.483336088854045" lon="9.86637299123797"><ele>109.0</ele><time>2026-04-06T16:35:23Z</time></trkpt><trkpt lat="45.48351569163362" lon="9.866318182500747"><ele>109.0</ele><time>2026-04-06T16:35:24Z</time></trkpt><trkpt lat="45.48371206851303" lon="9.866267308075074"><ele>109.0</ele><time>2026-04-06T16:35:25Z</time></trkpt><trkpt lat="45.48389999516462" lon="9.866229993039639"><ele>109.0</ele><time>2026-04-06T16:35:26Z</time></trkpt><trkpt lat="45.4840886548502" lon="9.866202318561006"><ele>109.0</ele><time>2026-04-06T16:35:27Z</time></trkpt><trkpt lat="45.484275781421665" lon="9.866166573773908"><ele>109.0</ele><time>2026-04-06T16:35:28Z</time></trkpt><trkpt lat="45.484454063769526" lon="9.866143545030717"><ele>109.66666666666667</ele><time>2026-04-06T16:35:29Z</time></trkpt><trkpt lat="45.48463844400933" lon="9.866142060549935"><ele>110.33333333333334</ele><time>2026-04-06T16:35:30Z</time></trkpt><trkpt lat="45.484817423892785" lon="9.866143609298279"><ele>111.0</ele><time>2026-04-06T16:35:31Z</time></trkpt><trkpt lat="45.484996519813244" lon="9.866148683569717"><ele>111.0</ele><time>2026-04-06T16:35:32Z</time></trkpt><trkpt lat="45.4851780569047" lon="9.866159594355132"><ele>111.0</ele><time>2026-04-06T16:35:33Z</time></trkpt><trkpt lat="45.48534798169739" lon="9.866168374772517"><ele>111.0</ele><time>2026-04-06T16:35:34Z</time></trkpt><trkpt lat="45.485525940876165" lon="9.866199083394024"><ele>111.33333333333334</ele><time>2026-04-06T16:35:35Z</time></trkpt><trkpt lat="45.48570043477576" lon="9.866247449151619"><ele>111.66666666666667</ele><time>2026-04-06T16:35:36Z</time></trkpt><trkpt lat="45.48587314815453" lon="9.866316233901939"><ele>112.0</ele><time>2026-04-06T16:35:37Z</time></trkpt><trkpt lat="45.48604482642467" lon="9.866418842691303"><ele>112.0</ele><time>2026-04-06T16:35:38Z</time></trkpt><trkpt lat="45.4862171601891" lon="9.866500818325935"><ele>112.0</ele><time>2026-04-06T16:35:39Z</time></trkpt><trkpt lat="45.48640414637128" lon="9.866542637542171"><ele>112.0</ele><time>2026-04-06T16:35:40Z</time></trkpt><trkpt lat="45.48658712964159" lon="9.866576252236193"><ele>111.0</ele><time>2026-04-06T16:35:41Z</time></trkpt><trkpt lat="45.486768807426586" lon="9.866610677136064"><ele>110.0</ele><time>2026-04-06T16:35:42Z</time></trkpt><trkpt lat="45.48694833416436" lon="9.866621026540184"><ele>109.0</ele><time>2026-04-06T16:35:43Z</time></trkpt><trkpt lat="45.48713370320718" lon="9.866595089408493"><ele>109.0</ele><time>2026-04-06T16:35:44Z</time></trkpt><trkpt lat="45.48732717254243" lon="9.86654400792894"><ele>109.0</ele><time>2026-04-06T16:35:45Z</time></trkpt><trkpt lat="45.4875259742253" lon="9.866475240763695"><ele>109.0</ele><time>2026-04-06T16:35:46Z</time></trkpt><trkpt lat="45.48773164963998" lon="9.866388376231386"><ele>109.33333333333334</ele><time>2026-04-06T16:35:47Z</time></trkpt><trkpt lat="45.48793588825849" lon="9.866303816042734"><ele>109.66666666666666</ele><time>2026-04-06T16:35:48Z</time></trkpt><trkpt lat="45.48814073295919" lon="9.866230622245428"><ele>110.0</ele><time>2026-04-06T16:35:49Z</time></trkpt><trkpt lat="45.488347552212005" lon="9.866158122009088"><ele>110.0</ele><time>2026-04-06T16:35:50Z</time></trkpt><trkpt lat="45.488548296348505" lon="9.86607670179708"><ele>110.0</ele><time>2026-04-06T16:35:51Z</time></trkpt><trkpt lat="45.48874680903114" lon="9.865981628897908"><ele>110.0</ele><time>2026-04-06T16:35:52Z</time></trkpt><trkpt lat="45.48893667967716" lon="9.865864728151667"><ele>110.33333333333333</ele><time>2026-04-06T16:35:53Z</time></trkpt><trkpt lat="45.48912929961283" lon="9.865736507898095"><ele>110.66666666666666</ele><time>2026-04-06T16:35:54Z</time></trkpt><trkpt lat="45.489322280305124" lon="9.865610374320466"><ele>111.0</ele><time>2026-04-06T16:35:55Z</time></trkpt><trkpt lat="45.48951611783221" lon="9.865482073180116"><ele>109.33333333333334</ele><time>2026-04-06T16:35:56Z</time></trkpt><trkpt lat="45.48971490730234" lon="9.865365661520695"><ele>107.66666666666667</ele><time>2026-04-06T16:35:57Z</time></trkpt><trkpt lat="45.48992228325657" lon="9.865279990897147"><ele>106.0</ele><time>2026-04-06T16:35:58Z</time></trkpt><trkpt lat="45.490128640084436" lon="9.865228119728089"><ele>106.0</ele><time>2026-04-06T16:35:59Z</time></trkpt><trkpt lat="45.49032668907134" lon="9.865181934503678"><ele>106.0</ele><time>2026-04-06T16:36:00Z</time></trkpt><trkpt lat="45.49051343499455" lon="9.865106113171652"><ele>106.0</ele><time>2026-04-06T16:36:01Z</time></trkpt><trkpt lat="45.490690151784165" lon="9.865002952779752"><ele>107.33333333333334</ele><time>2026-04-06T16:36:02Z</time></trkpt><trkpt lat="45.49086505502788" lon="9.864880282590523"><ele>108.66666666666666</ele><time>2026-04-06T16:36:03Z</time></trkpt><trkpt lat="45.49104049123646" lon="9.864756445176479"><ele>110.0</ele><time>2026-04-06T16:36:04Z</time></trkpt><trkpt lat="45.491211444297306" lon="9.864631382121608"><ele>110.66666666666666</ele><time>2026-04-06T16:36:05Z</time></trkpt><trkpt lat="45.491375729968" lon="9.864494366369385"><ele>111.33333333333334</ele><time>2026-04-06T16:36:06Z</time></trkpt><trkpt lat="45.49153405815566" lon="9.8643370374727"><ele>112.0</ele><time>2026-04-06T16:36:07Z</time></trkpt><trkpt lat="45.49168182442602" lon="9.864166327050594"><ele>112.0</ele><time>2026-04-06T16:36:08Z</time></trkpt><trkpt lat="45.49183661355983" lon="9.86399597079973"><ele>112.0</ele><time>2026-04-06T16:36:09Z</time></trkpt><trkpt lat="45.4919907495631" lon="9.863834754854835"><ele>112.0</ele><time>2026-04-06T16:36:10Z</time></trkpt><trkpt lat="45.49216169662627" lon="9.863702784309199"><ele>110.66666666666667</ele><time>2026-04-06T16:36:11Z</time></trkpt><trkpt lat="45.49234822463032" lon="9.863614934209322"><ele>109.33333333333334</ele><time>2026-04-06T16:36:12Z</time></trkpt><trkpt lat="45.49254535519205" lon="9.863539295076487"><ele>108.0</ele><time>2026-04-06T16:36:13Z</time></trkpt><trkpt lat="45.49273758006273" lon="9.86347648197942"><ele>110.0</ele><time>2026-04-06T16:36:14Z</time></trkpt><trkpt lat="45.492927646984555" lon="9.863410976426708"><ele>112.0</ele><time>2026-04-06T16:36:15Z</time></trkpt><trkpt lat="45.49311185066758" lon="9.863348227021746"><ele>114.0</ele><time>2026-04-06T16:36:16Z</time></trkpt><trkpt lat="45.49328428266262" lon="9.8632871864605"><ele>114.0</ele><time>2026-04-06T16:36:17Z</time></trkpt><trkpt lat="45.49343856792162" lon="9.863229167050658"><ele>114.0</ele><time>2026-04-06T16:36:18.001Z</time></trkpt><trkpt lat="45.49357616875144" lon="9.86315092962521"><ele>114.0</ele><time>2026-04-06T16:36:19.001Z</time></trkpt><trkpt lat="45.493691498579636" lon="9.863037459761477"><ele>114.0</ele><time>2026-04-06T16:36:20.001Z</time></trkpt><trkpt lat="45.493788003218725" lon="9.862903898278807"><ele>114.0</ele><time>2026-04-06T16:36:21.001Z</time></trkpt><trkpt lat="45.493866620454185" lon="9.862784463544983"><ele>114.0</ele><time>2026-04-06T16:36:22.001Z</time></trkpt><trkpt lat="45.493958272999734" lon="9.862717018884709"><ele>114.0</ele><time>2026-04-06T16:36:23.001Z</time></trkpt><trkpt lat="45.49406434494981" lon="9.862652859332897"><ele>114.0</ele><time>2026-04-06T16:36:24.001Z</time></trkpt><trkpt lat="45.49416992481024" lon="9.862563473084196"><ele>114.0</ele><time>2026-04-06T16:36:25.001Z</time></trkpt><trkpt lat="45.49428052674524" lon="9.862466857426407"><ele>114.0</ele><time>2026-04-06T16:36:26.001Z</time></trkpt><trkpt lat="45.494417867501866" lon="9.86239119709624"><ele>114.0</ele><time>2026-04-06T16:36:27.001Z</time></trkpt><trkpt lat="45.49455016834377" lon="9.862287755490787"><ele>114.0</ele><time>2026-04-06T16:36:28.001Z</time></trkpt><trkpt lat="45.494708429920756" lon="9.862272769849405"><ele>114.0</ele><time>2026-04-06T16:36:29.001Z</time></trkpt><trkpt lat="45.49484650619403" lon="9.862198122213664"><ele>114.0</ele><time>2026-04-06T16:36:30.001Z</time></trkpt><trkpt lat="45.494981921412965" lon="9.862102918644233"><ele>114.0</ele><time>2026-04-06T16:36:31.001Z</time></trkpt><trkpt lat="45.49511829976164" lon="9.861995391261381"><ele>114.0</ele><time>2026-04-06T16:36:32.001Z</time></trkpt><trkpt lat="45.495262820662084" lon="9.861860331893649"><ele>114.0</ele><time>2026-04-06T16:36:33.001Z</time></trkpt><trkpt lat="45.49537857927373" lon="9.861713341928285"><ele>114.0</ele><time>2026-04-06T16:36:34.001Z</time></trkpt><trkpt lat="45.49550081585821" lon="9.861532917493632"><ele>113.66666666666666</ele><time>2026-04-06T16:36:35.001Z</time></trkpt><trkpt lat="45.495600732512635" lon="9.861344544507642"><ele>113.33333333333333</ele><time>2026-04-06T16:36:36.001Z</time></trkpt><trkpt lat="45.49570183664782" lon="9.861145811505853"><ele>113.0</ele><time>2026-04-06T16:36:37.001Z</time></trkpt><trkpt lat="45.495806629881336" lon="9.860945679554494"><ele>113.0</ele><time>2026-04-06T16:36:38.001Z</time></trkpt><trkpt lat="45.49591816754736" lon="9.860750900127249"><ele>113.0</ele><time>2026-04-06T16:36:39.001Z</time></trkpt><trkpt lat="45.49604656360997" lon="9.860564630077684"><ele>113.0</ele><time>2026-04-06T16:36:40.001Z</time></trkpt><trkpt lat="45.49619443159053" lon="9.860387998799743"><ele>113.0</ele><time>2026-04-06T16:36:41.001Z</time></trkpt><trkpt lat="45.49635942661455" lon="9.860230104450245"><ele>113.0</ele><time>2026-04-06T16:36:42.001Z</time></trkpt><trkpt lat="45.496540552175915" lon="9.86009648162814"><ele>113.0</ele><time>2026-04-06T16:36:43.001Z</time></trkpt><trkpt lat="45.496729224990574" lon="9.859979530035508"><ele>113.0</ele><time>2026-04-06T16:36:44.001Z</time></trkpt><trkpt lat="45.496919683965196" lon="9.859862403024579"><ele>113.0</ele><time>2026-04-06T16:36:45.001Z</time></trkpt><trkpt lat="45.49710980044113" lon="9.859732220728578"><ele>113.0</ele><time>2026-04-06T16:36:46.001Z</time></trkpt><trkpt lat="45.49730196047151" lon="9.859592256174862"><ele>113.0</ele><time>2026-04-06T16:36:47.001Z</time></trkpt><trkpt lat="45.49750114154981" lon="9.859482598830303"><ele>113.0</ele><time>2026-04-06T16:36:48.001Z</time></trkpt><trkpt lat="45.49768206399638" lon="9.859358358475454"><ele>113.0</ele><time>2026-04-06T16:36:49.001Z</time></trkpt><trkpt lat="45.49787674085259" lon="9.859242200854798"><ele>113.66666666666666</ele><time>2026-04-06T16:36:50.001Z</time></trkpt><trkpt lat="45.49806426678839" lon="9.859115652635975"><ele>114.33333333333334</ele><time>2026-04-06T16:36:51.001Z</time></trkpt><trkpt lat="45.49825389334141" lon="9.859018358674579"><ele>115.0</ele><time>2026-04-06T16:36:52.001Z</time></trkpt><trkpt lat="45.49838318627373" lon="9.858938642905422"><ele>115.0</ele><time>2026-04-06T16:36:53.001Z</time></trkpt><trkpt lat="45.49850407953081" lon="9.858857443418726"><ele>115.0</ele><time>2026-04-06T16:36:54.001Z</time></trkpt><trkpt lat="45.49864505876633" lon="9.858790081558173"><ele>115.0</ele><time>2026-04-06T16:36:55.001Z</time></trkpt><trkpt lat="45.498791645031915" lon="9.858716639622456"><ele>115.0</ele><time>2026-04-06T16:36:56.001Z</time></trkpt><trkpt lat="45.49894037947342" lon="9.85864323018596"><ele>115.66666666666667</ele><time>2026-04-06T16:36:57.001Z</time></trkpt><trkpt lat="45.49910160410114" lon="9.858581211159185"><ele>116.33333333333334</ele><time>2026-04-06T16:36:58.001Z</time></trkpt><trkpt lat="45.499275091636974" lon="9.858516919444693"><ele>117.0</ele><time>2026-04-06T16:36:59.001Z</time></trkpt><trkpt lat="45.499471240930454" lon="9.858498393971255"><ele>117.0</ele><time>2026-04-06T16:37:00.001Z</time></trkpt><trkpt lat="45.49966910619625" lon="9.858485150047198"><ele>117.0</ele><time>2026-04-06T16:37:01.001Z</time></trkpt><trkpt lat="45.49985296621137" lon="9.858477028259284"><ele>117.0</ele><time>2026-04-06T16:37:02.001Z</time></trkpt><trkpt lat="45.50002728896616" lon="9.85846288612919"><ele>117.0</ele><time>2026-04-06T16:37:03.001Z</time></trkpt><trkpt lat="45.50017225101199" lon="9.858438735718497"><ele>117.0</ele><time>2026-04-06T16:37:04.001Z</time></trkpt><trkpt lat="45.500293353549694" lon="9.858399378564702"><ele>117.0</ele><time>2026-04-06T16:37:05.001Z</time></trkpt><trkpt lat="45.500398384885244" lon="9.858334425770488"><ele>117.0</ele><time>2026-04-06T16:37:06.001Z</time></trkpt><trkpt lat="45.50051055177506" lon="9.858276732326464"><ele>117.0</ele><time>2026-04-06T16:37:07.001Z</time></trkpt><trkpt lat="45.50060190598609" lon="9.858223685640668"><ele>117.0</ele><time>2026-04-06T16:37:08.001Z</time></trkpt><trkpt lat="45.50068135637553" lon="9.858170893125456"><ele>117.0</ele><time>2026-04-06T16:37:09.001Z</time></trkpt><trkpt lat="45.50074916200025" lon="9.858115868149214"><ele>117.0</ele><time>2026-04-06T16:37:10.001Z</time></trkpt><trkpt lat="45.50080196752794" lon="9.858059929856026"><ele>117.0</ele><time>2026-04-06T16:37:11.001Z</time></trkpt><trkpt lat="45.50087979695239" lon="9.85798503530034"><ele>117.0</ele><time>2026-04-06T16:37:13.001Z</time></trkpt><trkpt lat="45.50100817866671" lon="9.858020404479385"><ele>117.0</ele><time>2026-04-06T16:37:17.001Z</time></trkpt><trkpt lat="45.501074170425575" lon="9.858052102570248"><ele>117.0</ele><time>2026-04-06T16:37:18.001Z</time></trkpt><trkpt lat="45.501142217205114" lon="9.858070284413946"><ele>117.0</ele><time>2026-04-06T16:37:19.001Z</time></trkpt><trkpt lat="45.50124321404451" lon="9.8580519990218"><ele>117.0</ele><time>2026-04-06T16:37:20.001Z</time></trkpt><trkpt lat="45.50132156051737" lon="9.857980586862627"><ele>117.0</ele><time>2026-04-06T16:37:21.001Z</time></trkpt><trkpt lat="45.50139940697555" lon="9.857866857523009"><ele>117.0</ele><time>2026-04-06T16:37:22.001Z</time></trkpt><trkpt lat="45.50145194826152" lon="9.857740357681042"><ele>116.6</ele><time>2026-04-06T16:37:23.001Z</time></trkpt><trkpt lat="45.50148647432224" lon="9.857600657689177"><ele>116.19999999999999</ele><time>2026-04-06T16:37:24.001Z</time></trkpt><trkpt lat="45.50148569515296" lon="9.857454960153774"><ele>115.8</ele><time>2026-04-06T16:37:25.001Z</time></trkpt><trkpt lat="45.50145607760353" lon="9.85731507301991"><ele>115.4</ele><time>2026-04-06T16:37:26.001Z</time></trkpt><trkpt lat="45.50141224144339" lon="9.857189393497158"><ele>115.0</ele><time>2026-04-06T16:37:27.001Z</time></trkpt><trkpt lat="45.50134930453588" lon="9.85710273527982"><ele>115.00000000000001</ele><time>2026-04-06T16:37:28.001Z</time></trkpt><trkpt lat="45.50127691804409" lon="9.857024079261778"><ele>115.0</ele><time>2026-04-06T16:37:29Z</time></trkpt><trkpt lat="45.501229613728434" lon="9.856916135393094"><ele>115.0</ele><time>2026-04-06T16:37:30Z</time></trkpt><trkpt lat="45.501216216794134" lon="9.856784008764064"><ele>115.0</ele><time>2026-04-06T16:37:31Z</time></trkpt><trkpt lat="45.501225600227855" lon="9.85666731278563"><ele>115.00000000000001</ele><time>2026-04-06T16:37:32Z</time></trkpt><trkpt lat="45.501242061609325" lon="9.856560518570088"><ele>115.0</ele><time>2026-04-06T16:37:33Z</time></trkpt><trkpt lat="45.50129681273327" lon="9.856500747726278"><ele>115.2</ele><time>2026-04-06T16:37:34Z</time></trkpt><trkpt lat="45.50137811466269" lon="9.856477315808105"><ele>115.4</ele><time>2026-04-06T16:37:35Z</time></trkpt><trkpt lat="45.501473510829" lon="9.856464536427907"><ele>115.6</ele><time>2026-04-06T16:37:36Z</time></trkpt><trkpt lat="45.50156150490433" lon="9.856459251374607"><ele>115.8</ele><time>2026-04-06T16:37:37Z</time></trkpt><trkpt lat="45.50167031551862" lon="9.856445248937717"><ele>116.0</ele><time>2026-04-06T16:37:38Z</time></trkpt><trkpt lat="45.501781672398295" lon="9.856411029241913"><ele>115.99999999999999</ele><time>2026-04-06T16:37:39Z</time></trkpt><trkpt lat="45.50188168527822" lon="9.856363496546242"><ele>116.0</ele><time>2026-04-06T16:37:40Z</time></trkpt><trkpt lat="45.50197140317341" lon="9.856361915998592"><ele>116.0</ele><time>2026-04-06T16:37:41Z</time></trkpt><trkpt lat="45.50203561317096" lon="9.85642197777967"><ele>116.0</ele><time>2026-04-06T16:37:42Z</time></trkpt><trkpt lat="45.50206756028871" lon="9.856530192178711"><ele>115.99999999999999</ele><time>2026-04-06T16:37:43Z</time></trkpt><trkpt lat="45.50204893984072" lon="9.856658556159447"><ele>116.0</ele><time>2026-04-06T16:37:44Z</time></trkpt><trkpt lat="45.502064835310804" lon="9.856792470187715"><ele>115.8</ele><time>2026-04-06T16:37:45Z</time></trkpt><trkpt lat="45.50206464438341" lon="9.85693444107616"><ele>115.6</ele><time>2026-04-06T16:37:46Z</time></trkpt><trkpt lat="45.50206290033683" lon="9.857083199337682"><ele>115.4</ele><time>2026-04-06T16:37:47Z</time></trkpt><trkpt lat="45.50208042483487" lon="9.857205557919631"><ele>115.2</ele><time>2026-04-06T16:37:48Z</time></trkpt><trkpt lat="45.502106749962174" lon="9.857320237770844"><ele>115.0</ele><time>2026-04-06T16:37:49Z</time></trkpt><trkpt lat="45.502187992969645" lon="9.857397099961203"><ele>114.4</ele><time>2026-04-06T16:37:50Z</time></trkpt><trkpt lat="45.502286084665975" lon="9.857369827037369"><ele>113.8</ele><time>2026-04-06T16:37:51Z</time></trkpt><trkpt lat="45.50237356938496" lon="9.857323573398098"><ele>113.19999999999999</ele><time>2026-04-06T16:37:52Z</time></trkpt><trkpt lat="45.5024705573044" lon="9.85727639968047"><ele>112.6</ele><time>2026-04-06T16:37:53Z</time></trkpt><trkpt lat="45.50257742135788" lon="9.857224371557884"><ele>112.0</ele><time>2026-04-06T16:37:54Z</time></trkpt><trkpt lat="45.50268200331052" lon="9.857167280262749"><ele>112.0</ele><time>2026-04-06T16:37:55Z</time></trkpt><trkpt lat="45.50279626469747" lon="9.857107233937572"><ele>111.99999999999999</ele><time>2026-04-06T16:37:56Z</time></trkpt><trkpt lat="45.50290178410394" lon="9.857048838970332"><ele>111.99999999999999</ele><time>2026-04-06T16:37:57Z</time></trkpt><trkpt lat="45.502997776412315" lon="9.856995389489489"><ele>112.0</ele><time>2026-04-06T16:37:58Z</time></trkpt><trkpt lat="45.50308506717288" lon="9.856942971758775"><ele>112.0</ele><time>2026-04-06T16:37:59Z</time></trkpt><trkpt lat="45.5031713990829" lon="9.856890066743498"><ele>112.19999999999999</ele><time>2026-04-06T16:38:00Z</time></trkpt><trkpt lat="45.503252287083875" lon="9.856848691476127"><ele>112.39999999999999</ele><time>2026-04-06T16:38:01Z</time></trkpt><trkpt lat="45.50333506326657" lon="9.856813998215236"><ele>112.60000000000001</ele><time>2026-04-06T16:38:02Z</time></trkpt><trkpt lat="45.5034166476594" lon="9.856769613066739"><ele>112.80000000000001</ele><time>2026-04-06T16:38:03Z</time></trkpt><trkpt lat="45.50351112891441" lon="9.856714054218664"><ele>113.0</ele><time>2026-04-06T16:38:04Z</time></trkpt><trkpt lat="45.50361564980309" lon="9.856646598857758"><ele>113.5</ele><time>2026-04-06T16:38:05Z</time></trkpt><trkpt lat="45.5037380998126" lon="9.856582659387486"><ele>114.0</ele><time>2026-04-06T16:38:06Z</time></trkpt><trkpt lat="45.50386307667392" lon="9.85651635700687"><ele>114.5</ele><time>2026-04-06T16:38:07Z</time></trkpt><trkpt lat="45.50399386314436" lon="9.856437540253362"><ele>115.0</ele><time>2026-04-06T16:38:08Z</time></trkpt><trkpt lat="45.504131257581925" lon="9.856367547009745"><ele>115.0</ele><time>2026-04-06T16:38:09Z</time></trkpt><trkpt lat="45.50426158064657" lon="9.856298040180242"><ele>115.0</ele><time>2026-04-06T16:38:10Z</time></trkpt><trkpt lat="45.50439434095761" lon="9.85621575619195"><ele>115.0</ele><time>2026-04-06T16:38:11Z</time></trkpt><trkpt lat="45.50453057903803" lon="9.85614374896073"><ele>115.0</ele><time>2026-04-06T16:38:12Z</time></trkpt><trkpt lat="45.50466305510945" lon="9.856077046941923"><ele>115.0</ele><time>2026-04-06T16:38:13Z</time></trkpt><trkpt lat="45.50478890358271" lon="9.856017516181415"><ele>115.0</ele><time>2026-04-06T16:38:14Z</time></trkpt><trkpt lat="45.50490808765275" lon="9.855964635370814"><ele>115.0</ele><time>2026-04-06T16:38:15Z</time></trkpt><trkpt lat="45.505022621499855" lon="9.855916239834222"><ele>115.0</ele><time>2026-04-06T16:38:16Z</time></trkpt><trkpt lat="45.50512981619101" lon="9.855867390076739"><ele>115.0</ele><time>2026-04-06T16:38:17Z</time></trkpt><trkpt lat="45.505230082480345" lon="9.85581839574649"><ele>115.0</ele><time>2026-04-06T16:38:18Z</time></trkpt><trkpt lat="45.50533547609157" lon="9.855774047740569"><ele>115.0</ele><time>2026-04-06T16:38:19Z</time></trkpt><trkpt lat="45.50543342832622" lon="9.855729049585669"><ele>115.0</ele><time>2026-04-06T16:38:20Z</time></trkpt><trkpt lat="45.50552552839644" lon="9.855683158236662"><ele>115.0</ele><time>2026-04-06T16:38:21Z</time></trkpt><trkpt lat="45.50561389087871" lon="9.855627307931691"><ele>114.8</ele><time>2026-04-06T16:38:22.001Z</time></trkpt><trkpt lat="45.50569060051234" lon="9.855540249554918"><ele>114.6</ele><time>2026-04-06T16:38:23.001Z</time></trkpt><trkpt lat="45.505748259436245" lon="9.855420475147728"><ele>114.4</ele><time>2026-04-06T16:38:24.001Z</time></trkpt><trkpt lat="45.505797307797934" lon="9.855268889698205"><ele>114.2</ele><time>2026-04-06T16:38:25.001Z</time></trkpt><trkpt lat="45.505841066310914" lon="9.855117339399328"><ele>114.0</ele><time>2026-04-06T16:38:26.001Z</time></trkpt><trkpt lat="45.505891750793566" lon="9.854965091098817"><ele>114.4</ele><time>2026-04-06T16:38:27.001Z</time></trkpt><trkpt lat="45.50594296214687" lon="9.854813413892474"><ele>114.80000000000001</ele><time>2026-04-06T16:38:28.001Z</time></trkpt><trkpt lat="45.505987675280934" lon="9.854657895854833"><ele>115.19999999999999</ele><time>2026-04-06T16:38:29.001Z</time></trkpt><trkpt lat="45.50603318826759" lon="9.854519475674325"><ele>115.6</ele><time>2026-04-06T16:38:30.001Z</time></trkpt><trkpt lat="45.50607768393018" lon="9.85438717447668"><ele>116.0</ele><time>2026-04-06T16:38:31.001Z</time></trkpt><trkpt lat="45.506116590227016" lon="9.854266125756538"><ele>115.99999999999999</ele><time>2026-04-06T16:38:32.001Z</time></trkpt><trkpt lat="45.50615566490691" lon="9.85414451674267"><ele>116.0</ele><time>2026-04-06T16:38:33.001Z</time></trkpt><trkpt lat="45.50618608108568" lon="9.854033043587977"><ele>116.0</ele><time>2026-04-06T16:38:34.001Z</time></trkpt><trkpt lat="45.50622426430136" lon="9.85392137250619"><ele>116.0</ele><time>2026-04-06T16:38:35.001Z</time></trkpt><trkpt lat="45.50626481953453" lon="9.85380554403771"><ele>115.99999999999999</ele><time>2026-04-06T16:38:36.001Z</time></trkpt><trkpt lat="45.506303638905344" lon="9.853687215471826"><ele>116.0</ele><time>2026-04-06T16:38:37.001Z</time></trkpt><trkpt lat="45.50635085675148" lon="9.853561905201548"><ele>116.16666666666666</ele><time>2026-04-06T16:38:38.001Z</time></trkpt><trkpt lat="45.50638065618045" lon="9.853423514628675"><ele>116.33333333333333</ele><time>2026-04-06T16:38:39.001Z</time></trkpt><trkpt lat="45.50641490265795" lon="9.853311412286969"><ele>116.5</ele><time>2026-04-06T16:38:40.001Z</time></trkpt><trkpt lat="45.50645152425434" lon="9.853195569534765"><ele>116.66666666666666</ele><time>2026-04-06T16:38:41.001Z</time></trkpt><trkpt lat="45.50649908320317" lon="9.853092253002103"><ele>116.83333333333333</ele><time>2026-04-06T16:38:42.001Z</time></trkpt><trkpt lat="45.506551029522434" lon="9.852998575727321"><ele>117.0</ele><time>2026-04-06T16:38:43.001Z</time></trkpt><trkpt lat="45.50661051314767" lon="9.852908852086685"><ele>117.0</ele><time>2026-04-06T16:38:44.001Z</time></trkpt><trkpt lat="45.506674118677445" lon="9.85284344554573"><ele>117.0</ele><time>2026-04-06T16:38:45.001Z</time></trkpt><trkpt lat="45.50674538901742" lon="9.852798140822049"><ele>117.0</ele><time>2026-04-06T16:38:46.001Z</time></trkpt><trkpt lat="45.506809023700114" lon="9.852777264882455"><ele>117.0</ele><time>2026-04-06T16:38:47.001Z</time></trkpt><trkpt lat="45.50688175990093" lon="9.852767827413913"><ele>117.0</ele><time>2026-04-06T16:38:48.001Z</time></trkpt><trkpt lat="45.50699549018869" lon="9.852738074479033"><ele>117.0</ele><time>2026-04-06T16:38:50.001Z</time></trkpt><trkpt lat="45.5070589085163" lon="9.852727734281299"><ele>116.85714285714286</ele><time>2026-04-06T16:38:51.001Z</time></trkpt><trkpt lat="45.50712392193734" lon="9.852727208056256"><ele>116.71428571428572</ele><time>2026-04-06T16:38:52.001Z</time></trkpt><trkpt lat="45.507190311804585" lon="9.852725567041364"><ele>116.57142857142858</ele><time>2026-04-06T16:38:53.001Z</time></trkpt><trkpt lat="45.50725334723738" lon="9.85272321501498"><ele>116.42857142857144</ele><time>2026-04-06T16:38:54.001Z</time></trkpt><trkpt lat="45.50735356499574" lon="9.85273615328847"><ele>116.28571428571429</ele><time>2026-04-06T16:38:56.001Z</time></trkpt><trkpt lat="45.507418516927" lon="9.852739565323752"><ele>116.14285714285717</ele><time>2026-04-06T16:38:58.001Z</time></trkpt><trkpt lat="45.50748115631652" lon="9.852721679377066"><ele>116.00000000000001</ele><time>2026-04-06T16:39:02.001Z</time></trkpt><trkpt lat="45.50757465660081" lon="9.85270701245052"><ele>115.99999999999999</ele><time>2026-04-06T16:39:06.001Z</time></trkpt><trkpt lat="45.50760935875063" lon="9.852583330599318"><ele>116.0</ele><time>2026-04-06T16:39:08.001Z</time></trkpt><trkpt lat="45.5077294552546" lon="9.85256992833244"><ele>116.0</ele><time>2026-04-06T16:39:11.001Z</time></trkpt><trkpt lat="45.50778803001477" lon="9.852606905716652"><ele>116.0</ele><time>2026-04-06T16:39:12.001Z</time></trkpt><trkpt lat="45.507855639586126" lon="9.852628298646723"><ele>115.99999999999999</ele><time>2026-04-06T16:39:13.001Z</time></trkpt><trkpt lat="45.50794115421562" lon="9.852654147049966"><ele>116.0</ele><time>2026-04-06T16:39:14.001Z</time></trkpt><trkpt lat="45.508032431172914" lon="9.852673378225912"><ele>116.19999999999999</ele><time>2026-04-06T16:39:15.001Z</time></trkpt><trkpt lat="45.50813095032066" lon="9.852695735100532"><ele>116.39999999999999</ele><time>2026-04-06T16:39:16.001Z</time></trkpt><trkpt lat="45.508232630303986" lon="9.852705568382595"><ele>116.6</ele><time>2026-04-06T16:39:17.001Z</time></trkpt><trkpt lat="45.508326729775426" lon="9.852717597837984"><ele>116.8</ele><time>2026-04-06T16:39:18.001Z</time></trkpt><trkpt lat="45.508426917831216" lon="9.852727860235609"><ele>117.0</ele><time>2026-04-06T16:39:19.001Z</time></trkpt><trkpt lat="45.508530584763214" lon="9.852739907711904"><ele>117.0</ele><time>2026-04-06T16:39:20.001Z</time></trkpt><trkpt lat="45.508637101425194" lon="9.852752820338884"><ele>116.99999999999999</ele><time>2026-04-06T16:39:21.001Z</time></trkpt><trkpt lat="45.50874269759623" lon="9.852764856269951"><ele>116.99999999999999</ele><time>2026-04-06T16:39:22.001Z</time></trkpt><trkpt lat="45.50884936819758" lon="9.852774022281876"><ele>117.0</ele><time>2026-04-06T16:39:23.001Z</time></trkpt><trkpt lat="45.50895839294179" lon="9.852786643554223"><ele>117.0</ele><time>2026-04-06T16:39:24.001Z</time></trkpt><trkpt lat="45.50907020189504" lon="9.852793155253606"><ele>117.19999999999999</ele><time>2026-04-06T16:39:25.001Z</time></trkpt><trkpt lat="45.50917616008219" lon="9.852794788648533"><ele>117.39999999999999</ele><time>2026-04-06T16:39:26.001Z</time></trkpt><trkpt lat="45.5092760687356" lon="9.852800086067715"><ele>117.60000000000001</ele><time>2026-04-06T16:39:27.001Z</time></trkpt><trkpt lat="45.50938476361746" lon="9.852789260172356"><ele>117.80000000000001</ele><time>2026-04-06T16:39:28.001Z</time></trkpt><trkpt lat="45.50950264215215" lon="9.85277647975005"><ele>118.0</ele><time>2026-04-06T16:39:29.001Z</time></trkpt><trkpt lat="45.50962481039653" lon="9.85272700077558"><ele>118.25</ele><time>2026-04-06T16:39:30.001Z</time></trkpt><trkpt lat="45.509764903715926" lon="9.852688781931448"><ele>118.5</ele><time>2026-04-06T16:39:31.001Z</time></trkpt><trkpt lat="45.509903215708526" lon="9.852647618998203"><ele>118.75</ele><time>2026-04-06T16:39:32.001Z</time></trkpt><trkpt lat="45.51004040096883" lon="9.852602304722788"><ele>119.0</ele><time>2026-04-06T16:39:33.001Z</time></trkpt><trkpt lat="45.51016319606266" lon="9.85256545385223"><ele>119.2</ele><time>2026-04-06T16:39:34.001Z</time></trkpt><trkpt lat="45.510274067471975" lon="9.852526691168867"><ele>119.4</ele><time>2026-04-06T16:39:35Z</time></trkpt><trkpt lat="45.510368322217964" lon="9.852487752707296"><ele>119.6</ele><time>2026-04-06T16:39:36Z</time></trkpt><trkpt lat="45.51044570437686" lon="9.85245292149665"><ele>119.8</ele><time>2026-04-06T16:39:37Z</time></trkpt><trkpt lat="45.51053412870313" lon="9.852416944309624"><ele>120.0</ele><time>2026-04-06T16:39:39Z</time></trkpt><trkpt lat="45.51063363405557" lon="9.852376870750135"><ele>120.0</ele><time>2026-04-06T16:40:25.001Z</time></trkpt><trkpt lat="45.5106268935985" lon="9.85211587907885"><ele>120.0</ele><time>2026-04-06T16:40:27.001Z</time></trkpt><trkpt lat="45.51060752182547" lon="9.85198786390891"><ele>120.0</ele><time>2026-04-06T16:40:28.001Z</time></trkpt><trkpt lat="45.51057336284891" lon="9.85184588289084"><ele>120.0</ele><time>2026-04-06T16:40:29.001Z</time></trkpt><trkpt lat="45.510536565390716" lon="9.851683479069363"><ele>120.0</ele><time>2026-04-06T16:40:30.001Z</time></trkpt><trkpt lat="45.51049470821612" lon="9.851516583613876"><ele>120.0</ele><time>2026-04-06T16:40:31.001Z</time></trkpt><trkpt lat="45.51044864252476" lon="9.85133561748326"><ele>120.0</ele><time>2026-04-06T16:40:32.001Z</time></trkpt><trkpt lat="45.51040687952823" lon="9.8511397480951"><ele>120.0</ele><time>2026-04-06T16:40:33.001Z</time></trkpt><trkpt lat="45.510361228191826" lon="9.850941102905434"><ele>120.66666666666666</ele><time>2026-04-06T16:40:34.001Z</time></trkpt><trkpt lat="45.510315658556024" lon="9.850742907464415"><ele>121.33333333333333</ele><time>2026-04-06T16:40:35.001Z</time></trkpt><trkpt lat="45.51025986137975" lon="9.850538594267622"><ele>122.0</ele><time>2026-04-06T16:40:36.001Z</time></trkpt><trkpt lat="45.51021115296717" lon="9.850328571318595"><ele>121.75</ele><time>2026-04-06T16:40:37.001Z</time></trkpt><trkpt lat="45.51016296549611" lon="9.850122871187214"><ele>121.5</ele><time>2026-04-06T16:40:38.001Z</time></trkpt><trkpt lat="45.5101156707491" lon="9.849928399369189"><ele>121.25</ele><time>2026-04-06T16:40:39.001Z</time></trkpt><trkpt lat="45.51007021230868" lon="9.849738380544178"><ele>121.0</ele><time>2026-04-06T16:40:40.001Z</time></trkpt><trkpt lat="45.510024000046265" lon="9.849550663077018"><ele>121.0</ele><time>2026-04-06T16:40:41.001Z</time></trkpt><trkpt lat="45.50997616581858" lon="9.84936631764503"><ele>121.0</ele><time>2026-04-06T16:40:42.001Z</time></trkpt><trkpt lat="45.50992869719604" lon="9.849182011388594"><ele>121.0</ele><time>2026-04-06T16:40:43.001Z</time></trkpt><trkpt lat="45.50989760961559" lon="9.848987916606621"><ele>121.0</ele><time>2026-04-06T16:40:44.001Z</time></trkpt><trkpt lat="45.50990038396813" lon="9.848792006139208"><ele>121.25</ele><time>2026-04-06T16:40:45.001Z</time></trkpt><trkpt lat="45.50987950650925" lon="9.848596078766226"><ele>121.5</ele><time>2026-04-06T16:40:46.001Z</time></trkpt><trkpt lat="45.509867600393775" lon="9.848400493328441"><ele>121.75</ele><time>2026-04-06T16:40:47.001Z</time></trkpt><trkpt lat="45.50985838798744" lon="9.848209997281156"><ele>122.0</ele><time>2026-04-06T16:40:48.001Z</time></trkpt><trkpt lat="45.509848572926686" lon="9.848017880278437"><ele>122.25</ele><time>2026-04-06T16:40:49.001Z</time></trkpt><trkpt lat="45.50983530703892" lon="9.847831414186187"><ele>122.5</ele><time>2026-04-06T16:40:50.001Z</time></trkpt><trkpt lat="45.509825880331036" lon="9.847661854104128"><ele>122.75</ele><time>2026-04-06T16:40:51.001Z</time></trkpt><trkpt lat="45.50981680424219" lon="9.847513427129531"><ele>123.0</ele><time>2026-04-06T16:40:52.001Z</time></trkpt><trkpt lat="45.509811659974055" lon="9.847373817707863"><ele>123.16666666666667</ele><time>2026-04-06T16:40:53.001Z</time></trkpt><trkpt lat="45.50980408558008" lon="9.84725890840628"><ele>123.33333333333334</ele><time>2026-04-06T16:40:54.001Z</time></trkpt><trkpt lat="45.509802864118015" lon="9.847168119674308"><ele>123.5</ele><time>2026-04-06T16:40:55.001Z</time></trkpt><trkpt lat="45.50985739013689" lon="9.84703536724548"><ele>123.66666666666667</ele><time>2026-04-06T16:40:57.001Z</time></trkpt><trkpt lat="45.50988255426614" lon="9.846945955123527"><ele>123.83333333333334</ele><time>2026-04-06T16:40:58.001Z</time></trkpt><trkpt lat="45.50998086048208" lon="9.84693599725355"><ele>124.0</ele><time>2026-04-06T16:40:59.001Z</time></trkpt><trkpt lat="45.51006351998181" lon="9.846926907935586"><ele>124.0</ele><time>2026-04-06T16:41:00.001Z</time></trkpt><trkpt lat="45.51016348310249" lon="9.846918313629864"><ele>124.0</ele><time>2026-04-06T16:41:01.001Z</time></trkpt><trkpt lat="45.51027896163958" lon="9.846891073139831"><ele>124.0</ele><time>2026-04-06T16:41:02.001Z</time></trkpt><trkpt lat="45.51039576400962" lon="9.846864573104108"><ele>124.0</ele><time>2026-04-06T16:41:03.001Z</time></trkpt><trkpt lat="45.510522749086" lon="9.846840002418082"><ele>123.75</ele><time>2026-04-06T16:41:04.001Z</time></trkpt><trkpt lat="45.510659197054224" lon="9.84681499880102"><ele>123.5</ele><time>2026-04-06T16:41:05.001Z</time></trkpt><trkpt lat="45.51080788752651" lon="9.846786222120667"><ele>123.25</ele><time>2026-04-06T16:41:06.001Z</time></trkpt><trkpt lat="45.510966615982056" lon="9.846752669653274"><ele>123.0</ele><time>2026-04-06T16:41:07.001Z</time></trkpt><trkpt lat="45.511134995432684" lon="9.84672487699165"><ele>123.66666666666666</ele><time>2026-04-06T16:41:08.001Z</time></trkpt><trkpt lat="45.511305732967834" lon="9.846707636183758"><ele>124.33333333333333</ele><time>2026-04-06T16:41:09.001Z</time></trkpt><trkpt lat="45.51147915491399" lon="9.846721891756141"><ele>125.0</ele><time>2026-04-06T16:41:10.001Z</time></trkpt><trkpt lat="45.51165757541999" lon="9.846732197299739"><ele>125.0</ele><time>2026-04-06T16:41:11.001Z</time></trkpt><trkpt lat="45.51184575733168" lon="9.846743432251492"><ele>125.0</ele><time>2026-04-06T16:41:12.001Z</time></trkpt><trkpt lat="45.5120351427725" lon="9.846759075363128"><ele>125.0</ele><time>2026-04-06T16:41:13.001Z</time></trkpt><trkpt lat="45.51222606693685" lon="9.846788554225022"><ele>124.0</ele><time>2026-04-06T16:41:14.001Z</time></trkpt><trkpt lat="45.51241822563888" lon="9.846811328453505"><ele>123.0</ele><time>2026-04-06T16:41:15.001Z</time></trkpt><trkpt lat="45.512607971777044" lon="9.846832101394568"><ele>122.0</ele><time>2026-04-06T16:41:16.001Z</time></trkpt><trkpt lat="45.51279527111937" lon="9.846852677798328"><ele>122.66666666666666</ele><time>2026-04-06T16:41:17.001Z</time></trkpt><trkpt lat="45.512984720278084" lon="9.846876249976953"><ele>123.33333333333334</ele><time>2026-04-06T16:41:18.001Z</time></trkpt><trkpt lat="45.51316830841077" lon="9.846907683098358"><ele>124.0</ele><time>2026-04-06T16:41:19.001Z</time></trkpt><trkpt lat="45.51334830767155" lon="9.846961052679308"><ele>124.0</ele><time>2026-04-06T16:41:20.001Z</time></trkpt><trkpt lat="45.513518709523275" lon="9.847049192753762"><ele>124.0</ele><time>2026-04-06T16:41:21.001Z</time></trkpt><trkpt lat="45.5136864848958" lon="9.847154627882475"><ele>124.0</ele><time>2026-04-06T16:41:22.001Z</time></trkpt><trkpt lat="45.51387287739155" lon="9.847232526628732"><ele>124.0</ele><time>2026-04-06T16:41:23.001Z</time></trkpt><trkpt lat="45.51405538045669" lon="9.847289620760757"><ele>124.0</ele><time>2026-04-06T16:41:24.001Z</time></trkpt><trkpt lat="45.514252763043054" lon="9.847318893371423"><ele>124.0</ele><time>2026-04-06T16:41:25.001Z</time></trkpt><trkpt lat="45.5144639320699" lon="9.847334229249745"><ele>124.0</ele><time>2026-04-06T16:41:26.001Z</time></trkpt><trkpt lat="45.51467481384859" lon="9.84731333694182"><ele>124.0</ele><time>2026-04-06T16:41:27.001Z</time></trkpt><trkpt lat="45.51488010122841" lon="9.847259784946306"><ele>124.0</ele><time>2026-04-06T16:41:28.001Z</time></trkpt><trkpt lat="45.51507499178892" lon="9.847182280143274"><ele>124.0</ele><time>2026-04-06T16:41:29.001Z</time></trkpt><trkpt lat="45.515275254637906" lon="9.847089179573436"><ele>124.0</ele><time>2026-04-06T16:41:30.001Z</time></trkpt><trkpt lat="45.515478691991035" lon="9.847013141764714"><ele>124.0</ele><time>2026-04-06T16:41:31.001Z</time></trkpt><trkpt lat="45.515679768162634" lon="9.846926406853173"><ele>124.33333333333334</ele><time>2026-04-06T16:41:32.001Z</time></trkpt><trkpt lat="45.515879918571684" lon="9.84683671395898"><ele>124.66666666666666</ele><time>2026-04-06T16:41:33.001Z</time></trkpt><trkpt lat="45.51607205639144" lon="9.846750546935239"><ele>125.0</ele><time>2026-04-06T16:41:34.001Z</time></trkpt><trkpt lat="45.5162684689746" lon="9.84668755733519"><ele>125.33333333333333</ele><time>2026-04-06T16:41:35.001Z</time></trkpt><trkpt lat="45.516444064830196" lon="9.84661707310788"><ele>125.66666666666666</ele><time>2026-04-06T16:41:36.001Z</time></trkpt><trkpt lat="45.51662523207663" lon="9.846577647967404"><ele>126.0</ele><time>2026-04-06T16:41:37.002Z</time></trkpt><trkpt lat="45.516812143811855" lon="9.846587143936627"><ele>126.0</ele><time>2026-04-06T16:41:38.002Z</time></trkpt><trkpt lat="45.51700563562896" lon="9.84662867292156"><ele>126.0</ele><time>2026-04-06T16:41:39.002Z</time></trkpt><trkpt lat="45.517205712199726" lon="9.846658593403994"><ele>126.0</ele><time>2026-04-06T16:41:40.002Z</time></trkpt><trkpt lat="45.51740786016974" lon="9.846717928602482"><ele>125.66666666666666</ele><time>2026-04-06T16:41:41.001Z</time></trkpt><trkpt lat="45.517612103408666" lon="9.846729685404389"><ele>125.33333333333333</ele><time>2026-04-06T16:41:42.001Z</time></trkpt><trkpt lat="45.51781938758808" lon="9.846718047180783"><ele>125.0</ele><time>2026-04-06T16:41:43.001Z</time></trkpt><trkpt lat="45.51802766847364" lon="9.846693808047167"><ele>124.66666666666666</ele><time>2026-04-06T16:41:44.001Z</time></trkpt><trkpt lat="45.518230689575375" lon="9.84667264252841"><ele>124.33333333333334</ele><time>2026-04-06T16:41:45.001Z</time></trkpt><trkpt lat="45.518426112892236" lon="9.84663888920176"><ele>124.0</ele><time>2026-04-06T16:41:46.001Z</time></trkpt><trkpt lat="45.51861820684018" lon="9.846581917987729"><ele>123.66666666666667</ele><time>2026-04-06T16:41:47.001Z</time></trkpt><trkpt lat="45.518799615922404" lon="9.846502843971683"><ele>123.33333333333334</ele><time>2026-04-06T16:41:48.001Z</time></trkpt><trkpt lat="45.518979941553496" lon="9.846400191384898"><ele>123.0</ele><time>2026-04-06T16:41:49.001Z</time></trkpt><trkpt lat="45.51912413787755" lon="9.846226275802618"><ele>123.0</ele><time>2026-04-06T16:41:50.001Z</time></trkpt><trkpt lat="45.51927734475127" lon="9.846023580204704"><ele>123.0</ele><time>2026-04-06T16:41:51.001Z</time></trkpt><trkpt lat="45.519441387331554" lon="9.845821132401507"><ele>123.0</ele><time>2026-04-06T16:41:52.001Z</time></trkpt><trkpt lat="45.51960361029938" lon="9.845626011214156"><ele>123.0</ele><time>2026-04-06T16:41:53.001Z</time></trkpt><trkpt lat="45.51977739402197" lon="9.845433179940084"><ele>123.0</ele><time>2026-04-06T16:41:54Z</time></trkpt><trkpt lat="45.519958661657704" lon="9.845262143656281"><ele>123.0</ele><time>2026-04-06T16:41:55Z</time></trkpt><trkpt lat="45.520143376007304" lon="9.845093333859715"><ele>123.33333333333334</ele><time>2026-04-06T16:41:56Z</time></trkpt><trkpt lat="45.52033252189492" lon="9.84493059008758"><ele>123.66666666666667</ele><time>2026-04-06T16:41:57Z</time></trkpt><trkpt lat="45.52052486422141" lon="9.844772725820148"><ele>124.0</ele><time>2026-04-06T16:41:58Z</time></trkpt><trkpt lat="45.52071802244038" lon="9.844621446857838"><ele>124.0</ele><time>2026-04-06T16:41:59Z</time></trkpt><trkpt lat="45.520907311870374" lon="9.844469158055492"><ele>124.0</ele><time>2026-04-06T16:42:00Z</time></trkpt><trkpt lat="45.521093232869895" lon="9.844319753043385"><ele>124.0</ele><time>2026-04-06T16:42:01Z</time></trkpt><trkpt lat="45.52126973060337" lon="9.844174258690877"><ele>124.33333333333334</ele><time>2026-04-06T16:42:02Z</time></trkpt><trkpt lat="45.52144752985358" lon="9.844030895176035"><ele>124.66666666666666</ele><time>2026-04-06T16:42:03Z</time></trkpt><trkpt lat="45.52162573062862" lon="9.843897118424373"><ele>125.0</ele><time>2026-04-06T16:42:04Z</time></trkpt><trkpt lat="45.5218032321058" lon="9.843768053302139"><ele>125.0</ele><time>2026-04-06T16:42:05Z</time></trkpt><trkpt lat="45.521980881388124" lon="9.843660670674032"><ele>125.0</ele><time>2026-04-06T16:42:06Z</time></trkpt><trkpt lat="45.52215188235805" lon="9.843570650096451"><ele>125.0</ele><time>2026-04-06T16:42:07Z</time></trkpt><trkpt lat="45.522314584077805" lon="9.843497883300627"><ele>125.66666666666666</ele><time>2026-04-06T16:42:08Z</time></trkpt><trkpt lat="45.52248265167163" lon="9.843434777228374"><ele>126.33333333333334</ele><time>2026-04-06T16:42:09Z</time></trkpt><trkpt lat="45.52264856009253" lon="9.843383446833904"><ele>127.0</ele><time>2026-04-06T16:42:10Z</time></trkpt><trkpt lat="45.5228170880252" lon="9.843343131029584"><ele>126.66666666666667</ele><time>2026-04-06T16:42:11Z</time></trkpt><trkpt lat="45.52298896485847" lon="9.843353611566844"><ele>126.33333333333334</ele><time>2026-04-06T16:42:12Z</time></trkpt><trkpt lat="45.52316076771469" lon="9.84335421614018"><ele>126.0</ele><time>2026-04-06T16:42:13.001Z</time></trkpt><trkpt lat="45.523329454940075" lon="9.843354816026032"><ele>126.0</ele><time>2026-04-06T16:42:14.001Z</time></trkpt><trkpt lat="45.52348663442282" lon="9.843431932679152"><ele>126.0</ele><time>2026-04-06T16:42:15.001Z</time></trkpt><trkpt lat="45.52361691524859" lon="9.843580004566482"><ele>126.0</ele><time>2026-04-06T16:42:16.001Z</time></trkpt><trkpt lat="45.52373164670727" lon="9.843752412971662"><ele>126.0</ele><time>2026-04-06T16:42:17.001Z</time></trkpt><trkpt lat="45.52385836174234" lon="9.843928660449535"><ele>126.0</ele><time>2026-04-06T16:42:18.001Z</time></trkpt><trkpt lat="45.52397762045984" lon="9.84413849609148"><ele>126.0</ele><time>2026-04-06T16:42:19.001Z</time></trkpt><trkpt lat="45.52410278292947" lon="9.844348365327551"><ele>126.0</ele><time>2026-04-06T16:42:20.001Z</time></trkpt><trkpt lat="45.52422426748714" lon="9.844571004358077"><ele>126.0</ele><time>2026-04-06T16:42:21.001Z</time></trkpt><trkpt lat="45.52434317049065" lon="9.844779899300978"><ele>126.0</ele><time>2026-04-06T16:42:22.001Z</time></trkpt><trkpt lat="45.5244697729422" lon="9.844976180216591"><ele>126.0</ele><time>2026-04-06T16:42:23.001Z</time></trkpt><trkpt lat="45.5246193729931" lon="9.845145088996185"><ele>126.0</ele><time>2026-04-06T16:42:24.001Z</time></trkpt><trkpt lat="45.52479230283043" lon="9.845285690938159"><ele>126.0</ele><time>2026-04-06T16:42:25.001Z</time></trkpt><trkpt lat="45.524978221117344" lon="9.845411569401385"><ele>126.0</ele><time>2026-04-06T16:42:26.001Z</time></trkpt><trkpt lat="45.525171320196044" lon="9.845516982153885"><ele>126.0</ele><time>2026-04-06T16:42:27.001Z</time></trkpt><trkpt lat="45.52536787647574" lon="9.845611977041"><ele>126.0</ele><time>2026-04-06T16:42:28.001Z</time></trkpt><trkpt lat="45.5255675455928" lon="9.845706243517654"><ele>126.66666666666666</ele><time>2026-04-06T16:42:29.001Z</time></trkpt><trkpt lat="45.52576116601256" lon="9.845795484930308"><ele>127.33333333333333</ele><time>2026-04-06T16:42:30.001Z</time></trkpt><trkpt lat="45.52593952398294" lon="9.845873748203013"><ele>128.0</ele><time>2026-04-06T16:42:31.001Z</time></trkpt><trkpt lat="45.52611047445449" lon="9.845947030569935"><ele>127.0</ele><time>2026-04-06T16:42:32.001Z</time></trkpt><trkpt lat="45.526271506280516" lon="9.846011818793604"><ele>126.0</ele><time>2026-04-06T16:42:33.001Z</time></trkpt><trkpt lat="45.526413954215485" lon="9.846055481381425"><ele>125.0</ele><time>2026-04-06T16:42:34.001Z</time></trkpt><trkpt lat="45.52654347598373" lon="9.846075398790074"><ele>124.0</ele><time>2026-04-06T16:42:35.001Z</time></trkpt><trkpt lat="45.5266640137229" lon="9.84607015773805"><ele>124.0</ele><time>2026-04-06T16:42:36.001Z</time></trkpt><trkpt lat="45.526775847303355" lon="9.846041281385274"><ele>124.0</ele><time>2026-04-06T16:42:37.001Z</time></trkpt><trkpt lat="45.52687849250556" lon="9.845981363798526"><ele>124.0</ele><time>2026-04-06T16:42:38.001Z</time></trkpt><trkpt lat="45.52696592107498" lon="9.845910471760934"><ele>124.0</ele><time>2026-04-06T16:42:39.001Z</time></trkpt><trkpt lat="45.52703606744326" lon="9.845839342057799"><ele>124.0</ele><time>2026-04-06T16:42:40.001Z</time></trkpt><trkpt lat="45.52714981545256" lon="9.845868377399574"><ele>124.4</ele><time>2026-04-06T16:42:41.001Z</time></trkpt><trkpt lat="45.527243282695984" lon="9.845855984032442"><ele>124.80000000000001</ele><time>2026-04-06T16:42:42.001Z</time></trkpt><trkpt lat="45.52732854048879" lon="9.845791836195971"><ele>125.19999999999999</ele><time>2026-04-06T16:42:43.001Z</time></trkpt><trkpt lat="45.52740349937143" lon="9.845694888395819"><ele>125.6</ele><time>2026-04-06T16:42:44.001Z</time></trkpt><trkpt lat="45.5274446855835" lon="9.84555646204864"><ele>126.0</ele><time>2026-04-06T16:42:45.001Z</time></trkpt><trkpt lat="45.52742153055385" lon="9.845381303007287"><ele>126.0</ele><time>2026-04-06T16:42:46.001Z</time></trkpt><trkpt lat="45.527341880917106" lon="9.84525826660921"><ele>126.0</ele><time>2026-04-06T16:42:47.001Z</time></trkpt><trkpt lat="45.52723605041379" lon="9.845183774880665"><ele>126.0</ele><time>2026-04-06T16:42:48.001Z</time></trkpt><trkpt lat="45.527119568980126" lon="9.845140453521621"><ele>126.0</ele><time>2026-04-06T16:42:49.001Z</time></trkpt><trkpt lat="45.527006445209345" lon="9.845059067256761"><ele>126.25</ele><time>2026-04-06T16:42:50.001Z</time></trkpt><trkpt lat="45.52693767961229" lon="9.844905173689792"><ele>126.5</ele><time>2026-04-06T16:42:51.001Z</time></trkpt><trkpt lat="45.52686761781352" lon="9.84473949474112"><ele>126.75</ele><time>2026-04-06T16:42:52.001Z</time></trkpt><trkpt lat="45.526789439404766" lon="9.844558014169078"><ele>127.0</ele><time>2026-04-06T16:42:53.001Z</time></trkpt><trkpt lat="45.52670329623565" lon="9.844367403582803"><ele>127.0</ele><time>2026-04-06T16:42:54.001Z</time></trkpt><trkpt lat="45.52662736786941" lon="9.844152425710885"><ele>127.0</ele><time>2026-04-06T16:42:55.001Z</time></trkpt><trkpt lat="45.526559642077714" lon="9.843934516920303"><ele>127.0</ele><time>2026-04-06T16:42:56.001Z</time></trkpt><trkpt lat="45.52649294116845" lon="9.843699980496122"><ele>127.33333333333334</ele><time>2026-04-06T16:42:57.001Z</time></trkpt><trkpt lat="45.52643100271415" lon="9.843459366467995"><ele>127.66666666666666</ele><time>2026-04-06T16:42:58.001Z</time></trkpt><trkpt lat="45.526371706413" lon="9.843199779055663"><ele>128.0</ele><time>2026-04-06T16:42:59.001Z</time></trkpt><trkpt lat="45.526325824952934" lon="9.842927731687237"><ele>128.0</ele><time>2026-04-06T16:43:00.001Z</time></trkpt><trkpt lat="45.526290512222026" lon="9.84263982628851"><ele>128.0</ele><time>2026-04-06T16:43:01.001Z</time></trkpt><trkpt lat="45.52626662468754" lon="9.84235292430811"><ele>128.0</ele><time>2026-04-06T16:43:02.001Z</time></trkpt><trkpt lat="45.52624754321799" lon="9.842069544626254"><ele>127.33333333333333</ele><time>2026-04-06T16:43:03.001Z</time></trkpt><trkpt lat="45.5262235749438" lon="9.841779815001987"><ele>126.66666666666666</ele><time>2026-04-06T16:43:04.001Z</time></trkpt><trkpt lat="45.52619800569345" lon="9.841483436534302"><ele>126.0</ele><time>2026-04-06T16:43:05.001Z</time></trkpt><trkpt lat="45.52617076466027" lon="9.841191329352139"><ele>126.33333333333334</ele><time>2026-04-06T16:43:06.001Z</time></trkpt><trkpt lat="45.526147698003285" lon="9.840919704036038"><ele>126.66666666666667</ele><time>2026-04-06T16:43:07.001Z</time></trkpt><trkpt lat="45.52612371470909" lon="9.840655663959607"><ele>127.0</ele><time>2026-04-06T16:43:08.001Z</time></trkpt><trkpt lat="45.52610620421851" lon="9.840412358655842"><ele>127.0</ele><time>2026-04-06T16:43:09.001Z</time></trkpt><trkpt lat="45.52608914190924" lon="9.840180138204802"><ele>127.0</ele><time>2026-04-06T16:43:10.001Z</time></trkpt><trkpt lat="45.526077321954716" lon="9.83995809545255"><ele>127.0</ele><time>2026-04-06T16:43:11.001Z</time></trkpt><trkpt lat="45.52607024830743" lon="9.839736500508977"><ele>127.66666666666667</ele><time>2026-04-06T16:43:12.001Z</time></trkpt><trkpt lat="45.52607062236702" lon="9.839512159923501"><ele>128.33333333333334</ele><time>2026-04-06T16:43:13.001Z</time></trkpt><trkpt lat="45.526071981053605" lon="9.839281732847084"><ele>129.0</ele><time>2026-04-06T16:43:14.001Z</time></trkpt><trkpt lat="45.52607060151977" lon="9.839057998366124"><ele>129.25</ele><time>2026-04-06T16:43:15.001Z</time></trkpt><trkpt lat="45.526070626168256" lon="9.83885003537935"><ele>129.5</ele><time>2026-04-06T16:43:16.001Z</time></trkpt><trkpt lat="45.526075566163684" lon="9.838657941471673"><ele>129.75</ele><time>2026-04-06T16:43:17.001Z</time></trkpt><trkpt lat="45.52608437609341" lon="9.83847797337672"><ele>130.0</ele><time>2026-04-06T16:43:18.001Z</time></trkpt><trkpt lat="45.52609305954103" lon="9.838322372340995"><ele>130.0</ele><time>2026-04-06T16:43:19.001Z</time></trkpt><trkpt lat="45.526120252228246" lon="9.838181827625991"><ele>130.0</ele><time>2026-04-06T16:43:20.001Z</time></trkpt><trkpt lat="45.52619632286009" lon="9.838076551624875"><ele>130.0</ele><time>2026-04-06T16:43:21.001Z</time></trkpt><trkpt lat="45.52629416671669" lon="9.837988368728233"><ele>130.0</ele><time>2026-04-06T16:43:22.001Z</time></trkpt><trkpt lat="45.526367590879595" lon="9.837876398711874"><ele>130.0</ele><time>2026-04-06T16:43:23.001Z</time></trkpt><trkpt lat="45.526403834115406" lon="9.837718120517463"><ele>129.75</ele><time>2026-04-06T16:43:24.001Z</time></trkpt><trkpt lat="45.526386421843235" lon="9.837561558963614"><ele>129.5</ele><time>2026-04-06T16:43:25.001Z</time></trkpt><trkpt lat="45.52632257249516" lon="9.837434459565895"><ele>129.25</ele><time>2026-04-06T16:43:26.001Z</time></trkpt><trkpt lat="45.52622057442063" lon="9.83735197658417"><ele>129.0</ele><time>2026-04-06T16:43:27.001Z</time></trkpt><trkpt lat="45.52616829642145" lon="9.837179845139644"><ele>129.5</ele><time>2026-04-06T16:43:28.001Z</time></trkpt><trkpt lat="45.526120901850156" lon="9.83701049637262"><ele>130.0</ele><time>2026-04-06T16:43:29.001Z</time></trkpt><trkpt lat="45.52615238366808" lon="9.836804884006554"><ele>130.5</ele><time>2026-04-06T16:43:30.001Z</time></trkpt><trkpt lat="45.52615938429934" lon="9.836604311279658"><ele>131.0</ele><time>2026-04-06T16:43:31.001Z</time></trkpt><trkpt lat="45.52614842914847" lon="9.836395172982751"><ele>131.33333333333331</ele><time>2026-04-06T16:43:32.001Z</time></trkpt><trkpt lat="45.526138544748434" lon="9.836162974596393"><ele>131.66666666666666</ele><time>2026-04-06T16:43:33.001Z</time></trkpt><trkpt lat="45.526128570161006" lon="9.835917913536425"><ele>132.0</ele><time>2026-04-06T16:43:34.001Z</time></trkpt><trkpt lat="45.526123165480186" lon="9.835677883980825"><ele>131.33333333333334</ele><time>2026-04-06T16:43:35.001Z</time></trkpt><trkpt lat="45.52611369982399" lon="9.835434178449054"><ele>130.66666666666669</ele><time>2026-04-06T16:43:36.001Z</time></trkpt><trkpt lat="45.526098775470196" lon="9.835191224496432"><ele>130.0</ele><time>2026-04-06T16:43:37.001Z</time></trkpt><trkpt lat="45.52608112229264" lon="9.834957713468583"><ele>129.75</ele><time>2026-04-06T16:43:38.001Z</time></trkpt><trkpt lat="45.52606957669744" lon="9.834742869858186"><ele>129.5</ele><time>2026-04-06T16:43:39.001Z</time></trkpt><trkpt lat="45.526062216989345" lon="9.834555867136526"><ele>129.25</ele><time>2026-04-06T16:43:40.001Z</time></trkpt><trkpt lat="45.52605700385926" lon="9.834390326598317"><ele>129.0</ele><time>2026-04-06T16:43:41.001Z</time></trkpt><trkpt lat="45.52606215119516" lon="9.834239876305828"><ele>129.0</ele><time>2026-04-06T16:43:42.001Z</time></trkpt><trkpt lat="45.526056854507594" lon="9.834097701494525"><ele>129.0</ele><time>2026-04-06T16:43:43.001Z</time></trkpt><trkpt lat="45.526164046125665" lon="9.833960032354534"><ele>129.0</ele><time>2026-04-06T16:43:44.001Z</time></trkpt><trkpt lat="45.52624039499658" lon="9.833834037925756"><ele>129.0</ele><time>2026-04-06T16:43:45.001Z</time></trkpt><trkpt lat="45.52629347122938" lon="9.833705331019267"><ele>129.0</ele><time>2026-04-06T16:43:46.001Z</time></trkpt><trkpt lat="45.526454224864914" lon="9.833672001244524"><ele>129.0</ele><time>2026-04-06T16:43:47Z</time></trkpt><trkpt lat="45.52658601423455" lon="9.83366522778899"><ele>129.0</ele><time>2026-04-06T16:43:48Z</time></trkpt><trkpt lat="45.526737670826535" lon="9.833654343813848"><ele>129.0</ele><time>2026-04-06T16:43:49Z</time></trkpt><trkpt lat="45.52689867053575" lon="9.833636504239976"><ele>129.33333333333334</ele><time>2026-04-06T16:43:50Z</time></trkpt><trkpt lat="45.52707182544516" lon="9.83361580083904"><ele>129.66666666666669</ele><time>2026-04-06T16:43:51Z</time></trkpt><trkpt lat="45.52724927571328" lon="9.833583389287705"><ele>130.0</ele><time>2026-04-06T16:43:52Z</time></trkpt><trkpt lat="45.527440005074666" lon="9.833556834200271"><ele>130.0</ele><time>2026-04-06T16:43:53Z</time></trkpt><trkpt lat="45.52763422275384" lon="9.833530297610514"><ele>130.0</ele><time>2026-04-06T16:43:54Z</time></trkpt><trkpt lat="45.527834223429494" lon="9.833499888885996"><ele>130.0</ele><time>2026-04-06T16:43:55Z</time></trkpt><trkpt lat="45.528040941920146" lon="9.833468557202085"><ele>130.33333333333334</ele><time>2026-04-06T16:43:56Z</time></trkpt><trkpt lat="45.5282465122213" lon="9.83343619163287"><ele>130.66666666666666</ele><time>2026-04-06T16:43:57Z</time></trkpt><trkpt lat="45.52844988713868" lon="9.833407396093124"><ele>131.0</ele><time>2026-04-06T16:43:58Z</time></trkpt><trkpt lat="45.52866356368008" lon="9.833372870085267"><ele>130.66666666666666</ele><time>2026-04-06T16:43:59Z</time></trkpt><trkpt lat="45.52887720962746" lon="9.833337202756748"><ele>130.33333333333334</ele><time>2026-04-06T16:44:00Z</time></trkpt><trkpt lat="45.52909618775501" lon="9.833299610618933"><ele>130.0</ele><time>2026-04-06T16:44:01Z</time></trkpt><trkpt lat="45.529320051724405" lon="9.833262979871694"><ele>130.0</ele><time>2026-04-06T16:44:02Z</time></trkpt><trkpt lat="45.52954751526843" lon="9.833236271085882"><ele>130.0</ele><time>2026-04-06T16:44:03Z</time></trkpt><trkpt lat="45.529776917941014" lon="9.833202456203747"><ele>130.0</ele><time>2026-04-06T16:44:04Z</time></trkpt><trkpt lat="45.53000985781508" lon="9.833158754278369"><ele>130.0</ele><time>2026-04-06T16:44:05Z</time></trkpt><trkpt lat="45.53024861577293" lon="9.833119444736068"><ele>131.5</ele><time>2026-04-06T16:44:06Z</time></trkpt><trkpt lat="45.53048552891233" lon="9.833076625543287"><ele>133.0</ele><time>2026-04-06T16:44:07Z</time></trkpt><trkpt lat="45.5307200522937" lon="9.833038922542887"><ele>133.0</ele><time>2026-04-06T16:44:08Z</time></trkpt><trkpt lat="45.53095999640065" lon="9.832985810567331"><ele>133.0</ele><time>2026-04-06T16:44:09Z</time></trkpt><trkpt lat="45.531205570282744" lon="9.8329270859433"><ele>133.5</ele><time>2026-04-06T16:44:10Z</time></trkpt><trkpt lat="45.531447126094946" lon="9.83287161377538"><ele>134.0</ele><time>2026-04-06T16:44:11Z</time></trkpt><trkpt lat="45.5316891948558" lon="9.832813190496454"><ele>134.0</ele><time>2026-04-06T16:44:12Z</time></trkpt><trkpt lat="45.53193249254538" lon="9.832746588196349"><ele>134.0</ele><time>2026-04-06T16:44:13Z</time></trkpt><trkpt lat="45.53218241090054" lon="9.832695911169665"><ele>134.0</ele><time>2026-04-06T16:44:14Z</time></trkpt><trkpt lat="45.53243708121985" lon="9.83263695307134"><ele>134.0</ele><time>2026-04-06T16:44:15Z</time></trkpt><trkpt lat="45.53269861387968" lon="9.832581839894774"><ele>134.5</ele><time>2026-04-06T16:44:16Z</time></trkpt><trkpt lat="45.53296471173953" lon="9.832519426388226"><ele>135.0</ele><time>2026-04-06T16:44:17Z</time></trkpt><trkpt lat="45.53324076985005" lon="9.832466372590385"><ele>135.0</ele><time>2026-04-06T16:44:18Z</time></trkpt><trkpt lat="45.53351359078873" lon="9.832407279400137"><ele>135.0</ele><time>2026-04-06T16:44:19Z</time></trkpt><trkpt lat="45.53377884862941" lon="9.83234125299376"><ele>135.5</ele><time>2026-04-06T16:44:20Z</time></trkpt><trkpt lat="45.53404572860744" lon="9.832281261115599"><ele>136.0</ele><time>2026-04-06T16:44:21Z</time></trkpt><trkpt lat="45.534311686460875" lon="9.832201732248866"><ele>135.5</ele><time>2026-04-06T16:44:22Z</time></trkpt><trkpt lat="45.53457278984936" lon="9.832102141088235"><ele>135.0</ele><time>2026-04-06T16:44:23Z</time></trkpt><trkpt lat="45.53483149074056" lon="9.831981647351604"><ele>135.0</ele><time>2026-04-06T16:44:24Z</time></trkpt><trkpt lat="45.53509232717817" lon="9.831840756396343"><ele>135.0</ele><time>2026-04-06T16:44:25Z</time></trkpt><trkpt lat="45.535352636249" lon="9.831691569941736"><ele>135.0</ele><time>2026-04-06T16:44:26Z</time></trkpt><trkpt lat="45.5356173875713" lon="9.831522412540503"><ele>135.0</ele><time>2026-04-06T16:44:27Z</time></trkpt><trkpt lat="45.53588430312129" lon="9.831352585706256"><ele>135.0</ele><time>2026-04-06T16:44:28Z</time></trkpt><trkpt lat="45.536142632691025" lon="9.831187000613403"><ele>135.0</ele><time>2026-04-06T16:44:29Z</time></trkpt><trkpt lat="45.53639271887479" lon="9.831030173349328"><ele>135.5</ele><time>2026-04-06T16:44:30Z</time></trkpt><trkpt lat="45.53662756359585" lon="9.83087913428435"><ele>136.0</ele><time>2026-04-06T16:44:31Z</time></trkpt><trkpt lat="45.53686109731214" lon="9.830727428318742"><ele>136.0</ele><time>2026-04-06T16:44:32Z</time></trkpt><trkpt lat="45.53709095339985" lon="9.830571990838381"><ele>136.0</ele><time>2026-04-06T16:44:33Z</time></trkpt><trkpt lat="45.53731299967551" lon="9.830413880740922"><ele>136.0</ele><time>2026-04-06T16:44:34Z</time></trkpt><trkpt lat="45.53753259541728" lon="9.830249524072366"><ele>136.0</ele><time>2026-04-06T16:44:35Z</time></trkpt><trkpt lat="45.53773816296288" lon="9.830086230344062"><ele>136.0</ele><time>2026-04-06T16:44:36Z</time></trkpt><trkpt lat="45.537931666371186" lon="9.829948019347832"><ele>136.0</ele><time>2026-04-06T16:44:37Z</time></trkpt><trkpt lat="45.538111995302636" lon="9.829815109991788"><ele>136.0</ele><time>2026-04-06T16:44:38Z</time></trkpt><trkpt lat="45.53827900883526" lon="9.82968499845685"><ele>136.0</ele><time>2026-04-06T16:44:39Z</time></trkpt><trkpt lat="45.53843687950449" lon="9.829560174414347"><ele>136.0</ele><time>2026-04-06T16:44:40Z</time></trkpt><trkpt lat="45.538591587397725" lon="9.829443326221021"><ele>136.0</ele><time>2026-04-06T16:44:41Z</time></trkpt><trkpt lat="45.53872996362328" lon="9.829330099409406"><ele>136.25</ele><time>2026-04-06T16:44:42Z</time></trkpt><trkpt lat="45.53884227773415" lon="9.829235167326125"><ele>136.5</ele><time>2026-04-06T16:44:43Z</time></trkpt><trkpt lat="45.53894928593375" lon="9.829143688714014"><ele>136.75</ele><time>2026-04-06T16:44:44Z</time></trkpt><trkpt lat="45.53904747843606" lon="9.829069184335701"><ele>137.0</ele><time>2026-04-06T16:44:45Z</time></trkpt><trkpt lat="45.53914520469857" lon="9.828996538383581"><ele>137.0</ele><time>2026-04-06T16:44:46Z</time></trkpt><trkpt lat="45.53924082841798" lon="9.828941164964874"><ele>137.0</ele><time>2026-04-06T16:44:47Z</time></trkpt><trkpt lat="45.53934938621174" lon="9.828934773070884"><ele>137.0</ele><time>2026-04-06T16:44:48Z</time></trkpt><trkpt lat="45.53944266964805" lon="9.828975792340952"><ele>137.0</ele><time>2026-04-06T16:44:49Z</time></trkpt><trkpt lat="45.539541334074855" lon="9.828991033614065"><ele>137.0</ele><time>2026-04-06T16:44:50Z</time></trkpt><trkpt lat="45.539640003497105" lon="9.828933339256274"><ele>137.0</ele><time>2026-04-06T16:44:51Z</time></trkpt><trkpt lat="45.53971684498479" lon="9.82882203530085"><ele>137.0</ele><time>2026-04-06T16:44:52Z</time></trkpt><trkpt lat="45.539761897665436" lon="9.828653009956708"><ele>137.0</ele><time>2026-04-06T16:44:53Z</time></trkpt><trkpt lat="45.5397326967841" lon="9.828482027906265"><ele>137.0</ele><time>2026-04-06T16:44:54Z</time></trkpt><trkpt lat="45.53988031322641" lon="9.828354561956779"><ele>137.0</ele><time>2026-04-06T16:44:55.001Z</time></trkpt><trkpt lat="45.53999608830873" lon="9.828249935881441"><ele>137.0</ele><time>2026-04-06T16:44:56.001Z</time></trkpt><trkpt lat="45.540124974872676" lon="9.828137456238306"><ele>137.0</ele><time>2026-04-06T16:44:57.001Z</time></trkpt><trkpt lat="45.540256788845085" lon="9.828024091450557"><ele>137.0</ele><time>2026-04-06T16:44:58.001Z</time></trkpt><trkpt lat="45.54040243429589" lon="9.827891532563541"><ele>137.0</ele><time>2026-04-06T16:44:59.001Z</time></trkpt><trkpt lat="45.54054664521026" lon="9.827749885672597"><ele>137.0</ele><time>2026-04-06T16:45:00.001Z</time></trkpt><trkpt lat="45.54069928626266" lon="9.827609661629678"><ele>137.0</ele><time>2026-04-06T16:45:01.001Z</time></trkpt><trkpt lat="45.54085222247463" lon="9.827459646276878"><ele>137.0</ele><time>2026-04-06T16:45:02.001Z</time></trkpt><trkpt lat="45.54101697384079" lon="9.82729429800908"><ele>137.0</ele><time>2026-04-06T16:45:03.001Z</time></trkpt><trkpt lat="45.541179126022804" lon="9.827129272899043"><ele>137.0</ele><time>2026-04-06T16:45:04.001Z</time></trkpt><trkpt lat="45.541356982134396" lon="9.82695579619058"><ele>136.66666666666666</ele><time>2026-04-06T16:45:05.001Z</time></trkpt><trkpt lat="45.54153354659676" lon="9.826790958167427"><ele>136.33333333333334</ele><time>2026-04-06T16:45:06.001Z</time></trkpt><trkpt lat="45.54171402248744" lon="9.826636462883677"><ele>136.0</ele><time>2026-04-06T16:45:07.001Z</time></trkpt><trkpt lat="45.541892646324314" lon="9.82647613424278"><ele>136.33333333333334</ele><time>2026-04-06T16:45:08.001Z</time></trkpt><trkpt lat="45.542081673134305" lon="9.826312178282603"><ele>136.66666666666666</ele><time>2026-04-06T16:45:09.001Z</time></trkpt><trkpt lat="45.542273459245116" lon="9.8261362105719"><ele>137.0</ele><time>2026-04-06T16:45:10.001Z</time></trkpt><trkpt lat="45.54248155577338" lon="9.825973762921281"><ele>137.0</ele><time>2026-04-06T16:45:11.001Z</time></trkpt><trkpt lat="45.54269255258661" lon="9.825815872640915"><ele>137.0</ele><time>2026-04-06T16:45:12.001Z</time></trkpt><trkpt lat="45.5429053434646" lon="9.825664023752385"><ele>137.0</ele><time>2026-04-06T16:45:13.001Z</time></trkpt><trkpt lat="45.543113278878174" lon="9.82551261146838"><ele>137.0</ele><time>2026-04-06T16:45:14.001Z</time></trkpt><trkpt lat="45.54333414034074" lon="9.82535582676572"><ele>137.0</ele><time>2026-04-06T16:45:15.001Z</time></trkpt><trkpt lat="45.54355318222876" lon="9.825194916228726"><ele>137.0</ele><time>2026-04-06T16:45:16.001Z</time></trkpt><trkpt lat="45.54377949720425" lon="9.82503859533951"><ele>137.5</ele><time>2026-04-06T16:45:17.001Z</time></trkpt><trkpt lat="45.544006041600355" lon="9.82489482975383"><ele>138.0</ele><time>2026-04-06T16:45:18.001Z</time></trkpt><trkpt lat="45.544233015807976" lon="9.824757929282727"><ele>138.0</ele><time>2026-04-06T16:45:19.001Z</time></trkpt><trkpt lat="45.54446135869035" lon="9.82462078729434"><ele>138.0</ele><time>2026-04-06T16:45:20.001Z</time></trkpt><trkpt lat="45.54468964400721" lon="9.824484649397503"><ele>138.0</ele><time>2026-04-06T16:45:21.001Z</time></trkpt><trkpt lat="45.544914063367564" lon="9.82435272386887"><ele>138.0</ele><time>2026-04-06T16:45:22.001Z</time></trkpt><trkpt lat="45.54513587887009" lon="9.824240463694984"><ele>138.0</ele><time>2026-04-06T16:45:23.001Z</time></trkpt><trkpt lat="45.545353550486986" lon="9.824143607940519"><ele>138.0</ele><time>2026-04-06T16:45:24.001Z</time></trkpt><trkpt lat="45.54556134562194" lon="9.824042060921965"><ele>138.0</ele><time>2026-04-06T16:45:25.001Z</time></trkpt><trkpt lat="45.545761134329325" lon="9.823941811749757"><ele>138.0</ele><time>2026-04-06T16:45:26.001Z</time></trkpt><trkpt lat="45.54595579542005" lon="9.823849187671428"><ele>138.0</ele><time>2026-04-06T16:45:27.001Z</time></trkpt><trkpt lat="45.54614320002953" lon="9.82378102757869"><ele>138.0</ele><time>2026-04-06T16:45:28.001Z</time></trkpt><trkpt lat="45.54632945923394" lon="9.823720598978802"><ele>138.0</ele><time>2026-04-06T16:45:29.001Z</time></trkpt><trkpt lat="45.5465026182659" lon="9.823658574307876"><ele>138.0</ele><time>2026-04-06T16:45:30.001Z</time></trkpt><trkpt lat="45.54666894179165" lon="9.823595231751131"><ele>138.0</ele><time>2026-04-06T16:45:31.001Z</time></trkpt><trkpt lat="45.54682096055169" lon="9.82353928710912"><ele>138.0</ele><time>2026-04-06T16:45:32.001Z</time></trkpt><trkpt lat="45.546972028785774" lon="9.823480828814091"><ele>138.0</ele><time>2026-04-06T16:45:33.001Z</time></trkpt><trkpt lat="45.54712169561641" lon="9.82342433953901"><ele>138.0</ele><time>2026-04-06T16:45:34.001Z</time></trkpt><trkpt lat="45.54725338507889" lon="9.823368548963503"><ele>138.0</ele><time>2026-04-06T16:45:35.001Z</time></trkpt><trkpt lat="45.54738331588889" lon="9.823321623900963"><ele>137.75</ele><time>2026-04-06T16:45:36.001Z</time></trkpt><trkpt lat="45.547503805458874" lon="9.8232830183501"><ele>137.5</ele><time>2026-04-06T16:45:37.001Z</time></trkpt><trkpt lat="45.54761955464508" lon="9.823258114663908"><ele>137.25</ele><time>2026-04-06T16:45:38.001Z</time></trkpt><trkpt lat="45.54773264187957" lon="9.823285554306485"><ele>137.0</ele><time>2026-04-06T16:45:39.001Z</time></trkpt><trkpt lat="45.54783944352033" lon="9.823367164639548"><ele>137.25</ele><time>2026-04-06T16:45:40.001Z</time></trkpt><trkpt lat="45.54794146816173" lon="9.823468494357458"><ele>137.5</ele><time>2026-04-06T16:45:41.001Z</time></trkpt><trkpt lat="45.54802403095792" lon="9.823587730329717"><ele>137.75</ele><time>2026-04-06T16:45:42.001Z</time></trkpt><trkpt lat="45.54808508745849" lon="9.82374390835848"><ele>138.0</ele><time>2026-04-06T16:45:43.001Z</time></trkpt><trkpt lat="45.54810581834851" lon="9.823927225192566"><ele>138.75</ele><time>2026-04-06T16:45:44.001Z</time></trkpt><trkpt lat="45.5481424309389" lon="9.824119096268955"><ele>139.5</ele><time>2026-04-06T16:45:45.001Z</time></trkpt><trkpt lat="45.548169354306765" lon="9.824322484030718"><ele>140.25</ele><time>2026-04-06T16:45:46.001Z</time></trkpt><trkpt lat="45.548208530596895" lon="9.824548436838011"><ele>141.0</ele><time>2026-04-06T16:45:47.001Z</time></trkpt><trkpt lat="45.54825610195729" lon="9.824798666695406"><ele>141.0</ele><time>2026-04-06T16:45:48.001Z</time></trkpt><trkpt lat="45.548307968370544" lon="9.825051906164648"><ele>141.0</ele><time>2026-04-06T16:45:49.001Z</time></trkpt><trkpt lat="45.54835618255216" lon="9.825312041564775"><ele>141.0</ele><time>2026-04-06T16:45:50.001Z</time></trkpt><trkpt lat="45.54841659068641" lon="9.82557292131938"><ele>140.66666666666666</ele><time>2026-04-06T16:45:51.001Z</time></trkpt><trkpt lat="45.54848378582672" lon="9.825844023958549"><ele>140.33333333333331</ele><time>2026-04-06T16:45:52.001Z</time></trkpt><trkpt lat="45.5485530671741" lon="9.826132187713362"><ele>140.0</ele><time>2026-04-06T16:45:53Z</time></trkpt><trkpt lat="45.54862865820726" lon="9.826420641168982"><ele>140.0</ele><time>2026-04-06T16:45:54Z</time></trkpt><trkpt lat="45.548705644044226" lon="9.826689271826515"><ele>140.0</ele><time>2026-04-06T16:45:55Z</time></trkpt><trkpt lat="45.548786036604874" lon="9.826960637763984"><ele>140.0</ele><time>2026-04-06T16:45:56Z</time></trkpt><trkpt lat="45.548864674011085" lon="9.827221305605374"><ele>140.0</ele><time>2026-04-06T16:45:57Z</time></trkpt><trkpt lat="45.548943790628186" lon="9.827468644323943"><ele>140.0</ele><time>2026-04-06T16:45:58Z</time></trkpt><trkpt lat="45.54902656688033" lon="9.827712656166"><ele>140.0</ele><time>2026-04-06T16:45:59Z</time></trkpt><trkpt lat="45.549106584753574" lon="9.827954377349027"><ele>140.0</ele><time>2026-04-06T16:46:00Z</time></trkpt><trkpt lat="45.54918763664425" lon="9.828181838514062"><ele>140.0</ele><time>2026-04-06T16:46:01Z</time></trkpt><trkpt lat="45.54927050744107" lon="9.828414168971445"><ele>140.0</ele><time>2026-04-06T16:46:02Z</time></trkpt><trkpt lat="45.5493494063799" lon="9.828638919887068"><ele>140.0</ele><time>2026-04-06T16:46:03Z</time></trkpt><trkpt lat="45.549428581936546" lon="9.828857327708914"><ele>140.0</ele><time>2026-04-06T16:46:04Z</time></trkpt><trkpt lat="45.549508285438584" lon="9.82905142268841"><ele>140.0</ele><time>2026-04-06T16:46:05Z</time></trkpt><trkpt lat="45.54957807551621" lon="9.82924506522742"><ele>140.66666666666666</ele><time>2026-04-06T16:46:06Z</time></trkpt><trkpt lat="45.54964102419112" lon="9.829435474694579"><ele>141.33333333333334</ele><time>2026-04-06T16:46:07Z</time></trkpt><trkpt lat="45.549715471771314" lon="9.829641952622703"><ele>142.0</ele><time>2026-04-06T16:46:08Z</time></trkpt><trkpt lat="45.54979455662117" lon="9.829860606304482"><ele>142.0</ele><time>2026-04-06T16:46:09Z</time></trkpt><trkpt lat="45.54987297761975" lon="9.83008881068333"><ele>142.0</ele><time>2026-04-06T16:46:10Z</time></trkpt><trkpt lat="45.54996050854983" lon="9.830320967733966"><ele>142.0</ele><time>2026-04-06T16:46:11Z</time></trkpt><trkpt lat="45.55004492661334" lon="9.830556411947425"><ele>142.0</ele><time>2026-04-06T16:46:12Z</time></trkpt><trkpt lat="45.550128838461056" lon="9.830794923557166"><ele>142.0</ele><time>2026-04-06T16:46:13Z</time></trkpt><trkpt lat="45.55021328316912" lon="9.831031328347816"><ele>142.0</ele><time>2026-04-06T16:46:14Z</time></trkpt><trkpt lat="45.55029709034322" lon="9.831263222596377"><ele>142.0</ele><time>2026-04-06T16:46:15Z</time></trkpt><trkpt lat="45.550380842446636" lon="9.831486717980104"><ele>142.0</ele><time>2026-04-06T16:46:16Z</time></trkpt><trkpt lat="45.5504613676605" lon="9.83170255461546"><ele>142.0</ele><time>2026-04-06T16:46:17Z</time></trkpt><trkpt lat="45.550534376515124" lon="9.831906701370507"><ele>142.0</ele><time>2026-04-06T16:46:18Z</time></trkpt><trkpt lat="45.55059983080629" lon="9.832094140044056"><ele>142.0</ele><time>2026-04-06T16:46:19Z</time></trkpt><trkpt lat="45.550673883027976" lon="9.832280204659602"><ele>142.0</ele><time>2026-04-06T16:46:20Z</time></trkpt><trkpt lat="45.55074300897643" lon="9.832449261981605"><ele>142.0</ele><time>2026-04-06T16:46:21Z</time></trkpt><trkpt lat="45.55080025097568" lon="9.832606913494466"><ele>141.5</ele><time>2026-04-06T16:46:22Z</time></trkpt><trkpt lat="45.55084905699386" lon="9.832744265234743"><ele>141.0</ele><time>2026-04-06T16:46:23Z</time></trkpt><trkpt lat="45.550890738681645" lon="9.832872617298626"><ele>140.5</ele><time>2026-04-06T16:46:24Z</time></trkpt><trkpt lat="45.55092426500658" lon="9.832984976929104"><ele>140.0</ele><time>2026-04-06T16:46:25Z</time></trkpt><trkpt lat="45.550954914670825" lon="9.833089923453077"><ele>139.5</ele><time>2026-04-06T16:46:26Z</time></trkpt><trkpt lat="45.5509771246513" lon="9.833183676045202"><ele>139.0</ele><time>2026-04-06T16:46:27Z</time></trkpt><trkpt lat="45.55098687609378" lon="9.833273423445952"><ele>139.0</ele><time>2026-04-06T16:46:28Z</time></trkpt><trkpt lat="45.551051288539696" lon="9.833428719872302"><ele>139.0</ele><time>2026-04-06T16:46:30Z</time></trkpt><trkpt lat="45.55113494219074" lon="9.833446417621444"><ele>139.0</ele><time>2026-04-06T16:46:31Z</time></trkpt><trkpt lat="45.55123880761201" lon="9.833445005345949"><ele>139.0</ele><time>2026-04-06T16:46:32Z</time></trkpt><trkpt lat="45.55133983592731" lon="9.833434514350492"><ele>139.0</ele><time>2026-04-06T16:46:33Z</time></trkpt><trkpt lat="45.55145202319455" lon="9.833430090886674"><ele>139.25</ele><time>2026-04-06T16:46:34Z</time></trkpt><trkpt lat="45.55157349881502" lon="9.83342158406825"><ele>139.5</ele><time>2026-04-06T16:46:35Z</time></trkpt><trkpt lat="45.55169533588845" lon="9.833410368492974"><ele>139.75</ele><time>2026-04-06T16:46:36Z</time></trkpt><trkpt lat="45.55182224603102" lon="9.833394823419132"><ele>140.0</ele><time>2026-04-06T16:46:37Z</time></trkpt><trkpt lat="45.55195602096923" lon="9.833380973489605"><ele>141.25</ele><time>2026-04-06T16:46:38Z</time></trkpt><trkpt lat="45.55209179739223" lon="9.833371527741534"><ele>142.5</ele><time>2026-04-06T16:46:39Z</time></trkpt><trkpt lat="45.55222294560767" lon="9.833375461224577"><ele>143.75</ele><time>2026-04-06T16:46:40Z</time></trkpt><trkpt lat="45.552352545057644" lon="9.833372951053725"><ele>145.0</ele><time>2026-04-06T16:46:41Z</time></trkpt><trkpt lat="45.5524763115342" lon="9.833367651318484"><ele>145.0</ele><time>2026-04-06T16:46:42Z</time></trkpt><trkpt lat="45.55259446724787" lon="9.833334785145693"><ele>145.0</ele><time>2026-04-06T16:46:43Z</time></trkpt><trkpt lat="45.55271290286635" lon="9.833308802972864"><ele>145.0</ele><time>2026-04-06T16:46:44Z</time></trkpt><trkpt lat="45.55282563834783" lon="9.833302139591279"><ele>145.0</ele><time>2026-04-06T16:46:45Z</time></trkpt><trkpt lat="45.5529335541107" lon="9.833303196730297"><ele>145.4</ele><time>2026-04-06T16:46:46Z</time></trkpt><trkpt lat="45.553037215409034" lon="9.8333191340979"><ele>145.8</ele><time>2026-04-06T16:46:47Z</time></trkpt><trkpt lat="45.55313671365891" lon="9.833326809120535"><ele>146.2</ele><time>2026-04-06T16:46:48Z</time></trkpt><trkpt lat="45.553229776930785" lon="9.833291197293695"><ele>146.6</ele><time>2026-04-06T16:46:49Z</time></trkpt><trkpt lat="45.55331882577506" lon="9.833274421493288"><ele>147.0</ele><time>2026-04-06T16:46:50Z</time></trkpt><trkpt lat="45.55342164296415" lon="9.833259197463349"><ele>147.0</ele><time>2026-04-06T16:46:51Z</time></trkpt><trkpt lat="45.553524511274176" lon="9.83323440262502"><ele>147.0</ele><time>2026-04-06T16:46:52Z</time></trkpt><trkpt lat="45.553630553651594" lon="9.833206133029506"><ele>147.0</ele><time>2026-04-06T16:46:53Z</time></trkpt><trkpt lat="45.55373472062914" lon="9.833182686489192"><ele>147.0</ele><time>2026-04-06T16:46:54Z</time></trkpt><trkpt lat="45.55383221943293" lon="9.833162890341926"><ele>147.0</ele><time>2026-04-06T16:46:55Z</time></trkpt><trkpt lat="45.55391753603279" lon="9.833163788217432"><ele>147.6</ele><time>2026-04-06T16:46:56Z</time></trkpt><trkpt lat="45.55400076096096" lon="9.833125214757413"><ele>148.2</ele><time>2026-04-06T16:46:57.001Z</time></trkpt><trkpt lat="45.55410006277275" lon="9.833059938164215"><ele>148.8</ele><time>2026-04-06T16:46:58.001Z</time></trkpt><trkpt lat="45.55419776401322" lon="9.832959433122817"><ele>149.4</ele><time>2026-04-06T16:46:59.001Z</time></trkpt><trkpt lat="45.55429671839014" lon="9.83284787318768"><ele>150.0</ele><time>2026-04-06T16:47:00.001Z</time></trkpt><trkpt lat="45.554381593963726" lon="9.832732252295335"><ele>150.0</ele><time>2026-04-06T16:47:01.001Z</time></trkpt><trkpt lat="45.55445318102084" lon="9.832633727606071"><ele>150.0</ele><time>2026-04-06T16:47:02.001Z</time></trkpt><trkpt lat="45.55453268735642" lon="9.832558129437682"><ele>150.0</ele><time>2026-04-06T16:47:03.001Z</time></trkpt><trkpt lat="45.554615006557746" lon="9.832509419184941"><ele>150.0</ele><time>2026-04-06T16:47:04.001Z</time></trkpt><trkpt lat="45.55469567955228" lon="9.832489669265588"><ele>150.0</ele><time>2026-04-06T16:47:05.001Z</time></trkpt><trkpt lat="45.554758443207405" lon="9.83247179931077"><ele>150.0</ele><time>2026-04-06T16:47:06.001Z</time></trkpt><trkpt lat="45.55483538081697" lon="9.83249554702141"><ele>150.0</ele><time>2026-04-06T16:47:08.001Z</time></trkpt><trkpt lat="45.55483726359805" lon="9.832367312367316"><ele>150.0</ele><time>2026-04-06T16:47:10.001Z</time></trkpt><trkpt lat="45.55481715829998" lon="9.832200739657292"><ele>150.0</ele><time>2026-04-06T16:47:12.001Z</time></trkpt><trkpt lat="45.55480422296592" lon="9.83210626628314"><ele>150.0</ele><time>2026-04-06T16:47:14.001Z</time></trkpt><trkpt lat="45.55489515091944" lon="9.832099772856969"><ele>150.0</ele><time>2026-04-06T16:47:15.001Z</time></trkpt><trkpt lat="45.55496997490831" lon="9.832060288650554"><ele>150.0</ele><time>2026-04-06T16:47:16.001Z</time></trkpt><trkpt lat="45.55504538250912" lon="9.832050398200908"><ele>150.0</ele><time>2026-04-06T16:47:17.001Z</time></trkpt><trkpt lat="45.55512654881727" lon="9.832051353237173"><ele>150.0</ele><time>2026-04-06T16:47:18.001Z</time></trkpt><trkpt lat="45.55520037798015" lon="9.832036168926109"><ele>150.0</ele><time>2026-04-06T16:47:19.001Z</time></trkpt><trkpt lat="45.5553048573186" lon="9.832016075325855"><ele>150.0</ele><time>2026-04-06T16:47:21.001Z</time></trkpt><trkpt lat="45.55541280917639" lon="9.831985300933194"><ele>150.0</ele><time>2026-04-06T16:47:23.001Z</time></trkpt><trkpt lat="45.55548806218226" lon="9.831977083334356"><ele>150.0</ele><time>2026-04-06T16:47:24.001Z</time></trkpt><trkpt lat="45.555554812413945" lon="9.831951362318074"><ele>150.0</ele><time>2026-04-06T16:47:25.001Z</time></trkpt><trkpt lat="45.55562072638942" lon="9.831931050110091"><ele>150.0</ele><time>2026-04-06T16:47:26.001Z</time></trkpt><trkpt lat="45.55573486272886" lon="9.831945227043665"><ele>150.0</ele><time>2026-04-06T16:47:28.001Z</time></trkpt><trkpt lat="45.55583250904904" lon="9.831917572694707"><ele>150.0</ele><time>2026-04-06T16:47:31.001Z</time></trkpt><trkpt lat="45.55576752310222" lon="9.831862911443608"><ele>150.0</ele><time>2026-04-06T16:47:33.001Z</time></trkpt><trkpt lat="45.55555859119338" lon="9.831885966314138"><ele>149.6</ele><time>2026-04-06T16:47:38.001Z</time></trkpt><trkpt lat="45.55548565364711" lon="9.831781071276401"><ele>149.2</ele><time>2026-04-06T16:47:40.001Z</time></trkpt><trkpt lat="45.55550007258905" lon="9.831609366401137"><ele>148.8</ele><time>2026-04-06T16:47:42.001Z</time></trkpt><trkpt lat="45.55544846955907" lon="9.831529299171335"><ele>148.4</ele><time>2026-04-06T16:47:44.001Z</time></trkpt><trkpt lat="45.555344118386316" lon="9.831556335012964"><ele>148.0</ele><time>2026-04-06T16:47:46.001Z</time></trkpt><trkpt lat="45.555273622970425" lon="9.831585033503853"><ele>148.0</ele><time>2026-04-06T16:47:47.001Z</time></trkpt><trkpt lat="45.555190998692844" lon="9.831613940435263"><ele>148.0</ele><time>2026-04-06T16:47:48.001Z</time></trkpt><trkpt lat="45.55510167663002" lon="9.831634317330824"><ele>148.0</ele><time>2026-04-06T16:47:49.001Z</time></trkpt><trkpt lat="45.55501868455979" lon="9.83166028188333"><ele>148.0</ele><time>2026-04-06T16:47:50.001Z</time></trkpt><trkpt lat="45.554938625577485" lon="9.831678701744506"><ele>148.0</ele><time>2026-04-06T16:47:51.001Z</time></trkpt><trkpt lat="45.554875003464055" lon="9.831695430103167"><ele>148.0</ele><time>2026-04-06T16:47:52.001Z</time></trkpt><trkpt lat="45.5547583633193" lon="9.831719378505161"><ele>148.0</ele><time>2026-04-06T16:47:54.001Z</time></trkpt><trkpt lat="45.55465813436589" lon="9.831736857629041"><ele>148.0</ele><time>2026-04-06T16:47:56.001Z</time></trkpt><trkpt lat="45.55462410971173" lon="9.831862842973045"><ele>148.0</ele><time>2026-04-06T16:48:01Z</time></trkpt><trkpt lat="45.55468738303379" lon="9.832001926885527"><ele>148.0</ele><time>2026-04-06T16:48:03Z</time></trkpt><trkpt lat="45.5547245379777" lon="9.832081063570827"><ele>148.0</ele><time>2026-04-06T16:48:04Z</time></trkpt><trkpt lat="45.55476201393499" lon="9.832162840861274"><ele>148.0</ele><time>2026-04-06T16:48:05Z</time></trkpt><trkpt lat="45.554786036249304" lon="9.8322470694465"><ele>148.20000000000002</ele><time>2026-04-06T16:48:06Z</time></trkpt><trkpt lat="45.55478095929081" lon="9.832342741422826"><ele>148.4</ele><time>2026-04-06T16:48:07Z</time></trkpt><trkpt lat="45.554667448152436" lon="9.832432652453543"><ele>148.60000000000002</ele><time>2026-04-06T16:48:09Z</time></trkpt><trkpt lat="45.55457987188546" lon="9.832454586494496"><ele>148.8</ele><time>2026-04-06T16:48:10Z</time></trkpt><trkpt lat="45.55449810156278" lon="9.832493510484737"><ele>149.0</ele><time>2026-04-06T16:48:11Z</time></trkpt><trkpt lat="45.554409372493495" lon="9.832570006782491"><ele>149.0</ele><time>2026-04-06T16:48:12Z</time></trkpt><trkpt lat="45.55432151085729" lon="9.832654715452747"><ele>150.0</ele><time>2026-04-06T16:48:13Z</time></trkpt><trkpt lat="45.554265464714376" lon="9.832736895285919"><ele>150.0</ele><time>2026-04-06T16:48:14Z</time></trkpt><trkpt lat="45.55421189081622" lon="9.832808340758321"><ele>150.0</ele><time>2026-04-06T16:48:15Z</time></trkpt><trkpt lat="45.55412821323168" lon="9.832913235252661"><ele>150.0</ele><time>2026-04-06T16:48:17Z</time></trkpt><trkpt lat="45.554087556311906" lon="9.832991031891716"><ele>150.0</ele><time>2026-04-06T16:48:19Z</time></trkpt></trkseg></trk></gpx>